<?xml version="1.0" encoding="UTF-8" standalone="no" ?>
<gpx xmlns="http://www.topografix.com/GPX/1/1" xmlns:xsi="http://www.w3.org/2001/XMLSchema-instance" xsi:schemaLocation="http://www.topografix.com/GPX/1/1 http://www.topografix.com/GPX/1/1/gpx.xsd" version="1.1" creator="VisuGPX - https://www.visugpx.com">
  <metadata>
    <name>berge du Crieu</name>
    <desc><![CDATA[d'abord la remontée du Crieu avec balade dans les collines. Pas de difficultés, montées courtes.]]></desc>
  </metadata>
  <trk>
    <name><![CDATA[2019-02-13-01_berge_crieu_crete_cenant]]></name>
    <trkseg>
      <trkpt lat="43.11629" lon="1.63196">
        <ele>292.1</ele>
        <time>2019-02-13T09:19:34Z</time>
      </trkpt>
      <trkpt lat="43.11629" lon="1.63196">
        <ele>291.9</ele>
        <time>2019-02-13T09:19:35Z</time>
      </trkpt>
      <trkpt lat="43.11619" lon="1.63196">
        <ele>298.4</ele>
        <time>2019-02-13T09:21:34Z</time>
      </trkpt>
      <trkpt lat="43.11611" lon="1.63189">
        <ele>298.3</ele>
        <time>2019-02-13T09:21:37Z</time>
      </trkpt>
      <trkpt lat="43.11602" lon="1.63178">
        <ele>298</ele>
        <time>2019-02-13T09:21:40Z</time>
      </trkpt>
      <trkpt lat="43.11593" lon="1.63166">
        <ele>297.8</ele>
        <time>2019-02-13T09:21:43Z</time>
      </trkpt>
      <trkpt lat="43.11583" lon="1.63154">
        <ele>297.6</ele>
        <time>2019-02-13T09:21:46Z</time>
      </trkpt>
      <trkpt lat="43.11576" lon="1.63146">
        <ele>297.4</ele>
        <time>2019-02-13T09:21:48Z</time>
      </trkpt>
      <trkpt lat="43.11569" lon="1.63137">
        <ele>297.1</ele>
        <time>2019-02-13T09:21:50Z</time>
      </trkpt>
      <trkpt lat="43.11557" lon="1.63128">
        <ele>296.9</ele>
        <time>2019-02-13T09:21:53Z</time>
      </trkpt>
      <trkpt lat="43.11548" lon="1.63124">
        <ele>296.8</ele>
        <time>2019-02-13T09:21:55Z</time>
      </trkpt>
      <trkpt lat="43.1154" lon="1.6312">
        <ele>296.7</ele>
        <time>2019-02-13T09:21:57Z</time>
      </trkpt>
      <trkpt lat="43.11529" lon="1.63122">
        <ele>296.4</ele>
        <time>2019-02-13T09:22:00Z</time>
      </trkpt>
      <trkpt lat="43.11525" lon="1.63134">
        <ele>296</ele>
        <time>2019-02-13T09:22:02Z</time>
      </trkpt>
      <trkpt lat="43.11522" lon="1.63147">
        <ele>295.8</ele>
        <time>2019-02-13T09:22:04Z</time>
      </trkpt>
      <trkpt lat="43.11519" lon="1.63161">
        <ele>295.6</ele>
        <time>2019-02-13T09:22:06Z</time>
      </trkpt>
      <trkpt lat="43.11517" lon="1.63175">
        <ele>295.6</ele>
        <time>2019-02-13T09:22:08Z</time>
      </trkpt>
      <trkpt lat="43.11514" lon="1.63189">
        <ele>295.7</ele>
        <time>2019-02-13T09:22:10Z</time>
      </trkpt>
      <trkpt lat="43.11512" lon="1.63203">
        <ele>295.8</ele>
        <time>2019-02-13T09:22:12Z</time>
      </trkpt>
      <trkpt lat="43.1151" lon="1.63217">
        <ele>295.9</ele>
        <time>2019-02-13T09:22:14Z</time>
      </trkpt>
      <trkpt lat="43.11509" lon="1.63231">
        <ele>296</ele>
        <time>2019-02-13T09:22:16Z</time>
      </trkpt>
      <trkpt lat="43.11508" lon="1.63245">
        <ele>296.1</ele>
        <time>2019-02-13T09:22:18Z</time>
      </trkpt>
      <trkpt lat="43.11508" lon="1.63258">
        <ele>296</ele>
        <time>2019-02-13T09:22:20Z</time>
      </trkpt>
      <trkpt lat="43.11508" lon="1.63272">
        <ele>295.7</ele>
        <time>2019-02-13T09:22:22Z</time>
      </trkpt>
      <trkpt lat="43.11509" lon="1.63286">
        <ele>295.3</ele>
        <time>2019-02-13T09:22:24Z</time>
      </trkpt>
      <trkpt lat="43.1151" lon="1.633">
        <ele>294.8</ele>
        <time>2019-02-13T09:22:26Z</time>
      </trkpt>
      <trkpt lat="43.11511" lon="1.63315">
        <ele>294.4</ele>
        <time>2019-02-13T09:22:28Z</time>
      </trkpt>
      <trkpt lat="43.11503" lon="1.63326">
        <ele>294.2</ele>
        <time>2019-02-13T09:22:30Z</time>
      </trkpt>
      <trkpt lat="43.11492" lon="1.63326">
        <ele>294.2</ele>
        <time>2019-02-13T09:22:32Z</time>
      </trkpt>
      <trkpt lat="43.11481" lon="1.63325">
        <ele>294.7</ele>
        <time>2019-02-13T09:22:34Z</time>
      </trkpt>
      <trkpt lat="43.1147" lon="1.63328">
        <ele>295.5</ele>
        <time>2019-02-13T09:22:36Z</time>
      </trkpt>
      <trkpt lat="43.11459" lon="1.63332">
        <ele>296.1</ele>
        <time>2019-02-13T09:22:38Z</time>
      </trkpt>
      <trkpt lat="43.11448" lon="1.63335">
        <ele>296.7</ele>
        <time>2019-02-13T09:22:40Z</time>
      </trkpt>
      <trkpt lat="43.11437" lon="1.63338">
        <ele>297.3</ele>
        <time>2019-02-13T09:22:42Z</time>
      </trkpt>
      <trkpt lat="43.11427" lon="1.63343">
        <ele>297.7</ele>
        <time>2019-02-13T09:22:44Z</time>
      </trkpt>
      <trkpt lat="43.11417" lon="1.63351">
        <ele>298</ele>
        <time>2019-02-13T09:22:46Z</time>
      </trkpt>
      <trkpt lat="43.11409" lon="1.63361">
        <ele>298.2</ele>
        <time>2019-02-13T09:22:48Z</time>
      </trkpt>
      <trkpt lat="43.11398" lon="1.63366">
        <ele>298.4</ele>
        <time>2019-02-13T09:22:50Z</time>
      </trkpt>
      <trkpt lat="43.11388" lon="1.63366">
        <ele>298.8</ele>
        <time>2019-02-13T09:22:52Z</time>
      </trkpt>
      <trkpt lat="43.11377" lon="1.63366">
        <ele>299.2</ele>
        <time>2019-02-13T09:22:54Z</time>
      </trkpt>
      <trkpt lat="43.11367" lon="1.63365">
        <ele>299.4</ele>
        <time>2019-02-13T09:22:56Z</time>
      </trkpt>
      <trkpt lat="43.11357" lon="1.63365">
        <ele>299.5</ele>
        <time>2019-02-13T09:22:58Z</time>
      </trkpt>
      <trkpt lat="43.11346" lon="1.63364">
        <ele>299.5</ele>
        <time>2019-02-13T09:23:00Z</time>
      </trkpt>
      <trkpt lat="43.11335" lon="1.63364">
        <ele>299.3</ele>
        <time>2019-02-13T09:23:02Z</time>
      </trkpt>
      <trkpt lat="43.11325" lon="1.63364">
        <ele>299.2</ele>
        <time>2019-02-13T09:23:04Z</time>
      </trkpt>
      <trkpt lat="43.11315" lon="1.63364">
        <ele>299.3</ele>
        <time>2019-02-13T09:23:06Z</time>
      </trkpt>
      <trkpt lat="43.11306" lon="1.63366">
        <ele>299.4</ele>
        <time>2019-02-13T09:23:08Z</time>
      </trkpt>
      <trkpt lat="43.113" lon="1.63375">
        <ele>299.3</ele>
        <time>2019-02-13T09:23:10Z</time>
      </trkpt>
      <trkpt lat="43.113" lon="1.63389">
        <ele>298.9</ele>
        <time>2019-02-13T09:23:12Z</time>
      </trkpt>
      <trkpt lat="43.11299" lon="1.63404">
        <ele>298.5</ele>
        <time>2019-02-13T09:23:14Z</time>
      </trkpt>
      <trkpt lat="43.113" lon="1.63419">
        <ele>298.2</ele>
        <time>2019-02-13T09:23:16Z</time>
      </trkpt>
      <trkpt lat="43.113" lon="1.63434">
        <ele>298</ele>
        <time>2019-02-13T09:23:18Z</time>
      </trkpt>
      <trkpt lat="43.11301" lon="1.6345">
        <ele>297.7</ele>
        <time>2019-02-13T09:23:20Z</time>
      </trkpt>
      <trkpt lat="43.11301" lon="1.63465">
        <ele>297.3</ele>
        <time>2019-02-13T09:23:22Z</time>
      </trkpt>
      <trkpt lat="43.11301" lon="1.63481">
        <ele>297.1</ele>
        <time>2019-02-13T09:23:24Z</time>
      </trkpt>
      <trkpt lat="43.11301" lon="1.63496">
        <ele>297.1</ele>
        <time>2019-02-13T09:23:26Z</time>
      </trkpt>
      <trkpt lat="43.11301" lon="1.63511">
        <ele>297.2</ele>
        <time>2019-02-13T09:23:28Z</time>
      </trkpt>
      <trkpt lat="43.113" lon="1.63525">
        <ele>297.3</ele>
        <time>2019-02-13T09:23:30Z</time>
      </trkpt>
      <trkpt lat="43.11299" lon="1.6354">
        <ele>297.2</ele>
        <time>2019-02-13T09:23:32Z</time>
      </trkpt>
      <trkpt lat="43.11298" lon="1.63554">
        <ele>297.1</ele>
        <time>2019-02-13T09:23:34Z</time>
      </trkpt>
      <trkpt lat="43.11298" lon="1.63569">
        <ele>296.9</ele>
        <time>2019-02-13T09:23:36Z</time>
      </trkpt>
      <trkpt lat="43.11298" lon="1.63583">
        <ele>296.7</ele>
        <time>2019-02-13T09:23:38Z</time>
      </trkpt>
      <trkpt lat="43.11297" lon="1.63597">
        <ele>296.7</ele>
        <time>2019-02-13T09:23:40Z</time>
      </trkpt>
      <trkpt lat="43.11296" lon="1.63613">
        <ele>296.8</ele>
        <time>2019-02-13T09:23:43Z</time>
      </trkpt>
      <trkpt lat="43.11302" lon="1.63624">
        <ele>296.9</ele>
        <time>2019-02-13T09:23:47Z</time>
      </trkpt>
      <trkpt lat="43.11306" lon="1.63635">
        <ele>297</ele>
        <time>2019-02-13T09:23:52Z</time>
      </trkpt>
      <trkpt lat="43.11304" lon="1.63648">
        <ele>297</ele>
        <time>2019-02-13T09:23:58Z</time>
      </trkpt>
      <trkpt lat="43.11298" lon="1.63657">
        <ele>297</ele>
        <time>2019-02-13T09:24:05Z</time>
      </trkpt>
      <trkpt lat="43.11287" lon="1.63658">
        <ele>297.4</ele>
        <time>2019-02-13T09:24:17Z</time>
      </trkpt>
      <trkpt lat="43.1128" lon="1.63651">
        <ele>297.8</ele>
        <time>2019-02-13T09:24:23Z</time>
      </trkpt>
      <trkpt lat="43.11271" lon="1.63644">
        <ele>298.2</ele>
        <time>2019-02-13T09:24:27Z</time>
      </trkpt>
      <trkpt lat="43.11261" lon="1.63636">
        <ele>298.6</ele>
        <time>2019-02-13T09:24:30Z</time>
      </trkpt>
      <trkpt lat="43.1125" lon="1.63629">
        <ele>300.6</ele>
        <time>2019-02-13T09:24:33Z</time>
      </trkpt>
      <trkpt lat="43.11239" lon="1.63622">
        <ele>301.6</ele>
        <time>2019-02-13T09:24:36Z</time>
      </trkpt>
      <trkpt lat="43.1123" lon="1.63617">
        <ele>302.1</ele>
        <time>2019-02-13T09:24:54Z</time>
      </trkpt>
      <trkpt lat="43.1122" lon="1.6361">
        <ele>302.2</ele>
        <time>2019-02-13T09:24:58Z</time>
      </trkpt>
      <trkpt lat="43.1121" lon="1.63601">
        <ele>302.1</ele>
        <time>2019-02-13T09:25:01Z</time>
      </trkpt>
      <trkpt lat="43.112" lon="1.63589">
        <ele>301.8</ele>
        <time>2019-02-13T09:25:04Z</time>
      </trkpt>
      <trkpt lat="43.11192" lon="1.63583">
        <ele>301.5</ele>
        <time>2019-02-13T09:25:06Z</time>
      </trkpt>
      <trkpt lat="43.11183" lon="1.63579">
        <ele>301.2</ele>
        <time>2019-02-13T09:25:08Z</time>
      </trkpt>
      <trkpt lat="43.11173" lon="1.63576">
        <ele>300.9</ele>
        <time>2019-02-13T09:25:10Z</time>
      </trkpt>
      <trkpt lat="43.11164" lon="1.63574">
        <ele>300.7</ele>
        <time>2019-02-13T09:25:12Z</time>
      </trkpt>
      <trkpt lat="43.11154" lon="1.6357">
        <ele>300.7</ele>
        <time>2019-02-13T09:25:14Z</time>
      </trkpt>
      <trkpt lat="43.11143" lon="1.63567">
        <ele>301</ele>
        <time>2019-02-13T09:25:16Z</time>
      </trkpt>
      <trkpt lat="43.11134" lon="1.63561">
        <ele>301.3</ele>
        <time>2019-02-13T09:25:18Z</time>
      </trkpt>
      <trkpt lat="43.11126" lon="1.63554">
        <ele>301.5</ele>
        <time>2019-02-13T09:25:20Z</time>
      </trkpt>
      <trkpt lat="43.11117" lon="1.63548">
        <ele>301.5</ele>
        <time>2019-02-13T09:25:22Z</time>
      </trkpt>
      <trkpt lat="43.11108" lon="1.63542">
        <ele>301.6</ele>
        <time>2019-02-13T09:25:24Z</time>
      </trkpt>
      <trkpt lat="43.11099" lon="1.63535">
        <ele>301.7</ele>
        <time>2019-02-13T09:25:26Z</time>
      </trkpt>
      <trkpt lat="43.1109" lon="1.63527">
        <ele>301.9</ele>
        <time>2019-02-13T09:25:28Z</time>
      </trkpt>
      <trkpt lat="43.11081" lon="1.63521">
        <ele>302</ele>
        <time>2019-02-13T09:25:30Z</time>
      </trkpt>
      <trkpt lat="43.11071" lon="1.63516">
        <ele>301.8</ele>
        <time>2019-02-13T09:25:32Z</time>
      </trkpt>
      <trkpt lat="43.11061" lon="1.6351">
        <ele>301.5</ele>
        <time>2019-02-13T09:25:34Z</time>
      </trkpt>
      <trkpt lat="43.11051" lon="1.63509">
        <ele>301.3</ele>
        <time>2019-02-13T09:25:36Z</time>
      </trkpt>
      <trkpt lat="43.11041" lon="1.6351">
        <ele>301.3</ele>
        <time>2019-02-13T09:25:38Z</time>
      </trkpt>
      <trkpt lat="43.11032" lon="1.63516">
        <ele>301.1</ele>
        <time>2019-02-13T09:25:40Z</time>
      </trkpt>
      <trkpt lat="43.11024" lon="1.63522">
        <ele>301</ele>
        <time>2019-02-13T09:25:42Z</time>
      </trkpt>
      <trkpt lat="43.11015" lon="1.63527">
        <ele>301</ele>
        <time>2019-02-13T09:25:44Z</time>
      </trkpt>
      <trkpt lat="43.11006" lon="1.63531">
        <ele>300.9</ele>
        <time>2019-02-13T09:25:48Z</time>
      </trkpt>
      <trkpt lat="43.10998" lon="1.63537">
        <ele>301.1</ele>
        <time>2019-02-13T09:25:55Z</time>
      </trkpt>
      <trkpt lat="43.10988" lon="1.63539">
        <ele>301.2</ele>
        <time>2019-02-13T09:25:59Z</time>
      </trkpt>
      <trkpt lat="43.10979" lon="1.63544">
        <ele>301.3</ele>
        <time>2019-02-13T09:26:04Z</time>
      </trkpt>
      <trkpt lat="43.10968" lon="1.63546">
        <ele>301.4</ele>
        <time>2019-02-13T09:26:07Z</time>
      </trkpt>
      <trkpt lat="43.10958" lon="1.6355">
        <ele>301.6</ele>
        <time>2019-02-13T09:26:10Z</time>
      </trkpt>
      <trkpt lat="43.10946" lon="1.63554">
        <ele>301.6</ele>
        <time>2019-02-13T09:26:13Z</time>
      </trkpt>
      <trkpt lat="43.10933" lon="1.63557">
        <ele>301.9</ele>
        <time>2019-02-13T09:26:16Z</time>
      </trkpt>
      <trkpt lat="43.10924" lon="1.63562">
        <ele>302.1</ele>
        <time>2019-02-13T09:26:18Z</time>
      </trkpt>
      <trkpt lat="43.10915" lon="1.6357">
        <ele>302.4</ele>
        <time>2019-02-13T09:26:20Z</time>
      </trkpt>
      <trkpt lat="43.10905" lon="1.63572">
        <ele>302.5</ele>
        <time>2019-02-13T09:26:22Z</time>
      </trkpt>
      <trkpt lat="43.10894" lon="1.63578">
        <ele>302.5</ele>
        <time>2019-02-13T09:26:25Z</time>
      </trkpt>
      <trkpt lat="43.10882" lon="1.63578">
        <ele>302.5</ele>
        <time>2019-02-13T09:26:28Z</time>
      </trkpt>
      <trkpt lat="43.10872" lon="1.63579">
        <ele>302.5</ele>
        <time>2019-02-13T09:26:31Z</time>
      </trkpt>
      <trkpt lat="43.10862" lon="1.63579">
        <ele>302.3</ele>
        <time>2019-02-13T09:26:33Z</time>
      </trkpt>
      <trkpt lat="43.1085" lon="1.6358">
        <ele>302.2</ele>
        <time>2019-02-13T09:26:36Z</time>
      </trkpt>
      <trkpt lat="43.10838" lon="1.63582">
        <ele>302.1</ele>
        <time>2019-02-13T09:26:39Z</time>
      </trkpt>
      <trkpt lat="43.10827" lon="1.63583">
        <ele>302.1</ele>
        <time>2019-02-13T09:26:42Z</time>
      </trkpt>
      <trkpt lat="43.10813" lon="1.63585">
        <ele>301.3</ele>
        <time>2019-02-13T09:26:45Z</time>
      </trkpt>
      <trkpt lat="43.10801" lon="1.63585">
        <ele>300.8</ele>
        <time>2019-02-13T09:26:48Z</time>
      </trkpt>
      <trkpt lat="43.10791" lon="1.63586">
        <ele>300.3</ele>
        <time>2019-02-13T09:26:50Z</time>
      </trkpt>
      <trkpt lat="43.1078" lon="1.63587">
        <ele>300.5</ele>
        <time>2019-02-13T09:26:52Z</time>
      </trkpt>
      <trkpt lat="43.10771" lon="1.63587">
        <ele>301.2</ele>
        <time>2019-02-13T09:26:54Z</time>
      </trkpt>
      <trkpt lat="43.1076" lon="1.63588">
        <ele>301.9</ele>
        <time>2019-02-13T09:26:56Z</time>
      </trkpt>
      <trkpt lat="43.1075" lon="1.63587">
        <ele>302.6</ele>
        <time>2019-02-13T09:26:58Z</time>
      </trkpt>
      <trkpt lat="43.10741" lon="1.63586">
        <ele>303</ele>
        <time>2019-02-13T09:27:00Z</time>
      </trkpt>
      <trkpt lat="43.10728" lon="1.63587">
        <ele>303.2</ele>
        <time>2019-02-13T09:27:03Z</time>
      </trkpt>
      <trkpt lat="43.10715" lon="1.63585">
        <ele>303.6</ele>
        <time>2019-02-13T09:27:06Z</time>
      </trkpt>
      <trkpt lat="43.10702" lon="1.63583">
        <ele>303.7</ele>
        <time>2019-02-13T09:27:09Z</time>
      </trkpt>
      <trkpt lat="43.1069" lon="1.63584">
        <ele>303.7</ele>
        <time>2019-02-13T09:27:13Z</time>
      </trkpt>
      <trkpt lat="43.10679" lon="1.63584">
        <ele>303.6</ele>
        <time>2019-02-13T09:27:39Z</time>
      </trkpt>
      <trkpt lat="43.10668" lon="1.63585">
        <ele>303.6</ele>
        <time>2019-02-13T09:27:42Z</time>
      </trkpt>
      <trkpt lat="43.10656" lon="1.63586">
        <ele>304.3</ele>
        <time>2019-02-13T09:27:45Z</time>
      </trkpt>
      <trkpt lat="43.10642" lon="1.6359">
        <ele>305.3</ele>
        <time>2019-02-13T09:27:48Z</time>
      </trkpt>
      <trkpt lat="43.10633" lon="1.63593">
        <ele>305.8</ele>
        <time>2019-02-13T09:27:50Z</time>
      </trkpt>
      <trkpt lat="43.10624" lon="1.63596">
        <ele>306</ele>
        <time>2019-02-13T09:27:52Z</time>
      </trkpt>
      <trkpt lat="43.10615" lon="1.63598">
        <ele>306</ele>
        <time>2019-02-13T09:27:54Z</time>
      </trkpt>
      <trkpt lat="43.10606" lon="1.636">
        <ele>305.9</ele>
        <time>2019-02-13T09:27:56Z</time>
      </trkpt>
      <trkpt lat="43.10597" lon="1.63604">
        <ele>305.8</ele>
        <time>2019-02-13T09:27:58Z</time>
      </trkpt>
      <trkpt lat="43.10584" lon="1.63605">
        <ele>305.7</ele>
        <time>2019-02-13T09:28:01Z</time>
      </trkpt>
      <trkpt lat="43.10572" lon="1.63599">
        <ele>305.7</ele>
        <time>2019-02-13T09:28:04Z</time>
      </trkpt>
      <trkpt lat="43.1056" lon="1.63592">
        <ele>305.6</ele>
        <time>2019-02-13T09:28:07Z</time>
      </trkpt>
      <trkpt lat="43.10551" lon="1.63586">
        <ele>305.5</ele>
        <time>2019-02-13T09:28:10Z</time>
      </trkpt>
      <trkpt lat="43.1054" lon="1.63581">
        <ele>305.5</ele>
        <time>2019-02-13T09:28:13Z</time>
      </trkpt>
      <trkpt lat="43.10529" lon="1.63579">
        <ele>305.6</ele>
        <time>2019-02-13T09:28:16Z</time>
      </trkpt>
      <trkpt lat="43.10516" lon="1.63584">
        <ele>305.6</ele>
        <time>2019-02-13T09:28:19Z</time>
      </trkpt>
      <trkpt lat="43.10507" lon="1.63587">
        <ele>305.1</ele>
        <time>2019-02-13T09:28:21Z</time>
      </trkpt>
      <trkpt lat="43.10497" lon="1.63587">
        <ele>304</ele>
        <time>2019-02-13T09:28:23Z</time>
      </trkpt>
      <trkpt lat="43.10487" lon="1.63587">
        <ele>303</ele>
        <time>2019-02-13T09:28:25Z</time>
      </trkpt>
      <trkpt lat="43.10475" lon="1.63587">
        <ele>303</ele>
        <time>2019-02-13T09:28:28Z</time>
      </trkpt>
      <trkpt lat="43.10461" lon="1.63585">
        <ele>303.4</ele>
        <time>2019-02-13T09:28:31Z</time>
      </trkpt>
      <trkpt lat="43.10449" lon="1.63586">
        <ele>303.7</ele>
        <time>2019-02-13T09:28:34Z</time>
      </trkpt>
      <trkpt lat="43.10436" lon="1.63591">
        <ele>303.1</ele>
        <time>2019-02-13T09:28:37Z</time>
      </trkpt>
      <trkpt lat="43.10427" lon="1.63596">
        <ele>302.4</ele>
        <time>2019-02-13T09:28:39Z</time>
      </trkpt>
      <trkpt lat="43.10419" lon="1.63602">
        <ele>302.2</ele>
        <time>2019-02-13T09:28:41Z</time>
      </trkpt>
      <trkpt lat="43.1041" lon="1.6361">
        <ele>302.4</ele>
        <time>2019-02-13T09:28:43Z</time>
      </trkpt>
      <trkpt lat="43.10402" lon="1.63615">
        <ele>302.8</ele>
        <time>2019-02-13T09:28:45Z</time>
      </trkpt>
      <trkpt lat="43.10391" lon="1.63622">
        <ele>303</ele>
        <time>2019-02-13T09:28:48Z</time>
      </trkpt>
      <trkpt lat="43.10382" lon="1.63629">
        <ele>303.1</ele>
        <time>2019-02-13T09:28:50Z</time>
      </trkpt>
      <trkpt lat="43.10372" lon="1.63634">
        <ele>303.1</ele>
        <time>2019-02-13T09:28:52Z</time>
      </trkpt>
      <trkpt lat="43.10361" lon="1.63637">
        <ele>303.2</ele>
        <time>2019-02-13T09:28:54Z</time>
      </trkpt>
      <trkpt lat="43.1035" lon="1.6364">
        <ele>303.3</ele>
        <time>2019-02-13T09:28:56Z</time>
      </trkpt>
      <trkpt lat="43.10339" lon="1.63642">
        <ele>303.7</ele>
        <time>2019-02-13T09:28:58Z</time>
      </trkpt>
      <trkpt lat="43.10329" lon="1.63645">
        <ele>304.2</ele>
        <time>2019-02-13T09:29:00Z</time>
      </trkpt>
      <trkpt lat="43.10318" lon="1.63648">
        <ele>304.8</ele>
        <time>2019-02-13T09:29:02Z</time>
      </trkpt>
      <trkpt lat="43.10305" lon="1.63649">
        <ele>305.2</ele>
        <time>2019-02-13T09:29:05Z</time>
      </trkpt>
      <trkpt lat="43.10294" lon="1.63652">
        <ele>305.4</ele>
        <time>2019-02-13T09:29:08Z</time>
      </trkpt>
      <trkpt lat="43.10282" lon="1.63655">
        <ele>305.4</ele>
        <time>2019-02-13T09:29:11Z</time>
      </trkpt>
      <trkpt lat="43.10273" lon="1.63658">
        <ele>305.3</ele>
        <time>2019-02-13T09:29:13Z</time>
      </trkpt>
      <trkpt lat="43.1026" lon="1.63661">
        <ele>305.2</ele>
        <time>2019-02-13T09:29:16Z</time>
      </trkpt>
      <trkpt lat="43.10251" lon="1.63664">
        <ele>305.1</ele>
        <time>2019-02-13T09:29:18Z</time>
      </trkpt>
      <trkpt lat="43.10239" lon="1.63666">
        <ele>304.2</ele>
        <time>2019-02-13T09:29:21Z</time>
      </trkpt>
      <trkpt lat="43.1023" lon="1.63668">
        <ele>303.5</ele>
        <time>2019-02-13T09:29:23Z</time>
      </trkpt>
      <trkpt lat="43.10217" lon="1.63668">
        <ele>302.8</ele>
        <time>2019-02-13T09:29:26Z</time>
      </trkpt>
      <trkpt lat="43.10206" lon="1.63671">
        <ele>302.5</ele>
        <time>2019-02-13T09:29:29Z</time>
      </trkpt>
      <trkpt lat="43.10197" lon="1.63674">
        <ele>301.4</ele>
        <time>2019-02-13T09:29:31Z</time>
      </trkpt>
      <trkpt lat="43.10188" lon="1.63676">
        <ele>300.9</ele>
        <time>2019-02-13T09:29:33Z</time>
      </trkpt>
      <trkpt lat="43.10176" lon="1.63678">
        <ele>300.7</ele>
        <time>2019-02-13T09:29:36Z</time>
      </trkpt>
      <trkpt lat="43.10165" lon="1.63679">
        <ele>300.7</ele>
        <time>2019-02-13T09:29:39Z</time>
      </trkpt>
      <trkpt lat="43.10154" lon="1.63679">
        <ele>300.8</ele>
        <time>2019-02-13T09:29:43Z</time>
      </trkpt>
      <trkpt lat="43.10148" lon="1.63668">
        <ele>301.4</ele>
        <time>2019-02-13T09:29:50Z</time>
      </trkpt>
      <trkpt lat="43.10142" lon="1.63655">
        <ele>301.6</ele>
        <time>2019-02-13T09:29:53Z</time>
      </trkpt>
      <trkpt lat="43.10132" lon="1.63658">
        <ele>301.8</ele>
        <time>2019-02-13T09:29:56Z</time>
      </trkpt>
      <trkpt lat="43.10127" lon="1.63669">
        <ele>302.6</ele>
        <time>2019-02-13T09:29:58Z</time>
      </trkpt>
      <trkpt lat="43.10124" lon="1.63681">
        <ele>303.1</ele>
        <time>2019-02-13T09:30:00Z</time>
      </trkpt>
      <trkpt lat="43.10119" lon="1.63692">
        <ele>303.1</ele>
        <time>2019-02-13T09:30:02Z</time>
      </trkpt>
      <trkpt lat="43.10116" lon="1.63705">
        <ele>303.1</ele>
        <time>2019-02-13T09:30:04Z</time>
      </trkpt>
      <trkpt lat="43.10113" lon="1.63718">
        <ele>303.2</ele>
        <time>2019-02-13T09:30:06Z</time>
      </trkpt>
      <trkpt lat="43.1011" lon="1.63732">
        <ele>303.6</ele>
        <time>2019-02-13T09:30:08Z</time>
      </trkpt>
      <trkpt lat="43.10107" lon="1.63746">
        <ele>304.4</ele>
        <time>2019-02-13T09:30:10Z</time>
      </trkpt>
      <trkpt lat="43.10104" lon="1.63758">
        <ele>305.1</ele>
        <time>2019-02-13T09:30:12Z</time>
      </trkpt>
      <trkpt lat="43.10101" lon="1.63771">
        <ele>305.7</ele>
        <time>2019-02-13T09:30:14Z</time>
      </trkpt>
      <trkpt lat="43.10093" lon="1.63786">
        <ele>307</ele>
        <time>2019-02-13T09:30:17Z</time>
      </trkpt>
      <trkpt lat="43.10086" lon="1.63795">
        <ele>307.5</ele>
        <time>2019-02-13T09:30:19Z</time>
      </trkpt>
      <trkpt lat="43.1008" lon="1.63805">
        <ele>308</ele>
        <time>2019-02-13T09:30:21Z</time>
      </trkpt>
      <trkpt lat="43.10072" lon="1.63814">
        <ele>308.5</ele>
        <time>2019-02-13T09:30:23Z</time>
      </trkpt>
      <trkpt lat="43.10062" lon="1.63824">
        <ele>309.3</ele>
        <time>2019-02-13T09:30:26Z</time>
      </trkpt>
      <trkpt lat="43.10053" lon="1.63833">
        <ele>309.7</ele>
        <time>2019-02-13T09:30:29Z</time>
      </trkpt>
      <trkpt lat="43.10042" lon="1.63842">
        <ele>309.9</ele>
        <time>2019-02-13T09:30:32Z</time>
      </trkpt>
      <trkpt lat="43.10035" lon="1.6385">
        <ele>309.7</ele>
        <time>2019-02-13T09:30:34Z</time>
      </trkpt>
      <trkpt lat="43.10028" lon="1.6386">
        <ele>309.4</ele>
        <time>2019-02-13T09:30:36Z</time>
      </trkpt>
      <trkpt lat="43.10024" lon="1.63872">
        <ele>309.2</ele>
        <time>2019-02-13T09:30:38Z</time>
      </trkpt>
      <trkpt lat="43.1002" lon="1.63883">
        <ele>308.9</ele>
        <time>2019-02-13T09:30:40Z</time>
      </trkpt>
      <trkpt lat="43.10015" lon="1.63895">
        <ele>308.7</ele>
        <time>2019-02-13T09:30:42Z</time>
      </trkpt>
      <trkpt lat="43.1001" lon="1.63906">
        <ele>308.2</ele>
        <time>2019-02-13T09:30:44Z</time>
      </trkpt>
      <trkpt lat="43.10006" lon="1.63917">
        <ele>307.7</ele>
        <time>2019-02-13T09:30:46Z</time>
      </trkpt>
      <trkpt lat="43.1" lon="1.63933">
        <ele>307</ele>
        <time>2019-02-13T09:30:49Z</time>
      </trkpt>
      <trkpt lat="43.09997" lon="1.63947">
        <ele>306.8</ele>
        <time>2019-02-13T09:30:52Z</time>
      </trkpt>
      <trkpt lat="43.09996" lon="1.63962">
        <ele>306.7</ele>
        <time>2019-02-13T09:30:55Z</time>
      </trkpt>
      <trkpt lat="43.09994" lon="1.6398">
        <ele>306.1</ele>
        <time>2019-02-13T09:30:58Z</time>
      </trkpt>
      <trkpt lat="43.09992" lon="1.63994">
        <ele>305.6</ele>
        <time>2019-02-13T09:31:00Z</time>
      </trkpt>
      <trkpt lat="43.0999" lon="1.64007">
        <ele>305.5</ele>
        <time>2019-02-13T09:31:02Z</time>
      </trkpt>
      <trkpt lat="43.09988" lon="1.6402">
        <ele>305.6</ele>
        <time>2019-02-13T09:31:04Z</time>
      </trkpt>
      <trkpt lat="43.09984" lon="1.64036">
        <ele>305.7</ele>
        <time>2019-02-13T09:31:07Z</time>
      </trkpt>
      <trkpt lat="43.09979" lon="1.64052">
        <ele>305.8</ele>
        <time>2019-02-13T09:31:10Z</time>
      </trkpt>
      <trkpt lat="43.09974" lon="1.64066">
        <ele>306</ele>
        <time>2019-02-13T09:31:13Z</time>
      </trkpt>
      <trkpt lat="43.0997" lon="1.64082">
        <ele>306.6</ele>
        <time>2019-02-13T09:31:16Z</time>
      </trkpt>
      <trkpt lat="43.09966" lon="1.64099">
        <ele>306.9</ele>
        <time>2019-02-13T09:31:19Z</time>
      </trkpt>
      <trkpt lat="43.09963" lon="1.64117">
        <ele>307.1</ele>
        <time>2019-02-13T09:31:22Z</time>
      </trkpt>
      <trkpt lat="43.09961" lon="1.64129">
        <ele>307.4</ele>
        <time>2019-02-13T09:31:24Z</time>
      </trkpt>
      <trkpt lat="43.09959" lon="1.64141">
        <ele>307.8</ele>
        <time>2019-02-13T09:31:26Z</time>
      </trkpt>
      <trkpt lat="43.09956" lon="1.64154">
        <ele>308.4</ele>
        <time>2019-02-13T09:31:28Z</time>
      </trkpt>
      <trkpt lat="43.09953" lon="1.64167">
        <ele>309.3</ele>
        <time>2019-02-13T09:31:30Z</time>
      </trkpt>
      <trkpt lat="43.09948" lon="1.64183">
        <ele>310.1</ele>
        <time>2019-02-13T09:31:33Z</time>
      </trkpt>
      <trkpt lat="43.09943" lon="1.64196">
        <ele>310.5</ele>
        <time>2019-02-13T09:31:36Z</time>
      </trkpt>
      <trkpt lat="43.09937" lon="1.64207">
        <ele>310.7</ele>
        <time>2019-02-13T09:31:39Z</time>
      </trkpt>
      <trkpt lat="43.09931" lon="1.64219">
        <ele>310.9</ele>
        <time>2019-02-13T09:31:42Z</time>
      </trkpt>
      <trkpt lat="43.09924" lon="1.64229">
        <ele>311</ele>
        <time>2019-02-13T09:31:45Z</time>
      </trkpt>
      <trkpt lat="43.09916" lon="1.6424">
        <ele>311</ele>
        <time>2019-02-13T09:31:48Z</time>
      </trkpt>
      <trkpt lat="43.09905" lon="1.64244">
        <ele>310.9</ele>
        <time>2019-02-13T09:31:51Z</time>
      </trkpt>
      <trkpt lat="43.09893" lon="1.6424">
        <ele>309.8</ele>
        <time>2019-02-13T09:31:54Z</time>
      </trkpt>
      <trkpt lat="43.09884" lon="1.64237">
        <ele>309.1</ele>
        <time>2019-02-13T09:31:56Z</time>
      </trkpt>
      <trkpt lat="43.09872" lon="1.64233">
        <ele>308.3</ele>
        <time>2019-02-13T09:31:59Z</time>
      </trkpt>
      <trkpt lat="43.09859" lon="1.64231">
        <ele>308.1</ele>
        <time>2019-02-13T09:32:02Z</time>
      </trkpt>
      <trkpt lat="43.09846" lon="1.64229">
        <ele>308.1</ele>
        <time>2019-02-13T09:32:05Z</time>
      </trkpt>
      <trkpt lat="43.09832" lon="1.64226">
        <ele>307.8</ele>
        <time>2019-02-13T09:32:08Z</time>
      </trkpt>
      <trkpt lat="43.09823" lon="1.64224">
        <ele>307.6</ele>
        <time>2019-02-13T09:32:10Z</time>
      </trkpt>
      <trkpt lat="43.09814" lon="1.64222">
        <ele>307.3</ele>
        <time>2019-02-13T09:32:12Z</time>
      </trkpt>
      <trkpt lat="43.09805" lon="1.64217">
        <ele>307.1</ele>
        <time>2019-02-13T09:32:14Z</time>
      </trkpt>
      <trkpt lat="43.09796" lon="1.6421">
        <ele>306.9</ele>
        <time>2019-02-13T09:32:16Z</time>
      </trkpt>
      <trkpt lat="43.09788" lon="1.64203">
        <ele>306.8</ele>
        <time>2019-02-13T09:32:18Z</time>
      </trkpt>
      <trkpt lat="43.09777" lon="1.64194">
        <ele>306.5</ele>
        <time>2019-02-13T09:32:21Z</time>
      </trkpt>
      <trkpt lat="43.09769" lon="1.64187">
        <ele>306.2</ele>
        <time>2019-02-13T09:32:23Z</time>
      </trkpt>
      <trkpt lat="43.0976" lon="1.64181">
        <ele>306.1</ele>
        <time>2019-02-13T09:32:25Z</time>
      </trkpt>
      <trkpt lat="43.09752" lon="1.64174">
        <ele>306.2</ele>
        <time>2019-02-13T09:32:27Z</time>
      </trkpt>
      <trkpt lat="43.09742" lon="1.64169">
        <ele>306.3</ele>
        <time>2019-02-13T09:32:29Z</time>
      </trkpt>
      <trkpt lat="43.0973" lon="1.64162">
        <ele>306.3</ele>
        <time>2019-02-13T09:32:32Z</time>
      </trkpt>
      <trkpt lat="43.0972" lon="1.64157">
        <ele>306.3</ele>
        <time>2019-02-13T09:32:35Z</time>
      </trkpt>
      <trkpt lat="43.0971" lon="1.64149">
        <ele>306.3</ele>
        <time>2019-02-13T09:32:38Z</time>
      </trkpt>
      <trkpt lat="43.09699" lon="1.64139">
        <ele>306.3</ele>
        <time>2019-02-13T09:32:41Z</time>
      </trkpt>
      <trkpt lat="43.09689" lon="1.6413">
        <ele>306.3</ele>
        <time>2019-02-13T09:32:44Z</time>
      </trkpt>
      <trkpt lat="43.09681" lon="1.64123">
        <ele>306.3</ele>
        <time>2019-02-13T09:32:46Z</time>
      </trkpt>
      <trkpt lat="43.09672" lon="1.64113">
        <ele>306.5</ele>
        <time>2019-02-13T09:32:48Z</time>
      </trkpt>
      <trkpt lat="43.09661" lon="1.64106">
        <ele>307.1</ele>
        <time>2019-02-13T09:32:50Z</time>
      </trkpt>
      <trkpt lat="43.09653" lon="1.64098">
        <ele>307.7</ele>
        <time>2019-02-13T09:32:52Z</time>
      </trkpt>
      <trkpt lat="43.09644" lon="1.6409">
        <ele>308.1</ele>
        <time>2019-02-13T09:32:54Z</time>
      </trkpt>
      <trkpt lat="43.09634" lon="1.64081">
        <ele>308.6</ele>
        <time>2019-02-13T09:32:56Z</time>
      </trkpt>
      <trkpt lat="43.09624" lon="1.64073">
        <ele>309.3</ele>
        <time>2019-02-13T09:32:58Z</time>
      </trkpt>
      <trkpt lat="43.09615" lon="1.64065">
        <ele>310</ele>
        <time>2019-02-13T09:33:00Z</time>
      </trkpt>
      <trkpt lat="43.09606" lon="1.64058">
        <ele>310.6</ele>
        <time>2019-02-13T09:33:02Z</time>
      </trkpt>
      <trkpt lat="43.09597" lon="1.64049">
        <ele>310.8</ele>
        <time>2019-02-13T09:33:04Z</time>
      </trkpt>
      <trkpt lat="43.09588" lon="1.64042">
        <ele>310.8</ele>
        <time>2019-02-13T09:33:06Z</time>
      </trkpt>
      <trkpt lat="43.09578" lon="1.64035">
        <ele>310.9</ele>
        <time>2019-02-13T09:33:08Z</time>
      </trkpt>
      <trkpt lat="43.09569" lon="1.64027">
        <ele>311</ele>
        <time>2019-02-13T09:33:10Z</time>
      </trkpt>
      <trkpt lat="43.0956" lon="1.64021">
        <ele>310.9</ele>
        <time>2019-02-13T09:33:12Z</time>
      </trkpt>
      <trkpt lat="43.09551" lon="1.64015">
        <ele>310.8</ele>
        <time>2019-02-13T09:33:14Z</time>
      </trkpt>
      <trkpt lat="43.09542" lon="1.64007">
        <ele>310.7</ele>
        <time>2019-02-13T09:33:16Z</time>
      </trkpt>
      <trkpt lat="43.09534" lon="1.64001">
        <ele>310.8</ele>
        <time>2019-02-13T09:33:18Z</time>
      </trkpt>
      <trkpt lat="43.09526" lon="1.63994">
        <ele>311</ele>
        <time>2019-02-13T09:33:20Z</time>
      </trkpt>
      <trkpt lat="43.09517" lon="1.63987">
        <ele>311.1</ele>
        <time>2019-02-13T09:33:22Z</time>
      </trkpt>
      <trkpt lat="43.09508" lon="1.63981">
        <ele>310.9</ele>
        <time>2019-02-13T09:33:24Z</time>
      </trkpt>
      <trkpt lat="43.09498" lon="1.63974">
        <ele>310.4</ele>
        <time>2019-02-13T09:33:26Z</time>
      </trkpt>
      <trkpt lat="43.09487" lon="1.63965">
        <ele>310.3</ele>
        <time>2019-02-13T09:33:28Z</time>
      </trkpt>
      <trkpt lat="43.09478" lon="1.63958">
        <ele>310.5</ele>
        <time>2019-02-13T09:33:30Z</time>
      </trkpt>
      <trkpt lat="43.09468" lon="1.63951">
        <ele>310.7</ele>
        <time>2019-02-13T09:33:32Z</time>
      </trkpt>
      <trkpt lat="43.09457" lon="1.63946">
        <ele>310.5</ele>
        <time>2019-02-13T09:33:34Z</time>
      </trkpt>
      <trkpt lat="43.09446" lon="1.6394">
        <ele>310</ele>
        <time>2019-02-13T09:33:36Z</time>
      </trkpt>
      <trkpt lat="43.09435" lon="1.63933">
        <ele>309.6</ele>
        <time>2019-02-13T09:33:38Z</time>
      </trkpt>
      <trkpt lat="43.09424" lon="1.63927">
        <ele>309.1</ele>
        <time>2019-02-13T09:33:40Z</time>
      </trkpt>
      <trkpt lat="43.09413" lon="1.63922">
        <ele>308.8</ele>
        <time>2019-02-13T09:33:42Z</time>
      </trkpt>
      <trkpt lat="43.09403" lon="1.63916">
        <ele>308.7</ele>
        <time>2019-02-13T09:33:44Z</time>
      </trkpt>
      <trkpt lat="43.09393" lon="1.63911">
        <ele>308.6</ele>
        <time>2019-02-13T09:33:46Z</time>
      </trkpt>
      <trkpt lat="43.09383" lon="1.63905">
        <ele>308.7</ele>
        <time>2019-02-13T09:33:48Z</time>
      </trkpt>
      <trkpt lat="43.09373" lon="1.63899">
        <ele>309.1</ele>
        <time>2019-02-13T09:33:50Z</time>
      </trkpt>
      <trkpt lat="43.09362" lon="1.63893">
        <ele>309.7</ele>
        <time>2019-02-13T09:33:52Z</time>
      </trkpt>
      <trkpt lat="43.09352" lon="1.63887">
        <ele>310.3</ele>
        <time>2019-02-13T09:33:54Z</time>
      </trkpt>
      <trkpt lat="43.09342" lon="1.63881">
        <ele>310.9</ele>
        <time>2019-02-13T09:33:56Z</time>
      </trkpt>
      <trkpt lat="43.09332" lon="1.63876">
        <ele>311.5</ele>
        <time>2019-02-13T09:33:58Z</time>
      </trkpt>
      <trkpt lat="43.09322" lon="1.6387">
        <ele>312</ele>
        <time>2019-02-13T09:34:00Z</time>
      </trkpt>
      <trkpt lat="43.09311" lon="1.63864">
        <ele>312.3</ele>
        <time>2019-02-13T09:34:02Z</time>
      </trkpt>
      <trkpt lat="43.09301" lon="1.63859">
        <ele>312.4</ele>
        <time>2019-02-13T09:34:04Z</time>
      </trkpt>
      <trkpt lat="43.0929" lon="1.63852">
        <ele>312.6</ele>
        <time>2019-02-13T09:34:06Z</time>
      </trkpt>
      <trkpt lat="43.0928" lon="1.63846">
        <ele>312.9</ele>
        <time>2019-02-13T09:34:08Z</time>
      </trkpt>
      <trkpt lat="43.0927" lon="1.63839">
        <ele>312.9</ele>
        <time>2019-02-13T09:34:10Z</time>
      </trkpt>
      <trkpt lat="43.0926" lon="1.63833">
        <ele>312.5</ele>
        <time>2019-02-13T09:34:12Z</time>
      </trkpt>
      <trkpt lat="43.0925" lon="1.63827">
        <ele>311.8</ele>
        <time>2019-02-13T09:34:14Z</time>
      </trkpt>
      <trkpt lat="43.0924" lon="1.63821">
        <ele>311.1</ele>
        <time>2019-02-13T09:34:16Z</time>
      </trkpt>
      <trkpt lat="43.09231" lon="1.63816">
        <ele>310.4</ele>
        <time>2019-02-13T09:34:18Z</time>
      </trkpt>
      <trkpt lat="43.0922" lon="1.63818">
        <ele>310.2</ele>
        <time>2019-02-13T09:34:21Z</time>
      </trkpt>
      <trkpt lat="43.0922" lon="1.63834">
        <ele>309.9</ele>
        <time>2019-02-13T09:34:25Z</time>
      </trkpt>
      <trkpt lat="43.0922" lon="1.63851">
        <ele>309.7</ele>
        <time>2019-02-13T09:34:29Z</time>
      </trkpt>
      <trkpt lat="43.09217" lon="1.63865">
        <ele>309.6</ele>
        <time>2019-02-13T09:34:32Z</time>
      </trkpt>
      <trkpt lat="43.09214" lon="1.63881">
        <ele>309.7</ele>
        <time>2019-02-13T09:34:35Z</time>
      </trkpt>
      <trkpt lat="43.0921" lon="1.63897">
        <ele>309.8</ele>
        <time>2019-02-13T09:34:38Z</time>
      </trkpt>
      <trkpt lat="43.09207" lon="1.63909">
        <ele>310.4</ele>
        <time>2019-02-13T09:34:40Z</time>
      </trkpt>
      <trkpt lat="43.09202" lon="1.63927">
        <ele>311.3</ele>
        <time>2019-02-13T09:34:43Z</time>
      </trkpt>
      <trkpt lat="43.09199" lon="1.6394">
        <ele>312.2</ele>
        <time>2019-02-13T09:34:45Z</time>
      </trkpt>
      <trkpt lat="43.09196" lon="1.63952">
        <ele>312.8</ele>
        <time>2019-02-13T09:34:47Z</time>
      </trkpt>
      <trkpt lat="43.09193" lon="1.63965">
        <ele>313.1</ele>
        <time>2019-02-13T09:34:49Z</time>
      </trkpt>
      <trkpt lat="43.0919" lon="1.63979">
        <ele>313.6</ele>
        <time>2019-02-13T09:34:51Z</time>
      </trkpt>
      <trkpt lat="43.09185" lon="1.63996">
        <ele>314.2</ele>
        <time>2019-02-13T09:34:54Z</time>
      </trkpt>
      <trkpt lat="43.09182" lon="1.64007">
        <ele>314.1</ele>
        <time>2019-02-13T09:34:56Z</time>
      </trkpt>
      <trkpt lat="43.09177" lon="1.64018">
        <ele>314.1</ele>
        <time>2019-02-13T09:34:58Z</time>
      </trkpt>
      <trkpt lat="43.09172" lon="1.64029">
        <ele>314.2</ele>
        <time>2019-02-13T09:35:00Z</time>
      </trkpt>
      <trkpt lat="43.09166" lon="1.64044">
        <ele>314.3</ele>
        <time>2019-02-13T09:35:03Z</time>
      </trkpt>
      <trkpt lat="43.09161" lon="1.64054">
        <ele>314.3</ele>
        <time>2019-02-13T09:35:05Z</time>
      </trkpt>
      <trkpt lat="43.09156" lon="1.64065">
        <ele>314.3</ele>
        <time>2019-02-13T09:35:07Z</time>
      </trkpt>
      <trkpt lat="43.09152" lon="1.64077">
        <ele>314.5</ele>
        <time>2019-02-13T09:35:09Z</time>
      </trkpt>
      <trkpt lat="43.09147" lon="1.64088">
        <ele>314.8</ele>
        <time>2019-02-13T09:35:11Z</time>
      </trkpt>
      <trkpt lat="43.09141" lon="1.64105">
        <ele>315.3</ele>
        <time>2019-02-13T09:35:14Z</time>
      </trkpt>
      <trkpt lat="43.09138" lon="1.64117">
        <ele>315.6</ele>
        <time>2019-02-13T09:35:16Z</time>
      </trkpt>
      <trkpt lat="43.09134" lon="1.64134">
        <ele>315.9</ele>
        <time>2019-02-13T09:35:19Z</time>
      </trkpt>
      <trkpt lat="43.09132" lon="1.64146">
        <ele>316.1</ele>
        <time>2019-02-13T09:35:21Z</time>
      </trkpt>
      <trkpt lat="43.09131" lon="1.64162">
        <ele>316.1</ele>
        <time>2019-02-13T09:35:24Z</time>
      </trkpt>
      <trkpt lat="43.09132" lon="1.64178">
        <ele>315.5</ele>
        <time>2019-02-13T09:35:27Z</time>
      </trkpt>
      <trkpt lat="43.09132" lon="1.64195">
        <ele>315.1</ele>
        <time>2019-02-13T09:35:30Z</time>
      </trkpt>
      <trkpt lat="43.09132" lon="1.6421">
        <ele>315</ele>
        <time>2019-02-13T09:35:32Z</time>
      </trkpt>
      <trkpt lat="43.09132" lon="1.64228">
        <ele>314.9</ele>
        <time>2019-02-13T09:35:35Z</time>
      </trkpt>
      <trkpt lat="43.09132" lon="1.64246">
        <ele>314.7</ele>
        <time>2019-02-13T09:35:38Z</time>
      </trkpt>
      <trkpt lat="43.09131" lon="1.64264">
        <ele>314.3</ele>
        <time>2019-02-13T09:35:41Z</time>
      </trkpt>
      <trkpt lat="43.0913" lon="1.64282">
        <ele>313.7</ele>
        <time>2019-02-13T09:35:44Z</time>
      </trkpt>
      <trkpt lat="43.09128" lon="1.64295">
        <ele>313.6</ele>
        <time>2019-02-13T09:35:46Z</time>
      </trkpt>
      <trkpt lat="43.09124" lon="1.64306">
        <ele>313.8</ele>
        <time>2019-02-13T09:35:48Z</time>
      </trkpt>
      <trkpt lat="43.09117" lon="1.64321">
        <ele>314.2</ele>
        <time>2019-02-13T09:35:51Z</time>
      </trkpt>
      <trkpt lat="43.0911" lon="1.64336">
        <ele>314.7</ele>
        <time>2019-02-13T09:35:54Z</time>
      </trkpt>
      <trkpt lat="43.09105" lon="1.64347">
        <ele>315</ele>
        <time>2019-02-13T09:35:56Z</time>
      </trkpt>
      <trkpt lat="43.09099" lon="1.64363">
        <ele>315.2</ele>
        <time>2019-02-13T09:35:59Z</time>
      </trkpt>
      <trkpt lat="43.09094" lon="1.64374">
        <ele>315.2</ele>
        <time>2019-02-13T09:36:01Z</time>
      </trkpt>
      <trkpt lat="43.09089" lon="1.64385">
        <ele>315.2</ele>
        <time>2019-02-13T09:36:03Z</time>
      </trkpt>
      <trkpt lat="43.09084" lon="1.64395">
        <ele>315.3</ele>
        <time>2019-02-13T09:36:05Z</time>
      </trkpt>
      <trkpt lat="43.09079" lon="1.64406">
        <ele>315.4</ele>
        <time>2019-02-13T09:36:07Z</time>
      </trkpt>
      <trkpt lat="43.09074" lon="1.64417">
        <ele>315.5</ele>
        <time>2019-02-13T09:36:09Z</time>
      </trkpt>
      <trkpt lat="43.09069" lon="1.64427">
        <ele>315.5</ele>
        <time>2019-02-13T09:36:11Z</time>
      </trkpt>
      <trkpt lat="43.09065" lon="1.64439">
        <ele>315.8</ele>
        <time>2019-02-13T09:36:13Z</time>
      </trkpt>
      <trkpt lat="43.0906" lon="1.64449">
        <ele>316.1</ele>
        <time>2019-02-13T09:36:15Z</time>
      </trkpt>
      <trkpt lat="43.09055" lon="1.6446">
        <ele>316.3</ele>
        <time>2019-02-13T09:36:17Z</time>
      </trkpt>
      <trkpt lat="43.09048" lon="1.64474">
        <ele>316.7</ele>
        <time>2019-02-13T09:36:20Z</time>
      </trkpt>
      <trkpt lat="43.09041" lon="1.64489">
        <ele>316.3</ele>
        <time>2019-02-13T09:36:23Z</time>
      </trkpt>
      <trkpt lat="43.09037" lon="1.64503">
        <ele>315.9</ele>
        <time>2019-02-13T09:36:25Z</time>
      </trkpt>
      <trkpt lat="43.09033" lon="1.64515">
        <ele>315.7</ele>
        <time>2019-02-13T09:36:27Z</time>
      </trkpt>
      <trkpt lat="43.0903" lon="1.64528">
        <ele>315.7</ele>
        <time>2019-02-13T09:36:29Z</time>
      </trkpt>
      <trkpt lat="43.09025" lon="1.6454">
        <ele>315.8</ele>
        <time>2019-02-13T09:36:31Z</time>
      </trkpt>
      <trkpt lat="43.09021" lon="1.64552">
        <ele>316</ele>
        <time>2019-02-13T09:36:33Z</time>
      </trkpt>
      <trkpt lat="43.09015" lon="1.64563">
        <ele>316.2</ele>
        <time>2019-02-13T09:36:35Z</time>
      </trkpt>
      <trkpt lat="43.09009" lon="1.64579">
        <ele>316.3</ele>
        <time>2019-02-13T09:36:38Z</time>
      </trkpt>
      <trkpt lat="43.09004" lon="1.6459">
        <ele>316.3</ele>
        <time>2019-02-13T09:36:40Z</time>
      </trkpt>
      <trkpt lat="43.08998" lon="1.64601">
        <ele>316.4</ele>
        <time>2019-02-13T09:36:42Z</time>
      </trkpt>
      <trkpt lat="43.08992" lon="1.64611">
        <ele>316.7</ele>
        <time>2019-02-13T09:36:44Z</time>
      </trkpt>
      <trkpt lat="43.08986" lon="1.64621">
        <ele>317.1</ele>
        <time>2019-02-13T09:36:46Z</time>
      </trkpt>
      <trkpt lat="43.0898" lon="1.6463">
        <ele>317.5</ele>
        <time>2019-02-13T09:36:48Z</time>
      </trkpt>
      <trkpt lat="43.08973" lon="1.64639">
        <ele>318</ele>
        <time>2019-02-13T09:36:50Z</time>
      </trkpt>
      <trkpt lat="43.08965" lon="1.64652">
        <ele>318.5</ele>
        <time>2019-02-13T09:36:53Z</time>
      </trkpt>
      <trkpt lat="43.08955" lon="1.64664">
        <ele>318.6</ele>
        <time>2019-02-13T09:36:56Z</time>
      </trkpt>
      <trkpt lat="43.08946" lon="1.64676">
        <ele>318.7</ele>
        <time>2019-02-13T09:36:59Z</time>
      </trkpt>
      <trkpt lat="43.08939" lon="1.64685">
        <ele>318.5</ele>
        <time>2019-02-13T09:37:01Z</time>
      </trkpt>
      <trkpt lat="43.0893" lon="1.64698">
        <ele>317.9</ele>
        <time>2019-02-13T09:37:04Z</time>
      </trkpt>
      <trkpt lat="43.08922" lon="1.64712">
        <ele>317.3</ele>
        <time>2019-02-13T09:37:07Z</time>
      </trkpt>
      <trkpt lat="43.0892" lon="1.64725">
        <ele>316.8</ele>
        <time>2019-02-13T09:37:09Z</time>
      </trkpt>
      <trkpt lat="43.08922" lon="1.64739">
        <ele>316.4</ele>
        <time>2019-02-13T09:37:11Z</time>
      </trkpt>
      <trkpt lat="43.08927" lon="1.64751">
        <ele>316</ele>
        <time>2019-02-13T09:37:13Z</time>
      </trkpt>
      <trkpt lat="43.08931" lon="1.64764">
        <ele>315.9</ele>
        <time>2019-02-13T09:37:15Z</time>
      </trkpt>
      <trkpt lat="43.08935" lon="1.64777">
        <ele>315.7</ele>
        <time>2019-02-13T09:37:17Z</time>
      </trkpt>
      <trkpt lat="43.0894" lon="1.64788">
        <ele>315.8</ele>
        <time>2019-02-13T09:37:19Z</time>
      </trkpt>
      <trkpt lat="43.08944" lon="1.648">
        <ele>315.8</ele>
        <time>2019-02-13T09:37:21Z</time>
      </trkpt>
      <trkpt lat="43.08952" lon="1.64816">
        <ele>315.5</ele>
        <time>2019-02-13T09:37:24Z</time>
      </trkpt>
      <trkpt lat="43.08957" lon="1.64826">
        <ele>315.2</ele>
        <time>2019-02-13T09:37:26Z</time>
      </trkpt>
      <trkpt lat="43.0896" lon="1.64838">
        <ele>314.8</ele>
        <time>2019-02-13T09:37:28Z</time>
      </trkpt>
      <trkpt lat="43.08964" lon="1.64861">
        <ele>314.4</ele>
        <time>2019-02-13T09:37:32Z</time>
      </trkpt>
      <trkpt lat="43.08962" lon="1.64874">
        <ele>314</ele>
        <time>2019-02-13T09:37:34Z</time>
      </trkpt>
      <trkpt lat="43.08962" lon="1.64891">
        <ele>313.7</ele>
        <time>2019-02-13T09:37:37Z</time>
      </trkpt>
      <trkpt lat="43.08963" lon="1.64908">
        <ele>313.5</ele>
        <time>2019-02-13T09:37:40Z</time>
      </trkpt>
      <trkpt lat="43.08962" lon="1.64921">
        <ele>313.4</ele>
        <time>2019-02-13T09:37:42Z</time>
      </trkpt>
      <trkpt lat="43.08962" lon="1.64934">
        <ele>313.2</ele>
        <time>2019-02-13T09:37:44Z</time>
      </trkpt>
      <trkpt lat="43.08962" lon="1.64948">
        <ele>313.1</ele>
        <time>2019-02-13T09:37:46Z</time>
      </trkpt>
      <trkpt lat="43.08962" lon="1.64962">
        <ele>313.3</ele>
        <time>2019-02-13T09:37:48Z</time>
      </trkpt>
      <trkpt lat="43.08961" lon="1.64976">
        <ele>313.5</ele>
        <time>2019-02-13T09:37:50Z</time>
      </trkpt>
      <trkpt lat="43.0896" lon="1.64989">
        <ele>313.8</ele>
        <time>2019-02-13T09:37:52Z</time>
      </trkpt>
      <trkpt lat="43.08959" lon="1.65003">
        <ele>314</ele>
        <time>2019-02-13T09:37:54Z</time>
      </trkpt>
      <trkpt lat="43.08958" lon="1.65017">
        <ele>314.3</ele>
        <time>2019-02-13T09:37:56Z</time>
      </trkpt>
      <trkpt lat="43.08957" lon="1.65029">
        <ele>314.3</ele>
        <time>2019-02-13T09:37:58Z</time>
      </trkpt>
      <trkpt lat="43.08955" lon="1.65041">
        <ele>314.2</ele>
        <time>2019-02-13T09:38:00Z</time>
      </trkpt>
      <trkpt lat="43.08953" lon="1.65054">
        <ele>313.7</ele>
        <time>2019-02-13T09:38:02Z</time>
      </trkpt>
      <trkpt lat="43.08951" lon="1.65069">
        <ele>313.6</ele>
        <time>2019-02-13T09:38:04Z</time>
      </trkpt>
      <trkpt lat="43.08948" lon="1.65081">
        <ele>313.9</ele>
        <time>2019-02-13T09:38:06Z</time>
      </trkpt>
      <trkpt lat="43.08942" lon="1.65091">
        <ele>314.3</ele>
        <time>2019-02-13T09:38:08Z</time>
      </trkpt>
      <trkpt lat="43.08934" lon="1.65103">
        <ele>314.9</ele>
        <time>2019-02-13T09:38:11Z</time>
      </trkpt>
      <trkpt lat="43.08926" lon="1.65115">
        <ele>315.6</ele>
        <time>2019-02-13T09:38:14Z</time>
      </trkpt>
      <trkpt lat="43.08922" lon="1.65127">
        <ele>316</ele>
        <time>2019-02-13T09:38:17Z</time>
      </trkpt>
      <trkpt lat="43.08916" lon="1.6514">
        <ele>317.4</ele>
        <time>2019-02-13T09:38:21Z</time>
      </trkpt>
      <trkpt lat="43.08912" lon="1.65151">
        <ele>318.1</ele>
        <time>2019-02-13T09:38:23Z</time>
      </trkpt>
      <trkpt lat="43.08906" lon="1.65166">
        <ele>318.3</ele>
        <time>2019-02-13T09:38:26Z</time>
      </trkpt>
      <trkpt lat="43.08899" lon="1.6518">
        <ele>318.3</ele>
        <time>2019-02-13T09:38:29Z</time>
      </trkpt>
      <trkpt lat="43.08893" lon="1.65197">
        <ele>317.4</ele>
        <time>2019-02-13T09:38:32Z</time>
      </trkpt>
      <trkpt lat="43.08889" lon="1.65208">
        <ele>316.9</ele>
        <time>2019-02-13T09:38:34Z</time>
      </trkpt>
      <trkpt lat="43.08882" lon="1.65217">
        <ele>316.7</ele>
        <time>2019-02-13T09:38:36Z</time>
      </trkpt>
      <trkpt lat="43.08871" lon="1.65224">
        <ele>316.5</ele>
        <time>2019-02-13T09:38:39Z</time>
      </trkpt>
      <trkpt lat="43.0886" lon="1.65228">
        <ele>316.1</ele>
        <time>2019-02-13T09:38:42Z</time>
      </trkpt>
      <trkpt lat="43.08848" lon="1.65229">
        <ele>316.1</ele>
        <time>2019-02-13T09:38:46Z</time>
      </trkpt>
      <trkpt lat="43.08838" lon="1.65239">
        <ele>316.1</ele>
        <time>2019-02-13T09:38:49Z</time>
      </trkpt>
      <trkpt lat="43.08831" lon="1.65247">
        <ele>316</ele>
        <time>2019-02-13T09:38:51Z</time>
      </trkpt>
      <trkpt lat="43.08823" lon="1.65256">
        <ele>315.6</ele>
        <time>2019-02-13T09:38:53Z</time>
      </trkpt>
      <trkpt lat="43.08814" lon="1.65268">
        <ele>315.2</ele>
        <time>2019-02-13T09:38:56Z</time>
      </trkpt>
      <trkpt lat="43.08809" lon="1.65284">
        <ele>315.1</ele>
        <time>2019-02-13T09:38:59Z</time>
      </trkpt>
      <trkpt lat="43.08803" lon="1.65299">
        <ele>314.8</ele>
        <time>2019-02-13T09:39:02Z</time>
      </trkpt>
      <trkpt lat="43.08794" lon="1.65304">
        <ele>314.5</ele>
        <time>2019-02-13T09:39:04Z</time>
      </trkpt>
      <trkpt lat="43.08782" lon="1.6531">
        <ele>314.6</ele>
        <time>2019-02-13T09:39:07Z</time>
      </trkpt>
      <trkpt lat="43.08772" lon="1.65316">
        <ele>314.7</ele>
        <time>2019-02-13T09:39:09Z</time>
      </trkpt>
      <trkpt lat="43.08764" lon="1.6532">
        <ele>314.7</ele>
        <time>2019-02-13T09:39:11Z</time>
      </trkpt>
      <trkpt lat="43.08754" lon="1.65325">
        <ele>315.1</ele>
        <time>2019-02-13T09:39:13Z</time>
      </trkpt>
      <trkpt lat="43.08744" lon="1.65329">
        <ele>315.3</ele>
        <time>2019-02-13T09:39:15Z</time>
      </trkpt>
      <trkpt lat="43.08733" lon="1.65333">
        <ele>315.9</ele>
        <time>2019-02-13T09:39:18Z</time>
      </trkpt>
      <trkpt lat="43.08719" lon="1.65338">
        <ele>316.9</ele>
        <time>2019-02-13T09:39:21Z</time>
      </trkpt>
      <trkpt lat="43.08708" lon="1.65344">
        <ele>317.4</ele>
        <time>2019-02-13T09:39:24Z</time>
      </trkpt>
      <trkpt lat="43.08701" lon="1.65356">
        <ele>317.4</ele>
        <time>2019-02-13T09:39:27Z</time>
      </trkpt>
      <trkpt lat="43.08694" lon="1.65372">
        <ele>317</ele>
        <time>2019-02-13T09:39:30Z</time>
      </trkpt>
      <trkpt lat="43.08691" lon="1.65384">
        <ele>316.8</ele>
        <time>2019-02-13T09:39:32Z</time>
      </trkpt>
      <trkpt lat="43.08687" lon="1.65395">
        <ele>316.4</ele>
        <time>2019-02-13T09:39:34Z</time>
      </trkpt>
      <trkpt lat="43.08682" lon="1.65412">
        <ele>316.2</ele>
        <time>2019-02-13T09:39:37Z</time>
      </trkpt>
      <trkpt lat="43.08679" lon="1.65425">
        <ele>316</ele>
        <time>2019-02-13T09:39:39Z</time>
      </trkpt>
      <trkpt lat="43.08674" lon="1.65436">
        <ele>316</ele>
        <time>2019-02-13T09:39:41Z</time>
      </trkpt>
      <trkpt lat="43.08669" lon="1.65446">
        <ele>316.2</ele>
        <time>2019-02-13T09:39:43Z</time>
      </trkpt>
      <trkpt lat="43.08662" lon="1.65455">
        <ele>316.6</ele>
        <time>2019-02-13T09:39:45Z</time>
      </trkpt>
      <trkpt lat="43.08655" lon="1.65466">
        <ele>317.2</ele>
        <time>2019-02-13T09:39:47Z</time>
      </trkpt>
      <trkpt lat="43.08648" lon="1.65474">
        <ele>317.4</ele>
        <time>2019-02-13T09:39:49Z</time>
      </trkpt>
      <trkpt lat="43.08638" lon="1.65482">
        <ele>317.6</ele>
        <time>2019-02-13T09:39:52Z</time>
      </trkpt>
      <trkpt lat="43.0863" lon="1.65494">
        <ele>317.7</ele>
        <time>2019-02-13T09:39:55Z</time>
      </trkpt>
      <trkpt lat="43.08626" lon="1.65506">
        <ele>317.9</ele>
        <time>2019-02-13T09:39:57Z</time>
      </trkpt>
      <trkpt lat="43.08622" lon="1.65518">
        <ele>317.8</ele>
        <time>2019-02-13T09:39:59Z</time>
      </trkpt>
      <trkpt lat="43.08621" lon="1.6553">
        <ele>317.7</ele>
        <time>2019-02-13T09:40:01Z</time>
      </trkpt>
      <trkpt lat="43.08622" lon="1.65548">
        <ele>317.2</ele>
        <time>2019-02-13T09:40:04Z</time>
      </trkpt>
      <trkpt lat="43.08622" lon="1.65561">
        <ele>316.8</ele>
        <time>2019-02-13T09:40:06Z</time>
      </trkpt>
      <trkpt lat="43.08617" lon="1.65577">
        <ele>316.8</ele>
        <time>2019-02-13T09:40:09Z</time>
      </trkpt>
      <trkpt lat="43.08608" lon="1.65581">
        <ele>317.1</ele>
        <time>2019-02-13T09:40:11Z</time>
      </trkpt>
      <trkpt lat="43.08595" lon="1.65586">
        <ele>318.2</ele>
        <time>2019-02-13T09:40:14Z</time>
      </trkpt>
      <trkpt lat="43.08586" lon="1.65589">
        <ele>319</ele>
        <time>2019-02-13T09:40:16Z</time>
      </trkpt>
      <trkpt lat="43.08577" lon="1.65593">
        <ele>319.6</ele>
        <time>2019-02-13T09:40:18Z</time>
      </trkpt>
      <trkpt lat="43.08568" lon="1.65597">
        <ele>320.2</ele>
        <time>2019-02-13T09:40:20Z</time>
      </trkpt>
      <trkpt lat="43.08556" lon="1.65602">
        <ele>321</ele>
        <time>2019-02-13T09:40:23Z</time>
      </trkpt>
      <trkpt lat="43.08544" lon="1.65608">
        <ele>321.5</ele>
        <time>2019-02-13T09:40:26Z</time>
      </trkpt>
      <trkpt lat="43.08534" lon="1.65614">
        <ele>321.7</ele>
        <time>2019-02-13T09:40:29Z</time>
      </trkpt>
      <trkpt lat="43.08523" lon="1.65617">
        <ele>322.3</ele>
        <time>2019-02-13T09:40:32Z</time>
      </trkpt>
      <trkpt lat="43.08514" lon="1.6562">
        <ele>322.5</ele>
        <time>2019-02-13T09:40:35Z</time>
      </trkpt>
      <trkpt lat="43.08524" lon="1.65617">
        <ele>323.2</ele>
        <time>2019-02-13T09:40:46Z</time>
      </trkpt>
      <trkpt lat="43.08535" lon="1.65614">
        <ele>323.3</ele>
        <time>2019-02-13T09:40:50Z</time>
      </trkpt>
      <trkpt lat="43.08541" lon="1.65624">
        <ele>323.4</ele>
        <time>2019-02-13T09:40:55Z</time>
      </trkpt>
      <trkpt lat="43.08542" lon="1.65636">
        <ele>323.3</ele>
        <time>2019-02-13T09:41:03Z</time>
      </trkpt>
      <trkpt lat="43.08533" lon="1.65641">
        <ele>323.2</ele>
        <time>2019-02-13T09:41:07Z</time>
      </trkpt>
      <trkpt lat="43.08526" lon="1.65649">
        <ele>323.1</ele>
        <time>2019-02-13T09:41:11Z</time>
      </trkpt>
      <trkpt lat="43.08518" lon="1.6566">
        <ele>323</ele>
        <time>2019-02-13T09:41:17Z</time>
      </trkpt>
      <trkpt lat="43.08511" lon="1.6567">
        <ele>322.8</ele>
        <time>2019-02-13T09:41:22Z</time>
      </trkpt>
      <trkpt lat="43.08506" lon="1.65682">
        <ele>322.4</ele>
        <time>2019-02-13T09:41:26Z</time>
      </trkpt>
      <trkpt lat="43.08498" lon="1.65691">
        <ele>322</ele>
        <time>2019-02-13T09:41:30Z</time>
      </trkpt>
      <trkpt lat="43.0849" lon="1.65698">
        <ele>321.6</ele>
        <time>2019-02-13T09:41:34Z</time>
      </trkpt>
      <trkpt lat="43.0848" lon="1.65702">
        <ele>321.3</ele>
        <time>2019-02-13T09:41:38Z</time>
      </trkpt>
      <trkpt lat="43.08471" lon="1.65704">
        <ele>321.2</ele>
        <time>2019-02-13T09:41:41Z</time>
      </trkpt>
      <trkpt lat="43.0846" lon="1.65707">
        <ele>321.1</ele>
        <time>2019-02-13T09:41:45Z</time>
      </trkpt>
      <trkpt lat="43.0845" lon="1.65711">
        <ele>321.1</ele>
        <time>2019-02-13T09:41:49Z</time>
      </trkpt>
      <trkpt lat="43.0844" lon="1.65711">
        <ele>321.2</ele>
        <time>2019-02-13T09:41:53Z</time>
      </trkpt>
      <trkpt lat="43.08432" lon="1.65717">
        <ele>321.1</ele>
        <time>2019-02-13T09:41:56Z</time>
      </trkpt>
      <trkpt lat="43.08423" lon="1.65722">
        <ele>320.9</ele>
        <time>2019-02-13T09:41:59Z</time>
      </trkpt>
      <trkpt lat="43.08415" lon="1.65729">
        <ele>320.8</ele>
        <time>2019-02-13T09:42:02Z</time>
      </trkpt>
      <trkpt lat="43.08406" lon="1.65736">
        <ele>320.8</ele>
        <time>2019-02-13T09:42:06Z</time>
      </trkpt>
      <trkpt lat="43.08397" lon="1.65746">
        <ele>320.9</ele>
        <time>2019-02-13T09:42:10Z</time>
      </trkpt>
      <trkpt lat="43.08396" lon="1.65758">
        <ele>320.9</ele>
        <time>2019-02-13T09:42:14Z</time>
      </trkpt>
      <trkpt lat="43.08388" lon="1.65767">
        <ele>320.7</ele>
        <time>2019-02-13T09:42:18Z</time>
      </trkpt>
      <trkpt lat="43.08383" lon="1.65781">
        <ele>320.4</ele>
        <time>2019-02-13T09:42:21Z</time>
      </trkpt>
      <trkpt lat="43.08377" lon="1.65791">
        <ele>320.1</ele>
        <time>2019-02-13T09:42:24Z</time>
      </trkpt>
      <trkpt lat="43.08368" lon="1.658">
        <ele>319.9</ele>
        <time>2019-02-13T09:42:28Z</time>
      </trkpt>
      <trkpt lat="43.08361" lon="1.65808">
        <ele>319.8</ele>
        <time>2019-02-13T09:42:34Z</time>
      </trkpt>
      <trkpt lat="43.08351" lon="1.6581">
        <ele>320.5</ele>
        <time>2019-02-13T09:42:51Z</time>
      </trkpt>
      <trkpt lat="43.08344" lon="1.65802">
        <ele>321.2</ele>
        <time>2019-02-13T09:43:15Z</time>
      </trkpt>
      <trkpt lat="43.08336" lon="1.65794">
        <ele>321.7</ele>
        <time>2019-02-13T09:43:21Z</time>
      </trkpt>
      <trkpt lat="43.08328" lon="1.65798">
        <ele>321.8</ele>
        <time>2019-02-13T09:43:25Z</time>
      </trkpt>
      <trkpt lat="43.08318" lon="1.65801">
        <ele>322</ele>
        <time>2019-02-13T09:43:30Z</time>
      </trkpt>
      <trkpt lat="43.08307" lon="1.65805">
        <ele>322.4</ele>
        <time>2019-02-13T09:43:46Z</time>
      </trkpt>
      <trkpt lat="43.08296" lon="1.65809">
        <ele>322.4</ele>
        <time>2019-02-13T09:43:50Z</time>
      </trkpt>
      <trkpt lat="43.08287" lon="1.65814">
        <ele>322.3</ele>
        <time>2019-02-13T09:43:54Z</time>
      </trkpt>
      <trkpt lat="43.08278" lon="1.65817">
        <ele>322.5</ele>
        <time>2019-02-13T09:43:59Z</time>
      </trkpt>
      <trkpt lat="43.08267" lon="1.65819">
        <ele>322.8</ele>
        <time>2019-02-13T09:44:04Z</time>
      </trkpt>
      <trkpt lat="43.08256" lon="1.65823">
        <ele>323.1</ele>
        <time>2019-02-13T09:44:09Z</time>
      </trkpt>
      <trkpt lat="43.08246" lon="1.65828">
        <ele>323.3</ele>
        <time>2019-02-13T09:44:13Z</time>
      </trkpt>
      <trkpt lat="43.08236" lon="1.65829">
        <ele>323.5</ele>
        <time>2019-02-13T09:44:18Z</time>
      </trkpt>
      <trkpt lat="43.08225" lon="1.65831">
        <ele>323.8</ele>
        <time>2019-02-13T09:44:22Z</time>
      </trkpt>
      <trkpt lat="43.08216" lon="1.65833">
        <ele>324.1</ele>
        <time>2019-02-13T09:44:27Z</time>
      </trkpt>
      <trkpt lat="43.08207" lon="1.65835">
        <ele>324.3</ele>
        <time>2019-02-13T09:44:31Z</time>
      </trkpt>
      <trkpt lat="43.08199" lon="1.6584">
        <ele>324.5</ele>
        <time>2019-02-13T09:44:34Z</time>
      </trkpt>
      <trkpt lat="43.08189" lon="1.65848">
        <ele>324.6</ele>
        <time>2019-02-13T09:44:37Z</time>
      </trkpt>
      <trkpt lat="43.0818" lon="1.65857">
        <ele>324.7</ele>
        <time>2019-02-13T09:44:40Z</time>
      </trkpt>
      <trkpt lat="43.08173" lon="1.65866">
        <ele>324.8</ele>
        <time>2019-02-13T09:44:44Z</time>
      </trkpt>
      <trkpt lat="43.08168" lon="1.65878">
        <ele>325</ele>
        <time>2019-02-13T09:44:48Z</time>
      </trkpt>
      <trkpt lat="43.08167" lon="1.65891">
        <ele>325.3</ele>
        <time>2019-02-13T09:44:52Z</time>
      </trkpt>
      <trkpt lat="43.08164" lon="1.65905">
        <ele>325.3</ele>
        <time>2019-02-13T09:44:56Z</time>
      </trkpt>
      <trkpt lat="43.08161" lon="1.65919">
        <ele>325.2</ele>
        <time>2019-02-13T09:45:00Z</time>
      </trkpt>
      <trkpt lat="43.0816" lon="1.65932">
        <ele>325.4</ele>
        <time>2019-02-13T09:45:07Z</time>
      </trkpt>
      <trkpt lat="43.08158" lon="1.65948">
        <ele>325.4</ele>
        <time>2019-02-13T09:45:12Z</time>
      </trkpt>
      <trkpt lat="43.08154" lon="1.65962">
        <ele>325.4</ele>
        <time>2019-02-13T09:45:16Z</time>
      </trkpt>
      <trkpt lat="43.0815" lon="1.65976">
        <ele>325.5</ele>
        <time>2019-02-13T09:45:20Z</time>
      </trkpt>
      <trkpt lat="43.08144" lon="1.65989">
        <ele>325.7</ele>
        <time>2019-02-13T09:45:24Z</time>
      </trkpt>
      <trkpt lat="43.08138" lon="1.66002">
        <ele>325.8</ele>
        <time>2019-02-13T09:45:28Z</time>
      </trkpt>
      <trkpt lat="43.08129" lon="1.66007">
        <ele>325.8</ele>
        <time>2019-02-13T09:45:31Z</time>
      </trkpt>
      <trkpt lat="43.0812" lon="1.66003">
        <ele>325.8</ele>
        <time>2019-02-13T09:45:35Z</time>
      </trkpt>
      <trkpt lat="43.08109" lon="1.65999">
        <ele>325.7</ele>
        <time>2019-02-13T09:45:39Z</time>
      </trkpt>
      <trkpt lat="43.08098" lon="1.65995">
        <ele>325.6</ele>
        <time>2019-02-13T09:45:42Z</time>
      </trkpt>
      <trkpt lat="43.08088" lon="1.65993">
        <ele>325.7</ele>
        <time>2019-02-13T09:45:45Z</time>
      </trkpt>
      <trkpt lat="43.08078" lon="1.65994">
        <ele>325.8</ele>
        <time>2019-02-13T09:45:48Z</time>
      </trkpt>
      <trkpt lat="43.08068" lon="1.65998">
        <ele>325.8</ele>
        <time>2019-02-13T09:45:52Z</time>
      </trkpt>
      <trkpt lat="43.08058" lon="1.66002">
        <ele>325.9</ele>
        <time>2019-02-13T09:45:56Z</time>
      </trkpt>
      <trkpt lat="43.0805" lon="1.66008">
        <ele>326.1</ele>
        <time>2019-02-13T09:45:59Z</time>
      </trkpt>
      <trkpt lat="43.08042" lon="1.66018">
        <ele>326.2</ele>
        <time>2019-02-13T09:46:02Z</time>
      </trkpt>
      <trkpt lat="43.08034" lon="1.66029">
        <ele>326.2</ele>
        <time>2019-02-13T09:46:05Z</time>
      </trkpt>
      <trkpt lat="43.08029" lon="1.66042">
        <ele>326.2</ele>
        <time>2019-02-13T09:46:08Z</time>
      </trkpt>
      <trkpt lat="43.08022" lon="1.66051">
        <ele>326.1</ele>
        <time>2019-02-13T09:46:12Z</time>
      </trkpt>
      <trkpt lat="43.08016" lon="1.66062">
        <ele>326.2</ele>
        <time>2019-02-13T09:46:16Z</time>
      </trkpt>
      <trkpt lat="43.08011" lon="1.66075">
        <ele>326.3</ele>
        <time>2019-02-13T09:46:21Z</time>
      </trkpt>
      <trkpt lat="43.08005" lon="1.66086">
        <ele>326.5</ele>
        <time>2019-02-13T09:46:25Z</time>
      </trkpt>
      <trkpt lat="43.07998" lon="1.66095">
        <ele>326.7</ele>
        <time>2019-02-13T09:46:29Z</time>
      </trkpt>
      <trkpt lat="43.07987" lon="1.66099">
        <ele>327.1</ele>
        <time>2019-02-13T09:46:34Z</time>
      </trkpt>
      <trkpt lat="43.07976" lon="1.66099">
        <ele>327.4</ele>
        <time>2019-02-13T09:46:39Z</time>
      </trkpt>
      <trkpt lat="43.07966" lon="1.66098">
        <ele>327.6</ele>
        <time>2019-02-13T09:46:43Z</time>
      </trkpt>
      <trkpt lat="43.07956" lon="1.66097">
        <ele>327.7</ele>
        <time>2019-02-13T09:46:47Z</time>
      </trkpt>
      <trkpt lat="43.07946" lon="1.66099">
        <ele>327.9</ele>
        <time>2019-02-13T09:46:51Z</time>
      </trkpt>
      <trkpt lat="43.07936" lon="1.661">
        <ele>327.8</ele>
        <time>2019-02-13T09:46:55Z</time>
      </trkpt>
      <trkpt lat="43.07926" lon="1.66106">
        <ele>327.8</ele>
        <time>2019-02-13T09:46:58Z</time>
      </trkpt>
      <trkpt lat="43.07916" lon="1.66112">
        <ele>327.8</ele>
        <time>2019-02-13T09:47:02Z</time>
      </trkpt>
      <trkpt lat="43.07908" lon="1.66117">
        <ele>327.8</ele>
        <time>2019-02-13T09:47:06Z</time>
      </trkpt>
      <trkpt lat="43.07898" lon="1.6612">
        <ele>327.7</ele>
        <time>2019-02-13T09:47:09Z</time>
      </trkpt>
      <trkpt lat="43.07888" lon="1.66125">
        <ele>327.8</ele>
        <time>2019-02-13T09:47:12Z</time>
      </trkpt>
      <trkpt lat="43.07879" lon="1.66131">
        <ele>328.1</ele>
        <time>2019-02-13T09:47:15Z</time>
      </trkpt>
      <trkpt lat="43.0787" lon="1.66137">
        <ele>328.9</ele>
        <time>2019-02-13T09:47:21Z</time>
      </trkpt>
      <trkpt lat="43.0786" lon="1.66141">
        <ele>329.4</ele>
        <time>2019-02-13T09:47:25Z</time>
      </trkpt>
      <trkpt lat="43.0785" lon="1.66147">
        <ele>329.8</ele>
        <time>2019-02-13T09:47:29Z</time>
      </trkpt>
      <trkpt lat="43.07843" lon="1.66156">
        <ele>329.9</ele>
        <time>2019-02-13T09:47:32Z</time>
      </trkpt>
      <trkpt lat="43.07836" lon="1.66165">
        <ele>329.9</ele>
        <time>2019-02-13T09:47:35Z</time>
      </trkpt>
      <trkpt lat="43.07827" lon="1.6617">
        <ele>329.8</ele>
        <time>2019-02-13T09:47:39Z</time>
      </trkpt>
      <trkpt lat="43.07819" lon="1.66181">
        <ele>329.8</ele>
        <time>2019-02-13T09:47:44Z</time>
      </trkpt>
      <trkpt lat="43.07812" lon="1.66194">
        <ele>329.7</ele>
        <time>2019-02-13T09:47:48Z</time>
      </trkpt>
      <trkpt lat="43.07805" lon="1.66208">
        <ele>329.5</ele>
        <time>2019-02-13T09:47:53Z</time>
      </trkpt>
      <trkpt lat="43.07801" lon="1.66219">
        <ele>329.3</ele>
        <time>2019-02-13T09:47:56Z</time>
      </trkpt>
      <trkpt lat="43.07793" lon="1.66228">
        <ele>329.1</ele>
        <time>2019-02-13T09:48:00Z</time>
      </trkpt>
      <trkpt lat="43.07783" lon="1.66233">
        <ele>329.1</ele>
        <time>2019-02-13T09:48:05Z</time>
      </trkpt>
      <trkpt lat="43.07777" lon="1.66244">
        <ele>329.2</ele>
        <time>2019-02-13T09:48:09Z</time>
      </trkpt>
      <trkpt lat="43.07776" lon="1.66257">
        <ele>329.3</ele>
        <time>2019-02-13T09:48:12Z</time>
      </trkpt>
      <trkpt lat="43.07772" lon="1.66272">
        <ele>329.2</ele>
        <time>2019-02-13T09:48:16Z</time>
      </trkpt>
      <trkpt lat="43.07773" lon="1.66285">
        <ele>329.1</ele>
        <time>2019-02-13T09:48:19Z</time>
      </trkpt>
      <trkpt lat="43.07774" lon="1.66299">
        <ele>329.1</ele>
        <time>2019-02-13T09:48:22Z</time>
      </trkpt>
      <trkpt lat="43.07777" lon="1.66316">
        <ele>329.4</ele>
        <time>2019-02-13T09:48:25Z</time>
      </trkpt>
      <trkpt lat="43.07782" lon="1.66333">
        <ele>329.9</ele>
        <time>2019-02-13T09:48:28Z</time>
      </trkpt>
      <trkpt lat="43.07783" lon="1.66351">
        <ele>330</ele>
        <time>2019-02-13T09:48:31Z</time>
      </trkpt>
      <trkpt lat="43.07784" lon="1.66368">
        <ele>329.9</ele>
        <time>2019-02-13T09:48:34Z</time>
      </trkpt>
      <trkpt lat="43.07784" lon="1.66381">
        <ele>329.8</ele>
        <time>2019-02-13T09:48:36Z</time>
      </trkpt>
      <trkpt lat="43.07785" lon="1.66394">
        <ele>329.7</ele>
        <time>2019-02-13T09:48:38Z</time>
      </trkpt>
      <trkpt lat="43.07786" lon="1.66407">
        <ele>329.4</ele>
        <time>2019-02-13T09:48:40Z</time>
      </trkpt>
      <trkpt lat="43.07786" lon="1.66421">
        <ele>329.1</ele>
        <time>2019-02-13T09:48:42Z</time>
      </trkpt>
      <trkpt lat="43.07786" lon="1.66435">
        <ele>328.7</ele>
        <time>2019-02-13T09:48:44Z</time>
      </trkpt>
      <trkpt lat="43.07786" lon="1.66449">
        <ele>328.4</ele>
        <time>2019-02-13T09:48:46Z</time>
      </trkpt>
      <trkpt lat="43.07785" lon="1.66463">
        <ele>328.4</ele>
        <time>2019-02-13T09:48:48Z</time>
      </trkpt>
      <trkpt lat="43.07781" lon="1.66477">
        <ele>328.7</ele>
        <time>2019-02-13T09:48:50Z</time>
      </trkpt>
      <trkpt lat="43.07775" lon="1.66489">
        <ele>328.9</ele>
        <time>2019-02-13T09:48:52Z</time>
      </trkpt>
      <trkpt lat="43.07764" lon="1.66496">
        <ele>329.4</ele>
        <time>2019-02-13T09:48:54Z</time>
      </trkpt>
      <trkpt lat="43.07753" lon="1.66501">
        <ele>330</ele>
        <time>2019-02-13T09:48:56Z</time>
      </trkpt>
      <trkpt lat="43.07742" lon="1.66505">
        <ele>330.6</ele>
        <time>2019-02-13T09:48:58Z</time>
      </trkpt>
      <trkpt lat="43.07731" lon="1.66509">
        <ele>331.2</ele>
        <time>2019-02-13T09:49:00Z</time>
      </trkpt>
      <trkpt lat="43.0772" lon="1.66513">
        <ele>331.7</ele>
        <time>2019-02-13T09:49:02Z</time>
      </trkpt>
      <trkpt lat="43.07709" lon="1.66518">
        <ele>332.2</ele>
        <time>2019-02-13T09:49:04Z</time>
      </trkpt>
      <trkpt lat="43.07699" lon="1.66524">
        <ele>332.5</ele>
        <time>2019-02-13T09:49:06Z</time>
      </trkpt>
      <trkpt lat="43.0769" lon="1.66533">
        <ele>332.9</ele>
        <time>2019-02-13T09:49:08Z</time>
      </trkpt>
      <trkpt lat="43.07682" lon="1.66543">
        <ele>333.1</ele>
        <time>2019-02-13T09:49:10Z</time>
      </trkpt>
      <trkpt lat="43.07674" lon="1.66554">
        <ele>333.3</ele>
        <time>2019-02-13T09:49:12Z</time>
      </trkpt>
      <trkpt lat="43.07665" lon="1.66565">
        <ele>333.5</ele>
        <time>2019-02-13T09:49:14Z</time>
      </trkpt>
      <trkpt lat="43.07658" lon="1.66575">
        <ele>333.6</ele>
        <time>2019-02-13T09:49:16Z</time>
      </trkpt>
      <trkpt lat="43.0765" lon="1.66586">
        <ele>333.6</ele>
        <time>2019-02-13T09:49:18Z</time>
      </trkpt>
      <trkpt lat="43.07642" lon="1.66595">
        <ele>333.6</ele>
        <time>2019-02-13T09:49:20Z</time>
      </trkpt>
      <trkpt lat="43.07633" lon="1.66607">
        <ele>333.6</ele>
        <time>2019-02-13T09:49:22Z</time>
      </trkpt>
      <trkpt lat="43.07623" lon="1.66617">
        <ele>333.6</ele>
        <time>2019-02-13T09:49:24Z</time>
      </trkpt>
      <trkpt lat="43.07615" lon="1.66628">
        <ele>333.6</ele>
        <time>2019-02-13T09:49:26Z</time>
      </trkpt>
      <trkpt lat="43.07607" lon="1.66639">
        <ele>333.8</ele>
        <time>2019-02-13T09:49:28Z</time>
      </trkpt>
      <trkpt lat="43.07598" lon="1.6665">
        <ele>334.1</ele>
        <time>2019-02-13T09:49:30Z</time>
      </trkpt>
      <trkpt lat="43.0759" lon="1.66661">
        <ele>334.4</ele>
        <time>2019-02-13T09:49:32Z</time>
      </trkpt>
      <trkpt lat="43.07581" lon="1.66672">
        <ele>334.8</ele>
        <time>2019-02-13T09:49:34Z</time>
      </trkpt>
      <trkpt lat="43.07572" lon="1.66683">
        <ele>335.3</ele>
        <time>2019-02-13T09:49:36Z</time>
      </trkpt>
      <trkpt lat="43.07565" lon="1.66694">
        <ele>335.7</ele>
        <time>2019-02-13T09:49:38Z</time>
      </trkpt>
      <trkpt lat="43.07555" lon="1.66704">
        <ele>335.9</ele>
        <time>2019-02-13T09:49:40Z</time>
      </trkpt>
      <trkpt lat="43.07547" lon="1.66715">
        <ele>335.9</ele>
        <time>2019-02-13T09:49:42Z</time>
      </trkpt>
      <trkpt lat="43.07538" lon="1.66725">
        <ele>335.7</ele>
        <time>2019-02-13T09:49:44Z</time>
      </trkpt>
      <trkpt lat="43.07529" lon="1.66735">
        <ele>335.4</ele>
        <time>2019-02-13T09:49:46Z</time>
      </trkpt>
      <trkpt lat="43.07521" lon="1.66746">
        <ele>335.2</ele>
        <time>2019-02-13T09:49:48Z</time>
      </trkpt>
      <trkpt lat="43.07512" lon="1.66756">
        <ele>335.1</ele>
        <time>2019-02-13T09:49:50Z</time>
      </trkpt>
      <trkpt lat="43.07504" lon="1.66767">
        <ele>335.1</ele>
        <time>2019-02-13T09:49:52Z</time>
      </trkpt>
      <trkpt lat="43.07496" lon="1.66778">
        <ele>335.3</ele>
        <time>2019-02-13T09:49:54Z</time>
      </trkpt>
      <trkpt lat="43.07487" lon="1.66789">
        <ele>335.7</ele>
        <time>2019-02-13T09:49:56Z</time>
      </trkpt>
      <trkpt lat="43.07479" lon="1.66799">
        <ele>335.9</ele>
        <time>2019-02-13T09:49:58Z</time>
      </trkpt>
      <trkpt lat="43.07471" lon="1.6681">
        <ele>336</ele>
        <time>2019-02-13T09:50:00Z</time>
      </trkpt>
      <trkpt lat="43.07463" lon="1.66819">
        <ele>336.2</ele>
        <time>2019-02-13T09:50:02Z</time>
      </trkpt>
      <trkpt lat="43.07455" lon="1.66828">
        <ele>336.2</ele>
        <time>2019-02-13T09:50:04Z</time>
      </trkpt>
      <trkpt lat="43.07446" lon="1.66838">
        <ele>336.3</ele>
        <time>2019-02-13T09:50:06Z</time>
      </trkpt>
      <trkpt lat="43.07436" lon="1.66845">
        <ele>336.5</ele>
        <time>2019-02-13T09:50:08Z</time>
      </trkpt>
      <trkpt lat="43.07426" lon="1.66852">
        <ele>337</ele>
        <time>2019-02-13T09:50:10Z</time>
      </trkpt>
      <trkpt lat="43.07417" lon="1.66859">
        <ele>337.7</ele>
        <time>2019-02-13T09:50:12Z</time>
      </trkpt>
      <trkpt lat="43.07407" lon="1.66864">
        <ele>338.3</ele>
        <time>2019-02-13T09:50:14Z</time>
      </trkpt>
      <trkpt lat="43.07397" lon="1.6687">
        <ele>338.9</ele>
        <time>2019-02-13T09:50:16Z</time>
      </trkpt>
      <trkpt lat="43.07386" lon="1.66876">
        <ele>339.3</ele>
        <time>2019-02-13T09:50:18Z</time>
      </trkpt>
      <trkpt lat="43.07376" lon="1.66882">
        <ele>339.5</ele>
        <time>2019-02-13T09:50:20Z</time>
      </trkpt>
      <trkpt lat="43.07365" lon="1.66887">
        <ele>339.6</ele>
        <time>2019-02-13T09:50:22Z</time>
      </trkpt>
      <trkpt lat="43.07354" lon="1.66891">
        <ele>339.5</ele>
        <time>2019-02-13T09:50:24Z</time>
      </trkpt>
      <trkpt lat="43.07342" lon="1.66892">
        <ele>339.3</ele>
        <time>2019-02-13T09:50:26Z</time>
      </trkpt>
      <trkpt lat="43.0733" lon="1.66892">
        <ele>339.1</ele>
        <time>2019-02-13T09:50:28Z</time>
      </trkpt>
      <trkpt lat="43.07318" lon="1.6689">
        <ele>338.9</ele>
        <time>2019-02-13T09:50:30Z</time>
      </trkpt>
      <trkpt lat="43.07307" lon="1.66888">
        <ele>338.6</ele>
        <time>2019-02-13T09:50:32Z</time>
      </trkpt>
      <trkpt lat="43.07296" lon="1.66886">
        <ele>338.2</ele>
        <time>2019-02-13T09:50:34Z</time>
      </trkpt>
      <trkpt lat="43.07285" lon="1.66886">
        <ele>337.8</ele>
        <time>2019-02-13T09:50:36Z</time>
      </trkpt>
      <trkpt lat="43.07274" lon="1.66886">
        <ele>337.4</ele>
        <time>2019-02-13T09:50:38Z</time>
      </trkpt>
      <trkpt lat="43.07262" lon="1.66889">
        <ele>337.2</ele>
        <time>2019-02-13T09:50:40Z</time>
      </trkpt>
      <trkpt lat="43.07251" lon="1.66892">
        <ele>337</ele>
        <time>2019-02-13T09:50:42Z</time>
      </trkpt>
      <trkpt lat="43.0724" lon="1.66896">
        <ele>336.8</ele>
        <time>2019-02-13T09:50:45Z</time>
      </trkpt>
      <trkpt lat="43.07229" lon="1.669">
        <ele>336.5</ele>
        <time>2019-02-13T09:50:47Z</time>
      </trkpt>
      <trkpt lat="43.07217" lon="1.66904">
        <ele>336.1</ele>
        <time>2019-02-13T09:50:49Z</time>
      </trkpt>
      <trkpt lat="43.07206" lon="1.66909">
        <ele>335.7</ele>
        <time>2019-02-13T09:50:51Z</time>
      </trkpt>
      <trkpt lat="43.07195" lon="1.66913">
        <ele>335.4</ele>
        <time>2019-02-13T09:50:53Z</time>
      </trkpt>
      <trkpt lat="43.07184" lon="1.66918">
        <ele>335.2</ele>
        <time>2019-02-13T09:50:55Z</time>
      </trkpt>
      <trkpt lat="43.07174" lon="1.66923">
        <ele>335.4</ele>
        <time>2019-02-13T09:50:57Z</time>
      </trkpt>
      <trkpt lat="43.07162" lon="1.66928">
        <ele>336</ele>
        <time>2019-02-13T09:50:59Z</time>
      </trkpt>
      <trkpt lat="43.07151" lon="1.66932">
        <ele>336.5</ele>
        <time>2019-02-13T09:51:01Z</time>
      </trkpt>
      <trkpt lat="43.07141" lon="1.66935">
        <ele>337.1</ele>
        <time>2019-02-13T09:51:03Z</time>
      </trkpt>
      <trkpt lat="43.0713" lon="1.6694">
        <ele>337.5</ele>
        <time>2019-02-13T09:51:05Z</time>
      </trkpt>
      <trkpt lat="43.0712" lon="1.66945">
        <ele>337.7</ele>
        <time>2019-02-13T09:51:07Z</time>
      </trkpt>
      <trkpt lat="43.07109" lon="1.6695">
        <ele>337.9</ele>
        <time>2019-02-13T09:51:09Z</time>
      </trkpt>
      <trkpt lat="43.07099" lon="1.66956">
        <ele>338.2</ele>
        <time>2019-02-13T09:51:11Z</time>
      </trkpt>
      <trkpt lat="43.07089" lon="1.66961">
        <ele>338.4</ele>
        <time>2019-02-13T09:51:13Z</time>
      </trkpt>
      <trkpt lat="43.07079" lon="1.66967">
        <ele>338.7</ele>
        <time>2019-02-13T09:51:15Z</time>
      </trkpt>
      <trkpt lat="43.07068" lon="1.66972">
        <ele>338.9</ele>
        <time>2019-02-13T09:51:17Z</time>
      </trkpt>
      <trkpt lat="43.07058" lon="1.66977">
        <ele>339</ele>
        <time>2019-02-13T09:51:19Z</time>
      </trkpt>
      <trkpt lat="43.07049" lon="1.66982">
        <ele>339.1</ele>
        <time>2019-02-13T09:51:21Z</time>
      </trkpt>
      <trkpt lat="43.07039" lon="1.66987">
        <ele>339</ele>
        <time>2019-02-13T09:51:23Z</time>
      </trkpt>
      <trkpt lat="43.07031" lon="1.66993">
        <ele>338.9</ele>
        <time>2019-02-13T09:51:25Z</time>
      </trkpt>
      <trkpt lat="43.07026" lon="1.67004">
        <ele>338.6</ele>
        <time>2019-02-13T09:51:27Z</time>
      </trkpt>
      <trkpt lat="43.07026" lon="1.67022">
        <ele>338.2</ele>
        <time>2019-02-13T09:51:30Z</time>
      </trkpt>
      <trkpt lat="43.07027" lon="1.67034">
        <ele>337.8</ele>
        <time>2019-02-13T09:51:32Z</time>
      </trkpt>
      <trkpt lat="43.07031" lon="1.67052">
        <ele>336.9</ele>
        <time>2019-02-13T09:51:35Z</time>
      </trkpt>
      <trkpt lat="43.07034" lon="1.67066">
        <ele>336.6</ele>
        <time>2019-02-13T09:51:37Z</time>
      </trkpt>
      <trkpt lat="43.07036" lon="1.67079">
        <ele>336.4</ele>
        <time>2019-02-13T09:51:39Z</time>
      </trkpt>
      <trkpt lat="43.07039" lon="1.67092">
        <ele>336.4</ele>
        <time>2019-02-13T09:51:41Z</time>
      </trkpt>
      <trkpt lat="43.0704" lon="1.67104">
        <ele>336.5</ele>
        <time>2019-02-13T09:51:43Z</time>
      </trkpt>
      <trkpt lat="43.07044" lon="1.67116">
        <ele>336.4</ele>
        <time>2019-02-13T09:51:45Z</time>
      </trkpt>
      <trkpt lat="43.07048" lon="1.67133">
        <ele>336.2</ele>
        <time>2019-02-13T09:51:48Z</time>
      </trkpt>
      <trkpt lat="43.0705" lon="1.67149">
        <ele>335.8</ele>
        <time>2019-02-13T09:51:51Z</time>
      </trkpt>
      <trkpt lat="43.07053" lon="1.67162">
        <ele>335.7</ele>
        <time>2019-02-13T09:51:53Z</time>
      </trkpt>
      <trkpt lat="43.07056" lon="1.67175">
        <ele>335.8</ele>
        <time>2019-02-13T09:51:55Z</time>
      </trkpt>
      <trkpt lat="43.07059" lon="1.67188">
        <ele>335.7</ele>
        <time>2019-02-13T09:51:57Z</time>
      </trkpt>
      <trkpt lat="43.07061" lon="1.672">
        <ele>335.7</ele>
        <time>2019-02-13T09:51:59Z</time>
      </trkpt>
      <trkpt lat="43.07064" lon="1.67217">
        <ele>335.9</ele>
        <time>2019-02-13T09:52:02Z</time>
      </trkpt>
      <trkpt lat="43.07065" lon="1.67234">
        <ele>335.9</ele>
        <time>2019-02-13T09:52:05Z</time>
      </trkpt>
      <trkpt lat="43.07068" lon="1.67252">
        <ele>335.9</ele>
        <time>2019-02-13T09:52:08Z</time>
      </trkpt>
      <trkpt lat="43.07071" lon="1.67269">
        <ele>336</ele>
        <time>2019-02-13T09:52:11Z</time>
      </trkpt>
      <trkpt lat="43.07072" lon="1.67281">
        <ele>336</ele>
        <time>2019-02-13T09:52:13Z</time>
      </trkpt>
      <trkpt lat="43.07074" lon="1.67294">
        <ele>336.2</ele>
        <time>2019-02-13T09:52:15Z</time>
      </trkpt>
      <trkpt lat="43.07076" lon="1.67307">
        <ele>336.6</ele>
        <time>2019-02-13T09:52:17Z</time>
      </trkpt>
      <trkpt lat="43.07078" lon="1.67319">
        <ele>337.6</ele>
        <time>2019-02-13T09:52:19Z</time>
      </trkpt>
      <trkpt lat="43.0708" lon="1.67336">
        <ele>339.1</ele>
        <time>2019-02-13T09:52:22Z</time>
      </trkpt>
      <trkpt lat="43.07083" lon="1.6735">
        <ele>339.5</ele>
        <time>2019-02-13T09:52:25Z</time>
      </trkpt>
      <trkpt lat="43.07084" lon="1.67363">
        <ele>339.7</ele>
        <time>2019-02-13T09:52:28Z</time>
      </trkpt>
      <trkpt lat="43.07085" lon="1.67379">
        <ele>340.1</ele>
        <time>2019-02-13T09:52:32Z</time>
      </trkpt>
      <trkpt lat="43.07087" lon="1.67391">
        <ele>340.7</ele>
        <time>2019-02-13T09:52:36Z</time>
      </trkpt>
      <trkpt lat="43.07081" lon="1.67402">
        <ele>341.7</ele>
        <time>2019-02-13T09:52:43Z</time>
      </trkpt>
      <trkpt lat="43.07071" lon="1.67409">
        <ele>342.3</ele>
        <time>2019-02-13T09:52:48Z</time>
      </trkpt>
      <trkpt lat="43.07063" lon="1.67418">
        <ele>342.8</ele>
        <time>2019-02-13T09:52:53Z</time>
      </trkpt>
      <trkpt lat="43.07057" lon="1.67427">
        <ele>343.2</ele>
        <time>2019-02-13T09:52:58Z</time>
      </trkpt>
      <trkpt lat="43.0705" lon="1.67436">
        <ele>343.8</ele>
        <time>2019-02-13T09:53:03Z</time>
      </trkpt>
      <trkpt lat="43.07043" lon="1.67444">
        <ele>344.3</ele>
        <time>2019-02-13T09:53:07Z</time>
      </trkpt>
      <trkpt lat="43.07036" lon="1.67452">
        <ele>344.8</ele>
        <time>2019-02-13T09:53:11Z</time>
      </trkpt>
      <trkpt lat="43.07029" lon="1.67461">
        <ele>345.4</ele>
        <time>2019-02-13T09:53:15Z</time>
      </trkpt>
      <trkpt lat="43.07022" lon="1.67471">
        <ele>345.8</ele>
        <time>2019-02-13T09:53:19Z</time>
      </trkpt>
      <trkpt lat="43.07015" lon="1.67482">
        <ele>346.3</ele>
        <time>2019-02-13T09:53:23Z</time>
      </trkpt>
      <trkpt lat="43.07008" lon="1.67491">
        <ele>346.7</ele>
        <time>2019-02-13T09:53:27Z</time>
      </trkpt>
      <trkpt lat="43.07002" lon="1.67503">
        <ele>347.1</ele>
        <time>2019-02-13T09:53:31Z</time>
      </trkpt>
      <trkpt lat="43.06996" lon="1.67513">
        <ele>347.4</ele>
        <time>2019-02-13T09:53:34Z</time>
      </trkpt>
      <trkpt lat="43.06991" lon="1.67525">
        <ele>347.7</ele>
        <time>2019-02-13T09:53:37Z</time>
      </trkpt>
      <trkpt lat="43.06983" lon="1.67538">
        <ele>348.8</ele>
        <time>2019-02-13T09:53:40Z</time>
      </trkpt>
      <trkpt lat="43.06974" lon="1.67551">
        <ele>350.2</ele>
        <time>2019-02-13T09:53:43Z</time>
      </trkpt>
      <trkpt lat="43.06966" lon="1.67562">
        <ele>351</ele>
        <time>2019-02-13T09:53:46Z</time>
      </trkpt>
      <trkpt lat="43.06959" lon="1.67573">
        <ele>351.3</ele>
        <time>2019-02-13T09:53:49Z</time>
      </trkpt>
      <trkpt lat="43.06951" lon="1.67584">
        <ele>351.7</ele>
        <time>2019-02-13T09:53:52Z</time>
      </trkpt>
      <trkpt lat="43.06944" lon="1.67596">
        <ele>351.8</ele>
        <time>2019-02-13T09:53:55Z</time>
      </trkpt>
      <trkpt lat="43.06938" lon="1.67607">
        <ele>351.9</ele>
        <time>2019-02-13T09:53:58Z</time>
      </trkpt>
      <trkpt lat="43.06932" lon="1.67617">
        <ele>352</ele>
        <time>2019-02-13T09:54:01Z</time>
      </trkpt>
      <trkpt lat="43.06926" lon="1.67628">
        <ele>352.1</ele>
        <time>2019-02-13T09:54:04Z</time>
      </trkpt>
      <trkpt lat="43.06918" lon="1.67639">
        <ele>352.2</ele>
        <time>2019-02-13T09:54:07Z</time>
      </trkpt>
      <trkpt lat="43.06911" lon="1.6765">
        <ele>352.2</ele>
        <time>2019-02-13T09:54:10Z</time>
      </trkpt>
      <trkpt lat="43.06901" lon="1.6766">
        <ele>352.2</ele>
        <time>2019-02-13T09:54:13Z</time>
      </trkpt>
      <trkpt lat="43.06891" lon="1.67669">
        <ele>352.2</ele>
        <time>2019-02-13T09:54:16Z</time>
      </trkpt>
      <trkpt lat="43.0688" lon="1.67679">
        <ele>352.3</ele>
        <time>2019-02-13T09:54:19Z</time>
      </trkpt>
      <trkpt lat="43.06872" lon="1.67686">
        <ele>352.3</ele>
        <time>2019-02-13T09:54:21Z</time>
      </trkpt>
      <trkpt lat="43.06863" lon="1.67693">
        <ele>352.1</ele>
        <time>2019-02-13T09:54:23Z</time>
      </trkpt>
      <trkpt lat="43.06855" lon="1.67701">
        <ele>352.2</ele>
        <time>2019-02-13T09:54:25Z</time>
      </trkpt>
      <trkpt lat="43.06845" lon="1.67708">
        <ele>352.3</ele>
        <time>2019-02-13T09:54:27Z</time>
      </trkpt>
      <trkpt lat="43.06836" lon="1.67714">
        <ele>352.3</ele>
        <time>2019-02-13T09:54:29Z</time>
      </trkpt>
      <trkpt lat="43.06825" lon="1.6772">
        <ele>352.2</ele>
        <time>2019-02-13T09:54:31Z</time>
      </trkpt>
      <trkpt lat="43.06813" lon="1.67723">
        <ele>351.9</ele>
        <time>2019-02-13T09:54:34Z</time>
      </trkpt>
      <trkpt lat="43.06803" lon="1.67722">
        <ele>351.8</ele>
        <time>2019-02-13T09:54:37Z</time>
      </trkpt>
      <trkpt lat="43.06794" lon="1.67717">
        <ele>351.7</ele>
        <time>2019-02-13T09:54:41Z</time>
      </trkpt>
      <trkpt lat="43.06784" lon="1.67713">
        <ele>351.7</ele>
        <time>2019-02-13T09:54:46Z</time>
      </trkpt>
      <trkpt lat="43.06775" lon="1.67711">
        <ele>351.6</ele>
        <time>2019-02-13T09:54:50Z</time>
      </trkpt>
      <trkpt lat="43.06765" lon="1.6771">
        <ele>351.6</ele>
        <time>2019-02-13T09:54:54Z</time>
      </trkpt>
      <trkpt lat="43.06753" lon="1.67713">
        <ele>351.6</ele>
        <time>2019-02-13T09:54:58Z</time>
      </trkpt>
      <trkpt lat="43.06744" lon="1.67716">
        <ele>351.7</ele>
        <time>2019-02-13T09:55:01Z</time>
      </trkpt>
      <trkpt lat="43.06735" lon="1.67721">
        <ele>351.7</ele>
        <time>2019-02-13T09:55:04Z</time>
      </trkpt>
      <trkpt lat="43.06724" lon="1.67725">
        <ele>351.8</ele>
        <time>2019-02-13T09:55:08Z</time>
      </trkpt>
      <trkpt lat="43.06715" lon="1.67728">
        <ele>351.7</ele>
        <time>2019-02-13T09:55:11Z</time>
      </trkpt>
      <trkpt lat="43.06705" lon="1.67731">
        <ele>351.6</ele>
        <time>2019-02-13T09:55:14Z</time>
      </trkpt>
      <trkpt lat="43.06696" lon="1.67732">
        <ele>351.5</ele>
        <time>2019-02-13T09:55:17Z</time>
      </trkpt>
      <trkpt lat="43.06685" lon="1.67734">
        <ele>351.4</ele>
        <time>2019-02-13T09:55:20Z</time>
      </trkpt>
      <trkpt lat="43.06674" lon="1.67736">
        <ele>351.2</ele>
        <time>2019-02-13T09:55:23Z</time>
      </trkpt>
      <trkpt lat="43.06662" lon="1.67739">
        <ele>350.6</ele>
        <time>2019-02-13T09:55:26Z</time>
      </trkpt>
      <trkpt lat="43.0665" lon="1.67742">
        <ele>350.4</ele>
        <time>2019-02-13T09:55:29Z</time>
      </trkpt>
      <trkpt lat="43.06638" lon="1.67745">
        <ele>350.4</ele>
        <time>2019-02-13T09:55:32Z</time>
      </trkpt>
      <trkpt lat="43.06629" lon="1.67749">
        <ele>350.4</ele>
        <time>2019-02-13T09:55:35Z</time>
      </trkpt>
      <trkpt lat="43.06618" lon="1.67751">
        <ele>350.2</ele>
        <time>2019-02-13T09:55:38Z</time>
      </trkpt>
      <trkpt lat="43.06609" lon="1.67753">
        <ele>349.9</ele>
        <time>2019-02-13T09:55:40Z</time>
      </trkpt>
      <trkpt lat="43.06596" lon="1.67753">
        <ele>349.7</ele>
        <time>2019-02-13T09:55:43Z</time>
      </trkpt>
      <trkpt lat="43.06584" lon="1.67754">
        <ele>349.8</ele>
        <time>2019-02-13T09:55:46Z</time>
      </trkpt>
      <trkpt lat="43.06572" lon="1.67755">
        <ele>350</ele>
        <time>2019-02-13T09:55:49Z</time>
      </trkpt>
      <trkpt lat="43.06562" lon="1.67757">
        <ele>350.1</ele>
        <time>2019-02-13T09:55:52Z</time>
      </trkpt>
      <trkpt lat="43.06552" lon="1.67759">
        <ele>350.1</ele>
        <time>2019-02-13T09:55:55Z</time>
      </trkpt>
      <trkpt lat="43.06542" lon="1.67762">
        <ele>350.1</ele>
        <time>2019-02-13T09:55:58Z</time>
      </trkpt>
      <trkpt lat="43.06531" lon="1.67767">
        <ele>350.1</ele>
        <time>2019-02-13T09:56:01Z</time>
      </trkpt>
      <trkpt lat="43.0652" lon="1.6777">
        <ele>350.2</ele>
        <time>2019-02-13T09:56:04Z</time>
      </trkpt>
      <trkpt lat="43.06511" lon="1.67774">
        <ele>350.3</ele>
        <time>2019-02-13T09:56:07Z</time>
      </trkpt>
      <trkpt lat="43.06501" lon="1.67778">
        <ele>350.4</ele>
        <time>2019-02-13T09:56:10Z</time>
      </trkpt>
      <trkpt lat="43.06491" lon="1.67782">
        <ele>350.5</ele>
        <time>2019-02-13T09:56:13Z</time>
      </trkpt>
      <trkpt lat="43.06481" lon="1.67786">
        <ele>350.6</ele>
        <time>2019-02-13T09:56:16Z</time>
      </trkpt>
      <trkpt lat="43.06473" lon="1.67792">
        <ele>350.8</ele>
        <time>2019-02-13T09:56:19Z</time>
      </trkpt>
      <trkpt lat="43.06461" lon="1.67796">
        <ele>350.9</ele>
        <time>2019-02-13T09:56:22Z</time>
      </trkpt>
      <trkpt lat="43.06451" lon="1.67799">
        <ele>351.1</ele>
        <time>2019-02-13T09:56:25Z</time>
      </trkpt>
      <trkpt lat="43.0644" lon="1.67802">
        <ele>351.4</ele>
        <time>2019-02-13T09:56:28Z</time>
      </trkpt>
      <trkpt lat="43.06429" lon="1.67803">
        <ele>352</ele>
        <time>2019-02-13T09:56:31Z</time>
      </trkpt>
      <trkpt lat="43.06417" lon="1.67801">
        <ele>353</ele>
        <time>2019-02-13T09:56:34Z</time>
      </trkpt>
      <trkpt lat="43.06408" lon="1.67797">
        <ele>353.4</ele>
        <time>2019-02-13T09:56:36Z</time>
      </trkpt>
      <trkpt lat="43.06399" lon="1.67796">
        <ele>353.4</ele>
        <time>2019-02-13T09:56:38Z</time>
      </trkpt>
      <trkpt lat="43.06389" lon="1.67796">
        <ele>353.3</ele>
        <time>2019-02-13T09:56:40Z</time>
      </trkpt>
      <trkpt lat="43.06377" lon="1.67798">
        <ele>353.2</ele>
        <time>2019-02-13T09:56:43Z</time>
      </trkpt>
      <trkpt lat="43.06364" lon="1.67801">
        <ele>353.7</ele>
        <time>2019-02-13T09:56:46Z</time>
      </trkpt>
      <trkpt lat="43.06353" lon="1.67803">
        <ele>354.2</ele>
        <time>2019-02-13T09:56:48Z</time>
      </trkpt>
      <trkpt lat="43.06341" lon="1.67805">
        <ele>354.9</ele>
        <time>2019-02-13T09:56:51Z</time>
      </trkpt>
      <trkpt lat="43.06329" lon="1.67808">
        <ele>354.7</ele>
        <time>2019-02-13T09:56:54Z</time>
      </trkpt>
      <trkpt lat="43.0632" lon="1.67802">
        <ele>354.1</ele>
        <time>2019-02-13T09:56:57Z</time>
      </trkpt>
      <trkpt lat="43.0632" lon="1.67788">
        <ele>353.6</ele>
        <time>2019-02-13T09:56:59Z</time>
      </trkpt>
      <trkpt lat="43.06322" lon="1.67773">
        <ele>353.2</ele>
        <time>2019-02-13T09:57:01Z</time>
      </trkpt>
      <trkpt lat="43.06323" lon="1.67758">
        <ele>352.7</ele>
        <time>2019-02-13T09:57:03Z</time>
      </trkpt>
      <trkpt lat="43.06326" lon="1.67741">
        <ele>352.1</ele>
        <time>2019-02-13T09:57:05Z</time>
      </trkpt>
      <trkpt lat="43.06328" lon="1.67724">
        <ele>351.5</ele>
        <time>2019-02-13T09:57:07Z</time>
      </trkpt>
      <trkpt lat="43.06331" lon="1.67707">
        <ele>351</ele>
        <time>2019-02-13T09:57:09Z</time>
      </trkpt>
      <trkpt lat="43.06333" lon="1.6769">
        <ele>350.5</ele>
        <time>2019-02-13T09:57:11Z</time>
      </trkpt>
      <trkpt lat="43.06335" lon="1.67674">
        <ele>350.1</ele>
        <time>2019-02-13T09:57:13Z</time>
      </trkpt>
      <trkpt lat="43.06339" lon="1.67659">
        <ele>349.7</ele>
        <time>2019-02-13T09:57:15Z</time>
      </trkpt>
      <trkpt lat="43.06342" lon="1.67644">
        <ele>349.5</ele>
        <time>2019-02-13T09:57:17Z</time>
      </trkpt>
      <trkpt lat="43.06345" lon="1.67629">
        <ele>349.3</ele>
        <time>2019-02-13T09:57:19Z</time>
      </trkpt>
      <trkpt lat="43.06349" lon="1.67613">
        <ele>349.2</ele>
        <time>2019-02-13T09:57:21Z</time>
      </trkpt>
      <trkpt lat="43.06354" lon="1.67596">
        <ele>349.1</ele>
        <time>2019-02-13T09:57:23Z</time>
      </trkpt>
      <trkpt lat="43.06358" lon="1.67579">
        <ele>349.1</ele>
        <time>2019-02-13T09:57:25Z</time>
      </trkpt>
      <trkpt lat="43.06363" lon="1.67562">
        <ele>349</ele>
        <time>2019-02-13T09:57:27Z</time>
      </trkpt>
      <trkpt lat="43.06368" lon="1.67544">
        <ele>348.8</ele>
        <time>2019-02-13T09:57:29Z</time>
      </trkpt>
      <trkpt lat="43.06373" lon="1.67526">
        <ele>348.7</ele>
        <time>2019-02-13T09:57:31Z</time>
      </trkpt>
      <trkpt lat="43.06378" lon="1.67508">
        <ele>348.5</ele>
        <time>2019-02-13T09:57:33Z</time>
      </trkpt>
      <trkpt lat="43.06384" lon="1.67491">
        <ele>348.3</ele>
        <time>2019-02-13T09:57:35Z</time>
      </trkpt>
      <trkpt lat="43.06389" lon="1.67474">
        <ele>348.1</ele>
        <time>2019-02-13T09:57:37Z</time>
      </trkpt>
      <trkpt lat="43.06395" lon="1.67457">
        <ele>348</ele>
        <time>2019-02-13T09:57:39Z</time>
      </trkpt>
      <trkpt lat="43.064" lon="1.67439">
        <ele>347.8</ele>
        <time>2019-02-13T09:57:41Z</time>
      </trkpt>
      <trkpt lat="43.06406" lon="1.67422">
        <ele>347.7</ele>
        <time>2019-02-13T09:57:43Z</time>
      </trkpt>
      <trkpt lat="43.06411" lon="1.67405">
        <ele>347.6</ele>
        <time>2019-02-13T09:57:45Z</time>
      </trkpt>
      <trkpt lat="43.06417" lon="1.67387">
        <ele>347.5</ele>
        <time>2019-02-13T09:57:47Z</time>
      </trkpt>
      <trkpt lat="43.06421" lon="1.67369">
        <ele>347.3</ele>
        <time>2019-02-13T09:57:49Z</time>
      </trkpt>
      <trkpt lat="43.06426" lon="1.67351">
        <ele>347.2</ele>
        <time>2019-02-13T09:57:51Z</time>
      </trkpt>
      <trkpt lat="43.06429" lon="1.67333">
        <ele>347</ele>
        <time>2019-02-13T09:57:53Z</time>
      </trkpt>
      <trkpt lat="43.06432" lon="1.67315">
        <ele>346.8</ele>
        <time>2019-02-13T09:57:55Z</time>
      </trkpt>
      <trkpt lat="43.06433" lon="1.67297">
        <ele>346.6</ele>
        <time>2019-02-13T09:57:57Z</time>
      </trkpt>
      <trkpt lat="43.06429" lon="1.67282">
        <ele>346.4</ele>
        <time>2019-02-13T09:57:59Z</time>
      </trkpt>
      <trkpt lat="43.0642" lon="1.67275">
        <ele>346.2</ele>
        <time>2019-02-13T09:58:01Z</time>
      </trkpt>
      <trkpt lat="43.0641" lon="1.67278">
        <ele>345.9</ele>
        <time>2019-02-13T09:58:03Z</time>
      </trkpt>
      <trkpt lat="43.06401" lon="1.67284">
        <ele>345.7</ele>
        <time>2019-02-13T09:58:05Z</time>
      </trkpt>
      <trkpt lat="43.06393" lon="1.67291">
        <ele>345.6</ele>
        <time>2019-02-13T09:58:07Z</time>
      </trkpt>
      <trkpt lat="43.06382" lon="1.67298">
        <ele>345.5</ele>
        <time>2019-02-13T09:58:10Z</time>
      </trkpt>
      <trkpt lat="43.06369" lon="1.67303">
        <ele>345.4</ele>
        <time>2019-02-13T09:58:13Z</time>
      </trkpt>
      <trkpt lat="43.0636" lon="1.67304">
        <ele>345.3</ele>
        <time>2019-02-13T09:58:15Z</time>
      </trkpt>
      <trkpt lat="43.06351" lon="1.67305">
        <ele>345.2</ele>
        <time>2019-02-13T09:58:17Z</time>
      </trkpt>
      <trkpt lat="43.06342" lon="1.67306">
        <ele>345.2</ele>
        <time>2019-02-13T09:58:19Z</time>
      </trkpt>
      <trkpt lat="43.06332" lon="1.67306">
        <ele>345.2</ele>
        <time>2019-02-13T09:58:21Z</time>
      </trkpt>
      <trkpt lat="43.06323" lon="1.67306">
        <ele>345.2</ele>
        <time>2019-02-13T09:58:23Z</time>
      </trkpt>
      <trkpt lat="43.06314" lon="1.67305">
        <ele>345.2</ele>
        <time>2019-02-13T09:58:25Z</time>
      </trkpt>
      <trkpt lat="43.06305" lon="1.67304">
        <ele>345.2</ele>
        <time>2019-02-13T09:58:27Z</time>
      </trkpt>
      <trkpt lat="43.06296" lon="1.67303">
        <ele>345.2</ele>
        <time>2019-02-13T09:58:29Z</time>
      </trkpt>
      <trkpt lat="43.06283" lon="1.67301">
        <ele>345.2</ele>
        <time>2019-02-13T09:58:32Z</time>
      </trkpt>
      <trkpt lat="43.0627" lon="1.67298">
        <ele>345.2</ele>
        <time>2019-02-13T09:58:35Z</time>
      </trkpt>
      <trkpt lat="43.06256" lon="1.67296">
        <ele>345.2</ele>
        <time>2019-02-13T09:58:38Z</time>
      </trkpt>
      <trkpt lat="43.06244" lon="1.67292">
        <ele>345.2</ele>
        <time>2019-02-13T09:58:41Z</time>
      </trkpt>
      <trkpt lat="43.06231" lon="1.6729">
        <ele>345.2</ele>
        <time>2019-02-13T09:58:44Z</time>
      </trkpt>
      <trkpt lat="43.06219" lon="1.67286">
        <ele>345.2</ele>
        <time>2019-02-13T09:58:47Z</time>
      </trkpt>
      <trkpt lat="43.06207" lon="1.67284">
        <ele>345.1</ele>
        <time>2019-02-13T09:58:50Z</time>
      </trkpt>
      <trkpt lat="43.06195" lon="1.67282">
        <ele>345.1</ele>
        <time>2019-02-13T09:58:53Z</time>
      </trkpt>
      <trkpt lat="43.06183" lon="1.67281">
        <ele>345.1</ele>
        <time>2019-02-13T09:58:56Z</time>
      </trkpt>
      <trkpt lat="43.06172" lon="1.6728">
        <ele>345.1</ele>
        <time>2019-02-13T09:58:59Z</time>
      </trkpt>
      <trkpt lat="43.06161" lon="1.67278">
        <ele>345.1</ele>
        <time>2019-02-13T09:59:03Z</time>
      </trkpt>
      <trkpt lat="43.0615" lon="1.67277">
        <ele>345.1</ele>
        <time>2019-02-13T09:59:06Z</time>
      </trkpt>
      <trkpt lat="43.0614" lon="1.67278">
        <ele>345.1</ele>
        <time>2019-02-13T09:59:09Z</time>
      </trkpt>
      <trkpt lat="43.06128" lon="1.6728">
        <ele>345.2</ele>
        <time>2019-02-13T09:59:12Z</time>
      </trkpt>
      <trkpt lat="43.06117" lon="1.67284">
        <ele>345.5</ele>
        <time>2019-02-13T09:59:15Z</time>
      </trkpt>
      <trkpt lat="43.06106" lon="1.67289">
        <ele>345.7</ele>
        <time>2019-02-13T09:59:18Z</time>
      </trkpt>
      <trkpt lat="43.06095" lon="1.67293">
        <ele>346.1</ele>
        <time>2019-02-13T09:59:21Z</time>
      </trkpt>
      <trkpt lat="43.06083" lon="1.67296">
        <ele>346.4</ele>
        <time>2019-02-13T09:59:24Z</time>
      </trkpt>
      <trkpt lat="43.06071" lon="1.673">
        <ele>346.6</ele>
        <time>2019-02-13T09:59:27Z</time>
      </trkpt>
      <trkpt lat="43.0606" lon="1.67304">
        <ele>346.8</ele>
        <time>2019-02-13T09:59:30Z</time>
      </trkpt>
      <trkpt lat="43.06049" lon="1.67309">
        <ele>347.1</ele>
        <time>2019-02-13T09:59:33Z</time>
      </trkpt>
      <trkpt lat="43.06037" lon="1.67312">
        <ele>347.3</ele>
        <time>2019-02-13T09:59:36Z</time>
      </trkpt>
      <trkpt lat="43.06027" lon="1.67315">
        <ele>347.4</ele>
        <time>2019-02-13T09:59:39Z</time>
      </trkpt>
      <trkpt lat="43.06016" lon="1.67316">
        <ele>347.5</ele>
        <time>2019-02-13T09:59:42Z</time>
      </trkpt>
      <trkpt lat="43.06004" lon="1.6732">
        <ele>347.9</ele>
        <time>2019-02-13T09:59:45Z</time>
      </trkpt>
      <trkpt lat="43.05992" lon="1.67323">
        <ele>348.3</ele>
        <time>2019-02-13T09:59:48Z</time>
      </trkpt>
      <trkpt lat="43.0598" lon="1.67326">
        <ele>348.7</ele>
        <time>2019-02-13T09:59:51Z</time>
      </trkpt>
      <trkpt lat="43.05967" lon="1.6733">
        <ele>349</ele>
        <time>2019-02-13T09:59:54Z</time>
      </trkpt>
      <trkpt lat="43.05955" lon="1.67334">
        <ele>349.2</ele>
        <time>2019-02-13T09:59:57Z</time>
      </trkpt>
      <trkpt lat="43.05943" lon="1.67337">
        <ele>349.4</ele>
        <time>2019-02-13T10:00:00Z</time>
      </trkpt>
      <trkpt lat="43.0593" lon="1.6734">
        <ele>349.6</ele>
        <time>2019-02-13T10:00:03Z</time>
      </trkpt>
      <trkpt lat="43.05918" lon="1.67344">
        <ele>349.7</ele>
        <time>2019-02-13T10:00:06Z</time>
      </trkpt>
      <trkpt lat="43.05906" lon="1.67347">
        <ele>349.9</ele>
        <time>2019-02-13T10:00:09Z</time>
      </trkpt>
      <trkpt lat="43.05893" lon="1.6735">
        <ele>350.1</ele>
        <time>2019-02-13T10:00:12Z</time>
      </trkpt>
      <trkpt lat="43.05881" lon="1.67353">
        <ele>350.2</ele>
        <time>2019-02-13T10:00:15Z</time>
      </trkpt>
      <trkpt lat="43.05868" lon="1.67356">
        <ele>350.4</ele>
        <time>2019-02-13T10:00:18Z</time>
      </trkpt>
      <trkpt lat="43.05855" lon="1.6736">
        <ele>350.5</ele>
        <time>2019-02-13T10:00:21Z</time>
      </trkpt>
      <trkpt lat="43.05843" lon="1.67364">
        <ele>350.7</ele>
        <time>2019-02-13T10:00:24Z</time>
      </trkpt>
      <trkpt lat="43.05831" lon="1.67368">
        <ele>350.8</ele>
        <time>2019-02-13T10:00:27Z</time>
      </trkpt>
      <trkpt lat="43.05819" lon="1.67372">
        <ele>350.9</ele>
        <time>2019-02-13T10:00:30Z</time>
      </trkpt>
      <trkpt lat="43.05807" lon="1.67377">
        <ele>351.1</ele>
        <time>2019-02-13T10:00:33Z</time>
      </trkpt>
      <trkpt lat="43.05795" lon="1.67382">
        <ele>351.3</ele>
        <time>2019-02-13T10:00:36Z</time>
      </trkpt>
      <trkpt lat="43.05784" lon="1.67385">
        <ele>351.4</ele>
        <time>2019-02-13T10:00:39Z</time>
      </trkpt>
      <trkpt lat="43.05773" lon="1.6739">
        <ele>351.5</ele>
        <time>2019-02-13T10:00:42Z</time>
      </trkpt>
      <trkpt lat="43.05762" lon="1.67394">
        <ele>351.6</ele>
        <time>2019-02-13T10:00:45Z</time>
      </trkpt>
      <trkpt lat="43.0575" lon="1.67398">
        <ele>351.7</ele>
        <time>2019-02-13T10:00:48Z</time>
      </trkpt>
      <trkpt lat="43.05738" lon="1.67403">
        <ele>351.8</ele>
        <time>2019-02-13T10:00:51Z</time>
      </trkpt>
      <trkpt lat="43.05726" lon="1.67407">
        <ele>351.9</ele>
        <time>2019-02-13T10:00:54Z</time>
      </trkpt>
      <trkpt lat="43.05714" lon="1.67412">
        <ele>352</ele>
        <time>2019-02-13T10:00:57Z</time>
      </trkpt>
      <trkpt lat="43.05703" lon="1.67416">
        <ele>352.1</ele>
        <time>2019-02-13T10:01:00Z</time>
      </trkpt>
      <trkpt lat="43.05692" lon="1.67421">
        <ele>352.2</ele>
        <time>2019-02-13T10:01:03Z</time>
      </trkpt>
      <trkpt lat="43.05682" lon="1.67425">
        <ele>352.2</ele>
        <time>2019-02-13T10:01:06Z</time>
      </trkpt>
      <trkpt lat="43.05672" lon="1.67428">
        <ele>352.2</ele>
        <time>2019-02-13T10:01:09Z</time>
      </trkpt>
      <trkpt lat="43.05661" lon="1.67432">
        <ele>352.2</ele>
        <time>2019-02-13T10:01:12Z</time>
      </trkpt>
      <trkpt lat="43.05651" lon="1.67436">
        <ele>352.2</ele>
        <time>2019-02-13T10:01:15Z</time>
      </trkpt>
      <trkpt lat="43.05641" lon="1.67438">
        <ele>352.1</ele>
        <time>2019-02-13T10:01:18Z</time>
      </trkpt>
      <trkpt lat="43.0563" lon="1.67441">
        <ele>352.1</ele>
        <time>2019-02-13T10:01:21Z</time>
      </trkpt>
      <trkpt lat="43.0562" lon="1.67445">
        <ele>352.1</ele>
        <time>2019-02-13T10:01:24Z</time>
      </trkpt>
      <trkpt lat="43.05611" lon="1.6745">
        <ele>352.1</ele>
        <time>2019-02-13T10:01:27Z</time>
      </trkpt>
      <trkpt lat="43.05605" lon="1.67461">
        <ele>352.1</ele>
        <time>2019-02-13T10:01:30Z</time>
      </trkpt>
      <trkpt lat="43.05601" lon="1.67475">
        <ele>352.1</ele>
        <time>2019-02-13T10:01:33Z</time>
      </trkpt>
      <trkpt lat="43.05596" lon="1.67489">
        <ele>352.2</ele>
        <time>2019-02-13T10:01:36Z</time>
      </trkpt>
      <trkpt lat="43.05587" lon="1.67496">
        <ele>352.4</ele>
        <time>2019-02-13T10:01:39Z</time>
      </trkpt>
      <trkpt lat="43.05576" lon="1.67501">
        <ele>352.9</ele>
        <time>2019-02-13T10:01:42Z</time>
      </trkpt>
      <trkpt lat="43.05565" lon="1.67503">
        <ele>353.2</ele>
        <time>2019-02-13T10:01:45Z</time>
      </trkpt>
      <trkpt lat="43.05556" lon="1.67503">
        <ele>353.2</ele>
        <time>2019-02-13T10:01:48Z</time>
      </trkpt>
      <trkpt lat="43.05545" lon="1.67498">
        <ele>353.5</ele>
        <time>2019-02-13T10:01:51Z</time>
      </trkpt>
      <trkpt lat="43.05535" lon="1.67492">
        <ele>353.8</ele>
        <time>2019-02-13T10:01:54Z</time>
      </trkpt>
      <trkpt lat="43.05525" lon="1.67483">
        <ele>354.1</ele>
        <time>2019-02-13T10:01:57Z</time>
      </trkpt>
      <trkpt lat="43.05515" lon="1.67477">
        <ele>354.2</ele>
        <time>2019-02-13T10:02:00Z</time>
      </trkpt>
      <trkpt lat="43.05504" lon="1.67472">
        <ele>354.4</ele>
        <time>2019-02-13T10:02:03Z</time>
      </trkpt>
      <trkpt lat="43.05492" lon="1.67466">
        <ele>354.6</ele>
        <time>2019-02-13T10:02:06Z</time>
      </trkpt>
      <trkpt lat="43.05479" lon="1.67459">
        <ele>355</ele>
        <time>2019-02-13T10:02:09Z</time>
      </trkpt>
      <trkpt lat="43.05468" lon="1.67452">
        <ele>355.3</ele>
        <time>2019-02-13T10:02:12Z</time>
      </trkpt>
      <trkpt lat="43.05458" lon="1.67442">
        <ele>355.7</ele>
        <time>2019-02-13T10:02:15Z</time>
      </trkpt>
      <trkpt lat="43.05448" lon="1.67434">
        <ele>355.9</ele>
        <time>2019-02-13T10:02:18Z</time>
      </trkpt>
      <trkpt lat="43.05439" lon="1.67427">
        <ele>355.9</ele>
        <time>2019-02-13T10:02:21Z</time>
      </trkpt>
      <trkpt lat="43.05429" lon="1.6742">
        <ele>356</ele>
        <time>2019-02-13T10:02:24Z</time>
      </trkpt>
      <trkpt lat="43.0542" lon="1.67414">
        <ele>356</ele>
        <time>2019-02-13T10:02:27Z</time>
      </trkpt>
      <trkpt lat="43.05408" lon="1.67409">
        <ele>356.2</ele>
        <time>2019-02-13T10:02:30Z</time>
      </trkpt>
      <trkpt lat="43.05397" lon="1.67402">
        <ele>356.2</ele>
        <time>2019-02-13T10:02:33Z</time>
      </trkpt>
      <trkpt lat="43.05385" lon="1.67396">
        <ele>356.3</ele>
        <time>2019-02-13T10:02:36Z</time>
      </trkpt>
      <trkpt lat="43.05373" lon="1.67394">
        <ele>356.4</ele>
        <time>2019-02-13T10:02:39Z</time>
      </trkpt>
      <trkpt lat="43.05362" lon="1.67395">
        <ele>356.4</ele>
        <time>2019-02-13T10:02:42Z</time>
      </trkpt>
      <trkpt lat="43.05351" lon="1.67394">
        <ele>356.4</ele>
        <time>2019-02-13T10:02:45Z</time>
      </trkpt>
      <trkpt lat="43.05339" lon="1.67395">
        <ele>356.5</ele>
        <time>2019-02-13T10:02:48Z</time>
      </trkpt>
      <trkpt lat="43.05328" lon="1.67394">
        <ele>356.4</ele>
        <time>2019-02-13T10:02:51Z</time>
      </trkpt>
      <trkpt lat="43.05317" lon="1.67393">
        <ele>356.4</ele>
        <time>2019-02-13T10:02:54Z</time>
      </trkpt>
      <trkpt lat="43.05306" lon="1.67397">
        <ele>356.4</ele>
        <time>2019-02-13T10:02:57Z</time>
      </trkpt>
      <trkpt lat="43.05295" lon="1.67401">
        <ele>356.5</ele>
        <time>2019-02-13T10:03:00Z</time>
      </trkpt>
      <trkpt lat="43.05285" lon="1.67402">
        <ele>356.5</ele>
        <time>2019-02-13T10:03:03Z</time>
      </trkpt>
      <trkpt lat="43.05273" lon="1.674">
        <ele>356.4</ele>
        <time>2019-02-13T10:03:07Z</time>
      </trkpt>
      <trkpt lat="43.05262" lon="1.67399">
        <ele>356.2</ele>
        <time>2019-02-13T10:03:10Z</time>
      </trkpt>
      <trkpt lat="43.05252" lon="1.67398">
        <ele>356</ele>
        <time>2019-02-13T10:03:13Z</time>
      </trkpt>
      <trkpt lat="43.0524" lon="1.67396">
        <ele>355.8</ele>
        <time>2019-02-13T10:03:16Z</time>
      </trkpt>
      <trkpt lat="43.05229" lon="1.67394">
        <ele>355.7</ele>
        <time>2019-02-13T10:03:19Z</time>
      </trkpt>
      <trkpt lat="43.05218" lon="1.67391">
        <ele>355.6</ele>
        <time>2019-02-13T10:03:22Z</time>
      </trkpt>
      <trkpt lat="43.05208" lon="1.67386">
        <ele>355.7</ele>
        <time>2019-02-13T10:03:25Z</time>
      </trkpt>
      <trkpt lat="43.05199" lon="1.67378">
        <ele>355.8</ele>
        <time>2019-02-13T10:03:28Z</time>
      </trkpt>
      <trkpt lat="43.05189" lon="1.6737">
        <ele>356.1</ele>
        <time>2019-02-13T10:03:31Z</time>
      </trkpt>
      <trkpt lat="43.05179" lon="1.67361">
        <ele>356</ele>
        <time>2019-02-13T10:03:34Z</time>
      </trkpt>
      <trkpt lat="43.05168" lon="1.67358">
        <ele>355.3</ele>
        <time>2019-02-13T10:03:37Z</time>
      </trkpt>
      <trkpt lat="43.05156" lon="1.6736">
        <ele>355</ele>
        <time>2019-02-13T10:03:40Z</time>
      </trkpt>
      <trkpt lat="43.05146" lon="1.67362">
        <ele>355</ele>
        <time>2019-02-13T10:03:43Z</time>
      </trkpt>
      <trkpt lat="43.05134" lon="1.67361">
        <ele>355.1</ele>
        <time>2019-02-13T10:03:46Z</time>
      </trkpt>
      <trkpt lat="43.05123" lon="1.6736">
        <ele>355.3</ele>
        <time>2019-02-13T10:03:49Z</time>
      </trkpt>
      <trkpt lat="43.05111" lon="1.6736">
        <ele>356</ele>
        <time>2019-02-13T10:03:52Z</time>
      </trkpt>
      <trkpt lat="43.051" lon="1.6736">
        <ele>356.2</ele>
        <time>2019-02-13T10:03:55Z</time>
      </trkpt>
      <trkpt lat="43.0509" lon="1.67362">
        <ele>356.4</ele>
        <time>2019-02-13T10:03:58Z</time>
      </trkpt>
      <trkpt lat="43.05079" lon="1.67363">
        <ele>356.5</ele>
        <time>2019-02-13T10:04:01Z</time>
      </trkpt>
      <trkpt lat="43.05068" lon="1.67365">
        <ele>356.6</ele>
        <time>2019-02-13T10:04:04Z</time>
      </trkpt>
      <trkpt lat="43.05058" lon="1.67366">
        <ele>356.7</ele>
        <time>2019-02-13T10:04:07Z</time>
      </trkpt>
      <trkpt lat="43.05047" lon="1.67368">
        <ele>356.8</ele>
        <time>2019-02-13T10:04:10Z</time>
      </trkpt>
      <trkpt lat="43.05037" lon="1.67372">
        <ele>356.8</ele>
        <time>2019-02-13T10:04:13Z</time>
      </trkpt>
      <trkpt lat="43.05026" lon="1.67374">
        <ele>356.9</ele>
        <time>2019-02-13T10:04:16Z</time>
      </trkpt>
      <trkpt lat="43.05016" lon="1.67375">
        <ele>357</ele>
        <time>2019-02-13T10:04:19Z</time>
      </trkpt>
      <trkpt lat="43.05005" lon="1.67377">
        <ele>357.1</ele>
        <time>2019-02-13T10:04:22Z</time>
      </trkpt>
      <trkpt lat="43.04994" lon="1.67378">
        <ele>357.4</ele>
        <time>2019-02-13T10:04:25Z</time>
      </trkpt>
      <trkpt lat="43.04981" lon="1.67379">
        <ele>358.4</ele>
        <time>2019-02-13T10:04:28Z</time>
      </trkpt>
      <trkpt lat="43.04969" lon="1.67381">
        <ele>359.1</ele>
        <time>2019-02-13T10:04:31Z</time>
      </trkpt>
      <trkpt lat="43.04957" lon="1.67384">
        <ele>359.8</ele>
        <time>2019-02-13T10:04:34Z</time>
      </trkpt>
      <trkpt lat="43.04946" lon="1.67386">
        <ele>360.6</ele>
        <time>2019-02-13T10:04:37Z</time>
      </trkpt>
      <trkpt lat="43.04935" lon="1.67389">
        <ele>360.9</ele>
        <time>2019-02-13T10:04:40Z</time>
      </trkpt>
      <trkpt lat="43.04926" lon="1.6739">
        <ele>361.3</ele>
        <time>2019-02-13T10:04:42Z</time>
      </trkpt>
      <trkpt lat="43.04913" lon="1.67393">
        <ele>362.2</ele>
        <time>2019-02-13T10:04:45Z</time>
      </trkpt>
      <trkpt lat="43.04904" lon="1.67394">
        <ele>362.7</ele>
        <time>2019-02-13T10:04:47Z</time>
      </trkpt>
      <trkpt lat="43.04891" lon="1.67397">
        <ele>363.2</ele>
        <time>2019-02-13T10:04:50Z</time>
      </trkpt>
      <trkpt lat="43.0488" lon="1.67401">
        <ele>363.7</ele>
        <time>2019-02-13T10:04:53Z</time>
      </trkpt>
      <trkpt lat="43.04869" lon="1.67397">
        <ele>364</ele>
        <time>2019-02-13T10:04:56Z</time>
      </trkpt>
      <trkpt lat="43.04865" lon="1.67383">
        <ele>364.1</ele>
        <time>2019-02-13T10:05:00Z</time>
      </trkpt>
      <trkpt lat="43.04862" lon="1.67369">
        <ele>364.2</ele>
        <time>2019-02-13T10:05:03Z</time>
      </trkpt>
      <trkpt lat="43.04858" lon="1.67357">
        <ele>364.2</ele>
        <time>2019-02-13T10:05:06Z</time>
      </trkpt>
      <trkpt lat="43.04853" lon="1.67347">
        <ele>364.2</ele>
        <time>2019-02-13T10:05:36Z</time>
      </trkpt>
      <trkpt lat="43.04845" lon="1.67336">
        <ele>363.5</ele>
        <time>2019-02-13T10:06:47Z</time>
      </trkpt>
      <trkpt lat="43.04833" lon="1.67331">
        <ele>362.7</ele>
        <time>2019-02-13T10:06:50Z</time>
      </trkpt>
      <trkpt lat="43.0482" lon="1.67325">
        <ele>362</ele>
        <time>2019-02-13T10:06:53Z</time>
      </trkpt>
      <trkpt lat="43.04811" lon="1.6732">
        <ele>361.4</ele>
        <time>2019-02-13T10:06:55Z</time>
      </trkpt>
      <trkpt lat="43.04799" lon="1.67314">
        <ele>360.4</ele>
        <time>2019-02-13T10:06:58Z</time>
      </trkpt>
      <trkpt lat="43.04788" lon="1.67308">
        <ele>359.6</ele>
        <time>2019-02-13T10:07:01Z</time>
      </trkpt>
      <trkpt lat="43.04778" lon="1.67307">
        <ele>359.4</ele>
        <time>2019-02-13T10:07:04Z</time>
      </trkpt>
      <trkpt lat="43.04768" lon="1.67316">
        <ele>358.7</ele>
        <time>2019-02-13T10:07:07Z</time>
      </trkpt>
      <trkpt lat="43.04759" lon="1.67322">
        <ele>357.6</ele>
        <time>2019-02-13T10:07:09Z</time>
      </trkpt>
      <trkpt lat="43.04751" lon="1.67327">
        <ele>356.9</ele>
        <time>2019-02-13T10:07:11Z</time>
      </trkpt>
      <trkpt lat="43.04742" lon="1.67333">
        <ele>356.7</ele>
        <time>2019-02-13T10:07:13Z</time>
      </trkpt>
      <trkpt lat="43.04725" lon="1.67346">
        <ele>357.1</ele>
        <time>2019-02-13T10:07:17Z</time>
      </trkpt>
      <trkpt lat="43.04715" lon="1.67352">
        <ele>357.7</ele>
        <time>2019-02-13T10:07:19Z</time>
      </trkpt>
      <trkpt lat="43.04704" lon="1.67363">
        <ele>358.7</ele>
        <time>2019-02-13T10:07:22Z</time>
      </trkpt>
      <trkpt lat="43.04695" lon="1.6737">
        <ele>359.8</ele>
        <time>2019-02-13T10:07:24Z</time>
      </trkpt>
      <trkpt lat="43.04686" lon="1.67376">
        <ele>360.7</ele>
        <time>2019-02-13T10:07:26Z</time>
      </trkpt>
      <trkpt lat="43.04677" lon="1.67384">
        <ele>361.4</ele>
        <time>2019-02-13T10:07:28Z</time>
      </trkpt>
      <trkpt lat="43.04668" lon="1.6739">
        <ele>361.9</ele>
        <time>2019-02-13T10:07:30Z</time>
      </trkpt>
      <trkpt lat="43.04659" lon="1.67398">
        <ele>362.4</ele>
        <time>2019-02-13T10:07:32Z</time>
      </trkpt>
      <trkpt lat="43.0465" lon="1.67403">
        <ele>362.9</ele>
        <time>2019-02-13T10:07:34Z</time>
      </trkpt>
      <trkpt lat="43.04639" lon="1.67404">
        <ele>363.3</ele>
        <time>2019-02-13T10:07:36Z</time>
      </trkpt>
      <trkpt lat="43.0463" lon="1.67404">
        <ele>363.7</ele>
        <time>2019-02-13T10:07:38Z</time>
      </trkpt>
      <trkpt lat="43.0462" lon="1.67406">
        <ele>363.9</ele>
        <time>2019-02-13T10:07:40Z</time>
      </trkpt>
      <trkpt lat="43.04611" lon="1.67408">
        <ele>363.8</ele>
        <time>2019-02-13T10:07:42Z</time>
      </trkpt>
      <trkpt lat="43.04599" lon="1.67416">
        <ele>363.9</ele>
        <time>2019-02-13T10:07:45Z</time>
      </trkpt>
      <trkpt lat="43.04591" lon="1.67428">
        <ele>364</ele>
        <time>2019-02-13T10:07:48Z</time>
      </trkpt>
      <trkpt lat="43.04587" lon="1.67441">
        <ele>364</ele>
        <time>2019-02-13T10:07:50Z</time>
      </trkpt>
      <trkpt lat="43.04584" lon="1.67454">
        <ele>363.8</ele>
        <time>2019-02-13T10:07:52Z</time>
      </trkpt>
      <trkpt lat="43.0458" lon="1.67468">
        <ele>363.6</ele>
        <time>2019-02-13T10:07:54Z</time>
      </trkpt>
      <trkpt lat="43.04576" lon="1.67482">
        <ele>363.4</ele>
        <time>2019-02-13T10:07:56Z</time>
      </trkpt>
      <trkpt lat="43.04571" lon="1.67494">
        <ele>363.2</ele>
        <time>2019-02-13T10:07:58Z</time>
      </trkpt>
      <trkpt lat="43.04567" lon="1.67506">
        <ele>362.9</ele>
        <time>2019-02-13T10:08:00Z</time>
      </trkpt>
      <trkpt lat="43.04563" lon="1.67518">
        <ele>362.9</ele>
        <time>2019-02-13T10:08:03Z</time>
      </trkpt>
      <trkpt lat="43.04559" lon="1.67506">
        <ele>363.2</ele>
        <time>2019-02-13T10:08:42Z</time>
      </trkpt>
      <trkpt lat="43.0455" lon="1.67498">
        <ele>363</ele>
        <time>2019-02-13T10:08:47Z</time>
      </trkpt>
      <trkpt lat="43.04542" lon="1.67491">
        <ele>362.9</ele>
        <time>2019-02-13T10:08:51Z</time>
      </trkpt>
      <trkpt lat="43.04533" lon="1.67481">
        <ele>362.8</ele>
        <time>2019-02-13T10:08:55Z</time>
      </trkpt>
      <trkpt lat="43.04524" lon="1.67473">
        <ele>362.8</ele>
        <time>2019-02-13T10:08:59Z</time>
      </trkpt>
      <trkpt lat="43.04513" lon="1.67466">
        <ele>362.9</ele>
        <time>2019-02-13T10:09:03Z</time>
      </trkpt>
      <trkpt lat="43.04504" lon="1.67461">
        <ele>363</ele>
        <time>2019-02-13T10:09:06Z</time>
      </trkpt>
      <trkpt lat="43.04496" lon="1.67454">
        <ele>363.1</ele>
        <time>2019-02-13T10:09:09Z</time>
      </trkpt>
      <trkpt lat="43.04487" lon="1.67447">
        <ele>363.2</ele>
        <time>2019-02-13T10:09:13Z</time>
      </trkpt>
      <trkpt lat="43.04478" lon="1.67439">
        <ele>363.4</ele>
        <time>2019-02-13T10:09:17Z</time>
      </trkpt>
      <trkpt lat="43.0447" lon="1.67431">
        <ele>363.5</ele>
        <time>2019-02-13T10:09:22Z</time>
      </trkpt>
      <trkpt lat="43.04461" lon="1.67426">
        <ele>364.2</ele>
        <time>2019-02-13T10:09:37Z</time>
      </trkpt>
      <trkpt lat="43.04454" lon="1.67418">
        <ele>364.3</ele>
        <time>2019-02-13T10:09:41Z</time>
      </trkpt>
      <trkpt lat="43.04446" lon="1.6741">
        <ele>364.4</ele>
        <time>2019-02-13T10:09:45Z</time>
      </trkpt>
      <trkpt lat="43.04437" lon="1.67402">
        <ele>364.5</ele>
        <time>2019-02-13T10:09:50Z</time>
      </trkpt>
      <trkpt lat="43.04428" lon="1.67396">
        <ele>364.7</ele>
        <time>2019-02-13T10:09:55Z</time>
      </trkpt>
      <trkpt lat="43.04419" lon="1.67389">
        <ele>365.1</ele>
        <time>2019-02-13T10:10:01Z</time>
      </trkpt>
      <trkpt lat="43.0441" lon="1.6738">
        <ele>365.7</ele>
        <time>2019-02-13T10:10:07Z</time>
      </trkpt>
      <trkpt lat="43.04402" lon="1.67371">
        <ele>366.1</ele>
        <time>2019-02-13T10:10:13Z</time>
      </trkpt>
      <trkpt lat="43.04393" lon="1.67364">
        <ele>366.5</ele>
        <time>2019-02-13T10:10:19Z</time>
      </trkpt>
      <trkpt lat="43.04385" lon="1.67358">
        <ele>367</ele>
        <time>2019-02-13T10:10:25Z</time>
      </trkpt>
      <trkpt lat="43.04375" lon="1.67362">
        <ele>367.5</ele>
        <time>2019-02-13T10:10:31Z</time>
      </trkpt>
      <trkpt lat="43.04367" lon="1.67371">
        <ele>368</ele>
        <time>2019-02-13T10:10:37Z</time>
      </trkpt>
      <trkpt lat="43.0436" lon="1.67381">
        <ele>368.5</ele>
        <time>2019-02-13T10:10:42Z</time>
      </trkpt>
      <trkpt lat="43.04351" lon="1.67386">
        <ele>369.2</ele>
        <time>2019-02-13T10:10:49Z</time>
      </trkpt>
      <trkpt lat="43.04346" lon="1.67399">
        <ele>369.8</ele>
        <time>2019-02-13T10:10:55Z</time>
      </trkpt>
      <trkpt lat="43.04339" lon="1.6741">
        <ele>370.3</ele>
        <time>2019-02-13T10:11:00Z</time>
      </trkpt>
      <trkpt lat="43.04333" lon="1.67421">
        <ele>370.8</ele>
        <time>2019-02-13T10:11:06Z</time>
      </trkpt>
      <trkpt lat="43.04328" lon="1.67432">
        <ele>371.1</ele>
        <time>2019-02-13T10:11:10Z</time>
      </trkpt>
      <trkpt lat="43.04323" lon="1.67446">
        <ele>371.3</ele>
        <time>2019-02-13T10:11:14Z</time>
      </trkpt>
      <trkpt lat="43.04319" lon="1.67458">
        <ele>371.5</ele>
        <time>2019-02-13T10:11:17Z</time>
      </trkpt>
      <trkpt lat="43.04315" lon="1.67468">
        <ele>371.6</ele>
        <time>2019-02-13T10:11:20Z</time>
      </trkpt>
      <trkpt lat="43.04308" lon="1.67479">
        <ele>371.8</ele>
        <time>2019-02-13T10:11:23Z</time>
      </trkpt>
      <trkpt lat="43.04301" lon="1.67491">
        <ele>371.9</ele>
        <time>2019-02-13T10:11:26Z</time>
      </trkpt>
      <trkpt lat="43.04293" lon="1.67503">
        <ele>372.4</ele>
        <time>2019-02-13T10:11:29Z</time>
      </trkpt>
      <trkpt lat="43.04285" lon="1.67517">
        <ele>372.7</ele>
        <time>2019-02-13T10:11:32Z</time>
      </trkpt>
      <trkpt lat="43.04279" lon="1.67527">
        <ele>373</ele>
        <time>2019-02-13T10:11:34Z</time>
      </trkpt>
      <trkpt lat="43.04273" lon="1.67541">
        <ele>373.8</ele>
        <time>2019-02-13T10:11:37Z</time>
      </trkpt>
      <trkpt lat="43.04265" lon="1.67555">
        <ele>374.1</ele>
        <time>2019-02-13T10:11:40Z</time>
      </trkpt>
      <trkpt lat="43.04258" lon="1.67568">
        <ele>374.3</ele>
        <time>2019-02-13T10:11:43Z</time>
      </trkpt>
      <trkpt lat="43.04255" lon="1.67584">
        <ele>374.3</ele>
        <time>2019-02-13T10:11:47Z</time>
      </trkpt>
      <trkpt lat="43.04248" lon="1.67598">
        <ele>374.5</ele>
        <time>2019-02-13T10:11:50Z</time>
      </trkpt>
      <trkpt lat="43.04239" lon="1.67602">
        <ele>375</ele>
        <time>2019-02-13T10:11:56Z</time>
      </trkpt>
      <trkpt lat="43.0423" lon="1.6761">
        <ele>375.8</ele>
        <time>2019-02-13T10:12:02Z</time>
      </trkpt>
      <trkpt lat="43.04223" lon="1.67622">
        <ele>376.6</ele>
        <time>2019-02-13T10:12:07Z</time>
      </trkpt>
      <trkpt lat="43.04218" lon="1.67635">
        <ele>377.4</ele>
        <time>2019-02-13T10:12:11Z</time>
      </trkpt>
      <trkpt lat="43.04213" lon="1.6765">
        <ele>378.1</ele>
        <time>2019-02-13T10:12:15Z</time>
      </trkpt>
      <trkpt lat="43.04209" lon="1.67661">
        <ele>378.7</ele>
        <time>2019-02-13T10:12:18Z</time>
      </trkpt>
      <trkpt lat="43.04203" lon="1.67676">
        <ele>381.4</ele>
        <time>2019-02-13T10:12:21Z</time>
      </trkpt>
      <trkpt lat="43.04197" lon="1.6769">
        <ele>382.6</ele>
        <time>2019-02-13T10:12:24Z</time>
      </trkpt>
      <trkpt lat="43.04192" lon="1.67701">
        <ele>382.8</ele>
        <time>2019-02-13T10:12:28Z</time>
      </trkpt>
      <trkpt lat="43.04189" lon="1.67713">
        <ele>382.8</ele>
        <time>2019-02-13T10:12:31Z</time>
      </trkpt>
      <trkpt lat="43.04186" lon="1.67729">
        <ele>382.8</ele>
        <time>2019-02-13T10:12:34Z</time>
      </trkpt>
      <trkpt lat="43.04183" lon="1.67741">
        <ele>382.3</ele>
        <time>2019-02-13T10:12:36Z</time>
      </trkpt>
      <trkpt lat="43.04179" lon="1.67759">
        <ele>381.6</ele>
        <time>2019-02-13T10:12:38Z</time>
      </trkpt>
      <trkpt lat="43.04175" lon="1.67775">
        <ele>380.9</ele>
        <time>2019-02-13T10:12:40Z</time>
      </trkpt>
      <trkpt lat="43.04173" lon="1.67789">
        <ele>380.3</ele>
        <time>2019-02-13T10:12:42Z</time>
      </trkpt>
      <trkpt lat="43.04171" lon="1.67802">
        <ele>380</ele>
        <time>2019-02-13T10:12:45Z</time>
      </trkpt>
      <trkpt lat="43.04168" lon="1.67816">
        <ele>379.9</ele>
        <time>2019-02-13T10:12:48Z</time>
      </trkpt>
      <trkpt lat="43.04163" lon="1.6783">
        <ele>379.7</ele>
        <time>2019-02-13T10:12:51Z</time>
      </trkpt>
      <trkpt lat="43.04155" lon="1.67843">
        <ele>379.5</ele>
        <time>2019-02-13T10:12:54Z</time>
      </trkpt>
      <trkpt lat="43.0415" lon="1.67854">
        <ele>379.4</ele>
        <time>2019-02-13T10:12:57Z</time>
      </trkpt>
      <trkpt lat="43.04146" lon="1.67866">
        <ele>379.3</ele>
        <time>2019-02-13T10:13:00Z</time>
      </trkpt>
      <trkpt lat="43.04141" lon="1.67879">
        <ele>379.4</ele>
        <time>2019-02-13T10:13:03Z</time>
      </trkpt>
      <trkpt lat="43.04136" lon="1.67893">
        <ele>379.6</ele>
        <time>2019-02-13T10:13:06Z</time>
      </trkpt>
      <trkpt lat="43.0413" lon="1.6791">
        <ele>379.9</ele>
        <time>2019-02-13T10:13:09Z</time>
      </trkpt>
      <trkpt lat="43.04124" lon="1.67923">
        <ele>380</ele>
        <time>2019-02-13T10:13:12Z</time>
      </trkpt>
      <trkpt lat="43.04116" lon="1.67932">
        <ele>380.2</ele>
        <time>2019-02-13T10:13:15Z</time>
      </trkpt>
      <trkpt lat="43.04108" lon="1.67937">
        <ele>380.6</ele>
        <time>2019-02-13T10:13:21Z</time>
      </trkpt>
      <trkpt lat="43.04098" lon="1.67943">
        <ele>381</ele>
        <time>2019-02-13T10:13:27Z</time>
      </trkpt>
      <trkpt lat="43.0409" lon="1.67948">
        <ele>381.2</ele>
        <time>2019-02-13T10:13:32Z</time>
      </trkpt>
      <trkpt lat="43.04082" lon="1.67954">
        <ele>381.6</ele>
        <time>2019-02-13T10:13:39Z</time>
      </trkpt>
      <trkpt lat="43.04073" lon="1.67958">
        <ele>381.7</ele>
        <time>2019-02-13T10:13:54Z</time>
      </trkpt>
      <trkpt lat="43.04064" lon="1.67962">
        <ele>381.6</ele>
        <time>2019-02-13T10:14:04Z</time>
      </trkpt>
      <trkpt lat="43.04054" lon="1.67964">
        <ele>381.7</ele>
        <time>2019-02-13T10:14:12Z</time>
      </trkpt>
      <trkpt lat="43.04045" lon="1.67971">
        <ele>382</ele>
        <time>2019-02-13T10:14:27Z</time>
      </trkpt>
      <trkpt lat="43.04038" lon="1.67978">
        <ele>382.1</ele>
        <time>2019-02-13T10:14:31Z</time>
      </trkpt>
      <trkpt lat="43.04028" lon="1.67987">
        <ele>382.3</ele>
        <time>2019-02-13T10:14:35Z</time>
      </trkpt>
      <trkpt lat="43.0402" lon="1.67999">
        <ele>382.5</ele>
        <time>2019-02-13T10:14:39Z</time>
      </trkpt>
      <trkpt lat="43.04015" lon="1.68013">
        <ele>382.9</ele>
        <time>2019-02-13T10:14:43Z</time>
      </trkpt>
      <trkpt lat="43.04008" lon="1.68024">
        <ele>383.6</ele>
        <time>2019-02-13T10:14:47Z</time>
      </trkpt>
      <trkpt lat="43.04002" lon="1.68033">
        <ele>384.3</ele>
        <time>2019-02-13T10:14:51Z</time>
      </trkpt>
      <trkpt lat="43.03994" lon="1.68042">
        <ele>385</ele>
        <time>2019-02-13T10:14:55Z</time>
      </trkpt>
      <trkpt lat="43.03987" lon="1.68049">
        <ele>385.5</ele>
        <time>2019-02-13T10:14:59Z</time>
      </trkpt>
      <trkpt lat="43.03979" lon="1.68057">
        <ele>386</ele>
        <time>2019-02-13T10:15:04Z</time>
      </trkpt>
      <trkpt lat="43.03968" lon="1.68058">
        <ele>386.3</ele>
        <time>2019-02-13T10:15:09Z</time>
      </trkpt>
      <trkpt lat="43.03959" lon="1.68062">
        <ele>386.4</ele>
        <time>2019-02-13T10:15:14Z</time>
      </trkpt>
      <trkpt lat="43.03949" lon="1.68064">
        <ele>386.7</ele>
        <time>2019-02-13T10:15:18Z</time>
      </trkpt>
      <trkpt lat="43.03939" lon="1.68068">
        <ele>387.1</ele>
        <time>2019-02-13T10:15:22Z</time>
      </trkpt>
      <trkpt lat="43.0393" lon="1.68071">
        <ele>387.7</ele>
        <time>2019-02-13T10:15:26Z</time>
      </trkpt>
      <trkpt lat="43.0392" lon="1.68072">
        <ele>388.7</ele>
        <time>2019-02-13T10:15:32Z</time>
      </trkpt>
      <trkpt lat="43.03909" lon="1.68069">
        <ele>389.3</ele>
        <time>2019-02-13T10:15:36Z</time>
      </trkpt>
      <trkpt lat="43.03899" lon="1.68067">
        <ele>390</ele>
        <time>2019-02-13T10:15:40Z</time>
      </trkpt>
      <trkpt lat="43.0389" lon="1.68065">
        <ele>390.6</ele>
        <time>2019-02-13T10:15:44Z</time>
      </trkpt>
      <trkpt lat="43.03881" lon="1.68062">
        <ele>391.1</ele>
        <time>2019-02-13T10:15:48Z</time>
      </trkpt>
      <trkpt lat="43.03871" lon="1.68061">
        <ele>391.6</ele>
        <time>2019-02-13T10:15:53Z</time>
      </trkpt>
      <trkpt lat="43.03861" lon="1.68061">
        <ele>391.8</ele>
        <time>2019-02-13T10:15:58Z</time>
      </trkpt>
      <trkpt lat="43.03851" lon="1.68059">
        <ele>391.7</ele>
        <time>2019-02-13T10:16:02Z</time>
      </trkpt>
      <trkpt lat="43.03839" lon="1.68059">
        <ele>391.5</ele>
        <time>2019-02-13T10:16:06Z</time>
      </trkpt>
      <trkpt lat="43.0383" lon="1.68059">
        <ele>391.4</ele>
        <time>2019-02-13T10:16:09Z</time>
      </trkpt>
      <trkpt lat="43.03819" lon="1.68061">
        <ele>391.4</ele>
        <time>2019-02-13T10:16:13Z</time>
      </trkpt>
      <trkpt lat="43.03807" lon="1.68063">
        <ele>391.5</ele>
        <time>2019-02-13T10:16:16Z</time>
      </trkpt>
      <trkpt lat="43.03797" lon="1.68067">
        <ele>391.5</ele>
        <time>2019-02-13T10:16:19Z</time>
      </trkpt>
      <trkpt lat="43.03786" lon="1.68068">
        <ele>391.5</ele>
        <time>2019-02-13T10:16:22Z</time>
      </trkpt>
      <trkpt lat="43.03775" lon="1.6807">
        <ele>391.6</ele>
        <time>2019-02-13T10:16:25Z</time>
      </trkpt>
      <trkpt lat="43.03765" lon="1.68071">
        <ele>391.7</ele>
        <time>2019-02-13T10:16:28Z</time>
      </trkpt>
      <trkpt lat="43.03755" lon="1.68068">
        <ele>391.7</ele>
        <time>2019-02-13T10:16:31Z</time>
      </trkpt>
      <trkpt lat="43.03746" lon="1.68064">
        <ele>391.7</ele>
        <time>2019-02-13T10:16:34Z</time>
      </trkpt>
      <trkpt lat="43.03733" lon="1.6806">
        <ele>391.7</ele>
        <time>2019-02-13T10:16:37Z</time>
      </trkpt>
      <trkpt lat="43.03723" lon="1.68056">
        <ele>392.2</ele>
        <time>2019-02-13T10:16:39Z</time>
      </trkpt>
      <trkpt lat="43.03711" lon="1.68053">
        <ele>392.7</ele>
        <time>2019-02-13T10:16:43Z</time>
      </trkpt>
      <trkpt lat="43.03699" lon="1.68051">
        <ele>393.3</ele>
        <time>2019-02-13T10:16:47Z</time>
      </trkpt>
      <trkpt lat="43.03689" lon="1.68048">
        <ele>394.2</ele>
        <time>2019-02-13T10:16:52Z</time>
      </trkpt>
      <trkpt lat="43.03679" lon="1.68045">
        <ele>394.9</ele>
        <time>2019-02-13T10:16:56Z</time>
      </trkpt>
      <trkpt lat="43.03669" lon="1.68043">
        <ele>395.6</ele>
        <time>2019-02-13T10:17:00Z</time>
      </trkpt>
      <trkpt lat="43.03658" lon="1.6804">
        <ele>396.4</ele>
        <time>2019-02-13T10:17:05Z</time>
      </trkpt>
      <trkpt lat="43.03648" lon="1.68036">
        <ele>397.1</ele>
        <time>2019-02-13T10:17:10Z</time>
      </trkpt>
      <trkpt lat="43.03637" lon="1.68033">
        <ele>397.8</ele>
        <time>2019-02-13T10:17:15Z</time>
      </trkpt>
      <trkpt lat="43.03627" lon="1.68029">
        <ele>398.4</ele>
        <time>2019-02-13T10:17:21Z</time>
      </trkpt>
      <trkpt lat="43.03616" lon="1.68028">
        <ele>398.9</ele>
        <time>2019-02-13T10:17:34Z</time>
      </trkpt>
      <trkpt lat="43.03605" lon="1.68028">
        <ele>399.1</ele>
        <time>2019-02-13T10:17:38Z</time>
      </trkpt>
      <trkpt lat="43.03596" lon="1.6803">
        <ele>399.5</ele>
        <time>2019-02-13T10:17:42Z</time>
      </trkpt>
      <trkpt lat="43.03586" lon="1.68031">
        <ele>399.9</ele>
        <time>2019-02-13T10:17:46Z</time>
      </trkpt>
      <trkpt lat="43.03577" lon="1.68032">
        <ele>400.3</ele>
        <time>2019-02-13T10:17:50Z</time>
      </trkpt>
      <trkpt lat="43.03566" lon="1.68031">
        <ele>400.9</ele>
        <time>2019-02-13T10:17:55Z</time>
      </trkpt>
      <trkpt lat="43.03557" lon="1.68035">
        <ele>401.4</ele>
        <time>2019-02-13T10:18:01Z</time>
      </trkpt>
      <trkpt lat="43.03548" lon="1.68039">
        <ele>401.6</ele>
        <time>2019-02-13T10:18:04Z</time>
      </trkpt>
      <trkpt lat="43.03537" lon="1.68045">
        <ele>401.7</ele>
        <time>2019-02-13T10:18:08Z</time>
      </trkpt>
      <trkpt lat="43.03528" lon="1.68052">
        <ele>401.8</ele>
        <time>2019-02-13T10:18:12Z</time>
      </trkpt>
      <trkpt lat="43.03513" lon="1.68062">
        <ele>401.8</ele>
        <time>2019-02-13T10:18:18Z</time>
      </trkpt>
      <trkpt lat="43.03504" lon="1.68065">
        <ele>401.7</ele>
        <time>2019-02-13T10:18:21Z</time>
      </trkpt>
      <trkpt lat="43.03494" lon="1.68069">
        <ele>401.5</ele>
        <time>2019-02-13T10:18:24Z</time>
      </trkpt>
      <trkpt lat="43.03485" lon="1.68074">
        <ele>401.2</ele>
        <time>2019-02-13T10:18:27Z</time>
      </trkpt>
      <trkpt lat="43.03475" lon="1.68082">
        <ele>400.6</ele>
        <time>2019-02-13T10:18:31Z</time>
      </trkpt>
      <trkpt lat="43.03467" lon="1.68087">
        <ele>400.1</ele>
        <time>2019-02-13T10:18:35Z</time>
      </trkpt>
      <trkpt lat="43.03457" lon="1.68092">
        <ele>399.3</ele>
        <time>2019-02-13T10:18:40Z</time>
      </trkpt>
      <trkpt lat="43.03453" lon="1.68105">
        <ele>398.2</ele>
        <time>2019-02-13T10:18:48Z</time>
      </trkpt>
      <trkpt lat="43.03459" lon="1.68118">
        <ele>397.7</ele>
        <time>2019-02-13T10:18:52Z</time>
      </trkpt>
      <trkpt lat="43.03466" lon="1.68131">
        <ele>397.4</ele>
        <time>2019-02-13T10:18:56Z</time>
      </trkpt>
      <trkpt lat="43.03472" lon="1.68142">
        <ele>397.2</ele>
        <time>2019-02-13T10:18:59Z</time>
      </trkpt>
      <trkpt lat="43.03481" lon="1.68155">
        <ele>396.7</ele>
        <time>2019-02-13T10:19:02Z</time>
      </trkpt>
      <trkpt lat="43.03486" lon="1.68166">
        <ele>396.5</ele>
        <time>2019-02-13T10:19:05Z</time>
      </trkpt>
      <trkpt lat="43.03487" lon="1.6818">
        <ele>396.3</ele>
        <time>2019-02-13T10:19:09Z</time>
      </trkpt>
      <trkpt lat="43.03489" lon="1.68194">
        <ele>395.9</ele>
        <time>2019-02-13T10:19:14Z</time>
      </trkpt>
      <trkpt lat="43.03497" lon="1.68202">
        <ele>395.2</ele>
        <time>2019-02-13T10:19:30Z</time>
      </trkpt>
      <trkpt lat="43.03502" lon="1.68215">
        <ele>395</ele>
        <time>2019-02-13T10:19:35Z</time>
      </trkpt>
      <trkpt lat="43.03509" lon="1.68228">
        <ele>394.8</ele>
        <time>2019-02-13T10:19:39Z</time>
      </trkpt>
      <trkpt lat="43.03514" lon="1.68238">
        <ele>394.7</ele>
        <time>2019-02-13T10:19:42Z</time>
      </trkpt>
      <trkpt lat="43.0352" lon="1.6825">
        <ele>394.5</ele>
        <time>2019-02-13T10:19:45Z</time>
      </trkpt>
      <trkpt lat="43.03527" lon="1.68262">
        <ele>394.3</ele>
        <time>2019-02-13T10:19:48Z</time>
      </trkpt>
      <trkpt lat="43.03536" lon="1.68273">
        <ele>393.4</ele>
        <time>2019-02-13T10:19:51Z</time>
      </trkpt>
      <trkpt lat="43.03546" lon="1.68283">
        <ele>392.5</ele>
        <time>2019-02-13T10:19:54Z</time>
      </trkpt>
      <trkpt lat="43.03555" lon="1.68295">
        <ele>391.7</ele>
        <time>2019-02-13T10:19:57Z</time>
      </trkpt>
      <trkpt lat="43.03565" lon="1.68306">
        <ele>391.2</ele>
        <time>2019-02-13T10:20:00Z</time>
      </trkpt>
      <trkpt lat="43.03571" lon="1.68315">
        <ele>391.1</ele>
        <time>2019-02-13T10:20:02Z</time>
      </trkpt>
      <trkpt lat="43.03579" lon="1.68323">
        <ele>390.9</ele>
        <time>2019-02-13T10:20:04Z</time>
      </trkpt>
      <trkpt lat="43.03587" lon="1.68329">
        <ele>390.8</ele>
        <time>2019-02-13T10:20:06Z</time>
      </trkpt>
      <trkpt lat="43.03596" lon="1.68333">
        <ele>390.9</ele>
        <time>2019-02-13T10:20:08Z</time>
      </trkpt>
      <trkpt lat="43.03606" lon="1.68334">
        <ele>391</ele>
        <time>2019-02-13T10:20:10Z</time>
      </trkpt>
      <trkpt lat="43.03616" lon="1.68334">
        <ele>391</ele>
        <time>2019-02-13T10:20:12Z</time>
      </trkpt>
      <trkpt lat="43.03628" lon="1.68333">
        <ele>390.8</ele>
        <time>2019-02-13T10:20:14Z</time>
      </trkpt>
      <trkpt lat="43.0364" lon="1.68333">
        <ele>390.6</ele>
        <time>2019-02-13T10:20:16Z</time>
      </trkpt>
      <trkpt lat="43.03652" lon="1.68332">
        <ele>390.8</ele>
        <time>2019-02-13T10:20:18Z</time>
      </trkpt>
      <trkpt lat="43.03664" lon="1.68327">
        <ele>391</ele>
        <time>2019-02-13T10:20:20Z</time>
      </trkpt>
      <trkpt lat="43.03655" lon="1.6833">
        <ele>391.5</ele>
        <time>2019-02-13T10:20:32Z</time>
      </trkpt>
      <trkpt lat="43.03645" lon="1.68332">
        <ele>391.7</ele>
        <time>2019-02-13T10:20:35Z</time>
      </trkpt>
      <trkpt lat="43.03633" lon="1.68332">
        <ele>392.1</ele>
        <time>2019-02-13T10:20:38Z</time>
      </trkpt>
      <trkpt lat="43.03622" lon="1.68333">
        <ele>392.5</ele>
        <time>2019-02-13T10:20:41Z</time>
      </trkpt>
      <trkpt lat="43.03612" lon="1.68336">
        <ele>392.9</ele>
        <time>2019-02-13T10:20:44Z</time>
      </trkpt>
      <trkpt lat="43.03602" lon="1.68335">
        <ele>393.4</ele>
        <time>2019-02-13T10:20:47Z</time>
      </trkpt>
      <trkpt lat="43.03605" lon="1.68348">
        <ele>394.3</ele>
        <time>2019-02-13T10:20:55Z</time>
      </trkpt>
      <trkpt lat="43.03613" lon="1.68356">
        <ele>395</ele>
        <time>2019-02-13T10:21:01Z</time>
      </trkpt>
      <trkpt lat="43.03621" lon="1.68364">
        <ele>396.2</ele>
        <time>2019-02-13T10:21:09Z</time>
      </trkpt>
      <trkpt lat="43.03628" lon="1.68372">
        <ele>397.1</ele>
        <time>2019-02-13T10:21:16Z</time>
      </trkpt>
      <trkpt lat="43.03635" lon="1.6838">
        <ele>397.6</ele>
        <time>2019-02-13T10:21:23Z</time>
      </trkpt>
      <trkpt lat="43.03642" lon="1.68389">
        <ele>397.8</ele>
        <time>2019-02-13T10:21:29Z</time>
      </trkpt>
      <trkpt lat="43.03649" lon="1.68397">
        <ele>398.1</ele>
        <time>2019-02-13T10:21:35Z</time>
      </trkpt>
      <trkpt lat="43.03657" lon="1.68405">
        <ele>398.5</ele>
        <time>2019-02-13T10:21:41Z</time>
      </trkpt>
      <trkpt lat="43.03664" lon="1.68413">
        <ele>399.2</ele>
        <time>2019-02-13T10:21:47Z</time>
      </trkpt>
      <trkpt lat="43.03669" lon="1.68424">
        <ele>400.3</ele>
        <time>2019-02-13T10:21:55Z</time>
      </trkpt>
      <trkpt lat="43.03677" lon="1.68434">
        <ele>401.4</ele>
        <time>2019-02-13T10:22:02Z</time>
      </trkpt>
      <trkpt lat="43.03682" lon="1.68445">
        <ele>402.5</ele>
        <time>2019-02-13T10:22:08Z</time>
      </trkpt>
      <trkpt lat="43.03685" lon="1.68456">
        <ele>403.9</ele>
        <time>2019-02-13T10:22:15Z</time>
      </trkpt>
      <trkpt lat="43.03688" lon="1.68469">
        <ele>405.6</ele>
        <time>2019-02-13T10:22:27Z</time>
      </trkpt>
      <trkpt lat="43.03691" lon="1.68481">
        <ele>407.3</ele>
        <time>2019-02-13T10:22:36Z</time>
      </trkpt>
      <trkpt lat="43.03693" lon="1.68494">
        <ele>409</ele>
        <time>2019-02-13T10:22:46Z</time>
      </trkpt>
      <trkpt lat="43.03697" lon="1.68507">
        <ele>410.8</ele>
        <time>2019-02-13T10:22:56Z</time>
      </trkpt>
      <trkpt lat="43.037" lon="1.68518">
        <ele>412</ele>
        <time>2019-02-13T10:23:05Z</time>
      </trkpt>
      <trkpt lat="43.03702" lon="1.68532">
        <ele>412.8</ele>
        <time>2019-02-13T10:23:13Z</time>
      </trkpt>
      <trkpt lat="43.03704" lon="1.68545">
        <ele>413.5</ele>
        <time>2019-02-13T10:23:21Z</time>
      </trkpt>
      <trkpt lat="43.03705" lon="1.68559">
        <ele>413.9</ele>
        <time>2019-02-13T10:23:27Z</time>
      </trkpt>
      <trkpt lat="43.03704" lon="1.68576">
        <ele>414.6</ele>
        <time>2019-02-13T10:23:30Z</time>
      </trkpt>
      <trkpt lat="43.03704" lon="1.68592">
        <ele>415</ele>
        <time>2019-02-13T10:23:32Z</time>
      </trkpt>
      <trkpt lat="43.03705" lon="1.68606">
        <ele>415.2</ele>
        <time>2019-02-13T10:23:34Z</time>
      </trkpt>
      <trkpt lat="43.03708" lon="1.68621">
        <ele>415.3</ele>
        <time>2019-02-13T10:23:37Z</time>
      </trkpt>
      <trkpt lat="43.03711" lon="1.68635">
        <ele>415.4</ele>
        <time>2019-02-13T10:23:40Z</time>
      </trkpt>
      <trkpt lat="43.03712" lon="1.6865">
        <ele>415.5</ele>
        <time>2019-02-13T10:23:44Z</time>
      </trkpt>
      <trkpt lat="43.03714" lon="1.68666">
        <ele>415.7</ele>
        <time>2019-02-13T10:23:48Z</time>
      </trkpt>
      <trkpt lat="43.03716" lon="1.68681">
        <ele>416</ele>
        <time>2019-02-13T10:23:51Z</time>
      </trkpt>
      <trkpt lat="43.0372" lon="1.68695">
        <ele>416.2</ele>
        <time>2019-02-13T10:23:54Z</time>
      </trkpt>
      <trkpt lat="43.03724" lon="1.68707">
        <ele>416.5</ele>
        <time>2019-02-13T10:23:57Z</time>
      </trkpt>
      <trkpt lat="43.03729" lon="1.68718">
        <ele>416.8</ele>
        <time>2019-02-13T10:24:00Z</time>
      </trkpt>
      <trkpt lat="43.03726" lon="1.68734">
        <ele>417</ele>
        <time>2019-02-13T10:24:04Z</time>
      </trkpt>
      <trkpt lat="43.03719" lon="1.6875">
        <ele>416.7</ele>
        <time>2019-02-13T10:24:07Z</time>
      </trkpt>
      <trkpt lat="43.03714" lon="1.6876">
        <ele>416.6</ele>
        <time>2019-02-13T10:24:09Z</time>
      </trkpt>
      <trkpt lat="43.03709" lon="1.68773">
        <ele>416.5</ele>
        <time>2019-02-13T10:24:12Z</time>
      </trkpt>
      <trkpt lat="43.03705" lon="1.68785">
        <ele>415.8</ele>
        <time>2019-02-13T10:24:27Z</time>
      </trkpt>
      <trkpt lat="43.03707" lon="1.68798">
        <ele>414.9</ele>
        <time>2019-02-13T10:24:35Z</time>
      </trkpt>
      <trkpt lat="43.03706" lon="1.68811">
        <ele>414.4</ele>
        <time>2019-02-13T10:24:42Z</time>
      </trkpt>
      <trkpt lat="43.03703" lon="1.68822">
        <ele>414.5</ele>
        <time>2019-02-13T10:24:50Z</time>
      </trkpt>
      <trkpt lat="43.03699" lon="1.68836">
        <ele>414.6</ele>
        <time>2019-02-13T10:24:56Z</time>
      </trkpt>
      <trkpt lat="43.03695" lon="1.68847">
        <ele>414.5</ele>
        <time>2019-02-13T10:24:59Z</time>
      </trkpt>
      <trkpt lat="43.03691" lon="1.68862">
        <ele>414.4</ele>
        <time>2019-02-13T10:25:02Z</time>
      </trkpt>
      <trkpt lat="43.03685" lon="1.68877">
        <ele>413.8</ele>
        <time>2019-02-13T10:25:05Z</time>
      </trkpt>
      <trkpt lat="43.03679" lon="1.68891">
        <ele>412.8</ele>
        <time>2019-02-13T10:25:08Z</time>
      </trkpt>
      <trkpt lat="43.03674" lon="1.68903">
        <ele>412.5</ele>
        <time>2019-02-13T10:25:12Z</time>
      </trkpt>
      <trkpt lat="43.03669" lon="1.68914">
        <ele>412.5</ele>
        <time>2019-02-13T10:25:17Z</time>
      </trkpt>
      <trkpt lat="43.03664" lon="1.68926">
        <ele>412.6</ele>
        <time>2019-02-13T10:25:23Z</time>
      </trkpt>
      <trkpt lat="43.03661" lon="1.68938">
        <ele>412.5</ele>
        <time>2019-02-13T10:25:27Z</time>
      </trkpt>
      <trkpt lat="43.03662" lon="1.68951">
        <ele>412.4</ele>
        <time>2019-02-13T10:25:30Z</time>
      </trkpt>
      <trkpt lat="43.03665" lon="1.68965">
        <ele>412.2</ele>
        <time>2019-02-13T10:25:33Z</time>
      </trkpt>
      <trkpt lat="43.03667" lon="1.68981">
        <ele>411.7</ele>
        <time>2019-02-13T10:25:37Z</time>
      </trkpt>
      <trkpt lat="43.03664" lon="1.68996">
        <ele>411.3</ele>
        <time>2019-02-13T10:25:41Z</time>
      </trkpt>
      <trkpt lat="43.03656" lon="1.69002">
        <ele>410.9</ele>
        <time>2019-02-13T10:25:44Z</time>
      </trkpt>
      <trkpt lat="43.03646" lon="1.69009">
        <ele>410.5</ele>
        <time>2019-02-13T10:25:48Z</time>
      </trkpt>
      <trkpt lat="43.03638" lon="1.69018">
        <ele>410.2</ele>
        <time>2019-02-13T10:25:52Z</time>
      </trkpt>
      <trkpt lat="43.03631" lon="1.69029">
        <ele>409.9</ele>
        <time>2019-02-13T10:25:55Z</time>
      </trkpt>
      <trkpt lat="43.03627" lon="1.69042">
        <ele>409.8</ele>
        <time>2019-02-13T10:25:58Z</time>
      </trkpt>
      <trkpt lat="43.03627" lon="1.69055">
        <ele>409.8</ele>
        <time>2019-02-13T10:26:01Z</time>
      </trkpt>
      <trkpt lat="43.03629" lon="1.69068">
        <ele>409.7</ele>
        <time>2019-02-13T10:26:05Z</time>
      </trkpt>
      <trkpt lat="43.03636" lon="1.69076">
        <ele>409.7</ele>
        <time>2019-02-13T10:26:13Z</time>
      </trkpt>
      <trkpt lat="43.03646" lon="1.69073">
        <ele>409.6</ele>
        <time>2019-02-13T10:26:18Z</time>
      </trkpt>
      <trkpt lat="43.03654" lon="1.69078">
        <ele>409.9</ele>
        <time>2019-02-13T10:26:23Z</time>
      </trkpt>
      <trkpt lat="43.03654" lon="1.69091">
        <ele>410.2</ele>
        <time>2019-02-13T10:26:27Z</time>
      </trkpt>
      <trkpt lat="43.03656" lon="1.69105">
        <ele>410.5</ele>
        <time>2019-02-13T10:26:32Z</time>
      </trkpt>
      <trkpt lat="43.0366" lon="1.69118">
        <ele>410.7</ele>
        <time>2019-02-13T10:26:36Z</time>
      </trkpt>
      <trkpt lat="43.03662" lon="1.69132">
        <ele>411</ele>
        <time>2019-02-13T10:26:40Z</time>
      </trkpt>
      <trkpt lat="43.03663" lon="1.69148">
        <ele>411.3</ele>
        <time>2019-02-13T10:26:44Z</time>
      </trkpt>
      <trkpt lat="43.03663" lon="1.69164">
        <ele>411.7</ele>
        <time>2019-02-13T10:26:48Z</time>
      </trkpt>
      <trkpt lat="43.03667" lon="1.69177">
        <ele>411.8</ele>
        <time>2019-02-13T10:26:51Z</time>
      </trkpt>
      <trkpt lat="43.03672" lon="1.6919">
        <ele>411.9</ele>
        <time>2019-02-13T10:26:54Z</time>
      </trkpt>
      <trkpt lat="43.03674" lon="1.69205">
        <ele>412.1</ele>
        <time>2019-02-13T10:26:58Z</time>
      </trkpt>
      <trkpt lat="43.03673" lon="1.69226">
        <ele>412.1</ele>
        <time>2019-02-13T10:27:01Z</time>
      </trkpt>
      <trkpt lat="43.03671" lon="1.69243">
        <ele>411.8</ele>
        <time>2019-02-13T10:27:03Z</time>
      </trkpt>
      <trkpt lat="43.03668" lon="1.6926">
        <ele>410.9</ele>
        <time>2019-02-13T10:27:05Z</time>
      </trkpt>
      <trkpt lat="43.03665" lon="1.69277">
        <ele>409.2</ele>
        <time>2019-02-13T10:27:07Z</time>
      </trkpt>
      <trkpt lat="43.0366" lon="1.69291">
        <ele>406.9</ele>
        <time>2019-02-13T10:27:09Z</time>
      </trkpt>
      <trkpt lat="43.03653" lon="1.69303">
        <ele>404.5</ele>
        <time>2019-02-13T10:27:11Z</time>
      </trkpt>
      <trkpt lat="43.03649" lon="1.69316">
        <ele>402.4</ele>
        <time>2019-02-13T10:27:13Z</time>
      </trkpt>
      <trkpt lat="43.03644" lon="1.69331">
        <ele>400.6</ele>
        <time>2019-02-13T10:27:15Z</time>
      </trkpt>
      <trkpt lat="43.03641" lon="1.69346">
        <ele>399.1</ele>
        <time>2019-02-13T10:27:17Z</time>
      </trkpt>
      <trkpt lat="43.03637" lon="1.69362">
        <ele>397.8</ele>
        <time>2019-02-13T10:27:20Z</time>
      </trkpt>
      <trkpt lat="43.03635" lon="1.69375">
        <ele>397.4</ele>
        <time>2019-02-13T10:27:23Z</time>
      </trkpt>
      <trkpt lat="43.03636" lon="1.6939">
        <ele>396.9</ele>
        <time>2019-02-13T10:27:28Z</time>
      </trkpt>
      <trkpt lat="43.03637" lon="1.69403">
        <ele>396.6</ele>
        <time>2019-02-13T10:27:32Z</time>
      </trkpt>
      <trkpt lat="43.03638" lon="1.69416">
        <ele>396</ele>
        <time>2019-02-13T10:27:37Z</time>
      </trkpt>
      <trkpt lat="43.03638" lon="1.69432">
        <ele>395.5</ele>
        <time>2019-02-13T10:27:41Z</time>
      </trkpt>
      <trkpt lat="43.03638" lon="1.69447">
        <ele>395.1</ele>
        <time>2019-02-13T10:27:45Z</time>
      </trkpt>
      <trkpt lat="43.03639" lon="1.69461">
        <ele>394.8</ele>
        <time>2019-02-13T10:27:49Z</time>
      </trkpt>
      <trkpt lat="43.03639" lon="1.69474">
        <ele>394.5</ele>
        <time>2019-02-13T10:27:52Z</time>
      </trkpt>
      <trkpt lat="43.03646" lon="1.69484">
        <ele>394.3</ele>
        <time>2019-02-13T10:27:55Z</time>
      </trkpt>
      <trkpt lat="43.03657" lon="1.6949">
        <ele>392.4</ele>
        <time>2019-02-13T10:27:58Z</time>
      </trkpt>
      <trkpt lat="43.03667" lon="1.69501">
        <ele>390.8</ele>
        <time>2019-02-13T10:28:01Z</time>
      </trkpt>
      <trkpt lat="43.03672" lon="1.69513">
        <ele>390</ele>
        <time>2019-02-13T10:28:03Z</time>
      </trkpt>
      <trkpt lat="43.03676" lon="1.69525">
        <ele>389.3</ele>
        <time>2019-02-13T10:28:05Z</time>
      </trkpt>
      <trkpt lat="43.03683" lon="1.69535">
        <ele>388.7</ele>
        <time>2019-02-13T10:28:07Z</time>
      </trkpt>
      <trkpt lat="43.03693" lon="1.69539">
        <ele>388.2</ele>
        <time>2019-02-13T10:28:09Z</time>
      </trkpt>
      <trkpt lat="43.03703" lon="1.6954">
        <ele>387.7</ele>
        <time>2019-02-13T10:28:11Z</time>
      </trkpt>
      <trkpt lat="43.03716" lon="1.69542">
        <ele>387.3</ele>
        <time>2019-02-13T10:28:14Z</time>
      </trkpt>
      <trkpt lat="43.03726" lon="1.69548">
        <ele>387</ele>
        <time>2019-02-13T10:28:17Z</time>
      </trkpt>
      <trkpt lat="43.03732" lon="1.69558">
        <ele>386.7</ele>
        <time>2019-02-13T10:28:19Z</time>
      </trkpt>
      <trkpt lat="43.03737" lon="1.69569">
        <ele>386.2</ele>
        <time>2019-02-13T10:28:21Z</time>
      </trkpt>
      <trkpt lat="43.03744" lon="1.6958">
        <ele>385.7</ele>
        <time>2019-02-13T10:28:23Z</time>
      </trkpt>
      <trkpt lat="43.03749" lon="1.69593">
        <ele>384.9</ele>
        <time>2019-02-13T10:28:25Z</time>
      </trkpt>
      <trkpt lat="43.03751" lon="1.69605">
        <ele>384</ele>
        <time>2019-02-13T10:28:27Z</time>
      </trkpt>
      <trkpt lat="43.03745" lon="1.69618">
        <ele>383.2</ele>
        <time>2019-02-13T10:28:29Z</time>
      </trkpt>
      <trkpt lat="43.03743" lon="1.69632">
        <ele>382.7</ele>
        <time>2019-02-13T10:28:31Z</time>
      </trkpt>
      <trkpt lat="43.03747" lon="1.69646">
        <ele>382.3</ele>
        <time>2019-02-13T10:28:33Z</time>
      </trkpt>
      <trkpt lat="43.03755" lon="1.69658">
        <ele>381.8</ele>
        <time>2019-02-13T10:28:35Z</time>
      </trkpt>
      <trkpt lat="43.03762" lon="1.69666">
        <ele>381.3</ele>
        <time>2019-02-13T10:28:37Z</time>
      </trkpt>
      <trkpt lat="43.03767" lon="1.69682">
        <ele>380.4</ele>
        <time>2019-02-13T10:28:40Z</time>
      </trkpt>
      <trkpt lat="43.03769" lon="1.69695">
        <ele>380.2</ele>
        <time>2019-02-13T10:28:44Z</time>
      </trkpt>
      <trkpt lat="43.0377" lon="1.69709">
        <ele>380.3</ele>
        <time>2019-02-13T10:28:48Z</time>
      </trkpt>
      <trkpt lat="43.03773" lon="1.69723">
        <ele>380.9</ele>
        <time>2019-02-13T10:28:51Z</time>
      </trkpt>
      <trkpt lat="43.03782" lon="1.69732">
        <ele>381.1</ele>
        <time>2019-02-13T10:28:54Z</time>
      </trkpt>
      <trkpt lat="43.03793" lon="1.69736">
        <ele>381.6</ele>
        <time>2019-02-13T10:28:57Z</time>
      </trkpt>
      <trkpt lat="43.03803" lon="1.69746">
        <ele>381.9</ele>
        <time>2019-02-13T10:29:00Z</time>
      </trkpt>
      <trkpt lat="43.03795" lon="1.69738">
        <ele>383</ele>
        <time>2019-02-13T10:29:21Z</time>
      </trkpt>
      <trkpt lat="43.03786" lon="1.69735">
        <ele>383.1</ele>
        <time>2019-02-13T10:29:25Z</time>
      </trkpt>
      <trkpt lat="43.03779" lon="1.69728">
        <ele>383.1</ele>
        <time>2019-02-13T10:29:29Z</time>
      </trkpt>
      <trkpt lat="43.03775" lon="1.69716">
        <ele>383.1</ele>
        <time>2019-02-13T10:29:32Z</time>
      </trkpt>
      <trkpt lat="43.03775" lon="1.69702">
        <ele>382.9</ele>
        <time>2019-02-13T10:29:37Z</time>
      </trkpt>
      <trkpt lat="43.03773" lon="1.69688">
        <ele>382.8</ele>
        <time>2019-02-13T10:29:40Z</time>
      </trkpt>
      <trkpt lat="43.0377" lon="1.69674">
        <ele>382.7</ele>
        <time>2019-02-13T10:29:44Z</time>
      </trkpt>
      <trkpt lat="43.03764" lon="1.69665">
        <ele>382.5</ele>
        <time>2019-02-13T10:29:47Z</time>
      </trkpt>
      <trkpt lat="43.03757" lon="1.69655">
        <ele>382.3</ele>
        <time>2019-02-13T10:29:50Z</time>
      </trkpt>
      <trkpt lat="43.03752" lon="1.6964">
        <ele>382.2</ele>
        <time>2019-02-13T10:29:54Z</time>
      </trkpt>
      <trkpt lat="43.03755" lon="1.69626">
        <ele>382</ele>
        <time>2019-02-13T10:29:57Z</time>
      </trkpt>
      <trkpt lat="43.03759" lon="1.69612">
        <ele>381.9</ele>
        <time>2019-02-13T10:30:00Z</time>
      </trkpt>
      <trkpt lat="43.03757" lon="1.69595">
        <ele>381.7</ele>
        <time>2019-02-13T10:30:03Z</time>
      </trkpt>
      <trkpt lat="43.0375" lon="1.69583">
        <ele>381.7</ele>
        <time>2019-02-13T10:30:06Z</time>
      </trkpt>
      <trkpt lat="43.03742" lon="1.69574">
        <ele>381.7</ele>
        <time>2019-02-13T10:30:09Z</time>
      </trkpt>
      <trkpt lat="43.03735" lon="1.69563">
        <ele>381.7</ele>
        <time>2019-02-13T10:30:12Z</time>
      </trkpt>
      <trkpt lat="43.03728" lon="1.69552">
        <ele>381.7</ele>
        <time>2019-02-13T10:30:15Z</time>
      </trkpt>
      <trkpt lat="43.0372" lon="1.6956">
        <ele>381.9</ele>
        <time>2019-02-13T10:30:20Z</time>
      </trkpt>
      <trkpt lat="43.03719" lon="1.69575">
        <ele>383.2</ele>
        <time>2019-02-13T10:30:23Z</time>
      </trkpt>
      <trkpt lat="43.03719" lon="1.69591">
        <ele>384.9</ele>
        <time>2019-02-13T10:30:26Z</time>
      </trkpt>
      <trkpt lat="43.03718" lon="1.6961">
        <ele>385.9</ele>
        <time>2019-02-13T10:30:29Z</time>
      </trkpt>
      <trkpt lat="43.03718" lon="1.69623">
        <ele>386.4</ele>
        <time>2019-02-13T10:30:31Z</time>
      </trkpt>
      <trkpt lat="43.03717" lon="1.69637">
        <ele>386.6</ele>
        <time>2019-02-13T10:30:33Z</time>
      </trkpt>
      <trkpt lat="43.03718" lon="1.69652">
        <ele>386.7</ele>
        <time>2019-02-13T10:30:35Z</time>
      </trkpt>
      <trkpt lat="43.03718" lon="1.69667">
        <ele>386.8</ele>
        <time>2019-02-13T10:30:37Z</time>
      </trkpt>
      <trkpt lat="43.03718" lon="1.69682">
        <ele>386.9</ele>
        <time>2019-02-13T10:30:39Z</time>
      </trkpt>
      <trkpt lat="43.03718" lon="1.69697">
        <ele>386.8</ele>
        <time>2019-02-13T10:30:41Z</time>
      </trkpt>
      <trkpt lat="43.03717" lon="1.69713">
        <ele>386.7</ele>
        <time>2019-02-13T10:30:43Z</time>
      </trkpt>
      <trkpt lat="43.03715" lon="1.69728">
        <ele>386.7</ele>
        <time>2019-02-13T10:30:45Z</time>
      </trkpt>
      <trkpt lat="43.03712" lon="1.69743">
        <ele>386.6</ele>
        <time>2019-02-13T10:30:47Z</time>
      </trkpt>
      <trkpt lat="43.03709" lon="1.69758">
        <ele>386.6</ele>
        <time>2019-02-13T10:30:49Z</time>
      </trkpt>
      <trkpt lat="43.03705" lon="1.69772">
        <ele>386.7</ele>
        <time>2019-02-13T10:30:51Z</time>
      </trkpt>
      <trkpt lat="43.03701" lon="1.69787">
        <ele>386.8</ele>
        <time>2019-02-13T10:30:53Z</time>
      </trkpt>
      <trkpt lat="43.03698" lon="1.69802">
        <ele>386.8</ele>
        <time>2019-02-13T10:30:55Z</time>
      </trkpt>
      <trkpt lat="43.03694" lon="1.69817">
        <ele>386.8</ele>
        <time>2019-02-13T10:30:57Z</time>
      </trkpt>
      <trkpt lat="43.0369" lon="1.69832">
        <ele>386.9</ele>
        <time>2019-02-13T10:30:59Z</time>
      </trkpt>
      <trkpt lat="43.03687" lon="1.69848">
        <ele>386.9</ele>
        <time>2019-02-13T10:31:01Z</time>
      </trkpt>
      <trkpt lat="43.03684" lon="1.69864">
        <ele>386.9</ele>
        <time>2019-02-13T10:31:03Z</time>
      </trkpt>
      <trkpt lat="43.0368" lon="1.69879">
        <ele>386.9</ele>
        <time>2019-02-13T10:31:05Z</time>
      </trkpt>
      <trkpt lat="43.03676" lon="1.69894">
        <ele>387</ele>
        <time>2019-02-13T10:31:07Z</time>
      </trkpt>
      <trkpt lat="43.03673" lon="1.69909">
        <ele>387.1</ele>
        <time>2019-02-13T10:31:09Z</time>
      </trkpt>
      <trkpt lat="43.0367" lon="1.69922">
        <ele>387.2</ele>
        <time>2019-02-13T10:31:11Z</time>
      </trkpt>
      <trkpt lat="43.03667" lon="1.69935">
        <ele>387.5</ele>
        <time>2019-02-13T10:31:13Z</time>
      </trkpt>
      <trkpt lat="43.03662" lon="1.69948">
        <ele>388</ele>
        <time>2019-02-13T10:31:15Z</time>
      </trkpt>
      <trkpt lat="43.03658" lon="1.69961">
        <ele>388.4</ele>
        <time>2019-02-13T10:31:17Z</time>
      </trkpt>
      <trkpt lat="43.03654" lon="1.69974">
        <ele>388.6</ele>
        <time>2019-02-13T10:31:19Z</time>
      </trkpt>
      <trkpt lat="43.03651" lon="1.69987">
        <ele>388.8</ele>
        <time>2019-02-13T10:31:21Z</time>
      </trkpt>
      <trkpt lat="43.03648" lon="1.70001">
        <ele>389</ele>
        <time>2019-02-13T10:31:23Z</time>
      </trkpt>
      <trkpt lat="43.03646" lon="1.70014">
        <ele>389.4</ele>
        <time>2019-02-13T10:31:25Z</time>
      </trkpt>
      <trkpt lat="43.03643" lon="1.70027">
        <ele>389.9</ele>
        <time>2019-02-13T10:31:27Z</time>
      </trkpt>
      <trkpt lat="43.0364" lon="1.7004">
        <ele>390.4</ele>
        <time>2019-02-13T10:31:29Z</time>
      </trkpt>
      <trkpt lat="43.03638" lon="1.70052">
        <ele>390.9</ele>
        <time>2019-02-13T10:31:31Z</time>
      </trkpt>
      <trkpt lat="43.03635" lon="1.70064">
        <ele>391.4</ele>
        <time>2019-02-13T10:31:33Z</time>
      </trkpt>
      <trkpt lat="43.03632" lon="1.70081">
        <ele>392.3</ele>
        <time>2019-02-13T10:31:36Z</time>
      </trkpt>
      <trkpt lat="43.03631" lon="1.70098">
        <ele>393.2</ele>
        <time>2019-02-13T10:31:39Z</time>
      </trkpt>
      <trkpt lat="43.0363" lon="1.70114">
        <ele>393.7</ele>
        <time>2019-02-13T10:31:42Z</time>
      </trkpt>
      <trkpt lat="43.03629" lon="1.70129">
        <ele>394</ele>
        <time>2019-02-13T10:31:45Z</time>
      </trkpt>
      <trkpt lat="43.03629" lon="1.70144">
        <ele>394.4</ele>
        <time>2019-02-13T10:31:48Z</time>
      </trkpt>
      <trkpt lat="43.03629" lon="1.70159">
        <ele>395</ele>
        <time>2019-02-13T10:31:51Z</time>
      </trkpt>
      <trkpt lat="43.03628" lon="1.70175">
        <ele>395.3</ele>
        <time>2019-02-13T10:31:54Z</time>
      </trkpt>
      <trkpt lat="43.03624" lon="1.70189">
        <ele>395.4</ele>
        <time>2019-02-13T10:31:57Z</time>
      </trkpt>
      <trkpt lat="43.03621" lon="1.70204">
        <ele>395.5</ele>
        <time>2019-02-13T10:32:00Z</time>
      </trkpt>
      <trkpt lat="43.03617" lon="1.70218">
        <ele>395.5</ele>
        <time>2019-02-13T10:32:03Z</time>
      </trkpt>
      <trkpt lat="43.03613" lon="1.70232">
        <ele>395.7</ele>
        <time>2019-02-13T10:32:06Z</time>
      </trkpt>
      <trkpt lat="43.03607" lon="1.70247">
        <ele>396</ele>
        <time>2019-02-13T10:32:09Z</time>
      </trkpt>
      <trkpt lat="43.03603" lon="1.70258">
        <ele>396.1</ele>
        <time>2019-02-13T10:32:11Z</time>
      </trkpt>
      <trkpt lat="43.03599" lon="1.7027">
        <ele>396.3</ele>
        <time>2019-02-13T10:32:13Z</time>
      </trkpt>
      <trkpt lat="43.03597" lon="1.70282">
        <ele>396.4</ele>
        <time>2019-02-13T10:32:15Z</time>
      </trkpt>
      <trkpt lat="43.03593" lon="1.70293">
        <ele>396.5</ele>
        <time>2019-02-13T10:32:17Z</time>
      </trkpt>
      <trkpt lat="43.0359" lon="1.70305">
        <ele>396.8</ele>
        <time>2019-02-13T10:32:19Z</time>
      </trkpt>
      <trkpt lat="43.03587" lon="1.70323">
        <ele>397.3</ele>
        <time>2019-02-13T10:32:22Z</time>
      </trkpt>
      <trkpt lat="43.03584" lon="1.70341">
        <ele>397.7</ele>
        <time>2019-02-13T10:32:25Z</time>
      </trkpt>
      <trkpt lat="43.03582" lon="1.70358">
        <ele>398.2</ele>
        <time>2019-02-13T10:32:28Z</time>
      </trkpt>
      <trkpt lat="43.0358" lon="1.70374">
        <ele>398.5</ele>
        <time>2019-02-13T10:32:31Z</time>
      </trkpt>
      <trkpt lat="43.03579" lon="1.7039">
        <ele>398.8</ele>
        <time>2019-02-13T10:32:34Z</time>
      </trkpt>
      <trkpt lat="43.03576" lon="1.70408">
        <ele>399.1</ele>
        <time>2019-02-13T10:32:37Z</time>
      </trkpt>
      <trkpt lat="43.03575" lon="1.70425">
        <ele>399.3</ele>
        <time>2019-02-13T10:32:40Z</time>
      </trkpt>
      <trkpt lat="43.03576" lon="1.70443">
        <ele>399.2</ele>
        <time>2019-02-13T10:32:43Z</time>
      </trkpt>
      <trkpt lat="43.03576" lon="1.70455">
        <ele>399.1</ele>
        <time>2019-02-13T10:32:45Z</time>
      </trkpt>
      <trkpt lat="43.03576" lon="1.70468">
        <ele>398.9</ele>
        <time>2019-02-13T10:32:47Z</time>
      </trkpt>
      <trkpt lat="43.03577" lon="1.70486">
        <ele>399</ele>
        <time>2019-02-13T10:32:50Z</time>
      </trkpt>
      <trkpt lat="43.03577" lon="1.70505">
        <ele>399.2</ele>
        <time>2019-02-13T10:32:53Z</time>
      </trkpt>
      <trkpt lat="43.03578" lon="1.70518">
        <ele>399.3</ele>
        <time>2019-02-13T10:32:55Z</time>
      </trkpt>
      <trkpt lat="43.03579" lon="1.70535">
        <ele>399.3</ele>
        <time>2019-02-13T10:32:58Z</time>
      </trkpt>
      <trkpt lat="43.03579" lon="1.70548">
        <ele>399.5</ele>
        <time>2019-02-13T10:33:00Z</time>
      </trkpt>
      <trkpt lat="43.0358" lon="1.70561">
        <ele>399.7</ele>
        <time>2019-02-13T10:33:02Z</time>
      </trkpt>
      <trkpt lat="43.03581" lon="1.70574">
        <ele>399.8</ele>
        <time>2019-02-13T10:33:04Z</time>
      </trkpt>
      <trkpt lat="43.0358" lon="1.70592">
        <ele>399.4</ele>
        <time>2019-02-13T10:33:07Z</time>
      </trkpt>
      <trkpt lat="43.03579" lon="1.70605">
        <ele>398.9</ele>
        <time>2019-02-13T10:33:09Z</time>
      </trkpt>
      <trkpt lat="43.03578" lon="1.70617">
        <ele>398.1</ele>
        <time>2019-02-13T10:33:11Z</time>
      </trkpt>
      <trkpt lat="43.03578" lon="1.7063">
        <ele>397.3</ele>
        <time>2019-02-13T10:33:13Z</time>
      </trkpt>
      <trkpt lat="43.03578" lon="1.70642">
        <ele>396.6</ele>
        <time>2019-02-13T10:33:15Z</time>
      </trkpt>
      <trkpt lat="43.03578" lon="1.70655">
        <ele>396.2</ele>
        <time>2019-02-13T10:33:17Z</time>
      </trkpt>
      <trkpt lat="43.03578" lon="1.70668">
        <ele>396.1</ele>
        <time>2019-02-13T10:33:19Z</time>
      </trkpt>
      <trkpt lat="43.03579" lon="1.70681">
        <ele>396.1</ele>
        <time>2019-02-13T10:33:21Z</time>
      </trkpt>
      <trkpt lat="43.03579" lon="1.70695">
        <ele>396.3</ele>
        <time>2019-02-13T10:33:23Z</time>
      </trkpt>
      <trkpt lat="43.03579" lon="1.70708">
        <ele>396.6</ele>
        <time>2019-02-13T10:33:25Z</time>
      </trkpt>
      <trkpt lat="43.03578" lon="1.70722">
        <ele>396.8</ele>
        <time>2019-02-13T10:33:28Z</time>
      </trkpt>
      <trkpt lat="43.03581" lon="1.7071">
        <ele>396.9</ele>
        <time>2019-02-13T10:33:33Z</time>
      </trkpt>
      <trkpt lat="43.03582" lon="1.70695">
        <ele>396.8</ele>
        <time>2019-02-13T10:33:36Z</time>
      </trkpt>
      <trkpt lat="43.03582" lon="1.70679">
        <ele>396.6</ele>
        <time>2019-02-13T10:33:39Z</time>
      </trkpt>
      <trkpt lat="43.03583" lon="1.70664">
        <ele>396.5</ele>
        <time>2019-02-13T10:33:42Z</time>
      </trkpt>
      <trkpt lat="43.03585" lon="1.70649">
        <ele>396.4</ele>
        <time>2019-02-13T10:33:45Z</time>
      </trkpt>
      <trkpt lat="43.03586" lon="1.70636">
        <ele>396.4</ele>
        <time>2019-02-13T10:33:49Z</time>
      </trkpt>
      <trkpt lat="43.03579" lon="1.70645">
        <ele>396.1</ele>
        <time>2019-02-13T10:33:54Z</time>
      </trkpt>
      <trkpt lat="43.03573" lon="1.70657">
        <ele>395.9</ele>
        <time>2019-02-13T10:34:00Z</time>
      </trkpt>
      <trkpt lat="43.03568" lon="1.70667">
        <ele>395.7</ele>
        <time>2019-02-13T10:34:05Z</time>
      </trkpt>
      <trkpt lat="43.03562" lon="1.70679">
        <ele>395.7</ele>
        <time>2019-02-13T10:34:08Z</time>
      </trkpt>
      <trkpt lat="43.03559" lon="1.70693">
        <ele>396</ele>
        <time>2019-02-13T10:34:13Z</time>
      </trkpt>
      <trkpt lat="43.03554" lon="1.70705">
        <ele>396.5</ele>
        <time>2019-02-13T10:34:18Z</time>
      </trkpt>
      <trkpt lat="43.03548" lon="1.70717">
        <ele>397.1</ele>
        <time>2019-02-13T10:34:23Z</time>
      </trkpt>
      <trkpt lat="43.03543" lon="1.70727">
        <ele>397.8</ele>
        <time>2019-02-13T10:34:28Z</time>
      </trkpt>
      <trkpt lat="43.03538" lon="1.70738">
        <ele>398.5</ele>
        <time>2019-02-13T10:34:33Z</time>
      </trkpt>
      <trkpt lat="43.03531" lon="1.70749">
        <ele>399.2</ele>
        <time>2019-02-13T10:34:39Z</time>
      </trkpt>
      <trkpt lat="43.03524" lon="1.7076">
        <ele>399.8</ele>
        <time>2019-02-13T10:34:45Z</time>
      </trkpt>
      <trkpt lat="43.03518" lon="1.7077">
        <ele>400.2</ele>
        <time>2019-02-13T10:34:50Z</time>
      </trkpt>
      <trkpt lat="43.03509" lon="1.70781">
        <ele>400.3</ele>
        <time>2019-02-13T10:34:57Z</time>
      </trkpt>
      <trkpt lat="43.03503" lon="1.70794">
        <ele>400.2</ele>
        <time>2019-02-13T10:35:00Z</time>
      </trkpt>
      <trkpt lat="43.03497" lon="1.70806">
        <ele>400.1</ele>
        <time>2019-02-13T10:35:03Z</time>
      </trkpt>
      <trkpt lat="43.03492" lon="1.70819">
        <ele>400.1</ele>
        <time>2019-02-13T10:35:06Z</time>
      </trkpt>
      <trkpt lat="43.03488" lon="1.70831">
        <ele>400.4</ele>
        <time>2019-02-13T10:35:08Z</time>
      </trkpt>
      <trkpt lat="43.03484" lon="1.70842">
        <ele>400.8</ele>
        <time>2019-02-13T10:35:10Z</time>
      </trkpt>
      <trkpt lat="43.0348" lon="1.70853">
        <ele>401.2</ele>
        <time>2019-02-13T10:35:12Z</time>
      </trkpt>
      <trkpt lat="43.03473" lon="1.70868">
        <ele>401.9</ele>
        <time>2019-02-13T10:35:15Z</time>
      </trkpt>
      <trkpt lat="43.03467" lon="1.70878">
        <ele>402.7</ele>
        <time>2019-02-13T10:35:17Z</time>
      </trkpt>
      <trkpt lat="43.03459" lon="1.7089">
        <ele>403.2</ele>
        <time>2019-02-13T10:35:20Z</time>
      </trkpt>
      <trkpt lat="43.0345" lon="1.70902">
        <ele>403.4</ele>
        <time>2019-02-13T10:35:23Z</time>
      </trkpt>
      <trkpt lat="43.03442" lon="1.70918">
        <ele>404</ele>
        <time>2019-02-13T10:35:26Z</time>
      </trkpt>
      <trkpt lat="43.03436" lon="1.70929">
        <ele>404.4</ele>
        <time>2019-02-13T10:35:28Z</time>
      </trkpt>
      <trkpt lat="43.03427" lon="1.70942">
        <ele>405.3</ele>
        <time>2019-02-13T10:35:31Z</time>
      </trkpt>
      <trkpt lat="43.03418" lon="1.70954">
        <ele>406.3</ele>
        <time>2019-02-13T10:35:34Z</time>
      </trkpt>
      <trkpt lat="43.0341" lon="1.70964">
        <ele>406.8</ele>
        <time>2019-02-13T10:35:37Z</time>
      </trkpt>
      <trkpt lat="43.03401" lon="1.70972">
        <ele>406.9</ele>
        <time>2019-02-13T10:35:40Z</time>
      </trkpt>
      <trkpt lat="43.03394" lon="1.70983">
        <ele>406.9</ele>
        <time>2019-02-13T10:35:43Z</time>
      </trkpt>
      <trkpt lat="43.03385" lon="1.70994">
        <ele>407</ele>
        <time>2019-02-13T10:35:46Z</time>
      </trkpt>
      <trkpt lat="43.03377" lon="1.71007">
        <ele>406.9</ele>
        <time>2019-02-13T10:35:49Z</time>
      </trkpt>
      <trkpt lat="43.0337" lon="1.7102">
        <ele>406.9</ele>
        <time>2019-02-13T10:35:52Z</time>
      </trkpt>
      <trkpt lat="43.03363" lon="1.71033">
        <ele>407.3</ele>
        <time>2019-02-13T10:35:55Z</time>
      </trkpt>
      <trkpt lat="43.03358" lon="1.71044">
        <ele>407.4</ele>
        <time>2019-02-13T10:35:58Z</time>
      </trkpt>
      <trkpt lat="43.03354" lon="1.71059">
        <ele>407.6</ele>
        <time>2019-02-13T10:36:01Z</time>
      </trkpt>
      <trkpt lat="43.0335" lon="1.71073">
        <ele>407.9</ele>
        <time>2019-02-13T10:36:04Z</time>
      </trkpt>
      <trkpt lat="43.03347" lon="1.71089">
        <ele>408</ele>
        <time>2019-02-13T10:36:07Z</time>
      </trkpt>
      <trkpt lat="43.03343" lon="1.71106">
        <ele>409.2</ele>
        <time>2019-02-13T10:36:10Z</time>
      </trkpt>
      <trkpt lat="43.0334" lon="1.71117">
        <ele>410</ele>
        <time>2019-02-13T10:36:12Z</time>
      </trkpt>
      <trkpt lat="43.03335" lon="1.71132">
        <ele>410.8</ele>
        <time>2019-02-13T10:36:15Z</time>
      </trkpt>
      <trkpt lat="43.0333" lon="1.71146">
        <ele>411.3</ele>
        <time>2019-02-13T10:36:18Z</time>
      </trkpt>
      <trkpt lat="43.03323" lon="1.71159">
        <ele>411.5</ele>
        <time>2019-02-13T10:36:21Z</time>
      </trkpt>
      <trkpt lat="43.03318" lon="1.71172">
        <ele>411.6</ele>
        <time>2019-02-13T10:36:24Z</time>
      </trkpt>
      <trkpt lat="43.03312" lon="1.71182">
        <ele>411.8</ele>
        <time>2019-02-13T10:36:27Z</time>
      </trkpt>
      <trkpt lat="43.03306" lon="1.71196">
        <ele>411.8</ele>
        <time>2019-02-13T10:36:31Z</time>
      </trkpt>
      <trkpt lat="43.03312" lon="1.71206">
        <ele>411.7</ele>
        <time>2019-02-13T10:36:34Z</time>
      </trkpt>
      <trkpt lat="43.03323" lon="1.71213">
        <ele>410.7</ele>
        <time>2019-02-13T10:36:37Z</time>
      </trkpt>
      <trkpt lat="43.03333" lon="1.71218">
        <ele>409.6</ele>
        <time>2019-02-13T10:36:39Z</time>
      </trkpt>
      <trkpt lat="43.03343" lon="1.71224">
        <ele>408.5</ele>
        <time>2019-02-13T10:36:41Z</time>
      </trkpt>
      <trkpt lat="43.03354" lon="1.7123">
        <ele>407.5</ele>
        <time>2019-02-13T10:36:43Z</time>
      </trkpt>
      <trkpt lat="43.03366" lon="1.71237">
        <ele>406.6</ele>
        <time>2019-02-13T10:36:45Z</time>
      </trkpt>
      <trkpt lat="43.03378" lon="1.71245">
        <ele>405.5</ele>
        <time>2019-02-13T10:36:47Z</time>
      </trkpt>
      <trkpt lat="43.03389" lon="1.71252">
        <ele>404.4</ele>
        <time>2019-02-13T10:36:49Z</time>
      </trkpt>
      <trkpt lat="43.034" lon="1.7126">
        <ele>403.5</ele>
        <time>2019-02-13T10:36:51Z</time>
      </trkpt>
      <trkpt lat="43.03411" lon="1.71266">
        <ele>402.8</ele>
        <time>2019-02-13T10:36:53Z</time>
      </trkpt>
      <trkpt lat="43.03422" lon="1.71272">
        <ele>402.3</ele>
        <time>2019-02-13T10:36:55Z</time>
      </trkpt>
      <trkpt lat="43.03433" lon="1.71279">
        <ele>401.9</ele>
        <time>2019-02-13T10:36:57Z</time>
      </trkpt>
      <trkpt lat="43.03443" lon="1.71285">
        <ele>401.6</ele>
        <time>2019-02-13T10:36:59Z</time>
      </trkpt>
      <trkpt lat="43.03453" lon="1.71292">
        <ele>401.3</ele>
        <time>2019-02-13T10:37:01Z</time>
      </trkpt>
      <trkpt lat="43.03463" lon="1.71297">
        <ele>401</ele>
        <time>2019-02-13T10:37:03Z</time>
      </trkpt>
      <trkpt lat="43.03474" lon="1.71298">
        <ele>400.6</ele>
        <time>2019-02-13T10:37:05Z</time>
      </trkpt>
      <trkpt lat="43.03484" lon="1.71297">
        <ele>400.4</ele>
        <time>2019-02-13T10:37:07Z</time>
      </trkpt>
      <trkpt lat="43.03496" lon="1.71296">
        <ele>400.1</ele>
        <time>2019-02-13T10:37:09Z</time>
      </trkpt>
      <trkpt lat="43.03509" lon="1.71295">
        <ele>400</ele>
        <time>2019-02-13T10:37:11Z</time>
      </trkpt>
      <trkpt lat="43.03523" lon="1.713">
        <ele>399.8</ele>
        <time>2019-02-13T10:37:13Z</time>
      </trkpt>
      <trkpt lat="43.03537" lon="1.71303">
        <ele>399.6</ele>
        <time>2019-02-13T10:37:15Z</time>
      </trkpt>
      <trkpt lat="43.0355" lon="1.71301">
        <ele>399.5</ele>
        <time>2019-02-13T10:37:17Z</time>
      </trkpt>
      <trkpt lat="43.03562" lon="1.71292">
        <ele>399.2</ele>
        <time>2019-02-13T10:37:19Z</time>
      </trkpt>
      <trkpt lat="43.03572" lon="1.7128">
        <ele>399</ele>
        <time>2019-02-13T10:37:21Z</time>
      </trkpt>
      <trkpt lat="43.03583" lon="1.71272">
        <ele>398.7</ele>
        <time>2019-02-13T10:37:23Z</time>
      </trkpt>
      <trkpt lat="43.03594" lon="1.71271">
        <ele>398.7</ele>
        <time>2019-02-13T10:37:25Z</time>
      </trkpt>
      <trkpt lat="43.03603" lon="1.71272">
        <ele>398.6</ele>
        <time>2019-02-13T10:37:27Z</time>
      </trkpt>
      <trkpt lat="43.03612" lon="1.71272">
        <ele>398.4</ele>
        <time>2019-02-13T10:37:29Z</time>
      </trkpt>
      <trkpt lat="43.03622" lon="1.71269">
        <ele>398.3</ele>
        <time>2019-02-13T10:37:31Z</time>
      </trkpt>
      <trkpt lat="43.03635" lon="1.71262">
        <ele>398.1</ele>
        <time>2019-02-13T10:37:33Z</time>
      </trkpt>
      <trkpt lat="43.03647" lon="1.71255">
        <ele>397.9</ele>
        <time>2019-02-13T10:37:35Z</time>
      </trkpt>
      <trkpt lat="43.03662" lon="1.71246">
        <ele>397.6</ele>
        <time>2019-02-13T10:37:37Z</time>
      </trkpt>
      <trkpt lat="43.03677" lon="1.71239">
        <ele>397.3</ele>
        <time>2019-02-13T10:37:39Z</time>
      </trkpt>
      <trkpt lat="43.03692" lon="1.71234">
        <ele>396.9</ele>
        <time>2019-02-13T10:37:41Z</time>
      </trkpt>
      <trkpt lat="43.03705" lon="1.71231">
        <ele>396.7</ele>
        <time>2019-02-13T10:37:43Z</time>
      </trkpt>
      <trkpt lat="43.03716" lon="1.71227">
        <ele>396.7</ele>
        <time>2019-02-13T10:37:45Z</time>
      </trkpt>
      <trkpt lat="43.03727" lon="1.71223">
        <ele>396.7</ele>
        <time>2019-02-13T10:37:48Z</time>
      </trkpt>
      <trkpt lat="43.03738" lon="1.71215">
        <ele>396.6</ele>
        <time>2019-02-13T10:37:52Z</time>
      </trkpt>
      <trkpt lat="43.03746" lon="1.71205">
        <ele>396.5</ele>
        <time>2019-02-13T10:37:56Z</time>
      </trkpt>
      <trkpt lat="43.03754" lon="1.71196">
        <ele>396.5</ele>
        <time>2019-02-13T10:38:01Z</time>
      </trkpt>
      <trkpt lat="43.03761" lon="1.71185">
        <ele>396.4</ele>
        <time>2019-02-13T10:38:05Z</time>
      </trkpt>
      <trkpt lat="43.03767" lon="1.71175">
        <ele>396.4</ele>
        <time>2019-02-13T10:38:09Z</time>
      </trkpt>
      <trkpt lat="43.03773" lon="1.71164">
        <ele>396.5</ele>
        <time>2019-02-13T10:38:14Z</time>
      </trkpt>
      <trkpt lat="43.03779" lon="1.71151">
        <ele>396.6</ele>
        <time>2019-02-13T10:38:19Z</time>
      </trkpt>
      <trkpt lat="43.03784" lon="1.71139">
        <ele>396.8</ele>
        <time>2019-02-13T10:38:23Z</time>
      </trkpt>
      <trkpt lat="43.03789" lon="1.71127">
        <ele>397.2</ele>
        <time>2019-02-13T10:38:27Z</time>
      </trkpt>
      <trkpt lat="43.03793" lon="1.71116">
        <ele>397.6</ele>
        <time>2019-02-13T10:38:31Z</time>
      </trkpt>
      <trkpt lat="43.03798" lon="1.71105">
        <ele>398</ele>
        <time>2019-02-13T10:38:35Z</time>
      </trkpt>
      <trkpt lat="43.03802" lon="1.71094">
        <ele>398.3</ele>
        <time>2019-02-13T10:38:39Z</time>
      </trkpt>
      <trkpt lat="43.03808" lon="1.71081">
        <ele>398.6</ele>
        <time>2019-02-13T10:38:43Z</time>
      </trkpt>
      <trkpt lat="43.03813" lon="1.71069">
        <ele>398.9</ele>
        <time>2019-02-13T10:38:47Z</time>
      </trkpt>
      <trkpt lat="43.03818" lon="1.71056">
        <ele>399.2</ele>
        <time>2019-02-13T10:38:52Z</time>
      </trkpt>
      <trkpt lat="43.03823" lon="1.71045">
        <ele>399.3</ele>
        <time>2019-02-13T10:38:56Z</time>
      </trkpt>
      <trkpt lat="43.0383" lon="1.71034">
        <ele>399.6</ele>
        <time>2019-02-13T10:39:01Z</time>
      </trkpt>
      <trkpt lat="43.03838" lon="1.71025">
        <ele>399.9</ele>
        <time>2019-02-13T10:39:06Z</time>
      </trkpt>
      <trkpt lat="43.03846" lon="1.71018">
        <ele>400.2</ele>
        <time>2019-02-13T10:39:10Z</time>
      </trkpt>
      <trkpt lat="43.03856" lon="1.71013">
        <ele>401.1</ele>
        <time>2019-02-13T10:39:15Z</time>
      </trkpt>
      <trkpt lat="43.03864" lon="1.71022">
        <ele>402.5</ele>
        <time>2019-02-13T10:39:20Z</time>
      </trkpt>
      <trkpt lat="43.0387" lon="1.71033">
        <ele>403.9</ele>
        <time>2019-02-13T10:39:25Z</time>
      </trkpt>
      <trkpt lat="43.03877" lon="1.71045">
        <ele>405.3</ele>
        <time>2019-02-13T10:39:30Z</time>
      </trkpt>
      <trkpt lat="43.03882" lon="1.71057">
        <ele>406.4</ele>
        <time>2019-02-13T10:39:34Z</time>
      </trkpt>
      <trkpt lat="43.03885" lon="1.71071">
        <ele>407.6</ele>
        <time>2019-02-13T10:39:39Z</time>
      </trkpt>
      <trkpt lat="43.03891" lon="1.71081">
        <ele>408.3</ele>
        <time>2019-02-13T10:39:43Z</time>
      </trkpt>
      <trkpt lat="43.03897" lon="1.71093">
        <ele>409.2</ele>
        <time>2019-02-13T10:39:48Z</time>
      </trkpt>
      <trkpt lat="43.03903" lon="1.71103">
        <ele>409.8</ele>
        <time>2019-02-13T10:39:52Z</time>
      </trkpt>
      <trkpt lat="43.0391" lon="1.71115">
        <ele>410.6</ele>
        <time>2019-02-13T10:39:57Z</time>
      </trkpt>
      <trkpt lat="43.03916" lon="1.71128">
        <ele>411.3</ele>
        <time>2019-02-13T10:40:02Z</time>
      </trkpt>
      <trkpt lat="43.03921" lon="1.71138">
        <ele>411.8</ele>
        <time>2019-02-13T10:40:06Z</time>
      </trkpt>
      <trkpt lat="43.03925" lon="1.71149">
        <ele>412.2</ele>
        <time>2019-02-13T10:40:10Z</time>
      </trkpt>
      <trkpt lat="43.03929" lon="1.71162">
        <ele>412.7</ele>
        <time>2019-02-13T10:40:14Z</time>
      </trkpt>
      <trkpt lat="43.03936" lon="1.71171">
        <ele>413.1</ele>
        <time>2019-02-13T10:40:17Z</time>
      </trkpt>
      <trkpt lat="43.03941" lon="1.7118">
        <ele>413.8</ele>
        <time>2019-02-13T10:40:21Z</time>
      </trkpt>
      <trkpt lat="43.03946" lon="1.71193">
        <ele>414.9</ele>
        <time>2019-02-13T10:40:26Z</time>
      </trkpt>
      <trkpt lat="43.03949" lon="1.71208">
        <ele>416.1</ele>
        <time>2019-02-13T10:40:31Z</time>
      </trkpt>
      <trkpt lat="43.03953" lon="1.71221">
        <ele>417.4</ele>
        <time>2019-02-13T10:40:36Z</time>
      </trkpt>
      <trkpt lat="43.03956" lon="1.71233">
        <ele>418.4</ele>
        <time>2019-02-13T10:40:40Z</time>
      </trkpt>
      <trkpt lat="43.03959" lon="1.71244">
        <ele>419.3</ele>
        <time>2019-02-13T10:40:44Z</time>
      </trkpt>
      <trkpt lat="43.03962" lon="1.71258">
        <ele>420.4</ele>
        <time>2019-02-13T10:40:49Z</time>
      </trkpt>
      <trkpt lat="43.03968" lon="1.7127">
        <ele>421.2</ele>
        <time>2019-02-13T10:40:54Z</time>
      </trkpt>
      <trkpt lat="43.03974" lon="1.71281">
        <ele>421.9</ele>
        <time>2019-02-13T10:40:59Z</time>
      </trkpt>
      <trkpt lat="43.03982" lon="1.7129">
        <ele>422.4</ele>
        <time>2019-02-13T10:41:03Z</time>
      </trkpt>
      <trkpt lat="43.03989" lon="1.71298">
        <ele>423</ele>
        <time>2019-02-13T10:41:07Z</time>
      </trkpt>
      <trkpt lat="43.03997" lon="1.71308">
        <ele>423.8</ele>
        <time>2019-02-13T10:41:12Z</time>
      </trkpt>
      <trkpt lat="43.04004" lon="1.71318">
        <ele>424.5</ele>
        <time>2019-02-13T10:41:16Z</time>
      </trkpt>
      <trkpt lat="43.04011" lon="1.71326">
        <ele>425.1</ele>
        <time>2019-02-13T10:41:20Z</time>
      </trkpt>
      <trkpt lat="43.0402" lon="1.71333">
        <ele>425.9</ele>
        <time>2019-02-13T10:41:24Z</time>
      </trkpt>
      <trkpt lat="43.04031" lon="1.71334">
        <ele>427</ele>
        <time>2019-02-13T10:41:29Z</time>
      </trkpt>
      <trkpt lat="43.04041" lon="1.71331">
        <ele>427.9</ele>
        <time>2019-02-13T10:41:33Z</time>
      </trkpt>
      <trkpt lat="43.04052" lon="1.71332">
        <ele>429.2</ele>
        <time>2019-02-13T10:41:38Z</time>
      </trkpt>
      <trkpt lat="43.04058" lon="1.71344">
        <ele>430.3</ele>
        <time>2019-02-13T10:41:43Z</time>
      </trkpt>
      <trkpt lat="43.04062" lon="1.71357">
        <ele>431.2</ele>
        <time>2019-02-13T10:41:48Z</time>
      </trkpt>
      <trkpt lat="43.04067" lon="1.71368">
        <ele>431.9</ele>
        <time>2019-02-13T10:41:52Z</time>
      </trkpt>
      <trkpt lat="43.0407" lon="1.71381">
        <ele>432.6</ele>
        <time>2019-02-13T10:41:57Z</time>
      </trkpt>
      <trkpt lat="43.04073" lon="1.71395">
        <ele>433.2</ele>
        <time>2019-02-13T10:42:01Z</time>
      </trkpt>
      <trkpt lat="43.04074" lon="1.71408">
        <ele>433.8</ele>
        <time>2019-02-13T10:42:05Z</time>
      </trkpt>
      <trkpt lat="43.04077" lon="1.71423">
        <ele>435.9</ele>
        <time>2019-02-13T10:42:54Z</time>
      </trkpt>
      <trkpt lat="43.04079" lon="1.71438">
        <ele>436.4</ele>
        <time>2019-02-13T10:42:58Z</time>
      </trkpt>
      <trkpt lat="43.04081" lon="1.71452">
        <ele>436.9</ele>
        <time>2019-02-13T10:43:02Z</time>
      </trkpt>
      <trkpt lat="43.04085" lon="1.71465">
        <ele>437.3</ele>
        <time>2019-02-13T10:43:06Z</time>
      </trkpt>
      <trkpt lat="43.04091" lon="1.71476">
        <ele>437.7</ele>
        <time>2019-02-13T10:43:10Z</time>
      </trkpt>
      <trkpt lat="43.04097" lon="1.71489">
        <ele>438.2</ele>
        <time>2019-02-13T10:43:14Z</time>
      </trkpt>
      <trkpt lat="43.04104" lon="1.71501">
        <ele>438.6</ele>
        <time>2019-02-13T10:43:18Z</time>
      </trkpt>
      <trkpt lat="43.04111" lon="1.71512">
        <ele>439.1</ele>
        <time>2019-02-13T10:43:22Z</time>
      </trkpt>
      <trkpt lat="43.04119" lon="1.71522">
        <ele>439.6</ele>
        <time>2019-02-13T10:43:26Z</time>
      </trkpt>
      <trkpt lat="43.04127" lon="1.7153">
        <ele>440.2</ele>
        <time>2019-02-13T10:43:30Z</time>
      </trkpt>
      <trkpt lat="43.04137" lon="1.71535">
        <ele>440.8</ele>
        <time>2019-02-13T10:43:34Z</time>
      </trkpt>
      <trkpt lat="43.04147" lon="1.71537">
        <ele>441.4</ele>
        <time>2019-02-13T10:43:38Z</time>
      </trkpt>
      <trkpt lat="43.04157" lon="1.7154">
        <ele>442.1</ele>
        <time>2019-02-13T10:43:42Z</time>
      </trkpt>
      <trkpt lat="43.04166" lon="1.71542">
        <ele>445.3</ele>
        <time>2019-02-13T10:45:58Z</time>
      </trkpt>
      <trkpt lat="43.04173" lon="1.71555">
        <ele>445.9</ele>
        <time>2019-02-13T10:46:04Z</time>
      </trkpt>
      <trkpt lat="43.04176" lon="1.71568">
        <ele>446</ele>
        <time>2019-02-13T10:46:07Z</time>
      </trkpt>
      <trkpt lat="43.04179" lon="1.71581">
        <ele>446.1</ele>
        <time>2019-02-13T10:46:11Z</time>
      </trkpt>
      <trkpt lat="43.04178" lon="1.71594">
        <ele>446.1</ele>
        <time>2019-02-13T10:46:16Z</time>
      </trkpt>
      <trkpt lat="43.04172" lon="1.71605">
        <ele>446.9</ele>
        <time>2019-02-13T10:46:25Z</time>
      </trkpt>
      <trkpt lat="43.04165" lon="1.71616">
        <ele>448</ele>
        <time>2019-02-13T10:46:31Z</time>
      </trkpt>
      <trkpt lat="43.04158" lon="1.71628">
        <ele>449</ele>
        <time>2019-02-13T10:46:37Z</time>
      </trkpt>
      <trkpt lat="43.04153" lon="1.71642">
        <ele>449.6</ele>
        <time>2019-02-13T10:46:41Z</time>
      </trkpt>
      <trkpt lat="43.04148" lon="1.71655">
        <ele>450</ele>
        <time>2019-02-13T10:46:44Z</time>
      </trkpt>
      <trkpt lat="43.04145" lon="1.71667">
        <ele>450.3</ele>
        <time>2019-02-13T10:46:47Z</time>
      </trkpt>
      <trkpt lat="43.04142" lon="1.7168">
        <ele>450.7</ele>
        <time>2019-02-13T10:46:50Z</time>
      </trkpt>
      <trkpt lat="43.0414" lon="1.71696">
        <ele>450.9</ele>
        <time>2019-02-13T10:46:53Z</time>
      </trkpt>
      <trkpt lat="43.04137" lon="1.71711">
        <ele>450.7</ele>
        <time>2019-02-13T10:46:56Z</time>
      </trkpt>
      <trkpt lat="43.04135" lon="1.71728">
        <ele>450.2</ele>
        <time>2019-02-13T10:46:59Z</time>
      </trkpt>
      <trkpt lat="43.04133" lon="1.71741">
        <ele>449.7</ele>
        <time>2019-02-13T10:47:01Z</time>
      </trkpt>
      <trkpt lat="43.0413" lon="1.71753">
        <ele>447.3</ele>
        <time>2019-02-13T10:47:03Z</time>
      </trkpt>
      <trkpt lat="43.0413" lon="1.71767">
        <ele>442.7</ele>
        <time>2019-02-13T10:47:05Z</time>
      </trkpt>
      <trkpt lat="43.04134" lon="1.7178">
        <ele>441</ele>
        <time>2019-02-13T10:47:07Z</time>
      </trkpt>
      <trkpt lat="43.04139" lon="1.71791">
        <ele>440.1</ele>
        <time>2019-02-13T10:47:10Z</time>
      </trkpt>
      <trkpt lat="43.04142" lon="1.71807">
        <ele>439.6</ele>
        <time>2019-02-13T10:47:14Z</time>
      </trkpt>
      <trkpt lat="43.04144" lon="1.7182">
        <ele>439.3</ele>
        <time>2019-02-13T10:47:17Z</time>
      </trkpt>
      <trkpt lat="43.04145" lon="1.71835">
        <ele>439.2</ele>
        <time>2019-02-13T10:47:20Z</time>
      </trkpt>
      <trkpt lat="43.04148" lon="1.71849">
        <ele>439.1</ele>
        <time>2019-02-13T10:47:23Z</time>
      </trkpt>
      <trkpt lat="43.04156" lon="1.71862">
        <ele>439.1</ele>
        <time>2019-02-13T10:47:27Z</time>
      </trkpt>
      <trkpt lat="43.04162" lon="1.71873">
        <ele>439.1</ele>
        <time>2019-02-13T10:47:30Z</time>
      </trkpt>
      <trkpt lat="43.04166" lon="1.71886">
        <ele>439.2</ele>
        <time>2019-02-13T10:47:33Z</time>
      </trkpt>
      <trkpt lat="43.04168" lon="1.71901">
        <ele>439.4</ele>
        <time>2019-02-13T10:47:36Z</time>
      </trkpt>
      <trkpt lat="43.04169" lon="1.71916">
        <ele>439.6</ele>
        <time>2019-02-13T10:47:39Z</time>
      </trkpt>
      <trkpt lat="43.0417" lon="1.71933">
        <ele>439.5</ele>
        <time>2019-02-13T10:47:42Z</time>
      </trkpt>
      <trkpt lat="43.04172" lon="1.71945">
        <ele>439.4</ele>
        <time>2019-02-13T10:47:44Z</time>
      </trkpt>
      <trkpt lat="43.04175" lon="1.71959">
        <ele>439</ele>
        <time>2019-02-13T10:47:47Z</time>
      </trkpt>
      <trkpt lat="43.04175" lon="1.71973">
        <ele>438.6</ele>
        <time>2019-02-13T10:47:50Z</time>
      </trkpt>
      <trkpt lat="43.04175" lon="1.71988">
        <ele>438.1</ele>
        <time>2019-02-13T10:47:53Z</time>
      </trkpt>
      <trkpt lat="43.04173" lon="1.72002">
        <ele>437.6</ele>
        <time>2019-02-13T10:47:57Z</time>
      </trkpt>
      <trkpt lat="43.04168" lon="1.72015">
        <ele>437</ele>
        <time>2019-02-13T10:48:02Z</time>
      </trkpt>
      <trkpt lat="43.04162" lon="1.72025">
        <ele>436.6</ele>
        <time>2019-02-13T10:48:05Z</time>
      </trkpt>
      <trkpt lat="43.04157" lon="1.72037">
        <ele>436.1</ele>
        <time>2019-02-13T10:48:08Z</time>
      </trkpt>
      <trkpt lat="43.0415" lon="1.72049">
        <ele>435.4</ele>
        <time>2019-02-13T10:48:12Z</time>
      </trkpt>
      <trkpt lat="43.04142" lon="1.72059">
        <ele>435</ele>
        <time>2019-02-13T10:48:15Z</time>
      </trkpt>
      <trkpt lat="43.04135" lon="1.72072">
        <ele>434.6</ele>
        <time>2019-02-13T10:48:18Z</time>
      </trkpt>
      <trkpt lat="43.04132" lon="1.72089">
        <ele>434.2</ele>
        <time>2019-02-13T10:48:21Z</time>
      </trkpt>
      <trkpt lat="43.04132" lon="1.72102">
        <ele>433.7</ele>
        <time>2019-02-13T10:48:24Z</time>
      </trkpt>
      <trkpt lat="43.04132" lon="1.72115">
        <ele>433.1</ele>
        <time>2019-02-13T10:48:28Z</time>
      </trkpt>
      <trkpt lat="43.04132" lon="1.72129">
        <ele>432.6</ele>
        <time>2019-02-13T10:48:32Z</time>
      </trkpt>
      <trkpt lat="43.0413" lon="1.72142">
        <ele>432.3</ele>
        <time>2019-02-13T10:48:35Z</time>
      </trkpt>
      <trkpt lat="43.04131" lon="1.72157">
        <ele>432.3</ele>
        <time>2019-02-13T10:48:38Z</time>
      </trkpt>
      <trkpt lat="43.04131" lon="1.72169">
        <ele>432.5</ele>
        <time>2019-02-13T10:48:41Z</time>
      </trkpt>
      <trkpt lat="43.04132" lon="1.72182">
        <ele>433.1</ele>
        <time>2019-02-13T10:48:45Z</time>
      </trkpt>
      <trkpt lat="43.0414" lon="1.72191">
        <ele>433.9</ele>
        <time>2019-02-13T10:48:50Z</time>
      </trkpt>
      <trkpt lat="43.0415" lon="1.72196">
        <ele>434.4</ele>
        <time>2019-02-13T10:48:55Z</time>
      </trkpt>
      <trkpt lat="43.04156" lon="1.72187">
        <ele>434.6</ele>
        <time>2019-02-13T10:49:00Z</time>
      </trkpt>
      <trkpt lat="43.04164" lon="1.72173">
        <ele>434.2</ele>
        <time>2019-02-13T10:49:03Z</time>
      </trkpt>
      <trkpt lat="43.0417" lon="1.72161">
        <ele>433.3</ele>
        <time>2019-02-13T10:49:05Z</time>
      </trkpt>
      <trkpt lat="43.04175" lon="1.72151">
        <ele>432.9</ele>
        <time>2019-02-13T10:49:07Z</time>
      </trkpt>
      <trkpt lat="43.04181" lon="1.72137">
        <ele>432.5</ele>
        <time>2019-02-13T10:49:11Z</time>
      </trkpt>
      <trkpt lat="43.04188" lon="1.72128">
        <ele>431.5</ele>
        <time>2019-02-13T10:49:14Z</time>
      </trkpt>
      <trkpt lat="43.04199" lon="1.72119">
        <ele>430.3</ele>
        <time>2019-02-13T10:49:17Z</time>
      </trkpt>
      <trkpt lat="43.0421" lon="1.72113">
        <ele>429.8</ele>
        <time>2019-02-13T10:49:21Z</time>
      </trkpt>
      <trkpt lat="43.04219" lon="1.72109">
        <ele>429.6</ele>
        <time>2019-02-13T10:49:25Z</time>
      </trkpt>
      <trkpt lat="43.04229" lon="1.72106">
        <ele>429.6</ele>
        <time>2019-02-13T10:49:29Z</time>
      </trkpt>
      <trkpt lat="43.04238" lon="1.72103">
        <ele>429.7</ele>
        <time>2019-02-13T10:49:33Z</time>
      </trkpt>
      <trkpt lat="43.0425" lon="1.72101">
        <ele>429.7</ele>
        <time>2019-02-13T10:49:37Z</time>
      </trkpt>
      <trkpt lat="43.0426" lon="1.72101">
        <ele>429.7</ele>
        <time>2019-02-13T10:49:41Z</time>
      </trkpt>
      <trkpt lat="43.04269" lon="1.72106">
        <ele>429.8</ele>
        <time>2019-02-13T10:49:46Z</time>
      </trkpt>
      <trkpt lat="43.04274" lon="1.7212">
        <ele>429.7</ele>
        <time>2019-02-13T10:49:50Z</time>
      </trkpt>
      <trkpt lat="43.04279" lon="1.72131">
        <ele>429.3</ele>
        <time>2019-02-13T10:49:54Z</time>
      </trkpt>
      <trkpt lat="43.0428" lon="1.72146">
        <ele>429</ele>
        <time>2019-02-13T10:49:58Z</time>
      </trkpt>
      <trkpt lat="43.0428" lon="1.72161">
        <ele>428.7</ele>
        <time>2019-02-13T10:50:02Z</time>
      </trkpt>
      <trkpt lat="43.04281" lon="1.72173">
        <ele>428.5</ele>
        <time>2019-02-13T10:50:05Z</time>
      </trkpt>
      <trkpt lat="43.04285" lon="1.72189">
        <ele>428.1</ele>
        <time>2019-02-13T10:50:08Z</time>
      </trkpt>
      <trkpt lat="43.04291" lon="1.72205">
        <ele>427.8</ele>
        <time>2019-02-13T10:50:11Z</time>
      </trkpt>
      <trkpt lat="43.04296" lon="1.72222">
        <ele>427.7</ele>
        <time>2019-02-13T10:50:14Z</time>
      </trkpt>
      <trkpt lat="43.043" lon="1.72233">
        <ele>427.6</ele>
        <time>2019-02-13T10:50:16Z</time>
      </trkpt>
      <trkpt lat="43.04305" lon="1.72249">
        <ele>427.6</ele>
        <time>2019-02-13T10:50:19Z</time>
      </trkpt>
      <trkpt lat="43.04315" lon="1.72261">
        <ele>427.6</ele>
        <time>2019-02-13T10:50:22Z</time>
      </trkpt>
      <trkpt lat="43.04322" lon="1.7227">
        <ele>427.4</ele>
        <time>2019-02-13T10:50:25Z</time>
      </trkpt>
      <trkpt lat="43.0433" lon="1.72281">
        <ele>427.2</ele>
        <time>2019-02-13T10:50:28Z</time>
      </trkpt>
      <trkpt lat="43.04337" lon="1.72289">
        <ele>427</ele>
        <time>2019-02-13T10:50:32Z</time>
      </trkpt>
      <trkpt lat="43.04343" lon="1.72298">
        <ele>426.6</ele>
        <time>2019-02-13T10:50:40Z</time>
      </trkpt>
      <trkpt lat="43.04348" lon="1.72309">
        <ele>426.2</ele>
        <time>2019-02-13T10:50:46Z</time>
      </trkpt>
      <trkpt lat="43.04356" lon="1.72321">
        <ele>425.9</ele>
        <time>2019-02-13T10:50:50Z</time>
      </trkpt>
      <trkpt lat="43.04363" lon="1.72329">
        <ele>425.6</ele>
        <time>2019-02-13T10:50:53Z</time>
      </trkpt>
      <trkpt lat="43.0437" lon="1.7234">
        <ele>425.2</ele>
        <time>2019-02-13T10:50:57Z</time>
      </trkpt>
      <trkpt lat="43.04375" lon="1.7235">
        <ele>424.7</ele>
        <time>2019-02-13T10:51:04Z</time>
      </trkpt>
      <trkpt lat="43.04381" lon="1.7236">
        <ele>424.8</ele>
        <time>2019-02-13T10:51:12Z</time>
      </trkpt>
      <trkpt lat="43.04385" lon="1.72372">
        <ele>425.1</ele>
        <time>2019-02-13T10:51:20Z</time>
      </trkpt>
      <trkpt lat="43.04389" lon="1.72383">
        <ele>425.8</ele>
        <time>2019-02-13T10:51:30Z</time>
      </trkpt>
      <trkpt lat="43.04389" lon="1.72396">
        <ele>426.6</ele>
        <time>2019-02-13T10:51:41Z</time>
      </trkpt>
      <trkpt lat="43.04392" lon="1.72409">
        <ele>427.2</ele>
        <time>2019-02-13T10:51:51Z</time>
      </trkpt>
      <trkpt lat="43.04397" lon="1.7242">
        <ele>428</ele>
        <time>2019-02-13T10:51:59Z</time>
      </trkpt>
      <trkpt lat="43.04405" lon="1.72426">
        <ele>429.3</ele>
        <time>2019-02-13T10:52:07Z</time>
      </trkpt>
      <trkpt lat="43.04415" lon="1.72431">
        <ele>430.9</ele>
        <time>2019-02-13T10:52:17Z</time>
      </trkpt>
      <trkpt lat="43.04423" lon="1.72436">
        <ele>432.3</ele>
        <time>2019-02-13T10:52:26Z</time>
      </trkpt>
      <trkpt lat="43.04429" lon="1.72445">
        <ele>433.5</ele>
        <time>2019-02-13T10:52:35Z</time>
      </trkpt>
      <trkpt lat="43.04435" lon="1.72455">
        <ele>435.6</ele>
        <time>2019-02-13T10:54:31Z</time>
      </trkpt>
      <trkpt lat="43.04435" lon="1.72468">
        <ele>436.2</ele>
        <time>2019-02-13T10:54:43Z</time>
      </trkpt>
      <trkpt lat="43.0443" lon="1.7248">
        <ele>436.4</ele>
        <time>2019-02-13T10:54:54Z</time>
      </trkpt>
      <trkpt lat="43.04426" lon="1.72493">
        <ele>436.1</ele>
        <time>2019-02-13T10:55:05Z</time>
      </trkpt>
      <trkpt lat="43.04425" lon="1.72507">
        <ele>435.3</ele>
        <time>2019-02-13T10:55:12Z</time>
      </trkpt>
      <trkpt lat="43.04425" lon="1.7252">
        <ele>434.5</ele>
        <time>2019-02-13T10:55:17Z</time>
      </trkpt>
      <trkpt lat="43.04423" lon="1.72533">
        <ele>433.3</ele>
        <time>2019-02-13T10:55:22Z</time>
      </trkpt>
      <trkpt lat="43.04422" lon="1.72547">
        <ele>431.8</ele>
        <time>2019-02-13T10:55:27Z</time>
      </trkpt>
      <trkpt lat="43.0442" lon="1.72562">
        <ele>430.4</ele>
        <time>2019-02-13T10:55:31Z</time>
      </trkpt>
      <trkpt lat="43.04418" lon="1.72575">
        <ele>428.8</ele>
        <time>2019-02-13T10:55:35Z</time>
      </trkpt>
      <trkpt lat="43.04416" lon="1.7259">
        <ele>427.7</ele>
        <time>2019-02-13T10:55:38Z</time>
      </trkpt>
      <trkpt lat="43.04413" lon="1.72604">
        <ele>426.8</ele>
        <time>2019-02-13T10:55:42Z</time>
      </trkpt>
      <trkpt lat="43.0441" lon="1.7262">
        <ele>426.3</ele>
        <time>2019-02-13T10:55:46Z</time>
      </trkpt>
      <trkpt lat="43.04409" lon="1.72634">
        <ele>426.2</ele>
        <time>2019-02-13T10:55:49Z</time>
      </trkpt>
      <trkpt lat="43.04411" lon="1.72647">
        <ele>426.4</ele>
        <time>2019-02-13T10:55:52Z</time>
      </trkpt>
      <trkpt lat="43.04414" lon="1.72662">
        <ele>426.8</ele>
        <time>2019-02-13T10:55:57Z</time>
      </trkpt>
      <trkpt lat="43.04414" lon="1.72675">
        <ele>427</ele>
        <time>2019-02-13T10:56:01Z</time>
      </trkpt>
      <trkpt lat="43.04416" lon="1.72689">
        <ele>427</ele>
        <time>2019-02-13T10:56:05Z</time>
      </trkpt>
      <trkpt lat="43.04428" lon="1.72697">
        <ele>427.2</ele>
        <time>2019-02-13T10:56:09Z</time>
      </trkpt>
      <trkpt lat="43.04438" lon="1.72703">
        <ele>427.2</ele>
        <time>2019-02-13T10:56:11Z</time>
      </trkpt>
      <trkpt lat="43.04449" lon="1.72712">
        <ele>427.3</ele>
        <time>2019-02-13T10:56:14Z</time>
      </trkpt>
      <trkpt lat="43.04458" lon="1.72724">
        <ele>426.7</ele>
        <time>2019-02-13T10:56:17Z</time>
      </trkpt>
      <trkpt lat="43.04463" lon="1.72736">
        <ele>426</ele>
        <time>2019-02-13T10:56:22Z</time>
      </trkpt>
      <trkpt lat="43.04471" lon="1.72743">
        <ele>425.2</ele>
        <time>2019-02-13T10:56:39Z</time>
      </trkpt>
      <trkpt lat="43.0448" lon="1.72741">
        <ele>423.1</ele>
        <time>2019-02-13T10:56:41Z</time>
      </trkpt>
      <trkpt lat="43.0449" lon="1.72734">
        <ele>420.8</ele>
        <time>2019-02-13T10:56:43Z</time>
      </trkpt>
      <trkpt lat="43.045" lon="1.72724">
        <ele>418.9</ele>
        <time>2019-02-13T10:56:45Z</time>
      </trkpt>
      <trkpt lat="43.04508" lon="1.72712">
        <ele>417.2</ele>
        <time>2019-02-13T10:56:47Z</time>
      </trkpt>
      <trkpt lat="43.04516" lon="1.72702">
        <ele>415.6</ele>
        <time>2019-02-13T10:56:49Z</time>
      </trkpt>
      <trkpt lat="43.04524" lon="1.72694">
        <ele>414</ele>
        <time>2019-02-13T10:56:51Z</time>
      </trkpt>
      <trkpt lat="43.04532" lon="1.72681">
        <ele>411.9</ele>
        <time>2019-02-13T10:56:54Z</time>
      </trkpt>
      <trkpt lat="43.04541" lon="1.72667">
        <ele>410.5</ele>
        <time>2019-02-13T10:56:56Z</time>
      </trkpt>
      <trkpt lat="43.04554" lon="1.72652">
        <ele>409.1</ele>
        <time>2019-02-13T10:56:58Z</time>
      </trkpt>
      <trkpt lat="43.04567" lon="1.72645">
        <ele>407.6</ele>
        <time>2019-02-13T10:57:00Z</time>
      </trkpt>
      <trkpt lat="43.04581" lon="1.7265">
        <ele>406.5</ele>
        <time>2019-02-13T10:57:02Z</time>
      </trkpt>
      <trkpt lat="43.04594" lon="1.72653">
        <ele>405.3</ele>
        <time>2019-02-13T10:57:04Z</time>
      </trkpt>
      <trkpt lat="43.04605" lon="1.72658">
        <ele>404.2</ele>
        <time>2019-02-13T10:57:06Z</time>
      </trkpt>
      <trkpt lat="43.0462" lon="1.7266">
        <ele>403.1</ele>
        <time>2019-02-13T10:57:08Z</time>
      </trkpt>
      <trkpt lat="43.04634" lon="1.72661">
        <ele>402.2</ele>
        <time>2019-02-13T10:57:10Z</time>
      </trkpt>
      <trkpt lat="43.04648" lon="1.72661">
        <ele>401.6</ele>
        <time>2019-02-13T10:57:12Z</time>
      </trkpt>
      <trkpt lat="43.04661" lon="1.72662">
        <ele>401.3</ele>
        <time>2019-02-13T10:57:14Z</time>
      </trkpt>
      <trkpt lat="43.04672" lon="1.72663">
        <ele>400.7</ele>
        <time>2019-02-13T10:57:16Z</time>
      </trkpt>
      <trkpt lat="43.04682" lon="1.72662">
        <ele>400.3</ele>
        <time>2019-02-13T10:57:18Z</time>
      </trkpt>
      <trkpt lat="43.04691" lon="1.72659">
        <ele>400.2</ele>
        <time>2019-02-13T10:57:20Z</time>
      </trkpt>
      <trkpt lat="43.047" lon="1.72653">
        <ele>400.2</ele>
        <time>2019-02-13T10:57:22Z</time>
      </trkpt>
      <trkpt lat="43.04708" lon="1.72646">
        <ele>400.4</ele>
        <time>2019-02-13T10:57:24Z</time>
      </trkpt>
      <trkpt lat="43.04715" lon="1.72639">
        <ele>400.7</ele>
        <time>2019-02-13T10:57:26Z</time>
      </trkpt>
      <trkpt lat="43.04725" lon="1.72626">
        <ele>401.1</ele>
        <time>2019-02-13T10:57:29Z</time>
      </trkpt>
      <trkpt lat="43.04735" lon="1.72614">
        <ele>401.3</ele>
        <time>2019-02-13T10:57:32Z</time>
      </trkpt>
      <trkpt lat="43.0474" lon="1.72604">
        <ele>401.4</ele>
        <time>2019-02-13T10:57:34Z</time>
      </trkpt>
      <trkpt lat="43.04746" lon="1.72595">
        <ele>401.4</ele>
        <time>2019-02-13T10:57:36Z</time>
      </trkpt>
      <trkpt lat="43.04751" lon="1.72585">
        <ele>401.3</ele>
        <time>2019-02-13T10:57:38Z</time>
      </trkpt>
      <trkpt lat="43.04754" lon="1.72572">
        <ele>401.1</ele>
        <time>2019-02-13T10:57:40Z</time>
      </trkpt>
      <trkpt lat="43.04755" lon="1.72558">
        <ele>400.8</ele>
        <time>2019-02-13T10:57:42Z</time>
      </trkpt>
      <trkpt lat="43.04751" lon="1.72542">
        <ele>400.4</ele>
        <time>2019-02-13T10:57:44Z</time>
      </trkpt>
      <trkpt lat="43.04744" lon="1.72528">
        <ele>399.9</ele>
        <time>2019-02-13T10:57:46Z</time>
      </trkpt>
      <trkpt lat="43.04739" lon="1.72516">
        <ele>399.5</ele>
        <time>2019-02-13T10:57:48Z</time>
      </trkpt>
      <trkpt lat="43.04742" lon="1.72504">
        <ele>399.3</ele>
        <time>2019-02-13T10:57:51Z</time>
      </trkpt>
      <trkpt lat="43.04752" lon="1.725">
        <ele>398.6</ele>
        <time>2019-02-13T10:57:54Z</time>
      </trkpt>
      <trkpt lat="43.04762" lon="1.72501">
        <ele>397.7</ele>
        <time>2019-02-13T10:57:56Z</time>
      </trkpt>
      <trkpt lat="43.04777" lon="1.72497">
        <ele>396.7</ele>
        <time>2019-02-13T10:57:58Z</time>
      </trkpt>
      <trkpt lat="43.04792" lon="1.7249">
        <ele>395.6</ele>
        <time>2019-02-13T10:58:00Z</time>
      </trkpt>
      <trkpt lat="43.04804" lon="1.72478">
        <ele>394.6</ele>
        <time>2019-02-13T10:58:02Z</time>
      </trkpt>
      <trkpt lat="43.04814" lon="1.72463">
        <ele>393.6</ele>
        <time>2019-02-13T10:58:04Z</time>
      </trkpt>
      <trkpt lat="43.04825" lon="1.72446">
        <ele>392.8</ele>
        <time>2019-02-13T10:58:06Z</time>
      </trkpt>
      <trkpt lat="43.04838" lon="1.72429">
        <ele>391.8</ele>
        <time>2019-02-13T10:58:08Z</time>
      </trkpt>
      <trkpt lat="43.04849" lon="1.72413">
        <ele>390.9</ele>
        <time>2019-02-13T10:58:10Z</time>
      </trkpt>
      <trkpt lat="43.04858" lon="1.72392">
        <ele>390</ele>
        <time>2019-02-13T10:58:12Z</time>
      </trkpt>
      <trkpt lat="43.04863" lon="1.72381">
        <ele>389.6</ele>
        <time>2019-02-13T10:58:13Z</time>
      </trkpt>
      <trkpt lat="43.04868" lon="1.72372">
        <ele>389.3</ele>
        <time>2019-02-13T10:58:14Z</time>
      </trkpt>
      <trkpt lat="43.04881" lon="1.72355">
        <ele>388.6</ele>
        <time>2019-02-13T10:58:16Z</time>
      </trkpt>
      <trkpt lat="43.04889" lon="1.72348">
        <ele>388.2</ele>
        <time>2019-02-13T10:58:17Z</time>
      </trkpt>
      <trkpt lat="43.04897" lon="1.72343">
        <ele>387.7</ele>
        <time>2019-02-13T10:58:18Z</time>
      </trkpt>
      <trkpt lat="43.04906" lon="1.7234">
        <ele>387.2</ele>
        <time>2019-02-13T10:58:19Z</time>
      </trkpt>
      <trkpt lat="43.04923" lon="1.72332">
        <ele>386.2</ele>
        <time>2019-02-13T10:58:21Z</time>
      </trkpt>
      <trkpt lat="43.04932" lon="1.7233">
        <ele>385.6</ele>
        <time>2019-02-13T10:58:22Z</time>
      </trkpt>
      <trkpt lat="43.04942" lon="1.7233">
        <ele>384.8</ele>
        <time>2019-02-13T10:58:23Z</time>
      </trkpt>
      <trkpt lat="43.04951" lon="1.72329">
        <ele>384</ele>
        <time>2019-02-13T10:58:24Z</time>
      </trkpt>
      <trkpt lat="43.0496" lon="1.72328">
        <ele>383.4</ele>
        <time>2019-02-13T10:58:25Z</time>
      </trkpt>
      <trkpt lat="43.04977" lon="1.72332">
        <ele>382.4</ele>
        <time>2019-02-13T10:58:27Z</time>
      </trkpt>
      <trkpt lat="43.04993" lon="1.72339">
        <ele>381.1</ele>
        <time>2019-02-13T10:58:29Z</time>
      </trkpt>
      <trkpt lat="43.05008" lon="1.72344">
        <ele>379.9</ele>
        <time>2019-02-13T10:58:31Z</time>
      </trkpt>
      <trkpt lat="43.05025" lon="1.72342">
        <ele>378.7</ele>
        <time>2019-02-13T10:58:33Z</time>
      </trkpt>
      <trkpt lat="43.05043" lon="1.72343">
        <ele>377.6</ele>
        <time>2019-02-13T10:58:35Z</time>
      </trkpt>
      <trkpt lat="43.05052" lon="1.72345">
        <ele>377.2</ele>
        <time>2019-02-13T10:58:36Z</time>
      </trkpt>
      <trkpt lat="43.05062" lon="1.72349">
        <ele>376.6</ele>
        <time>2019-02-13T10:58:37Z</time>
      </trkpt>
      <trkpt lat="43.05071" lon="1.72353">
        <ele>376</ele>
        <time>2019-02-13T10:58:38Z</time>
      </trkpt>
      <trkpt lat="43.05081" lon="1.72357">
        <ele>375.3</ele>
        <time>2019-02-13T10:58:39Z</time>
      </trkpt>
      <trkpt lat="43.0509" lon="1.72362">
        <ele>374.6</ele>
        <time>2019-02-13T10:58:40Z</time>
      </trkpt>
      <trkpt lat="43.05099" lon="1.72369">
        <ele>373.7</ele>
        <time>2019-02-13T10:58:41Z</time>
      </trkpt>
      <trkpt lat="43.05107" lon="1.72376">
        <ele>372.7</ele>
        <time>2019-02-13T10:58:42Z</time>
      </trkpt>
      <trkpt lat="43.05115" lon="1.72385">
        <ele>371.7</ele>
        <time>2019-02-13T10:58:43Z</time>
      </trkpt>
      <trkpt lat="43.05122" lon="1.72395">
        <ele>370.6</ele>
        <time>2019-02-13T10:58:44Z</time>
      </trkpt>
      <trkpt lat="43.0513" lon="1.72405">
        <ele>369.5</ele>
        <time>2019-02-13T10:58:45Z</time>
      </trkpt>
      <trkpt lat="43.05138" lon="1.72414">
        <ele>368.4</ele>
        <time>2019-02-13T10:58:46Z</time>
      </trkpt>
      <trkpt lat="43.05146" lon="1.72423">
        <ele>367.2</ele>
        <time>2019-02-13T10:58:47Z</time>
      </trkpt>
      <trkpt lat="43.05153" lon="1.72431">
        <ele>366.1</ele>
        <time>2019-02-13T10:58:48Z</time>
      </trkpt>
      <trkpt lat="43.05159" lon="1.72442">
        <ele>365</ele>
        <time>2019-02-13T10:58:49Z</time>
      </trkpt>
      <trkpt lat="43.05163" lon="1.72454">
        <ele>363.8</ele>
        <time>2019-02-13T10:58:50Z</time>
      </trkpt>
      <trkpt lat="43.0517" lon="1.72475">
        <ele>361.5</ele>
        <time>2019-02-13T10:58:52Z</time>
      </trkpt>
      <trkpt lat="43.05176" lon="1.72495">
        <ele>359.4</ele>
        <time>2019-02-13T10:58:54Z</time>
      </trkpt>
      <trkpt lat="43.05182" lon="1.72513">
        <ele>357.2</ele>
        <time>2019-02-13T10:58:56Z</time>
      </trkpt>
      <trkpt lat="43.05188" lon="1.7253">
        <ele>355.3</ele>
        <time>2019-02-13T10:58:58Z</time>
      </trkpt>
      <trkpt lat="43.05195" lon="1.72543">
        <ele>353.5</ele>
        <time>2019-02-13T10:59:00Z</time>
      </trkpt>
      <trkpt lat="43.05201" lon="1.72556">
        <ele>351.9</ele>
        <time>2019-02-13T10:59:02Z</time>
      </trkpt>
      <trkpt lat="43.05208" lon="1.72566">
        <ele>350.4</ele>
        <time>2019-02-13T10:59:04Z</time>
      </trkpt>
      <trkpt lat="43.05216" lon="1.72576">
        <ele>349.1</ele>
        <time>2019-02-13T10:59:06Z</time>
      </trkpt>
      <trkpt lat="43.05225" lon="1.72585">
        <ele>347.9</ele>
        <time>2019-02-13T10:59:08Z</time>
      </trkpt>
      <trkpt lat="43.05234" lon="1.72592">
        <ele>346.8</ele>
        <time>2019-02-13T10:59:10Z</time>
      </trkpt>
      <trkpt lat="43.05243" lon="1.726">
        <ele>345.9</ele>
        <time>2019-02-13T10:59:12Z</time>
      </trkpt>
      <trkpt lat="43.05252" lon="1.72607">
        <ele>345</ele>
        <time>2019-02-13T10:59:14Z</time>
      </trkpt>
      <trkpt lat="43.05262" lon="1.72614">
        <ele>344.2</ele>
        <time>2019-02-13T10:59:16Z</time>
      </trkpt>
      <trkpt lat="43.05272" lon="1.72623">
        <ele>343.5</ele>
        <time>2019-02-13T10:59:18Z</time>
      </trkpt>
      <trkpt lat="43.05282" lon="1.72631">
        <ele>342.9</ele>
        <time>2019-02-13T10:59:20Z</time>
      </trkpt>
      <trkpt lat="43.05291" lon="1.72642">
        <ele>342.4</ele>
        <time>2019-02-13T10:59:22Z</time>
      </trkpt>
      <trkpt lat="43.05301" lon="1.72653">
        <ele>341.8</ele>
        <time>2019-02-13T10:59:24Z</time>
      </trkpt>
      <trkpt lat="43.05309" lon="1.72664">
        <ele>341.3</ele>
        <time>2019-02-13T10:59:26Z</time>
      </trkpt>
      <trkpt lat="43.05319" lon="1.72676">
        <ele>340.8</ele>
        <time>2019-02-13T10:59:28Z</time>
      </trkpt>
      <trkpt lat="43.05331" lon="1.72687">
        <ele>340.3</ele>
        <time>2019-02-13T10:59:30Z</time>
      </trkpt>
      <trkpt lat="43.05343" lon="1.72698">
        <ele>339.7</ele>
        <time>2019-02-13T10:59:32Z</time>
      </trkpt>
      <trkpt lat="43.05356" lon="1.72711">
        <ele>339.2</ele>
        <time>2019-02-13T10:59:34Z</time>
      </trkpt>
      <trkpt lat="43.05367" lon="1.72725">
        <ele>338.8</ele>
        <time>2019-02-13T10:59:36Z</time>
      </trkpt>
      <trkpt lat="43.05376" lon="1.7274">
        <ele>338.2</ele>
        <time>2019-02-13T10:59:38Z</time>
      </trkpt>
      <trkpt lat="43.05384" lon="1.72756">
        <ele>337.7</ele>
        <time>2019-02-13T10:59:40Z</time>
      </trkpt>
      <trkpt lat="43.05392" lon="1.72773">
        <ele>337.1</ele>
        <time>2019-02-13T10:59:42Z</time>
      </trkpt>
      <trkpt lat="43.05401" lon="1.7279">
        <ele>336.6</ele>
        <time>2019-02-13T10:59:44Z</time>
      </trkpt>
      <trkpt lat="43.05409" lon="1.72808">
        <ele>336</ele>
        <time>2019-02-13T10:59:46Z</time>
      </trkpt>
      <trkpt lat="43.05416" lon="1.72827">
        <ele>335.5</ele>
        <time>2019-02-13T10:59:48Z</time>
      </trkpt>
      <trkpt lat="43.05424" lon="1.72845">
        <ele>334.9</ele>
        <time>2019-02-13T10:59:50Z</time>
      </trkpt>
      <trkpt lat="43.05432" lon="1.72862">
        <ele>334.3</ele>
        <time>2019-02-13T10:59:52Z</time>
      </trkpt>
      <trkpt lat="43.05443" lon="1.72877">
        <ele>333.7</ele>
        <time>2019-02-13T10:59:54Z</time>
      </trkpt>
      <trkpt lat="43.05457" lon="1.72888">
        <ele>333.2</ele>
        <time>2019-02-13T10:59:56Z</time>
      </trkpt>
      <trkpt lat="43.05472" lon="1.72894">
        <ele>332.6</ele>
        <time>2019-02-13T10:59:58Z</time>
      </trkpt>
      <trkpt lat="43.05486" lon="1.729">
        <ele>332.1</ele>
        <time>2019-02-13T11:00:00Z</time>
      </trkpt>
      <trkpt lat="43.05499" lon="1.72904">
        <ele>331.7</ele>
        <time>2019-02-13T11:00:02Z</time>
      </trkpt>
      <trkpt lat="43.0551" lon="1.72912">
        <ele>331.4</ele>
        <time>2019-02-13T11:00:04Z</time>
      </trkpt>
      <trkpt lat="43.05521" lon="1.72916">
        <ele>331.3</ele>
        <time>2019-02-13T11:00:06Z</time>
      </trkpt>
      <trkpt lat="43.0553" lon="1.72921">
        <ele>331</ele>
        <time>2019-02-13T11:00:08Z</time>
      </trkpt>
      <trkpt lat="43.05538" lon="1.72927">
        <ele>330.6</ele>
        <time>2019-02-13T11:00:10Z</time>
      </trkpt>
      <trkpt lat="43.05547" lon="1.72934">
        <ele>330.2</ele>
        <time>2019-02-13T11:00:12Z</time>
      </trkpt>
      <trkpt lat="43.05556" lon="1.72944">
        <ele>329.9</ele>
        <time>2019-02-13T11:00:14Z</time>
      </trkpt>
      <trkpt lat="43.05565" lon="1.72954">
        <ele>329.6</ele>
        <time>2019-02-13T11:00:16Z</time>
      </trkpt>
      <trkpt lat="43.05574" lon="1.72964">
        <ele>329.2</ele>
        <time>2019-02-13T11:00:18Z</time>
      </trkpt>
      <trkpt lat="43.05584" lon="1.72975">
        <ele>328.8</ele>
        <time>2019-02-13T11:00:20Z</time>
      </trkpt>
      <trkpt lat="43.05594" lon="1.72985">
        <ele>328.4</ele>
        <time>2019-02-13T11:00:22Z</time>
      </trkpt>
      <trkpt lat="43.05604" lon="1.72996">
        <ele>328</ele>
        <time>2019-02-13T11:00:24Z</time>
      </trkpt>
      <trkpt lat="43.05615" lon="1.73006">
        <ele>327.6</ele>
        <time>2019-02-13T11:00:26Z</time>
      </trkpt>
      <trkpt lat="43.05625" lon="1.73016">
        <ele>327.2</ele>
        <time>2019-02-13T11:00:28Z</time>
      </trkpt>
      <trkpt lat="43.05635" lon="1.73027">
        <ele>326.8</ele>
        <time>2019-02-13T11:00:30Z</time>
      </trkpt>
      <trkpt lat="43.05645" lon="1.73038">
        <ele>326.5</ele>
        <time>2019-02-13T11:00:32Z</time>
      </trkpt>
      <trkpt lat="43.05654" lon="1.73048">
        <ele>326.1</ele>
        <time>2019-02-13T11:00:34Z</time>
      </trkpt>
      <trkpt lat="43.05664" lon="1.73058">
        <ele>325.8</ele>
        <time>2019-02-13T11:00:36Z</time>
      </trkpt>
      <trkpt lat="43.05672" lon="1.73068">
        <ele>325.5</ele>
        <time>2019-02-13T11:00:38Z</time>
      </trkpt>
      <trkpt lat="43.05681" lon="1.73076">
        <ele>325.2</ele>
        <time>2019-02-13T11:00:40Z</time>
      </trkpt>
      <trkpt lat="43.05689" lon="1.73085">
        <ele>324.9</ele>
        <time>2019-02-13T11:00:42Z</time>
      </trkpt>
      <trkpt lat="43.05697" lon="1.73094">
        <ele>324.7</ele>
        <time>2019-02-13T11:00:44Z</time>
      </trkpt>
      <trkpt lat="43.05705" lon="1.73102">
        <ele>324.5</ele>
        <time>2019-02-13T11:00:46Z</time>
      </trkpt>
      <trkpt lat="43.05712" lon="1.7311">
        <ele>324.2</ele>
        <time>2019-02-13T11:00:48Z</time>
      </trkpt>
      <trkpt lat="43.0572" lon="1.73118">
        <ele>324</ele>
        <time>2019-02-13T11:00:50Z</time>
      </trkpt>
      <trkpt lat="43.05727" lon="1.73126">
        <ele>323.8</ele>
        <time>2019-02-13T11:00:52Z</time>
      </trkpt>
      <trkpt lat="43.05738" lon="1.73137">
        <ele>323.6</ele>
        <time>2019-02-13T11:00:55Z</time>
      </trkpt>
      <trkpt lat="43.05748" lon="1.73149">
        <ele>323.4</ele>
        <time>2019-02-13T11:00:58Z</time>
      </trkpt>
      <trkpt lat="43.05758" lon="1.73159">
        <ele>323.2</ele>
        <time>2019-02-13T11:01:01Z</time>
      </trkpt>
      <trkpt lat="43.05767" lon="1.7317">
        <ele>323.1</ele>
        <time>2019-02-13T11:01:04Z</time>
      </trkpt>
      <trkpt lat="43.05776" lon="1.73179">
        <ele>323</ele>
        <time>2019-02-13T11:01:07Z</time>
      </trkpt>
      <trkpt lat="43.05784" lon="1.73188">
        <ele>323</ele>
        <time>2019-02-13T11:01:10Z</time>
      </trkpt>
      <trkpt lat="43.05791" lon="1.73195">
        <ele>323</ele>
        <time>2019-02-13T11:01:13Z</time>
      </trkpt>
      <trkpt lat="43.05799" lon="1.73206">
        <ele>323</ele>
        <time>2019-02-13T11:01:17Z</time>
      </trkpt>
      <trkpt lat="43.05807" lon="1.73218">
        <ele>323</ele>
        <time>2019-02-13T11:01:21Z</time>
      </trkpt>
      <trkpt lat="43.05814" lon="1.73229">
        <ele>323</ele>
        <time>2019-02-13T11:01:24Z</time>
      </trkpt>
      <trkpt lat="43.05822" lon="1.73243">
        <ele>323.1</ele>
        <time>2019-02-13T11:01:27Z</time>
      </trkpt>
      <trkpt lat="43.05827" lon="1.73254">
        <ele>323.1</ele>
        <time>2019-02-13T11:01:29Z</time>
      </trkpt>
      <trkpt lat="43.05833" lon="1.73265">
        <ele>323.1</ele>
        <time>2019-02-13T11:01:31Z</time>
      </trkpt>
      <trkpt lat="43.05838" lon="1.73277">
        <ele>323.1</ele>
        <time>2019-02-13T11:01:33Z</time>
      </trkpt>
      <trkpt lat="43.05842" lon="1.7329">
        <ele>323.1</ele>
        <time>2019-02-13T11:01:35Z</time>
      </trkpt>
      <trkpt lat="43.05846" lon="1.73305">
        <ele>323</ele>
        <time>2019-02-13T11:01:37Z</time>
      </trkpt>
      <trkpt lat="43.0585" lon="1.73319">
        <ele>323</ele>
        <time>2019-02-13T11:01:39Z</time>
      </trkpt>
      <trkpt lat="43.05855" lon="1.73333">
        <ele>323</ele>
        <time>2019-02-13T11:01:41Z</time>
      </trkpt>
      <trkpt lat="43.05862" lon="1.73346">
        <ele>323</ele>
        <time>2019-02-13T11:01:43Z</time>
      </trkpt>
      <trkpt lat="43.0587" lon="1.73359">
        <ele>323</ele>
        <time>2019-02-13T11:01:45Z</time>
      </trkpt>
      <trkpt lat="43.05878" lon="1.73372">
        <ele>322.9</ele>
        <time>2019-02-13T11:01:47Z</time>
      </trkpt>
      <trkpt lat="43.05886" lon="1.73384">
        <ele>322.9</ele>
        <time>2019-02-13T11:01:49Z</time>
      </trkpt>
      <trkpt lat="43.05895" lon="1.73397">
        <ele>322.8</ele>
        <time>2019-02-13T11:01:51Z</time>
      </trkpt>
      <trkpt lat="43.05904" lon="1.7341">
        <ele>322.7</ele>
        <time>2019-02-13T11:01:53Z</time>
      </trkpt>
      <trkpt lat="43.05913" lon="1.73422">
        <ele>322.6</ele>
        <time>2019-02-13T11:01:55Z</time>
      </trkpt>
      <trkpt lat="43.05922" lon="1.73435">
        <ele>322.5</ele>
        <time>2019-02-13T11:01:57Z</time>
      </trkpt>
      <trkpt lat="43.05931" lon="1.73449">
        <ele>322.4</ele>
        <time>2019-02-13T11:01:59Z</time>
      </trkpt>
      <trkpt lat="43.05941" lon="1.73463">
        <ele>322.2</ele>
        <time>2019-02-13T11:02:01Z</time>
      </trkpt>
      <trkpt lat="43.05951" lon="1.73477">
        <ele>322</ele>
        <time>2019-02-13T11:02:03Z</time>
      </trkpt>
      <trkpt lat="43.05962" lon="1.7349">
        <ele>321.8</ele>
        <time>2019-02-13T11:02:05Z</time>
      </trkpt>
      <trkpt lat="43.05973" lon="1.73503">
        <ele>321.6</ele>
        <time>2019-02-13T11:02:07Z</time>
      </trkpt>
      <trkpt lat="43.05983" lon="1.73515">
        <ele>321.3</ele>
        <time>2019-02-13T11:02:09Z</time>
      </trkpt>
      <trkpt lat="43.05994" lon="1.73526">
        <ele>321</ele>
        <time>2019-02-13T11:02:11Z</time>
      </trkpt>
      <trkpt lat="43.06006" lon="1.73531">
        <ele>320.8</ele>
        <time>2019-02-13T11:02:13Z</time>
      </trkpt>
      <trkpt lat="43.06015" lon="1.73536">
        <ele>320.6</ele>
        <time>2019-02-13T11:02:15Z</time>
      </trkpt>
      <trkpt lat="43.06027" lon="1.73544">
        <ele>320.3</ele>
        <time>2019-02-13T11:02:18Z</time>
      </trkpt>
      <trkpt lat="43.06038" lon="1.73543">
        <ele>320.1</ele>
        <time>2019-02-13T11:02:21Z</time>
      </trkpt>
      <trkpt lat="43.06048" lon="1.73538">
        <ele>320</ele>
        <time>2019-02-13T11:02:24Z</time>
      </trkpt>
      <trkpt lat="43.06058" lon="1.73534">
        <ele>320</ele>
        <time>2019-02-13T11:02:27Z</time>
      </trkpt>
      <trkpt lat="43.06068" lon="1.73533">
        <ele>320</ele>
        <time>2019-02-13T11:02:30Z</time>
      </trkpt>
      <trkpt lat="43.06079" lon="1.73536">
        <ele>319.7</ele>
        <time>2019-02-13T11:02:33Z</time>
      </trkpt>
      <trkpt lat="43.06092" lon="1.73541">
        <ele>319.4</ele>
        <time>2019-02-13T11:02:36Z</time>
      </trkpt>
      <trkpt lat="43.06102" lon="1.73546">
        <ele>319.3</ele>
        <time>2019-02-13T11:02:38Z</time>
      </trkpt>
      <trkpt lat="43.06113" lon="1.73553">
        <ele>319.1</ele>
        <time>2019-02-13T11:02:40Z</time>
      </trkpt>
      <trkpt lat="43.06124" lon="1.73562">
        <ele>318.9</ele>
        <time>2019-02-13T11:02:42Z</time>
      </trkpt>
      <trkpt lat="43.06135" lon="1.73574">
        <ele>318.7</ele>
        <time>2019-02-13T11:02:44Z</time>
      </trkpt>
      <trkpt lat="43.06148" lon="1.73589">
        <ele>318.5</ele>
        <time>2019-02-13T11:02:46Z</time>
      </trkpt>
      <trkpt lat="43.06161" lon="1.73604">
        <ele>318.2</ele>
        <time>2019-02-13T11:02:48Z</time>
      </trkpt>
      <trkpt lat="43.06175" lon="1.73619">
        <ele>317.9</ele>
        <time>2019-02-13T11:02:50Z</time>
      </trkpt>
      <trkpt lat="43.06189" lon="1.73633">
        <ele>317.5</ele>
        <time>2019-02-13T11:02:52Z</time>
      </trkpt>
      <trkpt lat="43.06197" lon="1.73639">
        <ele>317.3</ele>
        <time>2019-02-13T11:02:53Z</time>
      </trkpt>
      <trkpt lat="43.06205" lon="1.73645">
        <ele>317.1</ele>
        <time>2019-02-13T11:02:54Z</time>
      </trkpt>
      <trkpt lat="43.06213" lon="1.7365">
        <ele>317</ele>
        <time>2019-02-13T11:02:55Z</time>
      </trkpt>
      <trkpt lat="43.06222" lon="1.73655">
        <ele>316.8</ele>
        <time>2019-02-13T11:02:56Z</time>
      </trkpt>
      <trkpt lat="43.06238" lon="1.73663">
        <ele>316.4</ele>
        <time>2019-02-13T11:02:58Z</time>
      </trkpt>
      <trkpt lat="43.06253" lon="1.73673">
        <ele>315.8</ele>
        <time>2019-02-13T11:03:00Z</time>
      </trkpt>
      <trkpt lat="43.06259" lon="1.7369">
        <ele>315.4</ele>
        <time>2019-02-13T11:03:02Z</time>
      </trkpt>
      <trkpt lat="43.06259" lon="1.73709">
        <ele>315</ele>
        <time>2019-02-13T11:03:04Z</time>
      </trkpt>
      <trkpt lat="43.06257" lon="1.73727">
        <ele>314.5</ele>
        <time>2019-02-13T11:03:06Z</time>
      </trkpt>
      <trkpt lat="43.06256" lon="1.73743">
        <ele>314.1</ele>
        <time>2019-02-13T11:03:08Z</time>
      </trkpt>
      <trkpt lat="43.06259" lon="1.73758">
        <ele>313.7</ele>
        <time>2019-02-13T11:03:11Z</time>
      </trkpt>
      <trkpt lat="43.06261" lon="1.73775">
        <ele>313.3</ele>
        <time>2019-02-13T11:03:14Z</time>
      </trkpt>
      <trkpt lat="43.06263" lon="1.73788">
        <ele>313.1</ele>
        <time>2019-02-13T11:03:17Z</time>
      </trkpt>
      <trkpt lat="43.06271" lon="1.73799">
        <ele>312.6</ele>
        <time>2019-02-13T11:03:21Z</time>
      </trkpt>
      <trkpt lat="43.06281" lon="1.738">
        <ele>312</ele>
        <time>2019-02-13T11:03:23Z</time>
      </trkpt>
      <trkpt lat="43.06292" lon="1.738">
        <ele>311.5</ele>
        <time>2019-02-13T11:03:25Z</time>
      </trkpt>
      <trkpt lat="43.06303" lon="1.73799">
        <ele>311.1</ele>
        <time>2019-02-13T11:03:27Z</time>
      </trkpt>
      <trkpt lat="43.06315" lon="1.73799">
        <ele>311</ele>
        <time>2019-02-13T11:03:29Z</time>
      </trkpt>
      <trkpt lat="43.06329" lon="1.73801">
        <ele>310.8</ele>
        <time>2019-02-13T11:03:31Z</time>
      </trkpt>
      <trkpt lat="43.06343" lon="1.73808">
        <ele>310.7</ele>
        <time>2019-02-13T11:03:33Z</time>
      </trkpt>
      <trkpt lat="43.06357" lon="1.73816">
        <ele>310.5</ele>
        <time>2019-02-13T11:03:35Z</time>
      </trkpt>
      <trkpt lat="43.06371" lon="1.73821">
        <ele>310.4</ele>
        <time>2019-02-13T11:03:37Z</time>
      </trkpt>
      <trkpt lat="43.06386" lon="1.7382">
        <ele>310.2</ele>
        <time>2019-02-13T11:03:39Z</time>
      </trkpt>
      <trkpt lat="43.06401" lon="1.73814">
        <ele>309.8</ele>
        <time>2019-02-13T11:03:41Z</time>
      </trkpt>
      <trkpt lat="43.06417" lon="1.73807">
        <ele>309.5</ele>
        <time>2019-02-13T11:03:43Z</time>
      </trkpt>
      <trkpt lat="43.06433" lon="1.73801">
        <ele>309.1</ele>
        <time>2019-02-13T11:03:45Z</time>
      </trkpt>
      <trkpt lat="43.06449" lon="1.73794">
        <ele>308.6</ele>
        <time>2019-02-13T11:03:47Z</time>
      </trkpt>
      <trkpt lat="43.06465" lon="1.73786">
        <ele>308</ele>
        <time>2019-02-13T11:03:49Z</time>
      </trkpt>
      <trkpt lat="43.06481" lon="1.73778">
        <ele>307.5</ele>
        <time>2019-02-13T11:03:51Z</time>
      </trkpt>
      <trkpt lat="43.06498" lon="1.7377">
        <ele>307</ele>
        <time>2019-02-13T11:03:53Z</time>
      </trkpt>
      <trkpt lat="43.06514" lon="1.73766">
        <ele>306.4</ele>
        <time>2019-02-13T11:03:55Z</time>
      </trkpt>
      <trkpt lat="43.06531" lon="1.7377">
        <ele>305.9</ele>
        <time>2019-02-13T11:03:57Z</time>
      </trkpt>
      <trkpt lat="43.06545" lon="1.7378">
        <ele>305.3</ele>
        <time>2019-02-13T11:03:59Z</time>
      </trkpt>
      <trkpt lat="43.06556" lon="1.73792">
        <ele>304.7</ele>
        <time>2019-02-13T11:04:01Z</time>
      </trkpt>
      <trkpt lat="43.06567" lon="1.73802">
        <ele>304.1</ele>
        <time>2019-02-13T11:04:03Z</time>
      </trkpt>
      <trkpt lat="43.06579" lon="1.73806">
        <ele>303.6</ele>
        <time>2019-02-13T11:04:05Z</time>
      </trkpt>
      <trkpt lat="43.0659" lon="1.73806">
        <ele>303.1</ele>
        <time>2019-02-13T11:04:07Z</time>
      </trkpt>
      <trkpt lat="43.06596" lon="1.73793">
        <ele>302.6</ele>
        <time>2019-02-13T11:04:10Z</time>
      </trkpt>
      <trkpt lat="43.0659" lon="1.73779">
        <ele>302.2</ele>
        <time>2019-02-13T11:04:12Z</time>
      </trkpt>
      <trkpt lat="43.06583" lon="1.73765">
        <ele>301.7</ele>
        <time>2019-02-13T11:04:14Z</time>
      </trkpt>
      <trkpt lat="43.06575" lon="1.73752">
        <ele>301.4</ele>
        <time>2019-02-13T11:04:16Z</time>
      </trkpt>
      <trkpt lat="43.06568" lon="1.73739">
        <ele>301</ele>
        <time>2019-02-13T11:04:18Z</time>
      </trkpt>
      <trkpt lat="43.06562" lon="1.73727">
        <ele>300.7</ele>
        <time>2019-02-13T11:04:20Z</time>
      </trkpt>
      <trkpt lat="43.06556" lon="1.73717">
        <ele>300.5</ele>
        <time>2019-02-13T11:04:22Z</time>
      </trkpt>
      <trkpt lat="43.06551" lon="1.73707">
        <ele>300.2</ele>
        <time>2019-02-13T11:04:24Z</time>
      </trkpt>
      <trkpt lat="43.06544" lon="1.73693">
        <ele>299.9</ele>
        <time>2019-02-13T11:04:27Z</time>
      </trkpt>
      <trkpt lat="43.06538" lon="1.7368">
        <ele>299.8</ele>
        <time>2019-02-13T11:04:30Z</time>
      </trkpt>
      <trkpt lat="43.06532" lon="1.7367">
        <ele>299.8</ele>
        <time>2019-02-13T11:04:33Z</time>
      </trkpt>
      <trkpt lat="43.06526" lon="1.73657">
        <ele>299.8</ele>
        <time>2019-02-13T11:04:37Z</time>
      </trkpt>
      <trkpt lat="43.0652" lon="1.73643">
        <ele>299.7</ele>
        <time>2019-02-13T11:04:41Z</time>
      </trkpt>
      <trkpt lat="43.06514" lon="1.7363">
        <ele>299.7</ele>
        <time>2019-02-13T11:04:45Z</time>
      </trkpt>
      <trkpt lat="43.06508" lon="1.73619">
        <ele>299.8</ele>
        <time>2019-02-13T11:04:49Z</time>
      </trkpt>
      <trkpt lat="43.06503" lon="1.73607">
        <ele>299.8</ele>
        <time>2019-02-13T11:04:53Z</time>
      </trkpt>
      <trkpt lat="43.06496" lon="1.73596">
        <ele>299.9</ele>
        <time>2019-02-13T11:04:58Z</time>
      </trkpt>
      <trkpt lat="43.06491" lon="1.73583">
        <ele>300.1</ele>
        <time>2019-02-13T11:05:04Z</time>
      </trkpt>
      <trkpt lat="43.06486" lon="1.73573">
        <ele>300.3</ele>
        <time>2019-02-13T11:05:09Z</time>
      </trkpt>
      <trkpt lat="43.0648" lon="1.73562">
        <ele>300.5</ele>
        <time>2019-02-13T11:05:14Z</time>
      </trkpt>
      <trkpt lat="43.06476" lon="1.7355">
        <ele>300.8</ele>
        <time>2019-02-13T11:05:19Z</time>
      </trkpt>
      <trkpt lat="43.06471" lon="1.73538">
        <ele>301</ele>
        <time>2019-02-13T11:05:24Z</time>
      </trkpt>
      <trkpt lat="43.06468" lon="1.73526">
        <ele>301.2</ele>
        <time>2019-02-13T11:05:29Z</time>
      </trkpt>
      <trkpt lat="43.06467" lon="1.73512">
        <ele>301.6</ele>
        <time>2019-02-13T11:05:35Z</time>
      </trkpt>
      <trkpt lat="43.06465" lon="1.73498">
        <ele>301.8</ele>
        <time>2019-02-13T11:05:41Z</time>
      </trkpt>
      <trkpt lat="43.06461" lon="1.73486">
        <ele>302.1</ele>
        <time>2019-02-13T11:05:46Z</time>
      </trkpt>
      <trkpt lat="43.06456" lon="1.73474">
        <ele>302.4</ele>
        <time>2019-02-13T11:05:51Z</time>
      </trkpt>
      <trkpt lat="43.0645" lon="1.73463">
        <ele>302.6</ele>
        <time>2019-02-13T11:05:56Z</time>
      </trkpt>
      <trkpt lat="43.06445" lon="1.73451">
        <ele>302.9</ele>
        <time>2019-02-13T11:06:01Z</time>
      </trkpt>
      <trkpt lat="43.06438" lon="1.73439">
        <ele>303.2</ele>
        <time>2019-02-13T11:06:06Z</time>
      </trkpt>
      <trkpt lat="43.06432" lon="1.73427">
        <ele>303.5</ele>
        <time>2019-02-13T11:06:11Z</time>
      </trkpt>
      <trkpt lat="43.06425" lon="1.73415">
        <ele>303.9</ele>
        <time>2019-02-13T11:06:16Z</time>
      </trkpt>
      <trkpt lat="43.0642" lon="1.73404">
        <ele>304.2</ele>
        <time>2019-02-13T11:06:20Z</time>
      </trkpt>
      <trkpt lat="43.06415" lon="1.73394">
        <ele>304.5</ele>
        <time>2019-02-13T11:06:24Z</time>
      </trkpt>
      <trkpt lat="43.06409" lon="1.73383">
        <ele>304.8</ele>
        <time>2019-02-13T11:06:28Z</time>
      </trkpt>
      <trkpt lat="43.06403" lon="1.7337">
        <ele>305.3</ele>
        <time>2019-02-13T11:06:33Z</time>
      </trkpt>
      <trkpt lat="43.06397" lon="1.73357">
        <ele>305.8</ele>
        <time>2019-02-13T11:06:38Z</time>
      </trkpt>
      <trkpt lat="43.06392" lon="1.73344">
        <ele>306.2</ele>
        <time>2019-02-13T11:06:43Z</time>
      </trkpt>
      <trkpt lat="43.06388" lon="1.73332">
        <ele>306.6</ele>
        <time>2019-02-13T11:06:47Z</time>
      </trkpt>
      <trkpt lat="43.06382" lon="1.73319">
        <ele>307</ele>
        <time>2019-02-13T11:06:51Z</time>
      </trkpt>
      <trkpt lat="43.06371" lon="1.73301">
        <ele>307.5</ele>
        <time>2019-02-13T11:06:57Z</time>
      </trkpt>
      <trkpt lat="43.06362" lon="1.73291">
        <ele>307.8</ele>
        <time>2019-02-13T11:07:00Z</time>
      </trkpt>
      <trkpt lat="43.06354" lon="1.7328">
        <ele>309.1</ele>
        <time>2019-02-13T11:07:03Z</time>
      </trkpt>
      <trkpt lat="43.06343" lon="1.73272">
        <ele>310.4</ele>
        <time>2019-02-13T11:07:06Z</time>
      </trkpt>
      <trkpt lat="43.06334" lon="1.73264">
        <ele>311.9</ele>
        <time>2019-02-13T11:07:09Z</time>
      </trkpt>
      <trkpt lat="43.06324" lon="1.73256">
        <ele>312.8</ele>
        <time>2019-02-13T11:07:12Z</time>
      </trkpt>
      <trkpt lat="43.06315" lon="1.73246">
        <ele>313.1</ele>
        <time>2019-02-13T11:07:15Z</time>
      </trkpt>
      <trkpt lat="43.06306" lon="1.73239">
        <ele>313.3</ele>
        <time>2019-02-13T11:07:18Z</time>
      </trkpt>
      <trkpt lat="43.06299" lon="1.73229">
        <ele>313.5</ele>
        <time>2019-02-13T11:07:21Z</time>
      </trkpt>
      <trkpt lat="43.06291" lon="1.73223">
        <ele>313.7</ele>
        <time>2019-02-13T11:07:24Z</time>
      </trkpt>
      <trkpt lat="43.06283" lon="1.73214">
        <ele>313.9</ele>
        <time>2019-02-13T11:07:27Z</time>
      </trkpt>
      <trkpt lat="43.06274" lon="1.73206">
        <ele>314.2</ele>
        <time>2019-02-13T11:07:30Z</time>
      </trkpt>
      <trkpt lat="43.06265" lon="1.73196">
        <ele>315.8</ele>
        <time>2019-02-13T11:07:33Z</time>
      </trkpt>
      <trkpt lat="43.06257" lon="1.7319">
        <ele>316.9</ele>
        <time>2019-02-13T11:07:35Z</time>
      </trkpt>
      <trkpt lat="43.06246" lon="1.73182">
        <ele>319.2</ele>
        <time>2019-02-13T11:07:38Z</time>
      </trkpt>
      <trkpt lat="43.06236" lon="1.73171">
        <ele>321.2</ele>
        <time>2019-02-13T11:07:41Z</time>
      </trkpt>
      <trkpt lat="43.06225" lon="1.73162">
        <ele>323.2</ele>
        <time>2019-02-13T11:07:44Z</time>
      </trkpt>
      <trkpt lat="43.06223" lon="1.73148">
        <ele>324.2</ele>
        <time>2019-02-13T11:07:47Z</time>
      </trkpt>
      <trkpt lat="43.06233" lon="1.73145">
        <ele>324.6</ele>
        <time>2019-02-13T11:07:51Z</time>
      </trkpt>
      <trkpt lat="43.06244" lon="1.73144">
        <ele>324.9</ele>
        <time>2019-02-13T11:07:55Z</time>
      </trkpt>
      <trkpt lat="43.06255" lon="1.73144">
        <ele>325.1</ele>
        <time>2019-02-13T11:07:58Z</time>
      </trkpt>
      <trkpt lat="43.06267" lon="1.73143">
        <ele>326.8</ele>
        <time>2019-02-13T11:08:01Z</time>
      </trkpt>
      <trkpt lat="43.06281" lon="1.73139">
        <ele>328.1</ele>
        <time>2019-02-13T11:08:04Z</time>
      </trkpt>
      <trkpt lat="43.06291" lon="1.73137">
        <ele>328.6</ele>
        <time>2019-02-13T11:08:06Z</time>
      </trkpt>
      <trkpt lat="43.06301" lon="1.73134">
        <ele>328.9</ele>
        <time>2019-02-13T11:08:08Z</time>
      </trkpt>
      <trkpt lat="43.06311" lon="1.73132">
        <ele>329.1</ele>
        <time>2019-02-13T11:08:10Z</time>
      </trkpt>
      <trkpt lat="43.06322" lon="1.73127">
        <ele>329.4</ele>
        <time>2019-02-13T11:08:12Z</time>
      </trkpt>
      <trkpt lat="43.06333" lon="1.73119">
        <ele>329.5</ele>
        <time>2019-02-13T11:08:14Z</time>
      </trkpt>
      <trkpt lat="43.06345" lon="1.7311">
        <ele>329.4</ele>
        <time>2019-02-13T11:08:16Z</time>
      </trkpt>
      <trkpt lat="43.06359" lon="1.73099">
        <ele>329.1</ele>
        <time>2019-02-13T11:08:18Z</time>
      </trkpt>
      <trkpt lat="43.06373" lon="1.73089">
        <ele>328.4</ele>
        <time>2019-02-13T11:08:20Z</time>
      </trkpt>
      <trkpt lat="43.06389" lon="1.73085">
        <ele>328</ele>
        <time>2019-02-13T11:08:22Z</time>
      </trkpt>
      <trkpt lat="43.06404" lon="1.73089">
        <ele>327.5</ele>
        <time>2019-02-13T11:08:24Z</time>
      </trkpt>
      <trkpt lat="43.06417" lon="1.73091">
        <ele>326.9</ele>
        <time>2019-02-13T11:08:26Z</time>
      </trkpt>
      <trkpt lat="43.06429" lon="1.73093">
        <ele>326.5</ele>
        <time>2019-02-13T11:08:28Z</time>
      </trkpt>
      <trkpt lat="43.06439" lon="1.73091">
        <ele>326.2</ele>
        <time>2019-02-13T11:08:30Z</time>
      </trkpt>
      <trkpt lat="43.06448" lon="1.73089">
        <ele>326</ele>
        <time>2019-02-13T11:08:32Z</time>
      </trkpt>
      <trkpt lat="43.0646" lon="1.73085">
        <ele>325.7</ele>
        <time>2019-02-13T11:08:35Z</time>
      </trkpt>
      <trkpt lat="43.06472" lon="1.73082">
        <ele>325.7</ele>
        <time>2019-02-13T11:08:38Z</time>
      </trkpt>
      <trkpt lat="43.06482" lon="1.73077">
        <ele>325.6</ele>
        <time>2019-02-13T11:08:41Z</time>
      </trkpt>
      <trkpt lat="43.06492" lon="1.73071">
        <ele>325.6</ele>
        <time>2019-02-13T11:08:44Z</time>
      </trkpt>
      <trkpt lat="43.06502" lon="1.73063">
        <ele>325.6</ele>
        <time>2019-02-13T11:08:47Z</time>
      </trkpt>
      <trkpt lat="43.0651" lon="1.73057">
        <ele>325.5</ele>
        <time>2019-02-13T11:08:49Z</time>
      </trkpt>
      <trkpt lat="43.06518" lon="1.73049">
        <ele>325.4</ele>
        <time>2019-02-13T11:08:51Z</time>
      </trkpt>
      <trkpt lat="43.06525" lon="1.73038">
        <ele>325.2</ele>
        <time>2019-02-13T11:08:53Z</time>
      </trkpt>
      <trkpt lat="43.06531" lon="1.73025">
        <ele>325.1</ele>
        <time>2019-02-13T11:08:55Z</time>
      </trkpt>
      <trkpt lat="43.06534" lon="1.7301">
        <ele>324.9</ele>
        <time>2019-02-13T11:08:57Z</time>
      </trkpt>
      <trkpt lat="43.06538" lon="1.72996">
        <ele>324.7</ele>
        <time>2019-02-13T11:08:59Z</time>
      </trkpt>
      <trkpt lat="43.06543" lon="1.72983">
        <ele>324.5</ele>
        <time>2019-02-13T11:09:01Z</time>
      </trkpt>
      <trkpt lat="43.06548" lon="1.7297">
        <ele>324.2</ele>
        <time>2019-02-13T11:09:03Z</time>
      </trkpt>
      <trkpt lat="43.06551" lon="1.72956">
        <ele>323.9</ele>
        <time>2019-02-13T11:09:05Z</time>
      </trkpt>
      <trkpt lat="43.06556" lon="1.72938">
        <ele>323.6</ele>
        <time>2019-02-13T11:09:08Z</time>
      </trkpt>
      <trkpt lat="43.0656" lon="1.72927">
        <ele>323.2</ele>
        <time>2019-02-13T11:09:10Z</time>
      </trkpt>
      <trkpt lat="43.06564" lon="1.72914">
        <ele>323.1</ele>
        <time>2019-02-13T11:09:12Z</time>
      </trkpt>
      <trkpt lat="43.06569" lon="1.72903">
        <ele>323.1</ele>
        <time>2019-02-13T11:09:14Z</time>
      </trkpt>
      <trkpt lat="43.06575" lon="1.72893">
        <ele>323.1</ele>
        <time>2019-02-13T11:09:16Z</time>
      </trkpt>
      <trkpt lat="43.06582" lon="1.7288">
        <ele>323.1</ele>
        <time>2019-02-13T11:09:18Z</time>
      </trkpt>
      <trkpt lat="43.06592" lon="1.72866">
        <ele>323.3</ele>
        <time>2019-02-13T11:09:20Z</time>
      </trkpt>
      <trkpt lat="43.06607" lon="1.72859">
        <ele>323.9</ele>
        <time>2019-02-13T11:09:22Z</time>
      </trkpt>
      <trkpt lat="43.06621" lon="1.72856">
        <ele>324.4</ele>
        <time>2019-02-13T11:09:24Z</time>
      </trkpt>
      <trkpt lat="43.06634" lon="1.72857">
        <ele>324.6</ele>
        <time>2019-02-13T11:09:26Z</time>
      </trkpt>
      <trkpt lat="43.06645" lon="1.72856">
        <ele>324.6</ele>
        <time>2019-02-13T11:09:28Z</time>
      </trkpt>
      <trkpt lat="43.06656" lon="1.72856">
        <ele>324.6</ele>
        <time>2019-02-13T11:09:31Z</time>
      </trkpt>
      <trkpt lat="43.06666" lon="1.72856">
        <ele>324.5</ele>
        <time>2019-02-13T11:09:35Z</time>
      </trkpt>
      <trkpt lat="43.06675" lon="1.72856">
        <ele>324.4</ele>
        <time>2019-02-13T11:09:40Z</time>
      </trkpt>
      <trkpt lat="43.06685" lon="1.72856">
        <ele>324.2</ele>
        <time>2019-02-13T11:09:45Z</time>
      </trkpt>
      <trkpt lat="43.06695" lon="1.72856">
        <ele>324</ele>
        <time>2019-02-13T11:09:51Z</time>
      </trkpt>
      <trkpt lat="43.06704" lon="1.72855">
        <ele>323.8</ele>
        <time>2019-02-13T11:09:57Z</time>
      </trkpt>
      <trkpt lat="43.06713" lon="1.72853">
        <ele>323.7</ele>
        <time>2019-02-13T11:10:04Z</time>
      </trkpt>
      <trkpt lat="43.06723" lon="1.72851">
        <ele>323.7</ele>
        <time>2019-02-13T11:10:12Z</time>
      </trkpt>
      <trkpt lat="43.06732" lon="1.72848">
        <ele>323.8</ele>
        <time>2019-02-13T11:10:19Z</time>
      </trkpt>
      <trkpt lat="43.06741" lon="1.72846">
        <ele>324.1</ele>
        <time>2019-02-13T11:10:28Z</time>
      </trkpt>
      <trkpt lat="43.06751" lon="1.72842">
        <ele>324.4</ele>
        <time>2019-02-13T11:10:37Z</time>
      </trkpt>
      <trkpt lat="43.06759" lon="1.72836">
        <ele>324.9</ele>
        <time>2019-02-13T11:10:46Z</time>
      </trkpt>
      <trkpt lat="43.06768" lon="1.7283">
        <ele>325.4</ele>
        <time>2019-02-13T11:10:53Z</time>
      </trkpt>
      <trkpt lat="43.06777" lon="1.72823">
        <ele>325.8</ele>
        <time>2019-02-13T11:10:59Z</time>
      </trkpt>
      <trkpt lat="43.06786" lon="1.72817">
        <ele>326.2</ele>
        <time>2019-02-13T11:11:04Z</time>
      </trkpt>
      <trkpt lat="43.06796" lon="1.72812">
        <ele>326.5</ele>
        <time>2019-02-13T11:11:08Z</time>
      </trkpt>
      <trkpt lat="43.06805" lon="1.72805">
        <ele>326.7</ele>
        <time>2019-02-13T11:11:11Z</time>
      </trkpt>
      <trkpt lat="43.06816" lon="1.72796">
        <ele>328.2</ele>
        <time>2019-02-13T11:11:14Z</time>
      </trkpt>
      <trkpt lat="43.06824" lon="1.7279">
        <ele>328.9</ele>
        <time>2019-02-13T11:11:16Z</time>
      </trkpt>
      <trkpt lat="43.06833" lon="1.72784">
        <ele>329.5</ele>
        <time>2019-02-13T11:11:18Z</time>
      </trkpt>
      <trkpt lat="43.06842" lon="1.72776">
        <ele>329.9</ele>
        <time>2019-02-13T11:11:20Z</time>
      </trkpt>
      <trkpt lat="43.06853" lon="1.72768">
        <ele>330.2</ele>
        <time>2019-02-13T11:11:22Z</time>
      </trkpt>
      <trkpt lat="43.06863" lon="1.72759">
        <ele>330.4</ele>
        <time>2019-02-13T11:11:24Z</time>
      </trkpt>
      <trkpt lat="43.06874" lon="1.72748">
        <ele>330.5</ele>
        <time>2019-02-13T11:11:26Z</time>
      </trkpt>
      <trkpt lat="43.0688" lon="1.72733">
        <ele>330.6</ele>
        <time>2019-02-13T11:11:28Z</time>
      </trkpt>
      <trkpt lat="43.06882" lon="1.72715">
        <ele>330.7</ele>
        <time>2019-02-13T11:11:30Z</time>
      </trkpt>
      <trkpt lat="43.06879" lon="1.72699">
        <ele>330.7</ele>
        <time>2019-02-13T11:11:32Z</time>
      </trkpt>
      <trkpt lat="43.06876" lon="1.72684">
        <ele>330.8</ele>
        <time>2019-02-13T11:11:34Z</time>
      </trkpt>
      <trkpt lat="43.06872" lon="1.7267">
        <ele>330.9</ele>
        <time>2019-02-13T11:11:36Z</time>
      </trkpt>
      <trkpt lat="43.06867" lon="1.72657">
        <ele>330.9</ele>
        <time>2019-02-13T11:11:38Z</time>
      </trkpt>
      <trkpt lat="43.06863" lon="1.72645">
        <ele>331.1</ele>
        <time>2019-02-13T11:11:40Z</time>
      </trkpt>
      <trkpt lat="43.06857" lon="1.7263">
        <ele>331.2</ele>
        <time>2019-02-13T11:11:43Z</time>
      </trkpt>
      <trkpt lat="43.06853" lon="1.72615">
        <ele>331.4</ele>
        <time>2019-02-13T11:11:46Z</time>
      </trkpt>
      <trkpt lat="43.06847" lon="1.72602">
        <ele>331.5</ele>
        <time>2019-02-13T11:11:49Z</time>
      </trkpt>
      <trkpt lat="43.06844" lon="1.72589">
        <ele>331.5</ele>
        <time>2019-02-13T11:11:52Z</time>
      </trkpt>
      <trkpt lat="43.06843" lon="1.72575">
        <ele>331.5</ele>
        <time>2019-02-13T11:11:55Z</time>
      </trkpt>
      <trkpt lat="43.06842" lon="1.7256">
        <ele>331.6</ele>
        <time>2019-02-13T11:11:58Z</time>
      </trkpt>
      <trkpt lat="43.06844" lon="1.72544">
        <ele>331.8</ele>
        <time>2019-02-13T11:12:01Z</time>
      </trkpt>
      <trkpt lat="43.06847" lon="1.72527">
        <ele>332</ele>
        <time>2019-02-13T11:12:04Z</time>
      </trkpt>
      <trkpt lat="43.06851" lon="1.7251">
        <ele>332.1</ele>
        <time>2019-02-13T11:12:07Z</time>
      </trkpt>
      <trkpt lat="43.06856" lon="1.72494">
        <ele>332.2</ele>
        <time>2019-02-13T11:12:10Z</time>
      </trkpt>
      <trkpt lat="43.06861" lon="1.72483">
        <ele>332.2</ele>
        <time>2019-02-13T11:12:12Z</time>
      </trkpt>
      <trkpt lat="43.06866" lon="1.72472">
        <ele>332.2</ele>
        <time>2019-02-13T11:12:14Z</time>
      </trkpt>
      <trkpt lat="43.06871" lon="1.7246">
        <ele>332.2</ele>
        <time>2019-02-13T11:12:16Z</time>
      </trkpt>
      <trkpt lat="43.06877" lon="1.7245">
        <ele>332.3</ele>
        <time>2019-02-13T11:12:18Z</time>
      </trkpt>
      <trkpt lat="43.06884" lon="1.72439">
        <ele>332.3</ele>
        <time>2019-02-13T11:12:20Z</time>
      </trkpt>
      <trkpt lat="43.06894" lon="1.7243">
        <ele>332.3</ele>
        <time>2019-02-13T11:12:22Z</time>
      </trkpt>
      <trkpt lat="43.06907" lon="1.72425">
        <ele>332.4</ele>
        <time>2019-02-13T11:12:24Z</time>
      </trkpt>
      <trkpt lat="43.06921" lon="1.72425">
        <ele>332.6</ele>
        <time>2019-02-13T11:12:26Z</time>
      </trkpt>
      <trkpt lat="43.06934" lon="1.72426">
        <ele>332.7</ele>
        <time>2019-02-13T11:12:28Z</time>
      </trkpt>
      <trkpt lat="43.06946" lon="1.72427">
        <ele>332.8</ele>
        <time>2019-02-13T11:12:30Z</time>
      </trkpt>
      <trkpt lat="43.06958" lon="1.72428">
        <ele>333</ele>
        <time>2019-02-13T11:12:32Z</time>
      </trkpt>
      <trkpt lat="43.06968" lon="1.72428">
        <ele>333.1</ele>
        <time>2019-02-13T11:12:34Z</time>
      </trkpt>
      <trkpt lat="43.06981" lon="1.72427">
        <ele>333.3</ele>
        <time>2019-02-13T11:12:37Z</time>
      </trkpt>
      <trkpt lat="43.06994" lon="1.72426">
        <ele>333.5</ele>
        <time>2019-02-13T11:12:40Z</time>
      </trkpt>
      <trkpt lat="43.07007" lon="1.72424">
        <ele>333.8</ele>
        <time>2019-02-13T11:12:43Z</time>
      </trkpt>
      <trkpt lat="43.0702" lon="1.72421">
        <ele>334.1</ele>
        <time>2019-02-13T11:12:46Z</time>
      </trkpt>
      <trkpt lat="43.0703" lon="1.72419">
        <ele>334.3</ele>
        <time>2019-02-13T11:12:48Z</time>
      </trkpt>
      <trkpt lat="43.07041" lon="1.72418">
        <ele>334.5</ele>
        <time>2019-02-13T11:12:50Z</time>
      </trkpt>
      <trkpt lat="43.07053" lon="1.72418">
        <ele>334.6</ele>
        <time>2019-02-13T11:12:52Z</time>
      </trkpt>
      <trkpt lat="43.07065" lon="1.72417">
        <ele>334.6</ele>
        <time>2019-02-13T11:12:54Z</time>
      </trkpt>
      <trkpt lat="43.07079" lon="1.72418">
        <ele>334.5</ele>
        <time>2019-02-13T11:12:56Z</time>
      </trkpt>
      <trkpt lat="43.07095" lon="1.7242">
        <ele>334.4</ele>
        <time>2019-02-13T11:12:58Z</time>
      </trkpt>
      <trkpt lat="43.07104" lon="1.7242">
        <ele>334.5</ele>
        <time>2019-02-13T11:12:59Z</time>
      </trkpt>
      <trkpt lat="43.07113" lon="1.72419">
        <ele>334.6</ele>
        <time>2019-02-13T11:13:00Z</time>
      </trkpt>
      <trkpt lat="43.07129" lon="1.72419">
        <ele>335</ele>
        <time>2019-02-13T11:13:02Z</time>
      </trkpt>
      <trkpt lat="43.07141" lon="1.72417">
        <ele>335.2</ele>
        <time>2019-02-13T11:13:04Z</time>
      </trkpt>
      <trkpt lat="43.0715" lon="1.72413">
        <ele>335.5</ele>
        <time>2019-02-13T11:13:06Z</time>
      </trkpt>
      <trkpt lat="43.07162" lon="1.72409">
        <ele>335.9</ele>
        <time>2019-02-13T11:13:09Z</time>
      </trkpt>
      <trkpt lat="43.07172" lon="1.72405">
        <ele>336</ele>
        <time>2019-02-13T11:13:12Z</time>
      </trkpt>
      <trkpt lat="43.07182" lon="1.72403">
        <ele>336.1</ele>
        <time>2019-02-13T11:13:15Z</time>
      </trkpt>
      <trkpt lat="43.07193" lon="1.72399">
        <ele>336.2</ele>
        <time>2019-02-13T11:13:19Z</time>
      </trkpt>
      <trkpt lat="43.07204" lon="1.72395">
        <ele>336.3</ele>
        <time>2019-02-13T11:13:23Z</time>
      </trkpt>
      <trkpt lat="43.07213" lon="1.7239">
        <ele>336.5</ele>
        <time>2019-02-13T11:13:27Z</time>
      </trkpt>
      <trkpt lat="43.07222" lon="1.72384">
        <ele>336.6</ele>
        <time>2019-02-13T11:13:31Z</time>
      </trkpt>
      <trkpt lat="43.0723" lon="1.72375">
        <ele>336.8</ele>
        <time>2019-02-13T11:13:35Z</time>
      </trkpt>
      <trkpt lat="43.07237" lon="1.72362">
        <ele>337</ele>
        <time>2019-02-13T11:13:39Z</time>
      </trkpt>
      <trkpt lat="43.07243" lon="1.7235">
        <ele>337.1</ele>
        <time>2019-02-13T11:13:42Z</time>
      </trkpt>
      <trkpt lat="43.07249" lon="1.72336">
        <ele>337.8</ele>
        <time>2019-02-13T11:13:45Z</time>
      </trkpt>
      <trkpt lat="43.07256" lon="1.72322">
        <ele>338.3</ele>
        <time>2019-02-13T11:13:48Z</time>
      </trkpt>
      <trkpt lat="43.07263" lon="1.72309">
        <ele>338.5</ele>
        <time>2019-02-13T11:13:51Z</time>
      </trkpt>
      <trkpt lat="43.0727" lon="1.72297">
        <ele>338.7</ele>
        <time>2019-02-13T11:13:54Z</time>
      </trkpt>
      <trkpt lat="43.07277" lon="1.72282">
        <ele>338.7</ele>
        <time>2019-02-13T11:13:57Z</time>
      </trkpt>
      <trkpt lat="43.07284" lon="1.72267">
        <ele>338.7</ele>
        <time>2019-02-13T11:14:00Z</time>
      </trkpt>
      <trkpt lat="43.07292" lon="1.72253">
        <ele>338.7</ele>
        <time>2019-02-13T11:14:03Z</time>
      </trkpt>
      <trkpt lat="43.07299" lon="1.72239">
        <ele>338.6</ele>
        <time>2019-02-13T11:14:06Z</time>
      </trkpt>
      <trkpt lat="43.07308" lon="1.72228">
        <ele>338.3</ele>
        <time>2019-02-13T11:14:09Z</time>
      </trkpt>
      <trkpt lat="43.07318" lon="1.7222">
        <ele>338.1</ele>
        <time>2019-02-13T11:14:12Z</time>
      </trkpt>
      <trkpt lat="43.07328" lon="1.72214">
        <ele>337.9</ele>
        <time>2019-02-13T11:14:15Z</time>
      </trkpt>
      <trkpt lat="43.07337" lon="1.7221">
        <ele>337.5</ele>
        <time>2019-02-13T11:14:17Z</time>
      </trkpt>
      <trkpt lat="43.07346" lon="1.72206">
        <ele>337.1</ele>
        <time>2019-02-13T11:14:19Z</time>
      </trkpt>
      <trkpt lat="43.07355" lon="1.72195">
        <ele>336.8</ele>
        <time>2019-02-13T11:14:21Z</time>
      </trkpt>
      <trkpt lat="43.07362" lon="1.72186">
        <ele>336.5</ele>
        <time>2019-02-13T11:14:23Z</time>
      </trkpt>
      <trkpt lat="43.0737" lon="1.72178">
        <ele>336.3</ele>
        <time>2019-02-13T11:14:25Z</time>
      </trkpt>
      <trkpt lat="43.07378" lon="1.72167">
        <ele>336.2</ele>
        <time>2019-02-13T11:14:29Z</time>
      </trkpt>
      <trkpt lat="43.07385" lon="1.72158">
        <ele>336.1</ele>
        <time>2019-02-13T11:14:33Z</time>
      </trkpt>
      <trkpt lat="43.07392" lon="1.72149">
        <ele>336.1</ele>
        <time>2019-02-13T11:14:37Z</time>
      </trkpt>
      <trkpt lat="43.07401" lon="1.7214">
        <ele>336</ele>
        <time>2019-02-13T11:14:40Z</time>
      </trkpt>
      <trkpt lat="43.0741" lon="1.7213">
        <ele>335.9</ele>
        <time>2019-02-13T11:14:43Z</time>
      </trkpt>
      <trkpt lat="43.0742" lon="1.72121">
        <ele>335.6</ele>
        <time>2019-02-13T11:14:46Z</time>
      </trkpt>
      <trkpt lat="43.07429" lon="1.72113">
        <ele>335.5</ele>
        <time>2019-02-13T11:14:49Z</time>
      </trkpt>
      <trkpt lat="43.07439" lon="1.72105">
        <ele>335.4</ele>
        <time>2019-02-13T11:14:53Z</time>
      </trkpt>
      <trkpt lat="43.07445" lon="1.72092">
        <ele>335.2</ele>
        <time>2019-02-13T11:14:57Z</time>
      </trkpt>
      <trkpt lat="43.07452" lon="1.72083">
        <ele>335.1</ele>
        <time>2019-02-13T11:15:00Z</time>
      </trkpt>
      <trkpt lat="43.07456" lon="1.72068">
        <ele>334.9</ele>
        <time>2019-02-13T11:15:03Z</time>
      </trkpt>
      <trkpt lat="43.07463" lon="1.72057">
        <ele>334.7</ele>
        <time>2019-02-13T11:15:06Z</time>
      </trkpt>
      <trkpt lat="43.07473" lon="1.72057">
        <ele>334.4</ele>
        <time>2019-02-13T11:15:11Z</time>
      </trkpt>
      <trkpt lat="43.07481" lon="1.72063">
        <ele>334.1</ele>
        <time>2019-02-13T11:15:16Z</time>
      </trkpt>
      <trkpt lat="43.07489" lon="1.7207">
        <ele>333.7</ele>
        <time>2019-02-13T11:15:22Z</time>
      </trkpt>
      <trkpt lat="43.07497" lon="1.72077">
        <ele>333.4</ele>
        <time>2019-02-13T11:15:27Z</time>
      </trkpt>
      <trkpt lat="43.07505" lon="1.72085">
        <ele>333.2</ele>
        <time>2019-02-13T11:15:33Z</time>
      </trkpt>
      <trkpt lat="43.07514" lon="1.72096">
        <ele>333.1</ele>
        <time>2019-02-13T11:15:38Z</time>
      </trkpt>
      <trkpt lat="43.07522" lon="1.72106">
        <ele>333.1</ele>
        <time>2019-02-13T11:15:42Z</time>
      </trkpt>
      <trkpt lat="43.07532" lon="1.72116">
        <ele>333</ele>
        <time>2019-02-13T11:15:45Z</time>
      </trkpt>
      <trkpt lat="43.0754" lon="1.72124">
        <ele>333.1</ele>
        <time>2019-02-13T11:15:47Z</time>
      </trkpt>
      <trkpt lat="43.07552" lon="1.72133">
        <ele>333.1</ele>
        <time>2019-02-13T11:15:50Z</time>
      </trkpt>
      <trkpt lat="43.07562" lon="1.72141">
        <ele>333.2</ele>
        <time>2019-02-13T11:15:53Z</time>
      </trkpt>
      <trkpt lat="43.07571" lon="1.72148">
        <ele>333.6</ele>
        <time>2019-02-13T11:15:55Z</time>
      </trkpt>
      <trkpt lat="43.0758" lon="1.72156">
        <ele>334.1</ele>
        <time>2019-02-13T11:15:57Z</time>
      </trkpt>
      <trkpt lat="43.07588" lon="1.72163">
        <ele>334.3</ele>
        <time>2019-02-13T11:15:59Z</time>
      </trkpt>
      <trkpt lat="43.07598" lon="1.72173">
        <ele>334.7</ele>
        <time>2019-02-13T11:16:02Z</time>
      </trkpt>
      <trkpt lat="43.07609" lon="1.72182">
        <ele>334.8</ele>
        <time>2019-02-13T11:16:05Z</time>
      </trkpt>
      <trkpt lat="43.07619" lon="1.72187">
        <ele>335.2</ele>
        <time>2019-02-13T11:16:07Z</time>
      </trkpt>
      <trkpt lat="43.0763" lon="1.7219">
        <ele>335.3</ele>
        <time>2019-02-13T11:16:10Z</time>
      </trkpt>
      <trkpt lat="43.0764" lon="1.72194">
        <ele>335.5</ele>
        <time>2019-02-13T11:16:14Z</time>
      </trkpt>
      <trkpt lat="43.0765" lon="1.72193">
        <ele>335.6</ele>
        <time>2019-02-13T11:16:18Z</time>
      </trkpt>
      <trkpt lat="43.07661" lon="1.72198">
        <ele>335.8</ele>
        <time>2019-02-13T11:16:22Z</time>
      </trkpt>
      <trkpt lat="43.07672" lon="1.72205">
        <ele>336.2</ele>
        <time>2019-02-13T11:16:25Z</time>
      </trkpt>
      <trkpt lat="43.07681" lon="1.72215">
        <ele>336.5</ele>
        <time>2019-02-13T11:16:28Z</time>
      </trkpt>
      <trkpt lat="43.07688" lon="1.72223">
        <ele>336.8</ele>
        <time>2019-02-13T11:16:30Z</time>
      </trkpt>
      <trkpt lat="43.07696" lon="1.72231">
        <ele>337</ele>
        <time>2019-02-13T11:16:33Z</time>
      </trkpt>
      <trkpt lat="43.07704" lon="1.72237">
        <ele>337.3</ele>
        <time>2019-02-13T11:16:35Z</time>
      </trkpt>
      <trkpt lat="43.07712" lon="1.72247">
        <ele>337.4</ele>
        <time>2019-02-13T11:16:38Z</time>
      </trkpt>
      <trkpt lat="43.07719" lon="1.72256">
        <ele>337.5</ele>
        <time>2019-02-13T11:16:41Z</time>
      </trkpt>
      <trkpt lat="43.07726" lon="1.72266">
        <ele>337.6</ele>
        <time>2019-02-13T11:16:45Z</time>
      </trkpt>
      <trkpt lat="43.07732" lon="1.72276">
        <ele>337.8</ele>
        <time>2019-02-13T11:16:50Z</time>
      </trkpt>
      <trkpt lat="43.0774" lon="1.72285">
        <ele>337.9</ele>
        <time>2019-02-13T11:16:56Z</time>
      </trkpt>
      <trkpt lat="43.07747" lon="1.72296">
        <ele>337.9</ele>
        <time>2019-02-13T11:17:02Z</time>
      </trkpt>
      <trkpt lat="43.07754" lon="1.72304">
        <ele>338</ele>
        <time>2019-02-13T11:17:06Z</time>
      </trkpt>
      <trkpt lat="43.07762" lon="1.72311">
        <ele>338</ele>
        <time>2019-02-13T11:17:10Z</time>
      </trkpt>
      <trkpt lat="43.07771" lon="1.72314">
        <ele>337.9</ele>
        <time>2019-02-13T11:17:13Z</time>
      </trkpt>
      <trkpt lat="43.07783" lon="1.72317">
        <ele>337.7</ele>
        <time>2019-02-13T11:17:16Z</time>
      </trkpt>
      <trkpt lat="43.07796" lon="1.72321">
        <ele>337.3</ele>
        <time>2019-02-13T11:17:19Z</time>
      </trkpt>
      <trkpt lat="43.07808" lon="1.72325">
        <ele>337</ele>
        <time>2019-02-13T11:17:22Z</time>
      </trkpt>
      <trkpt lat="43.07817" lon="1.72328">
        <ele>336.8</ele>
        <time>2019-02-13T11:17:24Z</time>
      </trkpt>
      <trkpt lat="43.07827" lon="1.72331">
        <ele>336.6</ele>
        <time>2019-02-13T11:17:26Z</time>
      </trkpt>
      <trkpt lat="43.0784" lon="1.72334">
        <ele>336.2</ele>
        <time>2019-02-13T11:17:29Z</time>
      </trkpt>
      <trkpt lat="43.07851" lon="1.72338">
        <ele>336</ele>
        <time>2019-02-13T11:17:32Z</time>
      </trkpt>
      <trkpt lat="43.07864" lon="1.72344">
        <ele>335.6</ele>
        <time>2019-02-13T11:17:35Z</time>
      </trkpt>
      <trkpt lat="43.07874" lon="1.72346">
        <ele>335.4</ele>
        <time>2019-02-13T11:17:37Z</time>
      </trkpt>
      <trkpt lat="43.07886" lon="1.72349">
        <ele>335.4</ele>
        <time>2019-02-13T11:17:40Z</time>
      </trkpt>
      <trkpt lat="43.07898" lon="1.72353">
        <ele>335.4</ele>
        <time>2019-02-13T11:17:43Z</time>
      </trkpt>
      <trkpt lat="43.07911" lon="1.72358">
        <ele>335.6</ele>
        <time>2019-02-13T11:17:46Z</time>
      </trkpt>
      <trkpt lat="43.0792" lon="1.7236">
        <ele>335.6</ele>
        <time>2019-02-13T11:17:48Z</time>
      </trkpt>
      <trkpt lat="43.07933" lon="1.72366">
        <ele>335.6</ele>
        <time>2019-02-13T11:17:51Z</time>
      </trkpt>
      <trkpt lat="43.07941" lon="1.72369">
        <ele>335.6</ele>
        <time>2019-02-13T11:17:53Z</time>
      </trkpt>
      <trkpt lat="43.0795" lon="1.72373">
        <ele>335.5</ele>
        <time>2019-02-13T11:17:55Z</time>
      </trkpt>
      <trkpt lat="43.07959" lon="1.72378">
        <ele>335.3</ele>
        <time>2019-02-13T11:17:57Z</time>
      </trkpt>
      <trkpt lat="43.07968" lon="1.72382">
        <ele>335.1</ele>
        <time>2019-02-13T11:17:59Z</time>
      </trkpt>
      <trkpt lat="43.07981" lon="1.72387">
        <ele>334.9</ele>
        <time>2019-02-13T11:18:02Z</time>
      </trkpt>
      <trkpt lat="43.0799" lon="1.72392">
        <ele>334.6</ele>
        <time>2019-02-13T11:18:04Z</time>
      </trkpt>
      <trkpt lat="43.08002" lon="1.72398">
        <ele>333.9</ele>
        <time>2019-02-13T11:18:07Z</time>
      </trkpt>
      <trkpt lat="43.08013" lon="1.72403">
        <ele>332.9</ele>
        <time>2019-02-13T11:18:10Z</time>
      </trkpt>
      <trkpt lat="43.08024" lon="1.72409">
        <ele>331.9</ele>
        <time>2019-02-13T11:18:13Z</time>
      </trkpt>
      <trkpt lat="43.08035" lon="1.72415">
        <ele>331.3</ele>
        <time>2019-02-13T11:18:16Z</time>
      </trkpt>
      <trkpt lat="43.08047" lon="1.7242">
        <ele>330.4</ele>
        <time>2019-02-13T11:18:19Z</time>
      </trkpt>
      <trkpt lat="43.08058" lon="1.72426">
        <ele>329.5</ele>
        <time>2019-02-13T11:18:22Z</time>
      </trkpt>
      <trkpt lat="43.0807" lon="1.72431">
        <ele>328.3</ele>
        <time>2019-02-13T11:18:25Z</time>
      </trkpt>
      <trkpt lat="43.08082" lon="1.72437">
        <ele>327.6</ele>
        <time>2019-02-13T11:18:28Z</time>
      </trkpt>
      <trkpt lat="43.08094" lon="1.72443">
        <ele>327.2</ele>
        <time>2019-02-13T11:18:31Z</time>
      </trkpt>
      <trkpt lat="43.08105" lon="1.72444">
        <ele>326.9</ele>
        <time>2019-02-13T11:18:34Z</time>
      </trkpt>
      <trkpt lat="43.08113" lon="1.72432">
        <ele>326.7</ele>
        <time>2019-02-13T11:18:37Z</time>
      </trkpt>
      <trkpt lat="43.08117" lon="1.7242">
        <ele>326.7</ele>
        <time>2019-02-13T11:18:40Z</time>
      </trkpt>
      <trkpt lat="43.08122" lon="1.72405">
        <ele>326.7</ele>
        <time>2019-02-13T11:18:44Z</time>
      </trkpt>
      <trkpt lat="43.08129" lon="1.72397">
        <ele>326.8</ele>
        <time>2019-02-13T11:18:48Z</time>
      </trkpt>
      <trkpt lat="43.0814" lon="1.72394">
        <ele>326.9</ele>
        <time>2019-02-13T11:18:52Z</time>
      </trkpt>
      <trkpt lat="43.0815" lon="1.72396">
        <ele>326.9</ele>
        <time>2019-02-13T11:18:55Z</time>
      </trkpt>
      <trkpt lat="43.08162" lon="1.72398">
        <ele>327.2</ele>
        <time>2019-02-13T11:18:58Z</time>
      </trkpt>
      <trkpt lat="43.08173" lon="1.72399">
        <ele>327.1</ele>
        <time>2019-02-13T11:19:01Z</time>
      </trkpt>
      <trkpt lat="43.08183" lon="1.7239">
        <ele>326.9</ele>
        <time>2019-02-13T11:19:04Z</time>
      </trkpt>
      <trkpt lat="43.08189" lon="1.72375">
        <ele>326.5</ele>
        <time>2019-02-13T11:19:07Z</time>
      </trkpt>
      <trkpt lat="43.08195" lon="1.72367">
        <ele>326.1</ele>
        <time>2019-02-13T11:19:09Z</time>
      </trkpt>
      <trkpt lat="43.08207" lon="1.7236">
        <ele>325.9</ele>
        <time>2019-02-13T11:19:12Z</time>
      </trkpt>
      <trkpt lat="43.08218" lon="1.72355">
        <ele>324.7</ele>
        <time>2019-02-13T11:19:15Z</time>
      </trkpt>
      <trkpt lat="43.0823" lon="1.72349">
        <ele>323.9</ele>
        <time>2019-02-13T11:19:18Z</time>
      </trkpt>
      <trkpt lat="43.08238" lon="1.7234">
        <ele>323.6</ele>
        <time>2019-02-13T11:19:21Z</time>
      </trkpt>
      <trkpt lat="43.08248" lon="1.72332">
        <ele>322.4</ele>
        <time>2019-02-13T11:19:23Z</time>
      </trkpt>
      <trkpt lat="43.08258" lon="1.72326">
        <ele>320.4</ele>
        <time>2019-02-13T11:19:25Z</time>
      </trkpt>
      <trkpt lat="43.08268" lon="1.72318">
        <ele>318.6</ele>
        <time>2019-02-13T11:19:27Z</time>
      </trkpt>
      <trkpt lat="43.08277" lon="1.72311">
        <ele>317.1</ele>
        <time>2019-02-13T11:19:29Z</time>
      </trkpt>
      <trkpt lat="43.08287" lon="1.72306">
        <ele>315.3</ele>
        <time>2019-02-13T11:19:31Z</time>
      </trkpt>
      <trkpt lat="43.08297" lon="1.72295">
        <ele>313</ele>
        <time>2019-02-13T11:19:33Z</time>
      </trkpt>
      <trkpt lat="43.08307" lon="1.72284">
        <ele>310.4</ele>
        <time>2019-02-13T11:19:35Z</time>
      </trkpt>
      <trkpt lat="43.08316" lon="1.72274">
        <ele>308.1</ele>
        <time>2019-02-13T11:19:37Z</time>
      </trkpt>
      <trkpt lat="43.08325" lon="1.72267">
        <ele>307.2</ele>
        <time>2019-02-13T11:19:39Z</time>
      </trkpt>
      <trkpt lat="43.08333" lon="1.7226">
        <ele>305.9</ele>
        <time>2019-02-13T11:19:41Z</time>
      </trkpt>
      <trkpt lat="43.08341" lon="1.72254">
        <ele>305</ele>
        <time>2019-02-13T11:19:43Z</time>
      </trkpt>
      <trkpt lat="43.0835" lon="1.72242">
        <ele>304.3</ele>
        <time>2019-02-13T11:19:45Z</time>
      </trkpt>
      <trkpt lat="43.08359" lon="1.72233">
        <ele>303.9</ele>
        <time>2019-02-13T11:19:47Z</time>
      </trkpt>
      <trkpt lat="43.0837" lon="1.72225">
        <ele>303.8</ele>
        <time>2019-02-13T11:19:50Z</time>
      </trkpt>
      <trkpt lat="43.08376" lon="1.72214">
        <ele>303.7</ele>
        <time>2019-02-13T11:19:53Z</time>
      </trkpt>
      <trkpt lat="43.08374" lon="1.72201">
        <ele>303.5</ele>
        <time>2019-02-13T11:19:57Z</time>
      </trkpt>
      <trkpt lat="43.08384" lon="1.72191">
        <ele>302.1</ele>
        <time>2019-02-13T11:20:00Z</time>
      </trkpt>
      <trkpt lat="43.08394" lon="1.72189">
        <ele>301.6</ele>
        <time>2019-02-13T11:20:02Z</time>
      </trkpt>
      <trkpt lat="43.08407" lon="1.72186">
        <ele>301.2</ele>
        <time>2019-02-13T11:20:05Z</time>
      </trkpt>
      <trkpt lat="43.08417" lon="1.72184">
        <ele>301.2</ele>
        <time>2019-02-13T11:20:07Z</time>
      </trkpt>
      <trkpt lat="43.08426" lon="1.72185">
        <ele>301.1</ele>
        <time>2019-02-13T11:20:10Z</time>
      </trkpt>
      <trkpt lat="43.08435" lon="1.72182">
        <ele>300.9</ele>
        <time>2019-02-13T11:20:13Z</time>
      </trkpt>
      <trkpt lat="43.08444" lon="1.72173">
        <ele>300.5</ele>
        <time>2019-02-13T11:20:17Z</time>
      </trkpt>
      <trkpt lat="43.0845" lon="1.72162">
        <ele>299</ele>
        <time>2019-02-13T11:20:28Z</time>
      </trkpt>
      <trkpt lat="43.08456" lon="1.72153">
        <ele>298.1</ele>
        <time>2019-02-13T11:20:37Z</time>
      </trkpt>
      <trkpt lat="43.08465" lon="1.72143">
        <ele>297.2</ele>
        <time>2019-02-13T11:20:48Z</time>
      </trkpt>
      <trkpt lat="43.08474" lon="1.72142">
        <ele>296.8</ele>
        <time>2019-02-13T11:20:52Z</time>
      </trkpt>
      <trkpt lat="43.08483" lon="1.72144">
        <ele>296.2</ele>
        <time>2019-02-13T11:20:57Z</time>
      </trkpt>
      <trkpt lat="43.08493" lon="1.72147">
        <ele>295.7</ele>
        <time>2019-02-13T11:21:02Z</time>
      </trkpt>
      <trkpt lat="43.08502" lon="1.7215">
        <ele>295.4</ele>
        <time>2019-02-13T11:21:06Z</time>
      </trkpt>
      <trkpt lat="43.08511" lon="1.72154">
        <ele>295.2</ele>
        <time>2019-02-13T11:21:09Z</time>
      </trkpt>
      <trkpt lat="43.08522" lon="1.72156">
        <ele>295.1</ele>
        <time>2019-02-13T11:21:12Z</time>
      </trkpt>
      <trkpt lat="43.08533" lon="1.72159">
        <ele>294.9</ele>
        <time>2019-02-13T11:21:15Z</time>
      </trkpt>
      <trkpt lat="43.08542" lon="1.72162">
        <ele>294.7</ele>
        <time>2019-02-13T11:21:18Z</time>
      </trkpt>
      <trkpt lat="43.08553" lon="1.72165">
        <ele>294.6</ele>
        <time>2019-02-13T11:21:21Z</time>
      </trkpt>
      <trkpt lat="43.08563" lon="1.72165">
        <ele>294.4</ele>
        <time>2019-02-13T11:21:24Z</time>
      </trkpt>
      <trkpt lat="43.08575" lon="1.72158">
        <ele>294.2</ele>
        <time>2019-02-13T11:21:28Z</time>
      </trkpt>
      <trkpt lat="43.08579" lon="1.72147">
        <ele>294</ele>
        <time>2019-02-13T11:21:31Z</time>
      </trkpt>
      <trkpt lat="43.08583" lon="1.72135">
        <ele>293.8</ele>
        <time>2019-02-13T11:21:35Z</time>
      </trkpt>
      <trkpt lat="43.08586" lon="1.72122">
        <ele>293.7</ele>
        <time>2019-02-13T11:21:39Z</time>
      </trkpt>
      <trkpt lat="43.08591" lon="1.72108">
        <ele>293.7</ele>
        <time>2019-02-13T11:21:44Z</time>
      </trkpt>
      <trkpt lat="43.08595" lon="1.72094">
        <ele>293.7</ele>
        <time>2019-02-13T11:21:49Z</time>
      </trkpt>
      <trkpt lat="43.086" lon="1.72083">
        <ele>293.7</ele>
        <time>2019-02-13T11:21:54Z</time>
      </trkpt>
      <trkpt lat="43.08604" lon="1.72071">
        <ele>293.7</ele>
        <time>2019-02-13T11:22:00Z</time>
      </trkpt>
      <trkpt lat="43.08609" lon="1.72059">
        <ele>293.9</ele>
        <time>2019-02-13T11:22:06Z</time>
      </trkpt>
      <trkpt lat="43.08615" lon="1.72048">
        <ele>294.1</ele>
        <time>2019-02-13T11:22:12Z</time>
      </trkpt>
      <trkpt lat="43.0862" lon="1.72034">
        <ele>294.3</ele>
        <time>2019-02-13T11:22:17Z</time>
      </trkpt>
      <trkpt lat="43.08626" lon="1.72019">
        <ele>294.4</ele>
        <time>2019-02-13T11:22:21Z</time>
      </trkpt>
      <trkpt lat="43.08635" lon="1.7202">
        <ele>294.5</ele>
        <time>2019-02-13T11:22:24Z</time>
      </trkpt>
      <trkpt lat="43.08645" lon="1.72026">
        <ele>294.5</ele>
        <time>2019-02-13T11:22:27Z</time>
      </trkpt>
      <trkpt lat="43.08656" lon="1.72033">
        <ele>294.5</ele>
        <time>2019-02-13T11:22:30Z</time>
      </trkpt>
      <trkpt lat="43.08667" lon="1.72043">
        <ele>294.4</ele>
        <time>2019-02-13T11:22:33Z</time>
      </trkpt>
      <trkpt lat="43.08675" lon="1.72052">
        <ele>294.2</ele>
        <time>2019-02-13T11:22:35Z</time>
      </trkpt>
      <trkpt lat="43.08683" lon="1.72063">
        <ele>294</ele>
        <time>2019-02-13T11:22:37Z</time>
      </trkpt>
      <trkpt lat="43.08692" lon="1.72073">
        <ele>293.5</ele>
        <time>2019-02-13T11:22:39Z</time>
      </trkpt>
      <trkpt lat="43.08701" lon="1.72084">
        <ele>292.7</ele>
        <time>2019-02-13T11:22:41Z</time>
      </trkpt>
      <trkpt lat="43.08711" lon="1.72093">
        <ele>291.7</ele>
        <time>2019-02-13T11:22:43Z</time>
      </trkpt>
      <trkpt lat="43.08721" lon="1.72102">
        <ele>290.6</ele>
        <time>2019-02-13T11:22:45Z</time>
      </trkpt>
      <trkpt lat="43.08734" lon="1.72108">
        <ele>289.4</ele>
        <time>2019-02-13T11:22:47Z</time>
      </trkpt>
      <trkpt lat="43.08747" lon="1.72114">
        <ele>288.8</ele>
        <time>2019-02-13T11:22:49Z</time>
      </trkpt>
      <trkpt lat="43.08761" lon="1.72117">
        <ele>288.8</ele>
        <time>2019-02-13T11:22:51Z</time>
      </trkpt>
      <trkpt lat="43.08774" lon="1.72114">
        <ele>289.2</ele>
        <time>2019-02-13T11:22:53Z</time>
      </trkpt>
      <trkpt lat="43.08785" lon="1.72102">
        <ele>289.5</ele>
        <time>2019-02-13T11:22:55Z</time>
      </trkpt>
      <trkpt lat="43.08794" lon="1.7209">
        <ele>290.1</ele>
        <time>2019-02-13T11:22:57Z</time>
      </trkpt>
      <trkpt lat="43.08801" lon="1.72078">
        <ele>290.8</ele>
        <time>2019-02-13T11:22:59Z</time>
      </trkpt>
      <trkpt lat="43.0881" lon="1.72072">
        <ele>291.2</ele>
        <time>2019-02-13T11:23:02Z</time>
      </trkpt>
      <trkpt lat="43.08821" lon="1.72076">
        <ele>291.5</ele>
        <time>2019-02-13T11:23:06Z</time>
      </trkpt>
      <trkpt lat="43.08831" lon="1.72083">
        <ele>291.8</ele>
        <time>2019-02-13T11:23:10Z</time>
      </trkpt>
      <trkpt lat="43.0884" lon="1.72088">
        <ele>292</ele>
        <time>2019-02-13T11:23:13Z</time>
      </trkpt>
      <trkpt lat="43.08849" lon="1.72095">
        <ele>292.5</ele>
        <time>2019-02-13T11:23:16Z</time>
      </trkpt>
      <trkpt lat="43.08858" lon="1.72103">
        <ele>293.3</ele>
        <time>2019-02-13T11:23:19Z</time>
      </trkpt>
      <trkpt lat="43.08865" lon="1.72113">
        <ele>293.6</ele>
        <time>2019-02-13T11:23:22Z</time>
      </trkpt>
      <trkpt lat="43.08875" lon="1.72122">
        <ele>293.7</ele>
        <time>2019-02-13T11:23:25Z</time>
      </trkpt>
      <trkpt lat="43.08883" lon="1.72129">
        <ele>293.5</ele>
        <time>2019-02-13T11:23:27Z</time>
      </trkpt>
      <trkpt lat="43.08895" lon="1.72138">
        <ele>293.2</ele>
        <time>2019-02-13T11:23:30Z</time>
      </trkpt>
      <trkpt lat="43.08903" lon="1.72145">
        <ele>293</ele>
        <time>2019-02-13T11:23:32Z</time>
      </trkpt>
      <trkpt lat="43.08911" lon="1.72151">
        <ele>292.9</ele>
        <time>2019-02-13T11:23:34Z</time>
      </trkpt>
      <trkpt lat="43.08921" lon="1.72155">
        <ele>292.8</ele>
        <time>2019-02-13T11:23:36Z</time>
      </trkpt>
      <trkpt lat="43.0893" lon="1.72159">
        <ele>292.8</ele>
        <time>2019-02-13T11:23:38Z</time>
      </trkpt>
      <trkpt lat="43.0894" lon="1.72164">
        <ele>293.1</ele>
        <time>2019-02-13T11:23:40Z</time>
      </trkpt>
      <trkpt lat="43.08948" lon="1.72168">
        <ele>293.6</ele>
        <time>2019-02-13T11:23:42Z</time>
      </trkpt>
      <trkpt lat="43.08959" lon="1.7217">
        <ele>294.1</ele>
        <time>2019-02-13T11:23:45Z</time>
      </trkpt>
      <trkpt lat="43.08965" lon="1.72156">
        <ele>295.1</ele>
        <time>2019-02-13T11:23:48Z</time>
      </trkpt>
      <trkpt lat="43.08969" lon="1.7214">
        <ele>296.4</ele>
        <time>2019-02-13T11:23:51Z</time>
      </trkpt>
      <trkpt lat="43.08974" lon="1.72126">
        <ele>297.2</ele>
        <time>2019-02-13T11:23:54Z</time>
      </trkpt>
      <trkpt lat="43.08979" lon="1.72113">
        <ele>297.4</ele>
        <time>2019-02-13T11:23:57Z</time>
      </trkpt>
      <trkpt lat="43.08984" lon="1.72099">
        <ele>297.5</ele>
        <time>2019-02-13T11:24:00Z</time>
      </trkpt>
      <trkpt lat="43.08988" lon="1.72084">
        <ele>297.6</ele>
        <time>2019-02-13T11:24:03Z</time>
      </trkpt>
      <trkpt lat="43.08998" lon="1.72079">
        <ele>297.7</ele>
        <time>2019-02-13T11:24:06Z</time>
      </trkpt>
      <trkpt lat="43.0901" lon="1.7208">
        <ele>297.4</ele>
        <time>2019-02-13T11:24:09Z</time>
      </trkpt>
      <trkpt lat="43.09024" lon="1.72077">
        <ele>296.8</ele>
        <time>2019-02-13T11:24:11Z</time>
      </trkpt>
      <trkpt lat="43.09038" lon="1.72074">
        <ele>296.2</ele>
        <time>2019-02-13T11:24:13Z</time>
      </trkpt>
      <trkpt lat="43.09052" lon="1.7207">
        <ele>295.5</ele>
        <time>2019-02-13T11:24:15Z</time>
      </trkpt>
      <trkpt lat="43.09067" lon="1.72067">
        <ele>294.7</ele>
        <time>2019-02-13T11:24:17Z</time>
      </trkpt>
      <trkpt lat="43.09082" lon="1.72063">
        <ele>293.9</ele>
        <time>2019-02-13T11:24:19Z</time>
      </trkpt>
      <trkpt lat="43.09097" lon="1.72062">
        <ele>293.4</ele>
        <time>2019-02-13T11:24:21Z</time>
      </trkpt>
      <trkpt lat="43.09113" lon="1.72062">
        <ele>292.9</ele>
        <time>2019-02-13T11:24:23Z</time>
      </trkpt>
      <trkpt lat="43.09128" lon="1.72062">
        <ele>292.5</ele>
        <time>2019-02-13T11:24:25Z</time>
      </trkpt>
      <trkpt lat="43.09143" lon="1.72061">
        <ele>292.2</ele>
        <time>2019-02-13T11:24:27Z</time>
      </trkpt>
      <trkpt lat="43.09157" lon="1.72061">
        <ele>292</ele>
        <time>2019-02-13T11:24:29Z</time>
      </trkpt>
      <trkpt lat="43.09171" lon="1.72062">
        <ele>291.8</ele>
        <time>2019-02-13T11:24:31Z</time>
      </trkpt>
      <trkpt lat="43.09184" lon="1.72061">
        <ele>291.6</ele>
        <time>2019-02-13T11:24:33Z</time>
      </trkpt>
      <trkpt lat="43.09197" lon="1.72061">
        <ele>291.4</ele>
        <time>2019-02-13T11:24:35Z</time>
      </trkpt>
      <trkpt lat="43.09209" lon="1.72062">
        <ele>291.1</ele>
        <time>2019-02-13T11:24:37Z</time>
      </trkpt>
      <trkpt lat="43.09222" lon="1.72062">
        <ele>291</ele>
        <time>2019-02-13T11:24:39Z</time>
      </trkpt>
      <trkpt lat="43.09234" lon="1.72063">
        <ele>290.9</ele>
        <time>2019-02-13T11:24:41Z</time>
      </trkpt>
      <trkpt lat="43.09246" lon="1.72064">
        <ele>290.8</ele>
        <time>2019-02-13T11:24:43Z</time>
      </trkpt>
      <trkpt lat="43.09259" lon="1.72063">
        <ele>290.7</ele>
        <time>2019-02-13T11:24:45Z</time>
      </trkpt>
      <trkpt lat="43.0927" lon="1.72062">
        <ele>290.7</ele>
        <time>2019-02-13T11:24:47Z</time>
      </trkpt>
      <trkpt lat="43.09281" lon="1.7206">
        <ele>290.7</ele>
        <time>2019-02-13T11:24:49Z</time>
      </trkpt>
      <trkpt lat="43.09292" lon="1.72056">
        <ele>290.7</ele>
        <time>2019-02-13T11:24:51Z</time>
      </trkpt>
      <trkpt lat="43.09301" lon="1.72053">
        <ele>290.7</ele>
        <time>2019-02-13T11:24:53Z</time>
      </trkpt>
      <trkpt lat="43.0931" lon="1.72049">
        <ele>290.7</ele>
        <time>2019-02-13T11:24:55Z</time>
      </trkpt>
      <trkpt lat="43.09323" lon="1.72045">
        <ele>290.8</ele>
        <time>2019-02-13T11:24:58Z</time>
      </trkpt>
      <trkpt lat="43.09333" lon="1.72041">
        <ele>290.8</ele>
        <time>2019-02-13T11:25:02Z</time>
      </trkpt>
      <trkpt lat="43.09344" lon="1.7204">
        <ele>290.9</ele>
        <time>2019-02-13T11:25:15Z</time>
      </trkpt>
      <trkpt lat="43.09353" lon="1.72034">
        <ele>291</ele>
        <time>2019-02-13T11:25:18Z</time>
      </trkpt>
      <trkpt lat="43.09366" lon="1.72029">
        <ele>291.4</ele>
        <time>2019-02-13T11:25:21Z</time>
      </trkpt>
      <trkpt lat="43.09375" lon="1.72026">
        <ele>291.6</ele>
        <time>2019-02-13T11:25:23Z</time>
      </trkpt>
      <trkpt lat="43.09385" lon="1.72023">
        <ele>291.8</ele>
        <time>2019-02-13T11:25:25Z</time>
      </trkpt>
      <trkpt lat="43.09394" lon="1.7202">
        <ele>292</ele>
        <time>2019-02-13T11:25:27Z</time>
      </trkpt>
      <trkpt lat="43.09403" lon="1.72017">
        <ele>292</ele>
        <time>2019-02-13T11:25:29Z</time>
      </trkpt>
      <trkpt lat="43.09413" lon="1.72013">
        <ele>292</ele>
        <time>2019-02-13T11:25:31Z</time>
      </trkpt>
      <trkpt lat="43.09423" lon="1.72008">
        <ele>292.2</ele>
        <time>2019-02-13T11:25:33Z</time>
      </trkpt>
      <trkpt lat="43.09432" lon="1.71999">
        <ele>292.2</ele>
        <time>2019-02-13T11:25:35Z</time>
      </trkpt>
      <trkpt lat="43.09442" lon="1.71988">
        <ele>292.2</ele>
        <time>2019-02-13T11:25:37Z</time>
      </trkpt>
      <trkpt lat="43.09449" lon="1.71974">
        <ele>292.2</ele>
        <time>2019-02-13T11:25:39Z</time>
      </trkpt>
      <trkpt lat="43.09456" lon="1.71959">
        <ele>292.2</ele>
        <time>2019-02-13T11:25:41Z</time>
      </trkpt>
      <trkpt lat="43.09464" lon="1.71944">
        <ele>292.2</ele>
        <time>2019-02-13T11:25:43Z</time>
      </trkpt>
      <trkpt lat="43.09473" lon="1.7193">
        <ele>292.1</ele>
        <time>2019-02-13T11:25:45Z</time>
      </trkpt>
      <trkpt lat="43.09482" lon="1.71916">
        <ele>292.2</ele>
        <time>2019-02-13T11:25:47Z</time>
      </trkpt>
      <trkpt lat="43.09492" lon="1.71904">
        <ele>292.2</ele>
        <time>2019-02-13T11:25:49Z</time>
      </trkpt>
      <trkpt lat="43.09501" lon="1.71893">
        <ele>292.1</ele>
        <time>2019-02-13T11:25:51Z</time>
      </trkpt>
      <trkpt lat="43.09509" lon="1.71882">
        <ele>291.9</ele>
        <time>2019-02-13T11:25:53Z</time>
      </trkpt>
      <trkpt lat="43.09516" lon="1.71871">
        <ele>291.9</ele>
        <time>2019-02-13T11:25:55Z</time>
      </trkpt>
      <trkpt lat="43.09523" lon="1.71862">
        <ele>291.8</ele>
        <time>2019-02-13T11:25:57Z</time>
      </trkpt>
      <trkpt lat="43.09531" lon="1.71852">
        <ele>291.7</ele>
        <time>2019-02-13T11:25:59Z</time>
      </trkpt>
      <trkpt lat="43.09538" lon="1.71842">
        <ele>291.7</ele>
        <time>2019-02-13T11:26:01Z</time>
      </trkpt>
      <trkpt lat="43.09545" lon="1.71832">
        <ele>291.6</ele>
        <time>2019-02-13T11:26:03Z</time>
      </trkpt>
      <trkpt lat="43.09552" lon="1.71822">
        <ele>291.6</ele>
        <time>2019-02-13T11:26:05Z</time>
      </trkpt>
      <trkpt lat="43.09563" lon="1.71814">
        <ele>291.4</ele>
        <time>2019-02-13T11:26:07Z</time>
      </trkpt>
      <trkpt lat="43.09575" lon="1.7181">
        <ele>291.3</ele>
        <time>2019-02-13T11:26:09Z</time>
      </trkpt>
      <trkpt lat="43.09588" lon="1.7181">
        <ele>291.1</ele>
        <time>2019-02-13T11:26:11Z</time>
      </trkpt>
      <trkpt lat="43.09603" lon="1.71813">
        <ele>290.9</ele>
        <time>2019-02-13T11:26:13Z</time>
      </trkpt>
      <trkpt lat="43.09618" lon="1.71815">
        <ele>290.8</ele>
        <time>2019-02-13T11:26:15Z</time>
      </trkpt>
      <trkpt lat="43.09632" lon="1.71813">
        <ele>290.5</ele>
        <time>2019-02-13T11:26:17Z</time>
      </trkpt>
      <trkpt lat="43.09646" lon="1.7181">
        <ele>290.2</ele>
        <time>2019-02-13T11:26:19Z</time>
      </trkpt>
      <trkpt lat="43.0966" lon="1.71804">
        <ele>290</ele>
        <time>2019-02-13T11:26:21Z</time>
      </trkpt>
      <trkpt lat="43.09673" lon="1.71799">
        <ele>289.7</ele>
        <time>2019-02-13T11:26:23Z</time>
      </trkpt>
      <trkpt lat="43.09686" lon="1.71793">
        <ele>289.5</ele>
        <time>2019-02-13T11:26:25Z</time>
      </trkpt>
      <trkpt lat="43.09698" lon="1.71787">
        <ele>289.4</ele>
        <time>2019-02-13T11:26:27Z</time>
      </trkpt>
      <trkpt lat="43.09709" lon="1.71778">
        <ele>289.2</ele>
        <time>2019-02-13T11:26:29Z</time>
      </trkpt>
      <trkpt lat="43.09719" lon="1.71767">
        <ele>289.2</ele>
        <time>2019-02-13T11:26:31Z</time>
      </trkpt>
      <trkpt lat="43.09729" lon="1.71756">
        <ele>289.2</ele>
        <time>2019-02-13T11:26:33Z</time>
      </trkpt>
      <trkpt lat="43.09737" lon="1.71744">
        <ele>289.1</ele>
        <time>2019-02-13T11:26:35Z</time>
      </trkpt>
      <trkpt lat="43.09745" lon="1.71732">
        <ele>289.1</ele>
        <time>2019-02-13T11:26:37Z</time>
      </trkpt>
      <trkpt lat="43.09752" lon="1.71719">
        <ele>289.1</ele>
        <time>2019-02-13T11:26:39Z</time>
      </trkpt>
      <trkpt lat="43.09759" lon="1.71706">
        <ele>289.1</ele>
        <time>2019-02-13T11:26:41Z</time>
      </trkpt>
      <trkpt lat="43.09765" lon="1.71694">
        <ele>289.1</ele>
        <time>2019-02-13T11:26:43Z</time>
      </trkpt>
      <trkpt lat="43.09771" lon="1.71682">
        <ele>289</ele>
        <time>2019-02-13T11:26:45Z</time>
      </trkpt>
      <trkpt lat="43.09776" lon="1.71671">
        <ele>289</ele>
        <time>2019-02-13T11:26:47Z</time>
      </trkpt>
      <trkpt lat="43.09785" lon="1.71658">
        <ele>288.9</ele>
        <time>2019-02-13T11:26:50Z</time>
      </trkpt>
      <trkpt lat="43.09793" lon="1.71652">
        <ele>288.9</ele>
        <time>2019-02-13T11:26:53Z</time>
      </trkpt>
      <trkpt lat="43.09797" lon="1.7164">
        <ele>289.4</ele>
        <time>2019-02-13T11:27:47Z</time>
      </trkpt>
      <trkpt lat="43.09801" lon="1.71627">
        <ele>289.5</ele>
        <time>2019-02-13T11:27:53Z</time>
      </trkpt>
      <trkpt lat="43.09804" lon="1.71612">
        <ele>289.7</ele>
        <time>2019-02-13T11:27:58Z</time>
      </trkpt>
      <trkpt lat="43.09806" lon="1.71597">
        <ele>289.9</ele>
        <time>2019-02-13T11:28:03Z</time>
      </trkpt>
      <trkpt lat="43.09809" lon="1.71583">
        <ele>290.1</ele>
        <time>2019-02-13T11:28:07Z</time>
      </trkpt>
      <trkpt lat="43.09811" lon="1.71568">
        <ele>290.3</ele>
        <time>2019-02-13T11:28:11Z</time>
      </trkpt>
      <trkpt lat="43.09814" lon="1.71556">
        <ele>290.5</ele>
        <time>2019-02-13T11:28:15Z</time>
      </trkpt>
      <trkpt lat="43.09818" lon="1.71543">
        <ele>290.7</ele>
        <time>2019-02-13T11:28:20Z</time>
      </trkpt>
      <trkpt lat="43.09821" lon="1.7153">
        <ele>290.9</ele>
        <time>2019-02-13T11:28:25Z</time>
      </trkpt>
      <trkpt lat="43.09824" lon="1.71515">
        <ele>291.1</ele>
        <time>2019-02-13T11:28:30Z</time>
      </trkpt>
      <trkpt lat="43.09826" lon="1.71501">
        <ele>291.2</ele>
        <time>2019-02-13T11:28:35Z</time>
      </trkpt>
      <trkpt lat="43.09829" lon="1.71488">
        <ele>291.3</ele>
        <time>2019-02-13T11:28:40Z</time>
      </trkpt>
      <trkpt lat="43.09833" lon="1.71475">
        <ele>291.3</ele>
        <time>2019-02-13T11:28:45Z</time>
      </trkpt>
      <trkpt lat="43.09837" lon="1.71461">
        <ele>291.3</ele>
        <time>2019-02-13T11:28:50Z</time>
      </trkpt>
      <trkpt lat="43.09841" lon="1.71447">
        <ele>291.3</ele>
        <time>2019-02-13T11:28:56Z</time>
      </trkpt>
      <trkpt lat="43.09844" lon="1.71434">
        <ele>291.5</ele>
        <time>2019-02-13T11:29:01Z</time>
      </trkpt>
      <trkpt lat="43.09846" lon="1.71421">
        <ele>291.7</ele>
        <time>2019-02-13T11:29:06Z</time>
      </trkpt>
      <trkpt lat="43.0985" lon="1.71409">
        <ele>292</ele>
        <time>2019-02-13T11:29:12Z</time>
      </trkpt>
      <trkpt lat="43.09851" lon="1.71397">
        <ele>292.6</ele>
        <time>2019-02-13T11:29:19Z</time>
      </trkpt>
      <trkpt lat="43.09853" lon="1.71382">
        <ele>293.4</ele>
        <time>2019-02-13T11:29:26Z</time>
      </trkpt>
      <trkpt lat="43.09856" lon="1.71368">
        <ele>294</ele>
        <time>2019-02-13T11:29:32Z</time>
      </trkpt>
      <trkpt lat="43.09867" lon="1.71362">
        <ele>295</ele>
        <time>2019-02-13T11:29:42Z</time>
      </trkpt>
      <trkpt lat="43.09876" lon="1.71362">
        <ele>295.8</ele>
        <time>2019-02-13T11:29:47Z</time>
      </trkpt>
      <trkpt lat="43.09887" lon="1.71365">
        <ele>297.3</ele>
        <time>2019-02-13T11:29:54Z</time>
      </trkpt>
      <trkpt lat="43.09902" lon="1.71366">
        <ele>300</ele>
        <time>2019-02-13T11:30:11Z</time>
      </trkpt>
      <trkpt lat="43.09911" lon="1.71366">
        <ele>301.9</ele>
        <time>2019-02-13T11:30:22Z</time>
      </trkpt>
      <trkpt lat="43.0992" lon="1.71374">
        <ele>303.2</ele>
        <time>2019-02-13T11:30:31Z</time>
      </trkpt>
      <trkpt lat="43.09929" lon="1.71384">
        <ele>304</ele>
        <time>2019-02-13T11:30:34Z</time>
      </trkpt>
      <trkpt lat="43.09938" lon="1.71393">
        <ele>304.4</ele>
        <time>2019-02-13T11:30:37Z</time>
      </trkpt>
      <trkpt lat="43.09946" lon="1.71401">
        <ele>304.7</ele>
        <time>2019-02-13T11:30:41Z</time>
      </trkpt>
      <trkpt lat="43.09959" lon="1.71407">
        <ele>304.8</ele>
        <time>2019-02-13T11:30:44Z</time>
      </trkpt>
      <trkpt lat="43.09969" lon="1.7141">
        <ele>305.1</ele>
        <time>2019-02-13T11:30:47Z</time>
      </trkpt>
      <trkpt lat="43.0998" lon="1.71415">
        <ele>306</ele>
        <time>2019-02-13T11:30:53Z</time>
      </trkpt>
      <trkpt lat="43.09989" lon="1.7142">
        <ele>307.4</ele>
        <time>2019-02-13T11:31:00Z</time>
      </trkpt>
      <trkpt lat="43.09999" lon="1.71424">
        <ele>309</ele>
        <time>2019-02-13T11:31:08Z</time>
      </trkpt>
      <trkpt lat="43.10016" lon="1.71427">
        <ele>310.2</ele>
        <time>2019-02-13T11:31:20Z</time>
      </trkpt>
      <trkpt lat="43.10026" lon="1.71429">
        <ele>310.8</ele>
        <time>2019-02-13T11:31:25Z</time>
      </trkpt>
      <trkpt lat="43.10036" lon="1.71432">
        <ele>312.2</ele>
        <time>2019-02-13T11:31:32Z</time>
      </trkpt>
      <trkpt lat="43.10045" lon="1.71434">
        <ele>313.5</ele>
        <time>2019-02-13T11:31:38Z</time>
      </trkpt>
      <trkpt lat="43.10056" lon="1.71434">
        <ele>314.5</ele>
        <time>2019-02-13T11:31:44Z</time>
      </trkpt>
      <trkpt lat="43.10065" lon="1.71435">
        <ele>315.4</ele>
        <time>2019-02-13T11:31:50Z</time>
      </trkpt>
      <trkpt lat="43.10074" lon="1.71437">
        <ele>316.2</ele>
        <time>2019-02-13T11:31:56Z</time>
      </trkpt>
      <trkpt lat="43.10083" lon="1.7144">
        <ele>316.7</ele>
        <time>2019-02-13T11:32:01Z</time>
      </trkpt>
      <trkpt lat="43.10093" lon="1.71444">
        <ele>317.1</ele>
        <time>2019-02-13T11:32:06Z</time>
      </trkpt>
      <trkpt lat="43.10103" lon="1.71448">
        <ele>317.3</ele>
        <time>2019-02-13T11:32:11Z</time>
      </trkpt>
      <trkpt lat="43.10112" lon="1.71452">
        <ele>317.3</ele>
        <time>2019-02-13T11:32:15Z</time>
      </trkpt>
      <trkpt lat="43.10121" lon="1.71454">
        <ele>317.2</ele>
        <time>2019-02-13T11:32:18Z</time>
      </trkpt>
      <trkpt lat="43.1013" lon="1.71454">
        <ele>317.1</ele>
        <time>2019-02-13T11:32:20Z</time>
      </trkpt>
      <trkpt lat="43.10142" lon="1.71452">
        <ele>315.6</ele>
        <time>2019-02-13T11:32:23Z</time>
      </trkpt>
      <trkpt lat="43.10151" lon="1.7145">
        <ele>313.9</ele>
        <time>2019-02-13T11:32:25Z</time>
      </trkpt>
      <trkpt lat="43.10161" lon="1.71449">
        <ele>313.3</ele>
        <time>2019-02-13T11:32:27Z</time>
      </trkpt>
      <trkpt lat="43.10171" lon="1.71449">
        <ele>312.8</ele>
        <time>2019-02-13T11:32:30Z</time>
      </trkpt>
      <trkpt lat="43.10182" lon="1.71446">
        <ele>312.2</ele>
        <time>2019-02-13T11:32:34Z</time>
      </trkpt>
      <trkpt lat="43.10192" lon="1.71445">
        <ele>311.7</ele>
        <time>2019-02-13T11:32:38Z</time>
      </trkpt>
      <trkpt lat="43.10202" lon="1.7144">
        <ele>311.1</ele>
        <time>2019-02-13T11:32:42Z</time>
      </trkpt>
      <trkpt lat="43.102" lon="1.71428">
        <ele>310.3</ele>
        <time>2019-02-13T11:32:47Z</time>
      </trkpt>
      <trkpt lat="43.10198" lon="1.71416">
        <ele>309.5</ele>
        <time>2019-02-13T11:32:52Z</time>
      </trkpt>
      <trkpt lat="43.10194" lon="1.71401">
        <ele>308.8</ele>
        <time>2019-02-13T11:32:57Z</time>
      </trkpt>
      <trkpt lat="43.10189" lon="1.71389">
        <ele>308.4</ele>
        <time>2019-02-13T11:33:01Z</time>
      </trkpt>
      <trkpt lat="43.10186" lon="1.71377">
        <ele>308.2</ele>
        <time>2019-02-13T11:33:08Z</time>
      </trkpt>
      <trkpt lat="43.10183" lon="1.71364">
        <ele>308.2</ele>
        <time>2019-02-13T11:33:14Z</time>
      </trkpt>
      <trkpt lat="43.10181" lon="1.71352">
        <ele>308.3</ele>
        <time>2019-02-13T11:33:17Z</time>
      </trkpt>
      <trkpt lat="43.10178" lon="1.71338">
        <ele>308.6</ele>
        <time>2019-02-13T11:33:21Z</time>
      </trkpt>
      <trkpt lat="43.10176" lon="1.71325">
        <ele>308.9</ele>
        <time>2019-02-13T11:33:25Z</time>
      </trkpt>
      <trkpt lat="43.10175" lon="1.71312">
        <ele>309.4</ele>
        <time>2019-02-13T11:33:30Z</time>
      </trkpt>
      <trkpt lat="43.10172" lon="1.71299">
        <ele>309.8</ele>
        <time>2019-02-13T11:33:34Z</time>
      </trkpt>
      <trkpt lat="43.10169" lon="1.71287">
        <ele>310.3</ele>
        <time>2019-02-13T11:33:38Z</time>
      </trkpt>
      <trkpt lat="43.10166" lon="1.71273">
        <ele>310.9</ele>
        <time>2019-02-13T11:33:43Z</time>
      </trkpt>
      <trkpt lat="43.10164" lon="1.7126">
        <ele>311.5</ele>
        <time>2019-02-13T11:33:47Z</time>
      </trkpt>
      <trkpt lat="43.1016" lon="1.71246">
        <ele>312.3</ele>
        <time>2019-02-13T11:33:52Z</time>
      </trkpt>
      <trkpt lat="43.10157" lon="1.71234">
        <ele>313.1</ele>
        <time>2019-02-13T11:33:57Z</time>
      </trkpt>
      <trkpt lat="43.10153" lon="1.71219">
        <ele>313.9</ele>
        <time>2019-02-13T11:34:02Z</time>
      </trkpt>
      <trkpt lat="43.1015" lon="1.71208">
        <ele>314.5</ele>
        <time>2019-02-13T11:34:06Z</time>
      </trkpt>
      <trkpt lat="43.10145" lon="1.71195">
        <ele>315.4</ele>
        <time>2019-02-13T11:34:11Z</time>
      </trkpt>
      <trkpt lat="43.1014" lon="1.71182">
        <ele>316.3</ele>
        <time>2019-02-13T11:34:16Z</time>
      </trkpt>
      <trkpt lat="43.10133" lon="1.71173">
        <ele>316.9</ele>
        <time>2019-02-13T11:34:20Z</time>
      </trkpt>
      <trkpt lat="43.10124" lon="1.71164">
        <ele>317.6</ele>
        <time>2019-02-13T11:34:25Z</time>
      </trkpt>
      <trkpt lat="43.10115" lon="1.71159">
        <ele>318.2</ele>
        <time>2019-02-13T11:34:29Z</time>
      </trkpt>
      <trkpt lat="43.10105" lon="1.71155">
        <ele>318.9</ele>
        <time>2019-02-13T11:34:34Z</time>
      </trkpt>
      <trkpt lat="43.10096" lon="1.71154">
        <ele>319.7</ele>
        <time>2019-02-13T11:34:39Z</time>
      </trkpt>
      <trkpt lat="43.10086" lon="1.71152">
        <ele>320.3</ele>
        <time>2019-02-13T11:34:43Z</time>
      </trkpt>
      <trkpt lat="43.10075" lon="1.71151">
        <ele>320.8</ele>
        <time>2019-02-13T11:34:47Z</time>
      </trkpt>
      <trkpt lat="43.10064" lon="1.71148">
        <ele>321.4</ele>
        <time>2019-02-13T11:34:51Z</time>
      </trkpt>
      <trkpt lat="43.10055" lon="1.71145">
        <ele>321.8</ele>
        <time>2019-02-13T11:34:54Z</time>
      </trkpt>
      <trkpt lat="43.10045" lon="1.7114">
        <ele>323</ele>
        <time>2019-02-13T11:34:57Z</time>
      </trkpt>
      <trkpt lat="43.10034" lon="1.71132">
        <ele>325.8</ele>
        <time>2019-02-13T11:35:00Z</time>
      </trkpt>
      <trkpt lat="43.10025" lon="1.71121">
        <ele>327.5</ele>
        <time>2019-02-13T11:35:03Z</time>
      </trkpt>
      <trkpt lat="43.10016" lon="1.71108">
        <ele>328.2</ele>
        <time>2019-02-13T11:35:06Z</time>
      </trkpt>
      <trkpt lat="43.10007" lon="1.71096">
        <ele>328.5</ele>
        <time>2019-02-13T11:35:09Z</time>
      </trkpt>
      <trkpt lat="43.09999" lon="1.71082">
        <ele>328.7</ele>
        <time>2019-02-13T11:35:12Z</time>
      </trkpt>
      <trkpt lat="43.09993" lon="1.71072">
        <ele>328.8</ele>
        <time>2019-02-13T11:35:14Z</time>
      </trkpt>
      <trkpt lat="43.09986" lon="1.71058">
        <ele>328.5</ele>
        <time>2019-02-13T11:35:17Z</time>
      </trkpt>
      <trkpt lat="43.09983" lon="1.71046">
        <ele>328.3</ele>
        <time>2019-02-13T11:35:19Z</time>
      </trkpt>
      <trkpt lat="43.09981" lon="1.71034">
        <ele>328</ele>
        <time>2019-02-13T11:35:21Z</time>
      </trkpt>
      <trkpt lat="43.09979" lon="1.71021">
        <ele>327.7</ele>
        <time>2019-02-13T11:35:23Z</time>
      </trkpt>
      <trkpt lat="43.09978" lon="1.71009">
        <ele>327.4</ele>
        <time>2019-02-13T11:35:25Z</time>
      </trkpt>
      <trkpt lat="43.09977" lon="1.70995">
        <ele>327.2</ele>
        <time>2019-02-13T11:35:27Z</time>
      </trkpt>
      <trkpt lat="43.09976" lon="1.70982">
        <ele>327.3</ele>
        <time>2019-02-13T11:35:29Z</time>
      </trkpt>
      <trkpt lat="43.09975" lon="1.7097">
        <ele>327.3</ele>
        <time>2019-02-13T11:35:31Z</time>
      </trkpt>
      <trkpt lat="43.09975" lon="1.70957">
        <ele>327.3</ele>
        <time>2019-02-13T11:35:33Z</time>
      </trkpt>
      <trkpt lat="43.09974" lon="1.70944">
        <ele>327.4</ele>
        <time>2019-02-13T11:35:35Z</time>
      </trkpt>
      <trkpt lat="43.09974" lon="1.7093">
        <ele>327.5</ele>
        <time>2019-02-13T11:35:37Z</time>
      </trkpt>
      <trkpt lat="43.09973" lon="1.70917">
        <ele>327.5</ele>
        <time>2019-02-13T11:35:39Z</time>
      </trkpt>
      <trkpt lat="43.09971" lon="1.70903">
        <ele>327.6</ele>
        <time>2019-02-13T11:35:41Z</time>
      </trkpt>
      <trkpt lat="43.0997" lon="1.70889">
        <ele>327.5</ele>
        <time>2019-02-13T11:35:43Z</time>
      </trkpt>
      <trkpt lat="43.09969" lon="1.70874">
        <ele>327.5</ele>
        <time>2019-02-13T11:35:45Z</time>
      </trkpt>
      <trkpt lat="43.09968" lon="1.70859">
        <ele>327.4</ele>
        <time>2019-02-13T11:35:47Z</time>
      </trkpt>
      <trkpt lat="43.09968" lon="1.70844">
        <ele>327.4</ele>
        <time>2019-02-13T11:35:49Z</time>
      </trkpt>
      <trkpt lat="43.09966" lon="1.70828">
        <ele>327.4</ele>
        <time>2019-02-13T11:35:51Z</time>
      </trkpt>
      <trkpt lat="43.09966" lon="1.70812">
        <ele>327.3</ele>
        <time>2019-02-13T11:35:53Z</time>
      </trkpt>
      <trkpt lat="43.09965" lon="1.70796">
        <ele>327</ele>
        <time>2019-02-13T11:35:55Z</time>
      </trkpt>
      <trkpt lat="43.09962" lon="1.7078">
        <ele>326.7</ele>
        <time>2019-02-13T11:35:57Z</time>
      </trkpt>
      <trkpt lat="43.09961" lon="1.70764">
        <ele>326.7</ele>
        <time>2019-02-13T11:35:59Z</time>
      </trkpt>
      <trkpt lat="43.0996" lon="1.70747">
        <ele>326.8</ele>
        <time>2019-02-13T11:36:01Z</time>
      </trkpt>
      <trkpt lat="43.0996" lon="1.7073">
        <ele>326.8</ele>
        <time>2019-02-13T11:36:03Z</time>
      </trkpt>
      <trkpt lat="43.09958" lon="1.70712">
        <ele>326.9</ele>
        <time>2019-02-13T11:36:05Z</time>
      </trkpt>
      <trkpt lat="43.09957" lon="1.70695">
        <ele>327.2</ele>
        <time>2019-02-13T11:36:07Z</time>
      </trkpt>
      <trkpt lat="43.09956" lon="1.70678">
        <ele>327.4</ele>
        <time>2019-02-13T11:36:09Z</time>
      </trkpt>
      <trkpt lat="43.09954" lon="1.70662">
        <ele>327.5</ele>
        <time>2019-02-13T11:36:11Z</time>
      </trkpt>
      <trkpt lat="43.09952" lon="1.70645">
        <ele>327.7</ele>
        <time>2019-02-13T11:36:13Z</time>
      </trkpt>
      <trkpt lat="43.09951" lon="1.70629">
        <ele>327.8</ele>
        <time>2019-02-13T11:36:15Z</time>
      </trkpt>
      <trkpt lat="43.09949" lon="1.70613">
        <ele>327.9</ele>
        <time>2019-02-13T11:36:17Z</time>
      </trkpt>
      <trkpt lat="43.09947" lon="1.70597">
        <ele>328</ele>
        <time>2019-02-13T11:36:19Z</time>
      </trkpt>
      <trkpt lat="43.09946" lon="1.70582">
        <ele>328.1</ele>
        <time>2019-02-13T11:36:21Z</time>
      </trkpt>
      <trkpt lat="43.09945" lon="1.70567">
        <ele>328.2</ele>
        <time>2019-02-13T11:36:23Z</time>
      </trkpt>
      <trkpt lat="43.09944" lon="1.70551">
        <ele>328.2</ele>
        <time>2019-02-13T11:36:25Z</time>
      </trkpt>
      <trkpt lat="43.09943" lon="1.70535">
        <ele>328.2</ele>
        <time>2019-02-13T11:36:27Z</time>
      </trkpt>
      <trkpt lat="43.09941" lon="1.70518">
        <ele>328.2</ele>
        <time>2019-02-13T11:36:29Z</time>
      </trkpt>
      <trkpt lat="43.0994" lon="1.70501">
        <ele>328.2</ele>
        <time>2019-02-13T11:36:31Z</time>
      </trkpt>
      <trkpt lat="43.09938" lon="1.70483">
        <ele>328.1</ele>
        <time>2019-02-13T11:36:33Z</time>
      </trkpt>
      <trkpt lat="43.09937" lon="1.70465">
        <ele>328.1</ele>
        <time>2019-02-13T11:36:35Z</time>
      </trkpt>
      <trkpt lat="43.09936" lon="1.70446">
        <ele>328</ele>
        <time>2019-02-13T11:36:37Z</time>
      </trkpt>
      <trkpt lat="43.09935" lon="1.70426">
        <ele>327.9</ele>
        <time>2019-02-13T11:36:39Z</time>
      </trkpt>
      <trkpt lat="43.09934" lon="1.70406">
        <ele>327.8</ele>
        <time>2019-02-13T11:36:41Z</time>
      </trkpt>
      <trkpt lat="43.09931" lon="1.70386">
        <ele>327.8</ele>
        <time>2019-02-13T11:36:43Z</time>
      </trkpt>
      <trkpt lat="43.09928" lon="1.70365">
        <ele>327.7</ele>
        <time>2019-02-13T11:36:45Z</time>
      </trkpt>
      <trkpt lat="43.09926" lon="1.70345">
        <ele>327.5</ele>
        <time>2019-02-13T11:36:47Z</time>
      </trkpt>
      <trkpt lat="43.09924" lon="1.70324">
        <ele>327.4</ele>
        <time>2019-02-13T11:36:49Z</time>
      </trkpt>
      <trkpt lat="43.09923" lon="1.70303">
        <ele>327.2</ele>
        <time>2019-02-13T11:36:51Z</time>
      </trkpt>
      <trkpt lat="43.09921" lon="1.70283">
        <ele>327.1</ele>
        <time>2019-02-13T11:36:53Z</time>
      </trkpt>
      <trkpt lat="43.0992" lon="1.70264">
        <ele>327</ele>
        <time>2019-02-13T11:36:55Z</time>
      </trkpt>
      <trkpt lat="43.09918" lon="1.70246">
        <ele>327</ele>
        <time>2019-02-13T11:36:57Z</time>
      </trkpt>
      <trkpt lat="43.09917" lon="1.70228">
        <ele>326.9</ele>
        <time>2019-02-13T11:36:59Z</time>
      </trkpt>
      <trkpt lat="43.09915" lon="1.70211">
        <ele>326.8</ele>
        <time>2019-02-13T11:37:01Z</time>
      </trkpt>
      <trkpt lat="43.09914" lon="1.70194">
        <ele>326.8</ele>
        <time>2019-02-13T11:37:03Z</time>
      </trkpt>
      <trkpt lat="43.09912" lon="1.70178">
        <ele>326.8</ele>
        <time>2019-02-13T11:37:05Z</time>
      </trkpt>
      <trkpt lat="43.0991" lon="1.70162">
        <ele>326.7</ele>
        <time>2019-02-13T11:37:07Z</time>
      </trkpt>
      <trkpt lat="43.09908" lon="1.70146">
        <ele>326.7</ele>
        <time>2019-02-13T11:37:09Z</time>
      </trkpt>
      <trkpt lat="43.09907" lon="1.7013">
        <ele>326.7</ele>
        <time>2019-02-13T11:37:11Z</time>
      </trkpt>
      <trkpt lat="43.09906" lon="1.70115">
        <ele>326.7</ele>
        <time>2019-02-13T11:37:13Z</time>
      </trkpt>
      <trkpt lat="43.09905" lon="1.70098">
        <ele>326.8</ele>
        <time>2019-02-13T11:37:15Z</time>
      </trkpt>
      <trkpt lat="43.09904" lon="1.70082">
        <ele>326.9</ele>
        <time>2019-02-13T11:37:17Z</time>
      </trkpt>
      <trkpt lat="43.09903" lon="1.70067">
        <ele>327</ele>
        <time>2019-02-13T11:37:19Z</time>
      </trkpt>
      <trkpt lat="43.09901" lon="1.70051">
        <ele>327.1</ele>
        <time>2019-02-13T11:37:21Z</time>
      </trkpt>
      <trkpt lat="43.099" lon="1.70034">
        <ele>327.2</ele>
        <time>2019-02-13T11:37:23Z</time>
      </trkpt>
      <trkpt lat="43.09899" lon="1.70019">
        <ele>327.3</ele>
        <time>2019-02-13T11:37:25Z</time>
      </trkpt>
      <trkpt lat="43.09898" lon="1.70003">
        <ele>327.5</ele>
        <time>2019-02-13T11:37:27Z</time>
      </trkpt>
      <trkpt lat="43.09897" lon="1.69988">
        <ele>327.6</ele>
        <time>2019-02-13T11:37:29Z</time>
      </trkpt>
      <trkpt lat="43.09897" lon="1.69973">
        <ele>327.7</ele>
        <time>2019-02-13T11:37:31Z</time>
      </trkpt>
      <trkpt lat="43.09895" lon="1.69958">
        <ele>327.9</ele>
        <time>2019-02-13T11:37:33Z</time>
      </trkpt>
      <trkpt lat="43.09894" lon="1.69943">
        <ele>328</ele>
        <time>2019-02-13T11:37:35Z</time>
      </trkpt>
      <trkpt lat="43.09894" lon="1.69928">
        <ele>328.1</ele>
        <time>2019-02-13T11:37:37Z</time>
      </trkpt>
      <trkpt lat="43.09892" lon="1.69913">
        <ele>328.2</ele>
        <time>2019-02-13T11:37:39Z</time>
      </trkpt>
      <trkpt lat="43.09891" lon="1.69899">
        <ele>328.2</ele>
        <time>2019-02-13T11:37:41Z</time>
      </trkpt>
      <trkpt lat="43.0989" lon="1.69884">
        <ele>328.2</ele>
        <time>2019-02-13T11:37:43Z</time>
      </trkpt>
      <trkpt lat="43.09889" lon="1.6987">
        <ele>328.2</ele>
        <time>2019-02-13T11:37:45Z</time>
      </trkpt>
      <trkpt lat="43.09888" lon="1.69856">
        <ele>328.2</ele>
        <time>2019-02-13T11:37:47Z</time>
      </trkpt>
      <trkpt lat="43.09887" lon="1.69842">
        <ele>328.2</ele>
        <time>2019-02-13T11:37:49Z</time>
      </trkpt>
      <trkpt lat="43.09886" lon="1.69827">
        <ele>328.2</ele>
        <time>2019-02-13T11:37:51Z</time>
      </trkpt>
      <trkpt lat="43.09885" lon="1.69812">
        <ele>328.2</ele>
        <time>2019-02-13T11:37:53Z</time>
      </trkpt>
      <trkpt lat="43.09883" lon="1.69797">
        <ele>328.2</ele>
        <time>2019-02-13T11:37:55Z</time>
      </trkpt>
      <trkpt lat="43.09878" lon="1.69785">
        <ele>328.1</ele>
        <time>2019-02-13T11:37:57Z</time>
      </trkpt>
      <trkpt lat="43.09869" lon="1.69776">
        <ele>328.1</ele>
        <time>2019-02-13T11:37:59Z</time>
      </trkpt>
      <trkpt lat="43.09859" lon="1.69773">
        <ele>328.2</ele>
        <time>2019-02-13T11:38:01Z</time>
      </trkpt>
      <trkpt lat="43.09849" lon="1.69769">
        <ele>328.3</ele>
        <time>2019-02-13T11:38:03Z</time>
      </trkpt>
      <trkpt lat="43.09839" lon="1.69765">
        <ele>328.3</ele>
        <time>2019-02-13T11:38:05Z</time>
      </trkpt>
      <trkpt lat="43.0983" lon="1.69762">
        <ele>328.4</ele>
        <time>2019-02-13T11:38:07Z</time>
      </trkpt>
      <trkpt lat="43.09821" lon="1.69758">
        <ele>328.5</ele>
        <time>2019-02-13T11:38:09Z</time>
      </trkpt>
      <trkpt lat="43.09813" lon="1.6975">
        <ele>328.5</ele>
        <time>2019-02-13T11:38:11Z</time>
      </trkpt>
      <trkpt lat="43.09812" lon="1.69737">
        <ele>328.6</ele>
        <time>2019-02-13T11:38:13Z</time>
      </trkpt>
      <trkpt lat="43.09814" lon="1.69724">
        <ele>328.7</ele>
        <time>2019-02-13T11:38:15Z</time>
      </trkpt>
      <trkpt lat="43.09816" lon="1.69711">
        <ele>328.7</ele>
        <time>2019-02-13T11:38:17Z</time>
      </trkpt>
      <trkpt lat="43.09819" lon="1.69697">
        <ele>328.8</ele>
        <time>2019-02-13T11:38:19Z</time>
      </trkpt>
      <trkpt lat="43.09821" lon="1.69682">
        <ele>328.9</ele>
        <time>2019-02-13T11:38:21Z</time>
      </trkpt>
      <trkpt lat="43.09824" lon="1.69667">
        <ele>329</ele>
        <time>2019-02-13T11:38:23Z</time>
      </trkpt>
      <trkpt lat="43.09826" lon="1.69652">
        <ele>329</ele>
        <time>2019-02-13T11:38:25Z</time>
      </trkpt>
      <trkpt lat="43.09829" lon="1.69636">
        <ele>329.1</ele>
        <time>2019-02-13T11:38:27Z</time>
      </trkpt>
      <trkpt lat="43.09832" lon="1.69619">
        <ele>329.2</ele>
        <time>2019-02-13T11:38:29Z</time>
      </trkpt>
      <trkpt lat="43.09835" lon="1.69602">
        <ele>329.3</ele>
        <time>2019-02-13T11:38:31Z</time>
      </trkpt>
      <trkpt lat="43.09839" lon="1.69584">
        <ele>329.4</ele>
        <time>2019-02-13T11:38:33Z</time>
      </trkpt>
      <trkpt lat="43.09843" lon="1.69566">
        <ele>329.4</ele>
        <time>2019-02-13T11:38:35Z</time>
      </trkpt>
      <trkpt lat="43.09846" lon="1.69548">
        <ele>329.4</ele>
        <time>2019-02-13T11:38:37Z</time>
      </trkpt>
      <trkpt lat="43.09849" lon="1.6953">
        <ele>329.4</ele>
        <time>2019-02-13T11:38:39Z</time>
      </trkpt>
      <trkpt lat="43.09853" lon="1.69513">
        <ele>329.5</ele>
        <time>2019-02-13T11:38:41Z</time>
      </trkpt>
      <trkpt lat="43.09856" lon="1.69496">
        <ele>329.5</ele>
        <time>2019-02-13T11:38:43Z</time>
      </trkpt>
      <trkpt lat="43.09857" lon="1.69478">
        <ele>329.5</ele>
        <time>2019-02-13T11:38:45Z</time>
      </trkpt>
      <trkpt lat="43.0986" lon="1.6946">
        <ele>329.6</ele>
        <time>2019-02-13T11:38:47Z</time>
      </trkpt>
      <trkpt lat="43.09864" lon="1.69442">
        <ele>329.6</ele>
        <time>2019-02-13T11:38:49Z</time>
      </trkpt>
      <trkpt lat="43.09868" lon="1.69421">
        <ele>329.6</ele>
        <time>2019-02-13T11:38:51Z</time>
      </trkpt>
      <trkpt lat="43.09871" lon="1.694">
        <ele>329.5</ele>
        <time>2019-02-13T11:38:53Z</time>
      </trkpt>
      <trkpt lat="43.09878" lon="1.6938">
        <ele>329.5</ele>
        <time>2019-02-13T11:38:55Z</time>
      </trkpt>
      <trkpt lat="43.09889" lon="1.69366">
        <ele>329.3</ele>
        <time>2019-02-13T11:38:57Z</time>
      </trkpt>
      <trkpt lat="43.09899" lon="1.69351">
        <ele>329.2</ele>
        <time>2019-02-13T11:38:59Z</time>
      </trkpt>
      <trkpt lat="43.09906" lon="1.69332">
        <ele>329</ele>
        <time>2019-02-13T11:39:01Z</time>
      </trkpt>
      <trkpt lat="43.09912" lon="1.69313">
        <ele>328.9</ele>
        <time>2019-02-13T11:39:03Z</time>
      </trkpt>
      <trkpt lat="43.09916" lon="1.69293">
        <ele>328.9</ele>
        <time>2019-02-13T11:39:05Z</time>
      </trkpt>
      <trkpt lat="43.09921" lon="1.69274">
        <ele>328.8</ele>
        <time>2019-02-13T11:39:07Z</time>
      </trkpt>
      <trkpt lat="43.09926" lon="1.69257">
        <ele>328.8</ele>
        <time>2019-02-13T11:39:09Z</time>
      </trkpt>
      <trkpt lat="43.09931" lon="1.69241">
        <ele>328.7</ele>
        <time>2019-02-13T11:39:11Z</time>
      </trkpt>
      <trkpt lat="43.09935" lon="1.69225">
        <ele>328.6</ele>
        <time>2019-02-13T11:39:13Z</time>
      </trkpt>
      <trkpt lat="43.0994" lon="1.69211">
        <ele>328.6</ele>
        <time>2019-02-13T11:39:15Z</time>
      </trkpt>
      <trkpt lat="43.09944" lon="1.69197">
        <ele>328.6</ele>
        <time>2019-02-13T11:39:17Z</time>
      </trkpt>
      <trkpt lat="43.09948" lon="1.69185">
        <ele>328.6</ele>
        <time>2019-02-13T11:39:19Z</time>
      </trkpt>
      <trkpt lat="43.09952" lon="1.69172">
        <ele>328.6</ele>
        <time>2019-02-13T11:39:21Z</time>
      </trkpt>
      <trkpt lat="43.09957" lon="1.6916">
        <ele>328.6</ele>
        <time>2019-02-13T11:39:23Z</time>
      </trkpt>
      <trkpt lat="43.09962" lon="1.69148">
        <ele>328.7</ele>
        <time>2019-02-13T11:39:25Z</time>
      </trkpt>
      <trkpt lat="43.09966" lon="1.69137">
        <ele>328.7</ele>
        <time>2019-02-13T11:39:27Z</time>
      </trkpt>
      <trkpt lat="43.09972" lon="1.69126">
        <ele>328.8</ele>
        <time>2019-02-13T11:39:29Z</time>
      </trkpt>
      <trkpt lat="43.09977" lon="1.69114">
        <ele>328.9</ele>
        <time>2019-02-13T11:39:31Z</time>
      </trkpt>
      <trkpt lat="43.09982" lon="1.69103">
        <ele>328.9</ele>
        <time>2019-02-13T11:39:33Z</time>
      </trkpt>
      <trkpt lat="43.09988" lon="1.69092">
        <ele>329</ele>
        <time>2019-02-13T11:39:35Z</time>
      </trkpt>
      <trkpt lat="43.09994" lon="1.69081">
        <ele>329.1</ele>
        <time>2019-02-13T11:39:37Z</time>
      </trkpt>
      <trkpt lat="43.09999" lon="1.6907">
        <ele>329.2</ele>
        <time>2019-02-13T11:39:39Z</time>
      </trkpt>
      <trkpt lat="43.10005" lon="1.69059">
        <ele>329.3</ele>
        <time>2019-02-13T11:39:41Z</time>
      </trkpt>
      <trkpt lat="43.1001" lon="1.69048">
        <ele>329.4</ele>
        <time>2019-02-13T11:39:43Z</time>
      </trkpt>
      <trkpt lat="43.10016" lon="1.69038">
        <ele>329.5</ele>
        <time>2019-02-13T11:39:45Z</time>
      </trkpt>
      <trkpt lat="43.10022" lon="1.69029">
        <ele>329.7</ele>
        <time>2019-02-13T11:39:47Z</time>
      </trkpt>
      <trkpt lat="43.10029" lon="1.6902">
        <ele>329.8</ele>
        <time>2019-02-13T11:39:49Z</time>
      </trkpt>
      <trkpt lat="43.10035" lon="1.6901">
        <ele>329.9</ele>
        <time>2019-02-13T11:39:51Z</time>
      </trkpt>
      <trkpt lat="43.10042" lon="1.69">
        <ele>330.1</ele>
        <time>2019-02-13T11:39:53Z</time>
      </trkpt>
      <trkpt lat="43.10049" lon="1.6899">
        <ele>330.3</ele>
        <time>2019-02-13T11:39:55Z</time>
      </trkpt>
      <trkpt lat="43.10057" lon="1.6898">
        <ele>330.5</ele>
        <time>2019-02-13T11:39:57Z</time>
      </trkpt>
      <trkpt lat="43.10064" lon="1.6897">
        <ele>330.7</ele>
        <time>2019-02-13T11:39:59Z</time>
      </trkpt>
      <trkpt lat="43.1007" lon="1.68954">
        <ele>331</ele>
        <time>2019-02-13T11:40:02Z</time>
      </trkpt>
      <trkpt lat="43.10076" lon="1.68939">
        <ele>331.2</ele>
        <time>2019-02-13T11:40:05Z</time>
      </trkpt>
      <trkpt lat="43.1008" lon="1.68928">
        <ele>331.2</ele>
        <time>2019-02-13T11:40:07Z</time>
      </trkpt>
      <trkpt lat="43.10085" lon="1.68916">
        <ele>331.2</ele>
        <time>2019-02-13T11:40:09Z</time>
      </trkpt>
      <trkpt lat="43.10092" lon="1.68904">
        <ele>331.2</ele>
        <time>2019-02-13T11:40:11Z</time>
      </trkpt>
      <trkpt lat="43.10098" lon="1.68891">
        <ele>331.2</ele>
        <time>2019-02-13T11:40:13Z</time>
      </trkpt>
      <trkpt lat="43.10104" lon="1.6888">
        <ele>331.1</ele>
        <time>2019-02-13T11:40:15Z</time>
      </trkpt>
      <trkpt lat="43.10113" lon="1.68869">
        <ele>331</ele>
        <time>2019-02-13T11:40:18Z</time>
      </trkpt>
      <trkpt lat="43.10121" lon="1.68856">
        <ele>330.8</ele>
        <time>2019-02-13T11:40:21Z</time>
      </trkpt>
      <trkpt lat="43.10129" lon="1.68845">
        <ele>330.7</ele>
        <time>2019-02-13T11:40:24Z</time>
      </trkpt>
      <trkpt lat="43.10135" lon="1.68836">
        <ele>330.6</ele>
        <time>2019-02-13T11:40:26Z</time>
      </trkpt>
      <trkpt lat="43.10142" lon="1.68827">
        <ele>330.5</ele>
        <time>2019-02-13T11:40:28Z</time>
      </trkpt>
      <trkpt lat="43.10148" lon="1.68817">
        <ele>330.5</ele>
        <time>2019-02-13T11:40:30Z</time>
      </trkpt>
      <trkpt lat="43.10156" lon="1.68802">
        <ele>330.2</ele>
        <time>2019-02-13T11:40:33Z</time>
      </trkpt>
      <trkpt lat="43.10161" lon="1.6879">
        <ele>330</ele>
        <time>2019-02-13T11:40:36Z</time>
      </trkpt>
      <trkpt lat="43.10159" lon="1.68775">
        <ele>329.9</ele>
        <time>2019-02-13T11:40:39Z</time>
      </trkpt>
      <trkpt lat="43.10162" lon="1.68762">
        <ele>329.8</ele>
        <time>2019-02-13T11:40:42Z</time>
      </trkpt>
      <trkpt lat="43.10166" lon="1.68748">
        <ele>329.5</ele>
        <time>2019-02-13T11:40:45Z</time>
      </trkpt>
      <trkpt lat="43.10174" lon="1.68733">
        <ele>328.6</ele>
        <time>2019-02-13T11:40:48Z</time>
      </trkpt>
      <trkpt lat="43.10179" lon="1.68722">
        <ele>328.2</ele>
        <time>2019-02-13T11:40:50Z</time>
      </trkpt>
      <trkpt lat="43.10187" lon="1.68716">
        <ele>328</ele>
        <time>2019-02-13T11:40:53Z</time>
      </trkpt>
      <trkpt lat="43.10198" lon="1.68709">
        <ele>327.1</ele>
        <time>2019-02-13T11:40:56Z</time>
      </trkpt>
      <trkpt lat="43.1021" lon="1.68709">
        <ele>326.5</ele>
        <time>2019-02-13T11:40:59Z</time>
      </trkpt>
      <trkpt lat="43.10222" lon="1.68709">
        <ele>326</ele>
        <time>2019-02-13T11:41:02Z</time>
      </trkpt>
      <trkpt lat="43.10239" lon="1.68708">
        <ele>325.3</ele>
        <time>2019-02-13T11:41:08Z</time>
      </trkpt>
      <trkpt lat="43.10248" lon="1.68715">
        <ele>323.2</ele>
        <time>2019-02-13T11:41:28Z</time>
      </trkpt>
      <trkpt lat="43.10257" lon="1.68711">
        <ele>322.8</ele>
        <time>2019-02-13T11:41:31Z</time>
      </trkpt>
      <trkpt lat="43.10266" lon="1.68705">
        <ele>322.4</ele>
        <time>2019-02-13T11:41:34Z</time>
      </trkpt>
      <trkpt lat="43.10274" lon="1.68692">
        <ele>320.2</ele>
        <time>2019-02-13T11:41:37Z</time>
      </trkpt>
      <trkpt lat="43.10279" lon="1.68682">
        <ele>318.2</ele>
        <time>2019-02-13T11:41:39Z</time>
      </trkpt>
      <trkpt lat="43.1029" lon="1.68672">
        <ele>316.2</ele>
        <time>2019-02-13T11:41:42Z</time>
      </trkpt>
      <trkpt lat="43.10299" lon="1.68662">
        <ele>315.7</ele>
        <time>2019-02-13T11:41:45Z</time>
      </trkpt>
      <trkpt lat="43.10306" lon="1.68651">
        <ele>315.5</ele>
        <time>2019-02-13T11:41:48Z</time>
      </trkpt>
      <trkpt lat="43.10313" lon="1.68641">
        <ele>315.4</ele>
        <time>2019-02-13T11:41:51Z</time>
      </trkpt>
      <trkpt lat="43.10318" lon="1.68628">
        <ele>315.3</ele>
        <time>2019-02-13T11:41:54Z</time>
      </trkpt>
      <trkpt lat="43.10327" lon="1.68615">
        <ele>315.2</ele>
        <time>2019-02-13T11:41:59Z</time>
      </trkpt>
      <trkpt lat="43.10332" lon="1.68601">
        <ele>315.2</ele>
        <time>2019-02-13T11:42:03Z</time>
      </trkpt>
      <trkpt lat="43.10336" lon="1.68589">
        <ele>315.2</ele>
        <time>2019-02-13T11:42:06Z</time>
      </trkpt>
      <trkpt lat="43.10343" lon="1.68581">
        <ele>315.2</ele>
        <time>2019-02-13T11:42:09Z</time>
      </trkpt>
      <trkpt lat="43.10352" lon="1.68575">
        <ele>315.2</ele>
        <time>2019-02-13T11:42:12Z</time>
      </trkpt>
      <trkpt lat="43.10358" lon="1.68565">
        <ele>315.1</ele>
        <time>2019-02-13T11:42:16Z</time>
      </trkpt>
      <trkpt lat="43.10363" lon="1.6855">
        <ele>314.8</ele>
        <time>2019-02-13T11:42:27Z</time>
      </trkpt>
      <trkpt lat="43.10366" lon="1.68533">
        <ele>314.1</ele>
        <time>2019-02-13T11:42:42Z</time>
      </trkpt>
      <trkpt lat="43.10362" lon="1.6852">
        <ele>313.9</ele>
        <time>2019-02-13T11:42:47Z</time>
      </trkpt>
      <trkpt lat="43.10368" lon="1.68508">
        <ele>314.1</ele>
        <time>2019-02-13T11:42:59Z</time>
      </trkpt>
      <trkpt lat="43.10376" lon="1.685">
        <ele>314.4</ele>
        <time>2019-02-13T11:43:17Z</time>
      </trkpt>
      <trkpt lat="43.10381" lon="1.68489">
        <ele>314.5</ele>
        <time>2019-02-13T11:43:32Z</time>
      </trkpt>
      <trkpt lat="43.10387" lon="1.68478">
        <ele>314.5</ele>
        <time>2019-02-13T11:43:38Z</time>
      </trkpt>
      <trkpt lat="43.10391" lon="1.68467">
        <ele>314.4</ele>
        <time>2019-02-13T11:43:48Z</time>
      </trkpt>
      <trkpt lat="43.10396" lon="1.68453">
        <ele>314.4</ele>
        <time>2019-02-13T11:43:52Z</time>
      </trkpt>
      <trkpt lat="43.104" lon="1.68442">
        <ele>314.4</ele>
        <time>2019-02-13T11:43:55Z</time>
      </trkpt>
      <trkpt lat="43.10406" lon="1.68431">
        <ele>314.4</ele>
        <time>2019-02-13T11:43:58Z</time>
      </trkpt>
      <trkpt lat="43.10411" lon="1.68419">
        <ele>314.4</ele>
        <time>2019-02-13T11:44:01Z</time>
      </trkpt>
      <trkpt lat="43.10417" lon="1.68406">
        <ele>314.4</ele>
        <time>2019-02-13T11:44:04Z</time>
      </trkpt>
      <trkpt lat="43.10422" lon="1.68393">
        <ele>314.4</ele>
        <time>2019-02-13T11:44:07Z</time>
      </trkpt>
      <trkpt lat="43.10428" lon="1.68381">
        <ele>314.5</ele>
        <time>2019-02-13T11:44:10Z</time>
      </trkpt>
      <trkpt lat="43.10433" lon="1.68366">
        <ele>314.5</ele>
        <time>2019-02-13T11:44:13Z</time>
      </trkpt>
      <trkpt lat="43.10438" lon="1.68354">
        <ele>314.5</ele>
        <time>2019-02-13T11:44:15Z</time>
      </trkpt>
      <trkpt lat="43.10443" lon="1.68344">
        <ele>314.4</ele>
        <time>2019-02-13T11:44:17Z</time>
      </trkpt>
      <trkpt lat="43.10446" lon="1.68331">
        <ele>314.3</ele>
        <time>2019-02-13T11:44:19Z</time>
      </trkpt>
      <trkpt lat="43.1045" lon="1.68318">
        <ele>314.2</ele>
        <time>2019-02-13T11:44:21Z</time>
      </trkpt>
      <trkpt lat="43.10457" lon="1.68304">
        <ele>314.2</ele>
        <time>2019-02-13T11:44:24Z</time>
      </trkpt>
      <trkpt lat="43.10462" lon="1.68292">
        <ele>314.1</ele>
        <time>2019-02-13T11:44:27Z</time>
      </trkpt>
      <trkpt lat="43.10466" lon="1.68279">
        <ele>314</ele>
        <time>2019-02-13T11:44:30Z</time>
      </trkpt>
      <trkpt lat="43.10474" lon="1.6827">
        <ele>314</ele>
        <time>2019-02-13T11:44:33Z</time>
      </trkpt>
      <trkpt lat="43.10482" lon="1.68259">
        <ele>314.1</ele>
        <time>2019-02-13T11:44:36Z</time>
      </trkpt>
      <trkpt lat="43.10492" lon="1.68249">
        <ele>314.2</ele>
        <time>2019-02-13T11:44:39Z</time>
      </trkpt>
      <trkpt lat="43.105" lon="1.68236">
        <ele>314.4</ele>
        <time>2019-02-13T11:44:42Z</time>
      </trkpt>
      <trkpt lat="43.10508" lon="1.68224">
        <ele>314.6</ele>
        <time>2019-02-13T11:44:45Z</time>
      </trkpt>
      <trkpt lat="43.10516" lon="1.68211">
        <ele>314.9</ele>
        <time>2019-02-13T11:44:48Z</time>
      </trkpt>
      <trkpt lat="43.10524" lon="1.68195">
        <ele>315</ele>
        <time>2019-02-13T11:44:51Z</time>
      </trkpt>
      <trkpt lat="43.10528" lon="1.68185">
        <ele>315.1</ele>
        <time>2019-02-13T11:44:53Z</time>
      </trkpt>
      <trkpt lat="43.10534" lon="1.68175">
        <ele>315.2</ele>
        <time>2019-02-13T11:44:55Z</time>
      </trkpt>
      <trkpt lat="43.10539" lon="1.68164">
        <ele>315.6</ele>
        <time>2019-02-13T11:44:57Z</time>
      </trkpt>
      <trkpt lat="43.1055" lon="1.68151">
        <ele>316.5</ele>
        <time>2019-02-13T11:45:00Z</time>
      </trkpt>
      <trkpt lat="43.10558" lon="1.68141">
        <ele>316.8</ele>
        <time>2019-02-13T11:45:02Z</time>
      </trkpt>
      <trkpt lat="43.10565" lon="1.68132">
        <ele>317</ele>
        <time>2019-02-13T11:45:04Z</time>
      </trkpt>
      <trkpt lat="43.10571" lon="1.68122">
        <ele>317.1</ele>
        <time>2019-02-13T11:45:06Z</time>
      </trkpt>
      <trkpt lat="43.1058" lon="1.68109">
        <ele>317.1</ele>
        <time>2019-02-13T11:45:09Z</time>
      </trkpt>
      <trkpt lat="43.10589" lon="1.681">
        <ele>317</ele>
        <time>2019-02-13T11:45:12Z</time>
      </trkpt>
      <trkpt lat="43.10596" lon="1.6809">
        <ele>316.9</ele>
        <time>2019-02-13T11:45:15Z</time>
      </trkpt>
      <trkpt lat="43.10594" lon="1.68073">
        <ele>316.1</ele>
        <time>2019-02-13T11:45:20Z</time>
      </trkpt>
      <trkpt lat="43.10594" lon="1.6806">
        <ele>315.5</ele>
        <time>2019-02-13T11:45:23Z</time>
      </trkpt>
      <trkpt lat="43.10593" lon="1.68043">
        <ele>315</ele>
        <time>2019-02-13T11:45:26Z</time>
      </trkpt>
      <trkpt lat="43.10594" lon="1.68026">
        <ele>314.3</ele>
        <time>2019-02-13T11:45:30Z</time>
      </trkpt>
      <trkpt lat="43.10592" lon="1.68011">
        <ele>313.9</ele>
        <time>2019-02-13T11:45:33Z</time>
      </trkpt>
      <trkpt lat="43.10596" lon="1.67998">
        <ele>313.5</ele>
        <time>2019-02-13T11:45:37Z</time>
      </trkpt>
      <trkpt lat="43.10599" lon="1.67985">
        <ele>313.2</ele>
        <time>2019-02-13T11:45:40Z</time>
      </trkpt>
      <trkpt lat="43.10603" lon="1.67971">
        <ele>313</ele>
        <time>2019-02-13T11:45:43Z</time>
      </trkpt>
      <trkpt lat="43.10602" lon="1.67956">
        <ele>312.9</ele>
        <time>2019-02-13T11:45:47Z</time>
      </trkpt>
      <trkpt lat="43.10602" lon="1.67941">
        <ele>312.5</ele>
        <time>2019-02-13T11:45:51Z</time>
      </trkpt>
      <trkpt lat="43.10603" lon="1.67927">
        <ele>312.3</ele>
        <time>2019-02-13T11:45:54Z</time>
      </trkpt>
      <trkpt lat="43.10606" lon="1.67912">
        <ele>312.1</ele>
        <time>2019-02-13T11:45:58Z</time>
      </trkpt>
      <trkpt lat="43.10607" lon="1.679">
        <ele>311.9</ele>
        <time>2019-02-13T11:46:02Z</time>
      </trkpt>
      <trkpt lat="43.10609" lon="1.67887">
        <ele>311.5</ele>
        <time>2019-02-13T11:46:06Z</time>
      </trkpt>
      <trkpt lat="43.10611" lon="1.67871">
        <ele>311.2</ele>
        <time>2019-02-13T11:46:10Z</time>
      </trkpt>
      <trkpt lat="43.10612" lon="1.67856">
        <ele>310.8</ele>
        <time>2019-02-13T11:46:14Z</time>
      </trkpt>
      <trkpt lat="43.10612" lon="1.67841">
        <ele>310.5</ele>
        <time>2019-02-13T11:46:18Z</time>
      </trkpt>
      <trkpt lat="43.10614" lon="1.67828">
        <ele>310.2</ele>
        <time>2019-02-13T11:46:22Z</time>
      </trkpt>
      <trkpt lat="43.10614" lon="1.67815">
        <ele>309.9</ele>
        <time>2019-02-13T11:46:26Z</time>
      </trkpt>
      <trkpt lat="43.10616" lon="1.678">
        <ele>309.6</ele>
        <time>2019-02-13T11:46:30Z</time>
      </trkpt>
      <trkpt lat="43.10619" lon="1.67786">
        <ele>309.4</ele>
        <time>2019-02-13T11:46:34Z</time>
      </trkpt>
      <trkpt lat="43.10622" lon="1.67772">
        <ele>309.3</ele>
        <time>2019-02-13T11:46:38Z</time>
      </trkpt>
      <trkpt lat="43.10624" lon="1.67759">
        <ele>309.3</ele>
        <time>2019-02-13T11:46:41Z</time>
      </trkpt>
      <trkpt lat="43.10627" lon="1.67747">
        <ele>309.2</ele>
        <time>2019-02-13T11:46:44Z</time>
      </trkpt>
      <trkpt lat="43.10629" lon="1.67734">
        <ele>309.2</ele>
        <time>2019-02-13T11:46:47Z</time>
      </trkpt>
      <trkpt lat="43.10631" lon="1.67719">
        <ele>309.2</ele>
        <time>2019-02-13T11:46:51Z</time>
      </trkpt>
      <trkpt lat="43.10631" lon="1.67704">
        <ele>309.3</ele>
        <time>2019-02-13T11:46:55Z</time>
      </trkpt>
      <trkpt lat="43.10634" lon="1.6769">
        <ele>309.7</ele>
        <time>2019-02-13T11:47:00Z</time>
      </trkpt>
      <trkpt lat="43.10635" lon="1.67677">
        <ele>309.9</ele>
        <time>2019-02-13T11:47:04Z</time>
      </trkpt>
      <trkpt lat="43.10637" lon="1.67662">
        <ele>310</ele>
        <time>2019-02-13T11:47:08Z</time>
      </trkpt>
      <trkpt lat="43.10638" lon="1.67649">
        <ele>310</ele>
        <time>2019-02-13T11:47:11Z</time>
      </trkpt>
      <trkpt lat="43.10638" lon="1.67632">
        <ele>310</ele>
        <time>2019-02-13T11:47:15Z</time>
      </trkpt>
      <trkpt lat="43.10641" lon="1.6762">
        <ele>310</ele>
        <time>2019-02-13T11:47:18Z</time>
      </trkpt>
      <trkpt lat="43.10643" lon="1.67607">
        <ele>309.8</ele>
        <time>2019-02-13T11:47:21Z</time>
      </trkpt>
      <trkpt lat="43.10645" lon="1.6759">
        <ele>309.5</ele>
        <time>2019-02-13T11:47:24Z</time>
      </trkpt>
      <trkpt lat="43.10646" lon="1.67575">
        <ele>309.1</ele>
        <time>2019-02-13T11:47:27Z</time>
      </trkpt>
      <trkpt lat="43.10649" lon="1.67558">
        <ele>307.9</ele>
        <time>2019-02-13T11:47:30Z</time>
      </trkpt>
      <trkpt lat="43.10652" lon="1.67546">
        <ele>307.1</ele>
        <time>2019-02-13T11:47:32Z</time>
      </trkpt>
      <trkpt lat="43.10653" lon="1.67532">
        <ele>306.5</ele>
        <time>2019-02-13T11:47:34Z</time>
      </trkpt>
      <trkpt lat="43.10655" lon="1.67517">
        <ele>306.4</ele>
        <time>2019-02-13T11:47:36Z</time>
      </trkpt>
      <trkpt lat="43.10658" lon="1.67503">
        <ele>306.4</ele>
        <time>2019-02-13T11:47:38Z</time>
      </trkpt>
      <trkpt lat="43.10661" lon="1.67488">
        <ele>306.2</ele>
        <time>2019-02-13T11:47:40Z</time>
      </trkpt>
      <trkpt lat="43.10663" lon="1.67474">
        <ele>305.8</ele>
        <time>2019-02-13T11:47:42Z</time>
      </trkpt>
      <trkpt lat="43.10664" lon="1.6746">
        <ele>305.3</ele>
        <time>2019-02-13T11:47:44Z</time>
      </trkpt>
      <trkpt lat="43.10665" lon="1.67445">
        <ele>304.8</ele>
        <time>2019-02-13T11:47:46Z</time>
      </trkpt>
      <trkpt lat="43.10666" lon="1.6743">
        <ele>304.4</ele>
        <time>2019-02-13T11:47:48Z</time>
      </trkpt>
      <trkpt lat="43.10667" lon="1.67416">
        <ele>304.2</ele>
        <time>2019-02-13T11:47:50Z</time>
      </trkpt>
      <trkpt lat="43.10669" lon="1.67401">
        <ele>304.1</ele>
        <time>2019-02-13T11:47:52Z</time>
      </trkpt>
      <trkpt lat="43.1067" lon="1.67386">
        <ele>304</ele>
        <time>2019-02-13T11:47:54Z</time>
      </trkpt>
      <trkpt lat="43.1067" lon="1.67371">
        <ele>304.1</ele>
        <time>2019-02-13T11:47:56Z</time>
      </trkpt>
      <trkpt lat="43.10671" lon="1.67356">
        <ele>304.4</ele>
        <time>2019-02-13T11:47:58Z</time>
      </trkpt>
      <trkpt lat="43.10671" lon="1.67342">
        <ele>304.6</ele>
        <time>2019-02-13T11:48:00Z</time>
      </trkpt>
      <trkpt lat="43.10673" lon="1.67328">
        <ele>304.6</ele>
        <time>2019-02-13T11:48:02Z</time>
      </trkpt>
      <trkpt lat="43.10674" lon="1.67313">
        <ele>304.6</ele>
        <time>2019-02-13T11:48:04Z</time>
      </trkpt>
      <trkpt lat="43.10675" lon="1.67297">
        <ele>304.7</ele>
        <time>2019-02-13T11:48:06Z</time>
      </trkpt>
      <trkpt lat="43.10677" lon="1.67283">
        <ele>304.5</ele>
        <time>2019-02-13T11:48:08Z</time>
      </trkpt>
      <trkpt lat="43.10678" lon="1.67267">
        <ele>304.2</ele>
        <time>2019-02-13T11:48:10Z</time>
      </trkpt>
      <trkpt lat="43.10679" lon="1.67252">
        <ele>304</ele>
        <time>2019-02-13T11:48:12Z</time>
      </trkpt>
      <trkpt lat="43.1068" lon="1.67236">
        <ele>304</ele>
        <time>2019-02-13T11:48:14Z</time>
      </trkpt>
      <trkpt lat="43.10681" lon="1.67221">
        <ele>304.1</ele>
        <time>2019-02-13T11:48:16Z</time>
      </trkpt>
      <trkpt lat="43.10681" lon="1.67206">
        <ele>304.5</ele>
        <time>2019-02-13T11:48:18Z</time>
      </trkpt>
      <trkpt lat="43.10683" lon="1.67193">
        <ele>304.7</ele>
        <time>2019-02-13T11:48:20Z</time>
      </trkpt>
      <trkpt lat="43.10684" lon="1.67178">
        <ele>305</ele>
        <time>2019-02-13T11:48:22Z</time>
      </trkpt>
      <trkpt lat="43.10685" lon="1.67164">
        <ele>305.2</ele>
        <time>2019-02-13T11:48:24Z</time>
      </trkpt>
      <trkpt lat="43.10687" lon="1.67149">
        <ele>305.2</ele>
        <time>2019-02-13T11:48:26Z</time>
      </trkpt>
      <trkpt lat="43.10688" lon="1.67134">
        <ele>305.1</ele>
        <time>2019-02-13T11:48:28Z</time>
      </trkpt>
      <trkpt lat="43.10689" lon="1.67118">
        <ele>304.9</ele>
        <time>2019-02-13T11:48:30Z</time>
      </trkpt>
      <trkpt lat="43.1069" lon="1.67103">
        <ele>304.7</ele>
        <time>2019-02-13T11:48:32Z</time>
      </trkpt>
      <trkpt lat="43.10691" lon="1.67087">
        <ele>304.8</ele>
        <time>2019-02-13T11:48:34Z</time>
      </trkpt>
      <trkpt lat="43.10692" lon="1.67072">
        <ele>304.9</ele>
        <time>2019-02-13T11:48:36Z</time>
      </trkpt>
      <trkpt lat="43.10693" lon="1.67057">
        <ele>305</ele>
        <time>2019-02-13T11:48:38Z</time>
      </trkpt>
      <trkpt lat="43.10692" lon="1.67042">
        <ele>305.2</ele>
        <time>2019-02-13T11:48:40Z</time>
      </trkpt>
      <trkpt lat="43.10703" lon="1.67037">
        <ele>305.6</ele>
        <time>2019-02-13T11:48:51Z</time>
      </trkpt>
      <trkpt lat="43.10712" lon="1.67034">
        <ele>305.7</ele>
        <time>2019-02-13T11:48:54Z</time>
      </trkpt>
      <trkpt lat="43.10722" lon="1.67029">
        <ele>305.7</ele>
        <time>2019-02-13T11:48:57Z</time>
      </trkpt>
      <trkpt lat="43.10732" lon="1.67022">
        <ele>305.8</ele>
        <time>2019-02-13T11:49:00Z</time>
      </trkpt>
      <trkpt lat="43.10742" lon="1.67012">
        <ele>306</ele>
        <time>2019-02-13T11:49:03Z</time>
      </trkpt>
      <trkpt lat="43.10751" lon="1.66999">
        <ele>306.3</ele>
        <time>2019-02-13T11:49:06Z</time>
      </trkpt>
      <trkpt lat="43.10758" lon="1.66987">
        <ele>306.5</ele>
        <time>2019-02-13T11:49:09Z</time>
      </trkpt>
      <trkpt lat="43.10765" lon="1.66974">
        <ele>306.7</ele>
        <time>2019-02-13T11:49:12Z</time>
      </trkpt>
      <trkpt lat="43.10773" lon="1.66963">
        <ele>306.9</ele>
        <time>2019-02-13T11:49:15Z</time>
      </trkpt>
      <trkpt lat="43.1078" lon="1.66953">
        <ele>306.8</ele>
        <time>2019-02-13T11:49:18Z</time>
      </trkpt>
      <trkpt lat="43.10786" lon="1.66939">
        <ele>306.8</ele>
        <time>2019-02-13T11:49:22Z</time>
      </trkpt>
      <trkpt lat="43.10791" lon="1.66927">
        <ele>306.7</ele>
        <time>2019-02-13T11:49:25Z</time>
      </trkpt>
      <trkpt lat="43.10795" lon="1.66914">
        <ele>306.6</ele>
        <time>2019-02-13T11:49:28Z</time>
      </trkpt>
      <trkpt lat="43.10799" lon="1.66901">
        <ele>306.5</ele>
        <time>2019-02-13T11:49:31Z</time>
      </trkpt>
      <trkpt lat="43.10804" lon="1.66887">
        <ele>306.2</ele>
        <time>2019-02-13T11:49:34Z</time>
      </trkpt>
      <trkpt lat="43.10809" lon="1.66874">
        <ele>306.1</ele>
        <time>2019-02-13T11:49:37Z</time>
      </trkpt>
      <trkpt lat="43.10813" lon="1.66858">
        <ele>306.2</ele>
        <time>2019-02-13T11:49:40Z</time>
      </trkpt>
      <trkpt lat="43.10817" lon="1.66842">
        <ele>306.8</ele>
        <time>2019-02-13T11:49:43Z</time>
      </trkpt>
      <trkpt lat="43.10819" lon="1.66828">
        <ele>306.9</ele>
        <time>2019-02-13T11:49:46Z</time>
      </trkpt>
      <trkpt lat="43.10824" lon="1.66813">
        <ele>307.2</ele>
        <time>2019-02-13T11:49:49Z</time>
      </trkpt>
      <trkpt lat="43.10827" lon="1.66799">
        <ele>307.3</ele>
        <time>2019-02-13T11:49:52Z</time>
      </trkpt>
      <trkpt lat="43.10832" lon="1.66787">
        <ele>307.4</ele>
        <time>2019-02-13T11:49:55Z</time>
      </trkpt>
      <trkpt lat="43.10837" lon="1.66774">
        <ele>307.5</ele>
        <time>2019-02-13T11:49:58Z</time>
      </trkpt>
      <trkpt lat="43.10844" lon="1.66758">
        <ele>308.1</ele>
        <time>2019-02-13T11:50:01Z</time>
      </trkpt>
      <trkpt lat="43.10846" lon="1.6674">
        <ele>308.5</ele>
        <time>2019-02-13T11:50:04Z</time>
      </trkpt>
      <trkpt lat="43.10848" lon="1.66729">
        <ele>308.4</ele>
        <time>2019-02-13T11:50:06Z</time>
      </trkpt>
      <trkpt lat="43.10855" lon="1.66714">
        <ele>308.5</ele>
        <time>2019-02-13T11:50:09Z</time>
      </trkpt>
      <trkpt lat="43.10859" lon="1.66702">
        <ele>308.5</ele>
        <time>2019-02-13T11:50:11Z</time>
      </trkpt>
      <trkpt lat="43.10863" lon="1.6669">
        <ele>308.4</ele>
        <time>2019-02-13T11:50:13Z</time>
      </trkpt>
      <trkpt lat="43.10867" lon="1.66678">
        <ele>308.2</ele>
        <time>2019-02-13T11:50:15Z</time>
      </trkpt>
      <trkpt lat="43.10871" lon="1.66665">
        <ele>308.1</ele>
        <time>2019-02-13T11:50:17Z</time>
      </trkpt>
      <trkpt lat="43.10874" lon="1.66651">
        <ele>307.9</ele>
        <time>2019-02-13T11:50:19Z</time>
      </trkpt>
      <trkpt lat="43.10877" lon="1.66638">
        <ele>307.8</ele>
        <time>2019-02-13T11:50:21Z</time>
      </trkpt>
      <trkpt lat="43.10879" lon="1.66624">
        <ele>307.6</ele>
        <time>2019-02-13T11:50:23Z</time>
      </trkpt>
      <trkpt lat="43.10881" lon="1.6661">
        <ele>307.4</ele>
        <time>2019-02-13T11:50:25Z</time>
      </trkpt>
      <trkpt lat="43.10883" lon="1.66595">
        <ele>307.3</ele>
        <time>2019-02-13T11:50:27Z</time>
      </trkpt>
      <trkpt lat="43.10885" lon="1.66579">
        <ele>307.2</ele>
        <time>2019-02-13T11:50:29Z</time>
      </trkpt>
      <trkpt lat="43.10887" lon="1.66564">
        <ele>306.9</ele>
        <time>2019-02-13T11:50:31Z</time>
      </trkpt>
      <trkpt lat="43.10889" lon="1.66548">
        <ele>306.7</ele>
        <time>2019-02-13T11:50:33Z</time>
      </trkpt>
      <trkpt lat="43.10891" lon="1.66532">
        <ele>306.4</ele>
        <time>2019-02-13T11:50:35Z</time>
      </trkpt>
      <trkpt lat="43.10892" lon="1.66516">
        <ele>306.3</ele>
        <time>2019-02-13T11:50:37Z</time>
      </trkpt>
      <trkpt lat="43.10894" lon="1.66499">
        <ele>306.4</ele>
        <time>2019-02-13T11:50:39Z</time>
      </trkpt>
      <trkpt lat="43.10896" lon="1.66483">
        <ele>306.4</ele>
        <time>2019-02-13T11:50:41Z</time>
      </trkpt>
      <trkpt lat="43.10897" lon="1.66466">
        <ele>306.4</ele>
        <time>2019-02-13T11:50:43Z</time>
      </trkpt>
      <trkpt lat="43.10899" lon="1.66449">
        <ele>306.4</ele>
        <time>2019-02-13T11:50:45Z</time>
      </trkpt>
      <trkpt lat="43.10901" lon="1.66433">
        <ele>306.4</ele>
        <time>2019-02-13T11:50:47Z</time>
      </trkpt>
      <trkpt lat="43.10905" lon="1.66417">
        <ele>306.5</ele>
        <time>2019-02-13T11:50:49Z</time>
      </trkpt>
      <trkpt lat="43.10909" lon="1.66401">
        <ele>306.5</ele>
        <time>2019-02-13T11:50:51Z</time>
      </trkpt>
      <trkpt lat="43.10912" lon="1.66385">
        <ele>306.5</ele>
        <time>2019-02-13T11:50:53Z</time>
      </trkpt>
      <trkpt lat="43.10915" lon="1.66369">
        <ele>306.5</ele>
        <time>2019-02-13T11:50:55Z</time>
      </trkpt>
      <trkpt lat="43.10918" lon="1.66353">
        <ele>306.5</ele>
        <time>2019-02-13T11:50:57Z</time>
      </trkpt>
      <trkpt lat="43.10921" lon="1.66337">
        <ele>306.5</ele>
        <time>2019-02-13T11:50:59Z</time>
      </trkpt>
      <trkpt lat="43.10924" lon="1.66322">
        <ele>306.5</ele>
        <time>2019-02-13T11:51:01Z</time>
      </trkpt>
      <trkpt lat="43.10926" lon="1.66305">
        <ele>306.5</ele>
        <time>2019-02-13T11:51:03Z</time>
      </trkpt>
      <trkpt lat="43.10929" lon="1.66289">
        <ele>306.5</ele>
        <time>2019-02-13T11:51:05Z</time>
      </trkpt>
      <trkpt lat="43.10932" lon="1.66273">
        <ele>306.5</ele>
        <time>2019-02-13T11:51:07Z</time>
      </trkpt>
      <trkpt lat="43.10939" lon="1.66241">
        <ele>306.5</ele>
        <time>2019-02-13T11:51:11Z</time>
      </trkpt>
      <trkpt lat="43.10943" lon="1.66225">
        <ele>306.5</ele>
        <time>2019-02-13T11:51:13Z</time>
      </trkpt>
      <trkpt lat="43.10947" lon="1.6621">
        <ele>306.6</ele>
        <time>2019-02-13T11:51:15Z</time>
      </trkpt>
      <trkpt lat="43.10952" lon="1.66194">
        <ele>306.6</ele>
        <time>2019-02-13T11:51:17Z</time>
      </trkpt>
      <trkpt lat="43.10956" lon="1.66178">
        <ele>306.6</ele>
        <time>2019-02-13T11:51:19Z</time>
      </trkpt>
      <trkpt lat="43.10961" lon="1.66162">
        <ele>306.5</ele>
        <time>2019-02-13T11:51:21Z</time>
      </trkpt>
      <trkpt lat="43.10966" lon="1.66146">
        <ele>306.4</ele>
        <time>2019-02-13T11:51:23Z</time>
      </trkpt>
      <trkpt lat="43.10971" lon="1.6613">
        <ele>306.3</ele>
        <time>2019-02-13T11:51:25Z</time>
      </trkpt>
      <trkpt lat="43.10975" lon="1.66113">
        <ele>306.1</ele>
        <time>2019-02-13T11:51:27Z</time>
      </trkpt>
      <trkpt lat="43.1098" lon="1.66097">
        <ele>306</ele>
        <time>2019-02-13T11:51:29Z</time>
      </trkpt>
      <trkpt lat="43.10985" lon="1.6608">
        <ele>305.8</ele>
        <time>2019-02-13T11:51:31Z</time>
      </trkpt>
      <trkpt lat="43.10989" lon="1.66063">
        <ele>305.7</ele>
        <time>2019-02-13T11:51:33Z</time>
      </trkpt>
      <trkpt lat="43.10994" lon="1.66046">
        <ele>305.5</ele>
        <time>2019-02-13T11:51:35Z</time>
      </trkpt>
      <trkpt lat="43.10999" lon="1.66029">
        <ele>305.4</ele>
        <time>2019-02-13T11:51:37Z</time>
      </trkpt>
      <trkpt lat="43.11005" lon="1.66013">
        <ele>305.2</ele>
        <time>2019-02-13T11:51:39Z</time>
      </trkpt>
      <trkpt lat="43.11009" lon="1.65997">
        <ele>305.1</ele>
        <time>2019-02-13T11:51:41Z</time>
      </trkpt>
      <trkpt lat="43.11018" lon="1.65964">
        <ele>305</ele>
        <time>2019-02-13T11:51:45Z</time>
      </trkpt>
      <trkpt lat="43.11022" lon="1.65948">
        <ele>304.9</ele>
        <time>2019-02-13T11:51:47Z</time>
      </trkpt>
      <trkpt lat="43.11027" lon="1.65931">
        <ele>304.8</ele>
        <time>2019-02-13T11:51:49Z</time>
      </trkpt>
      <trkpt lat="43.11031" lon="1.65914">
        <ele>304.8</ele>
        <time>2019-02-13T11:51:51Z</time>
      </trkpt>
      <trkpt lat="43.11035" lon="1.65898">
        <ele>304.7</ele>
        <time>2019-02-13T11:51:53Z</time>
      </trkpt>
      <trkpt lat="43.11039" lon="1.65882">
        <ele>304.7</ele>
        <time>2019-02-13T11:51:55Z</time>
      </trkpt>
      <trkpt lat="43.11043" lon="1.65867">
        <ele>304.8</ele>
        <time>2019-02-13T11:51:57Z</time>
      </trkpt>
      <trkpt lat="43.11047" lon="1.65853">
        <ele>304.8</ele>
        <time>2019-02-13T11:51:59Z</time>
      </trkpt>
      <trkpt lat="43.1105" lon="1.65839">
        <ele>304.8</ele>
        <time>2019-02-13T11:52:01Z</time>
      </trkpt>
      <trkpt lat="43.11054" lon="1.65827">
        <ele>304.8</ele>
        <time>2019-02-13T11:52:03Z</time>
      </trkpt>
      <trkpt lat="43.11056" lon="1.65814">
        <ele>304.8</ele>
        <time>2019-02-13T11:52:05Z</time>
      </trkpt>
      <trkpt lat="43.11062" lon="1.65799">
        <ele>304.8</ele>
        <time>2019-02-13T11:52:08Z</time>
      </trkpt>
      <trkpt lat="43.1107" lon="1.65787">
        <ele>304.8</ele>
        <time>2019-02-13T11:52:11Z</time>
      </trkpt>
      <trkpt lat="43.11074" lon="1.65772">
        <ele>304.8</ele>
        <time>2019-02-13T11:52:14Z</time>
      </trkpt>
      <trkpt lat="43.11079" lon="1.65756">
        <ele>304.8</ele>
        <time>2019-02-13T11:52:17Z</time>
      </trkpt>
      <trkpt lat="43.11083" lon="1.65745">
        <ele>304.8</ele>
        <time>2019-02-13T11:52:19Z</time>
      </trkpt>
      <trkpt lat="43.11086" lon="1.65733">
        <ele>304.7</ele>
        <time>2019-02-13T11:52:21Z</time>
      </trkpt>
      <trkpt lat="43.11089" lon="1.65721">
        <ele>304.8</ele>
        <time>2019-02-13T11:52:23Z</time>
      </trkpt>
      <trkpt lat="43.11094" lon="1.65708">
        <ele>304.7</ele>
        <time>2019-02-13T11:52:25Z</time>
      </trkpt>
      <trkpt lat="43.11097" lon="1.65695">
        <ele>304.7</ele>
        <time>2019-02-13T11:52:27Z</time>
      </trkpt>
      <trkpt lat="43.11101" lon="1.65681">
        <ele>304.7</ele>
        <time>2019-02-13T11:52:29Z</time>
      </trkpt>
      <trkpt lat="43.11105" lon="1.65667">
        <ele>304.7</ele>
        <time>2019-02-13T11:52:31Z</time>
      </trkpt>
      <trkpt lat="43.11107" lon="1.65652">
        <ele>304.7</ele>
        <time>2019-02-13T11:52:33Z</time>
      </trkpt>
      <trkpt lat="43.11106" lon="1.65636">
        <ele>304.7</ele>
        <time>2019-02-13T11:52:35Z</time>
      </trkpt>
      <trkpt lat="43.11104" lon="1.6562">
        <ele>304.7</ele>
        <time>2019-02-13T11:52:37Z</time>
      </trkpt>
      <trkpt lat="43.11101" lon="1.65605">
        <ele>304.7</ele>
        <time>2019-02-13T11:52:39Z</time>
      </trkpt>
      <trkpt lat="43.11097" lon="1.6559">
        <ele>304.7</ele>
        <time>2019-02-13T11:52:41Z</time>
      </trkpt>
      <trkpt lat="43.11093" lon="1.65576">
        <ele>304.7</ele>
        <time>2019-02-13T11:52:43Z</time>
      </trkpt>
      <trkpt lat="43.11089" lon="1.65562">
        <ele>304.7</ele>
        <time>2019-02-13T11:52:45Z</time>
      </trkpt>
      <trkpt lat="43.11085" lon="1.65549">
        <ele>304.7</ele>
        <time>2019-02-13T11:52:47Z</time>
      </trkpt>
      <trkpt lat="43.11081" lon="1.65537">
        <ele>304.7</ele>
        <time>2019-02-13T11:52:49Z</time>
      </trkpt>
      <trkpt lat="43.11079" lon="1.6552">
        <ele>304.6</ele>
        <time>2019-02-13T11:52:52Z</time>
      </trkpt>
      <trkpt lat="43.11075" lon="1.65506">
        <ele>304.6</ele>
        <time>2019-02-13T11:52:55Z</time>
      </trkpt>
      <trkpt lat="43.11071" lon="1.65493">
        <ele>304.6</ele>
        <time>2019-02-13T11:52:58Z</time>
      </trkpt>
      <trkpt lat="43.1107" lon="1.65478">
        <ele>304.6</ele>
        <time>2019-02-13T11:53:33Z</time>
      </trkpt>
      <trkpt lat="43.1107" lon="1.65465">
        <ele>304.6</ele>
        <time>2019-02-13T11:53:37Z</time>
      </trkpt>
      <trkpt lat="43.11068" lon="1.65453">
        <ele>304.6</ele>
        <time>2019-02-13T11:53:40Z</time>
      </trkpt>
      <trkpt lat="43.11066" lon="1.65438">
        <ele>304.6</ele>
        <time>2019-02-13T11:53:43Z</time>
      </trkpt>
      <trkpt lat="43.11064" lon="1.65421">
        <ele>304.7</ele>
        <time>2019-02-13T11:53:46Z</time>
      </trkpt>
      <trkpt lat="43.11062" lon="1.65409">
        <ele>304.7</ele>
        <time>2019-02-13T11:53:48Z</time>
      </trkpt>
      <trkpt lat="43.11059" lon="1.65395">
        <ele>304.8</ele>
        <time>2019-02-13T11:53:50Z</time>
      </trkpt>
      <trkpt lat="43.11057" lon="1.65381">
        <ele>304.8</ele>
        <time>2019-02-13T11:53:52Z</time>
      </trkpt>
      <trkpt lat="43.11053" lon="1.65367">
        <ele>304.8</ele>
        <time>2019-02-13T11:53:54Z</time>
      </trkpt>
      <trkpt lat="43.1105" lon="1.65351">
        <ele>304.9</ele>
        <time>2019-02-13T11:53:56Z</time>
      </trkpt>
      <trkpt lat="43.11045" lon="1.65336">
        <ele>304.9</ele>
        <time>2019-02-13T11:53:58Z</time>
      </trkpt>
      <trkpt lat="43.11042" lon="1.65319">
        <ele>304.9</ele>
        <time>2019-02-13T11:54:00Z</time>
      </trkpt>
      <trkpt lat="43.11038" lon="1.65302">
        <ele>304.9</ele>
        <time>2019-02-13T11:54:02Z</time>
      </trkpt>
      <trkpt lat="43.11035" lon="1.65284">
        <ele>304.9</ele>
        <time>2019-02-13T11:54:04Z</time>
      </trkpt>
      <trkpt lat="43.11034" lon="1.65266">
        <ele>304.9</ele>
        <time>2019-02-13T11:54:06Z</time>
      </trkpt>
      <trkpt lat="43.11034" lon="1.65248">
        <ele>304.9</ele>
        <time>2019-02-13T11:54:08Z</time>
      </trkpt>
      <trkpt lat="43.11033" lon="1.65232">
        <ele>304.8</ele>
        <time>2019-02-13T11:54:10Z</time>
      </trkpt>
      <trkpt lat="43.11031" lon="1.65216">
        <ele>304.8</ele>
        <time>2019-02-13T11:54:12Z</time>
      </trkpt>
      <trkpt lat="43.1103" lon="1.65201">
        <ele>304.8</ele>
        <time>2019-02-13T11:54:14Z</time>
      </trkpt>
      <trkpt lat="43.11028" lon="1.65186">
        <ele>304.8</ele>
        <time>2019-02-13T11:54:16Z</time>
      </trkpt>
      <trkpt lat="43.11027" lon="1.65169">
        <ele>304.8</ele>
        <time>2019-02-13T11:54:19Z</time>
      </trkpt>
      <trkpt lat="43.11023" lon="1.65155">
        <ele>304.8</ele>
        <time>2019-02-13T11:54:22Z</time>
      </trkpt>
      <trkpt lat="43.11019" lon="1.6514">
        <ele>304.5</ele>
        <time>2019-02-13T11:54:25Z</time>
      </trkpt>
      <trkpt lat="43.11017" lon="1.65127">
        <ele>304.5</ele>
        <time>2019-02-13T11:54:27Z</time>
      </trkpt>
      <trkpt lat="43.11015" lon="1.65113">
        <ele>304.4</ele>
        <time>2019-02-13T11:54:29Z</time>
      </trkpt>
      <trkpt lat="43.11014" lon="1.65097">
        <ele>304.3</ele>
        <time>2019-02-13T11:54:31Z</time>
      </trkpt>
      <trkpt lat="43.11011" lon="1.6508">
        <ele>304.1</ele>
        <time>2019-02-13T11:54:33Z</time>
      </trkpt>
      <trkpt lat="43.11009" lon="1.65063">
        <ele>304</ele>
        <time>2019-02-13T11:54:35Z</time>
      </trkpt>
      <trkpt lat="43.11006" lon="1.65046">
        <ele>303.9</ele>
        <time>2019-02-13T11:54:37Z</time>
      </trkpt>
      <trkpt lat="43.11002" lon="1.65028">
        <ele>303.7</ele>
        <time>2019-02-13T11:54:39Z</time>
      </trkpt>
      <trkpt lat="43.10997" lon="1.65011">
        <ele>303.6</ele>
        <time>2019-02-13T11:54:41Z</time>
      </trkpt>
      <trkpt lat="43.10993" lon="1.64994">
        <ele>303.5</ele>
        <time>2019-02-13T11:54:43Z</time>
      </trkpt>
      <trkpt lat="43.10988" lon="1.64978">
        <ele>303.4</ele>
        <time>2019-02-13T11:54:45Z</time>
      </trkpt>
      <trkpt lat="43.10981" lon="1.64963">
        <ele>303.3</ele>
        <time>2019-02-13T11:54:47Z</time>
      </trkpt>
      <trkpt lat="43.10974" lon="1.64949">
        <ele>303.2</ele>
        <time>2019-02-13T11:54:49Z</time>
      </trkpt>
      <trkpt lat="43.10968" lon="1.64936">
        <ele>303</ele>
        <time>2019-02-13T11:54:51Z</time>
      </trkpt>
      <trkpt lat="43.10962" lon="1.64922">
        <ele>302.8</ele>
        <time>2019-02-13T11:54:53Z</time>
      </trkpt>
      <trkpt lat="43.10959" lon="1.64907">
        <ele>302.7</ele>
        <time>2019-02-13T11:54:55Z</time>
      </trkpt>
      <trkpt lat="43.10956" lon="1.64892">
        <ele>302.6</ele>
        <time>2019-02-13T11:54:57Z</time>
      </trkpt>
      <trkpt lat="43.10952" lon="1.64878">
        <ele>302.5</ele>
        <time>2019-02-13T11:54:59Z</time>
      </trkpt>
      <trkpt lat="43.10949" lon="1.64863">
        <ele>302.4</ele>
        <time>2019-02-13T11:55:01Z</time>
      </trkpt>
      <trkpt lat="43.10946" lon="1.64848">
        <ele>302.3</ele>
        <time>2019-02-13T11:55:03Z</time>
      </trkpt>
      <trkpt lat="43.10943" lon="1.64832">
        <ele>302.3</ele>
        <time>2019-02-13T11:55:05Z</time>
      </trkpt>
      <trkpt lat="43.1094" lon="1.64817">
        <ele>302.2</ele>
        <time>2019-02-13T11:55:07Z</time>
      </trkpt>
      <trkpt lat="43.10935" lon="1.64802">
        <ele>302.2</ele>
        <time>2019-02-13T11:55:09Z</time>
      </trkpt>
      <trkpt lat="43.10929" lon="1.64788">
        <ele>302.2</ele>
        <time>2019-02-13T11:55:11Z</time>
      </trkpt>
      <trkpt lat="43.10924" lon="1.64775">
        <ele>302.3</ele>
        <time>2019-02-13T11:55:13Z</time>
      </trkpt>
      <trkpt lat="43.10918" lon="1.64762">
        <ele>302.4</ele>
        <time>2019-02-13T11:55:15Z</time>
      </trkpt>
      <trkpt lat="43.10914" lon="1.64749">
        <ele>302.5</ele>
        <time>2019-02-13T11:55:17Z</time>
      </trkpt>
      <trkpt lat="43.10909" lon="1.64736">
        <ele>302.6</ele>
        <time>2019-02-13T11:55:19Z</time>
      </trkpt>
      <trkpt lat="43.10903" lon="1.64722">
        <ele>302.7</ele>
        <time>2019-02-13T11:55:21Z</time>
      </trkpt>
      <trkpt lat="43.10897" lon="1.64707">
        <ele>302.8</ele>
        <time>2019-02-13T11:55:23Z</time>
      </trkpt>
      <trkpt lat="43.10891" lon="1.64692">
        <ele>302.9</ele>
        <time>2019-02-13T11:55:25Z</time>
      </trkpt>
      <trkpt lat="43.10886" lon="1.64677">
        <ele>302.9</ele>
        <time>2019-02-13T11:55:27Z</time>
      </trkpt>
      <trkpt lat="43.10879" lon="1.64663">
        <ele>302.9</ele>
        <time>2019-02-13T11:55:29Z</time>
      </trkpt>
      <trkpt lat="43.10873" lon="1.64649">
        <ele>302.9</ele>
        <time>2019-02-13T11:55:31Z</time>
      </trkpt>
      <trkpt lat="43.10868" lon="1.64635">
        <ele>302.9</ele>
        <time>2019-02-13T11:55:33Z</time>
      </trkpt>
      <trkpt lat="43.10863" lon="1.6462">
        <ele>302.8</ele>
        <time>2019-02-13T11:55:35Z</time>
      </trkpt>
      <trkpt lat="43.10859" lon="1.64607">
        <ele>302.6</ele>
        <time>2019-02-13T11:55:37Z</time>
      </trkpt>
      <trkpt lat="43.10854" lon="1.64593">
        <ele>302.4</ele>
        <time>2019-02-13T11:55:39Z</time>
      </trkpt>
      <trkpt lat="43.1085" lon="1.6458">
        <ele>302.3</ele>
        <time>2019-02-13T11:55:41Z</time>
      </trkpt>
      <trkpt lat="43.10846" lon="1.64567">
        <ele>301.9</ele>
        <time>2019-02-13T11:55:43Z</time>
      </trkpt>
      <trkpt lat="43.10842" lon="1.64554">
        <ele>301.7</ele>
        <time>2019-02-13T11:55:45Z</time>
      </trkpt>
      <trkpt lat="43.10837" lon="1.6454">
        <ele>301.5</ele>
        <time>2019-02-13T11:55:47Z</time>
      </trkpt>
      <trkpt lat="43.10833" lon="1.64527">
        <ele>301.2</ele>
        <time>2019-02-13T11:55:49Z</time>
      </trkpt>
      <trkpt lat="43.10828" lon="1.64515">
        <ele>300.9</ele>
        <time>2019-02-13T11:55:51Z</time>
      </trkpt>
      <trkpt lat="43.10823" lon="1.64502">
        <ele>300.6</ele>
        <time>2019-02-13T11:55:53Z</time>
      </trkpt>
      <trkpt lat="43.10816" lon="1.6449">
        <ele>300.4</ele>
        <time>2019-02-13T11:55:55Z</time>
      </trkpt>
      <trkpt lat="43.10809" lon="1.64479">
        <ele>300.3</ele>
        <time>2019-02-13T11:55:57Z</time>
      </trkpt>
      <trkpt lat="43.10802" lon="1.64464">
        <ele>300.4</ele>
        <time>2019-02-13T11:55:59Z</time>
      </trkpt>
      <trkpt lat="43.10797" lon="1.64449">
        <ele>300.5</ele>
        <time>2019-02-13T11:56:01Z</time>
      </trkpt>
      <trkpt lat="43.10793" lon="1.64434">
        <ele>300.5</ele>
        <time>2019-02-13T11:56:03Z</time>
      </trkpt>
      <trkpt lat="43.10788" lon="1.6442">
        <ele>300.4</ele>
        <time>2019-02-13T11:56:05Z</time>
      </trkpt>
      <trkpt lat="43.10784" lon="1.64406">
        <ele>300.2</ele>
        <time>2019-02-13T11:56:07Z</time>
      </trkpt>
      <trkpt lat="43.1078" lon="1.64393">
        <ele>300</ele>
        <time>2019-02-13T11:56:09Z</time>
      </trkpt>
      <trkpt lat="43.10776" lon="1.64381">
        <ele>299.7</ele>
        <time>2019-02-13T11:56:11Z</time>
      </trkpt>
      <trkpt lat="43.10772" lon="1.64368">
        <ele>299.4</ele>
        <time>2019-02-13T11:56:13Z</time>
      </trkpt>
      <trkpt lat="43.10768" lon="1.64356">
        <ele>299.3</ele>
        <time>2019-02-13T11:56:15Z</time>
      </trkpt>
      <trkpt lat="43.10763" lon="1.64344">
        <ele>299.2</ele>
        <time>2019-02-13T11:56:17Z</time>
      </trkpt>
      <trkpt lat="43.10757" lon="1.64331">
        <ele>299.3</ele>
        <time>2019-02-13T11:56:19Z</time>
      </trkpt>
      <trkpt lat="43.10753" lon="1.64318">
        <ele>299.3</ele>
        <time>2019-02-13T11:56:21Z</time>
      </trkpt>
      <trkpt lat="43.1075" lon="1.64304">
        <ele>299.4</ele>
        <time>2019-02-13T11:56:23Z</time>
      </trkpt>
      <trkpt lat="43.10747" lon="1.64291">
        <ele>299.4</ele>
        <time>2019-02-13T11:56:25Z</time>
      </trkpt>
      <trkpt lat="43.10744" lon="1.64279">
        <ele>299.4</ele>
        <time>2019-02-13T11:56:27Z</time>
      </trkpt>
      <trkpt lat="43.10742" lon="1.64266">
        <ele>299.4</ele>
        <time>2019-02-13T11:56:29Z</time>
      </trkpt>
      <trkpt lat="43.1074" lon="1.64253">
        <ele>299.5</ele>
        <time>2019-02-13T11:56:31Z</time>
      </trkpt>
      <trkpt lat="43.10739" lon="1.64239">
        <ele>299.4</ele>
        <time>2019-02-13T11:56:33Z</time>
      </trkpt>
      <trkpt lat="43.10736" lon="1.64224">
        <ele>299.3</ele>
        <time>2019-02-13T11:56:35Z</time>
      </trkpt>
      <trkpt lat="43.10733" lon="1.6421">
        <ele>299.1</ele>
        <time>2019-02-13T11:56:37Z</time>
      </trkpt>
      <trkpt lat="43.1073" lon="1.64195">
        <ele>299</ele>
        <time>2019-02-13T11:56:39Z</time>
      </trkpt>
      <trkpt lat="43.10727" lon="1.64179">
        <ele>299</ele>
        <time>2019-02-13T11:56:41Z</time>
      </trkpt>
      <trkpt lat="43.10723" lon="1.64165">
        <ele>298.9</ele>
        <time>2019-02-13T11:56:43Z</time>
      </trkpt>
      <trkpt lat="43.1072" lon="1.64151">
        <ele>298.8</ele>
        <time>2019-02-13T11:56:45Z</time>
      </trkpt>
      <trkpt lat="43.10716" lon="1.64138">
        <ele>298.8</ele>
        <time>2019-02-13T11:56:47Z</time>
      </trkpt>
      <trkpt lat="43.10713" lon="1.64123">
        <ele>298.8</ele>
        <time>2019-02-13T11:56:49Z</time>
      </trkpt>
      <trkpt lat="43.10711" lon="1.64108">
        <ele>298.9</ele>
        <time>2019-02-13T11:56:51Z</time>
      </trkpt>
      <trkpt lat="43.1071" lon="1.64093">
        <ele>298.9</ele>
        <time>2019-02-13T11:56:53Z</time>
      </trkpt>
      <trkpt lat="43.10708" lon="1.64078">
        <ele>299</ele>
        <time>2019-02-13T11:56:55Z</time>
      </trkpt>
      <trkpt lat="43.10708" lon="1.64063">
        <ele>299.2</ele>
        <time>2019-02-13T11:56:57Z</time>
      </trkpt>
      <trkpt lat="43.10709" lon="1.64048">
        <ele>299.2</ele>
        <time>2019-02-13T11:56:59Z</time>
      </trkpt>
      <trkpt lat="43.1071" lon="1.64035">
        <ele>299.3</ele>
        <time>2019-02-13T11:57:01Z</time>
      </trkpt>
      <trkpt lat="43.10711" lon="1.6402">
        <ele>299.4</ele>
        <time>2019-02-13T11:57:03Z</time>
      </trkpt>
      <trkpt lat="43.10713" lon="1.64005">
        <ele>299.7</ele>
        <time>2019-02-13T11:57:05Z</time>
      </trkpt>
      <trkpt lat="43.10713" lon="1.63991">
        <ele>299.9</ele>
        <time>2019-02-13T11:57:07Z</time>
      </trkpt>
      <trkpt lat="43.10715" lon="1.63976">
        <ele>300.3</ele>
        <time>2019-02-13T11:57:09Z</time>
      </trkpt>
      <trkpt lat="43.10716" lon="1.63962">
        <ele>300.6</ele>
        <time>2019-02-13T11:57:11Z</time>
      </trkpt>
      <trkpt lat="43.10717" lon="1.63948">
        <ele>300.7</ele>
        <time>2019-02-13T11:57:13Z</time>
      </trkpt>
      <trkpt lat="43.10718" lon="1.63934">
        <ele>300.9</ele>
        <time>2019-02-13T11:57:15Z</time>
      </trkpt>
      <trkpt lat="43.10719" lon="1.6392">
        <ele>301.2</ele>
        <time>2019-02-13T11:57:17Z</time>
      </trkpt>
      <trkpt lat="43.10719" lon="1.63906">
        <ele>301.4</ele>
        <time>2019-02-13T11:57:19Z</time>
      </trkpt>
      <trkpt lat="43.10719" lon="1.63892">
        <ele>301.7</ele>
        <time>2019-02-13T11:57:21Z</time>
      </trkpt>
      <trkpt lat="43.10719" lon="1.63876">
        <ele>301.9</ele>
        <time>2019-02-13T11:57:23Z</time>
      </trkpt>
      <trkpt lat="43.10718" lon="1.63861">
        <ele>302</ele>
        <time>2019-02-13T11:57:25Z</time>
      </trkpt>
      <trkpt lat="43.10716" lon="1.63846">
        <ele>302</ele>
        <time>2019-02-13T11:57:27Z</time>
      </trkpt>
      <trkpt lat="43.10715" lon="1.63832">
        <ele>302</ele>
        <time>2019-02-13T11:57:29Z</time>
      </trkpt>
      <trkpt lat="43.10712" lon="1.63818">
        <ele>302.1</ele>
        <time>2019-02-13T11:57:31Z</time>
      </trkpt>
      <trkpt lat="43.1071" lon="1.63803">
        <ele>302.1</ele>
        <time>2019-02-13T11:57:33Z</time>
      </trkpt>
      <trkpt lat="43.10707" lon="1.63789">
        <ele>302.1</ele>
        <time>2019-02-13T11:57:35Z</time>
      </trkpt>
      <trkpt lat="43.10704" lon="1.63774">
        <ele>302.2</ele>
        <time>2019-02-13T11:57:37Z</time>
      </trkpt>
      <trkpt lat="43.10702" lon="1.63762">
        <ele>302.2</ele>
        <time>2019-02-13T11:57:39Z</time>
      </trkpt>
      <trkpt lat="43.10701" lon="1.63749">
        <ele>302.2</ele>
        <time>2019-02-13T11:57:41Z</time>
      </trkpt>
      <trkpt lat="43.107" lon="1.63735">
        <ele>302.1</ele>
        <time>2019-02-13T11:57:43Z</time>
      </trkpt>
      <trkpt lat="43.10699" lon="1.63721">
        <ele>302.1</ele>
        <time>2019-02-13T11:57:45Z</time>
      </trkpt>
      <trkpt lat="43.10697" lon="1.63706">
        <ele>302.1</ele>
        <time>2019-02-13T11:57:47Z</time>
      </trkpt>
      <trkpt lat="43.10696" lon="1.63691">
        <ele>302.1</ele>
        <time>2019-02-13T11:57:49Z</time>
      </trkpt>
      <trkpt lat="43.10695" lon="1.63676">
        <ele>302.3</ele>
        <time>2019-02-13T11:57:51Z</time>
      </trkpt>
      <trkpt lat="43.10694" lon="1.63662">
        <ele>302.4</ele>
        <time>2019-02-13T11:57:53Z</time>
      </trkpt>
      <trkpt lat="43.10693" lon="1.63648">
        <ele>302.6</ele>
        <time>2019-02-13T11:57:55Z</time>
      </trkpt>
      <trkpt lat="43.10692" lon="1.63635">
        <ele>302.7</ele>
        <time>2019-02-13T11:57:57Z</time>
      </trkpt>
      <trkpt lat="43.1069" lon="1.63617">
        <ele>302.9</ele>
        <time>2019-02-13T11:58:00Z</time>
      </trkpt>
      <trkpt lat="43.10689" lon="1.63602">
        <ele>302.9</ele>
        <time>2019-02-13T11:58:03Z</time>
      </trkpt>
      <trkpt lat="43.10687" lon="1.63587">
        <ele>302.9</ele>
        <time>2019-02-13T11:58:06Z</time>
      </trkpt>
      <trkpt lat="43.10687" lon="1.63574">
        <ele>302.9</ele>
        <time>2019-02-13T11:58:11Z</time>
      </trkpt>
      <trkpt lat="43.10686" lon="1.63561">
        <ele>302.8</ele>
        <time>2019-02-13T11:58:17Z</time>
      </trkpt>
      <trkpt lat="43.10685" lon="1.63547">
        <ele>302.8</ele>
        <time>2019-02-13T11:58:21Z</time>
      </trkpt>
      <trkpt lat="43.10683" lon="1.6353">
        <ele>302.8</ele>
        <time>2019-02-13T11:58:24Z</time>
      </trkpt>
      <trkpt lat="43.10684" lon="1.63511">
        <ele>302.3</ele>
        <time>2019-02-13T11:58:27Z</time>
      </trkpt>
      <trkpt lat="43.10682" lon="1.63498">
        <ele>302</ele>
        <time>2019-02-13T11:58:29Z</time>
      </trkpt>
      <trkpt lat="43.1068" lon="1.63485">
        <ele>301.7</ele>
        <time>2019-02-13T11:58:31Z</time>
      </trkpt>
      <trkpt lat="43.10678" lon="1.6347">
        <ele>301.5</ele>
        <time>2019-02-13T11:58:34Z</time>
      </trkpt>
      <trkpt lat="43.10677" lon="1.63455">
        <ele>301.4</ele>
        <time>2019-02-13T11:58:37Z</time>
      </trkpt>
      <trkpt lat="43.10675" lon="1.63439">
        <ele>301.4</ele>
        <time>2019-02-13T11:58:41Z</time>
      </trkpt>
      <trkpt lat="43.10674" lon="1.63423">
        <ele>301.4</ele>
        <time>2019-02-13T11:58:45Z</time>
      </trkpt>
      <trkpt lat="43.10675" lon="1.6341">
        <ele>301.6</ele>
        <time>2019-02-13T11:58:50Z</time>
      </trkpt>
      <trkpt lat="43.10676" lon="1.63394">
        <ele>301.7</ele>
        <time>2019-02-13T11:58:55Z</time>
      </trkpt>
      <trkpt lat="43.10676" lon="1.6338">
        <ele>301.9</ele>
        <time>2019-02-13T11:58:59Z</time>
      </trkpt>
      <trkpt lat="43.10675" lon="1.63365">
        <ele>302</ele>
        <time>2019-02-13T11:59:03Z</time>
      </trkpt>
      <trkpt lat="43.10673" lon="1.63351">
        <ele>302.1</ele>
        <time>2019-02-13T11:59:07Z</time>
      </trkpt>
      <trkpt lat="43.10672" lon="1.63336">
        <ele>302.2</ele>
        <time>2019-02-13T11:59:11Z</time>
      </trkpt>
      <trkpt lat="43.10671" lon="1.63323">
        <ele>302.2</ele>
        <time>2019-02-13T11:59:15Z</time>
      </trkpt>
      <trkpt lat="43.10668" lon="1.63311">
        <ele>302.2</ele>
        <time>2019-02-13T11:59:19Z</time>
      </trkpt>
      <trkpt lat="43.10665" lon="1.63297">
        <ele>302.2</ele>
        <time>2019-02-13T11:59:23Z</time>
      </trkpt>
      <trkpt lat="43.10664" lon="1.63282">
        <ele>302.2</ele>
        <time>2019-02-13T11:59:26Z</time>
      </trkpt>
      <trkpt lat="43.10666" lon="1.63268">
        <ele>302</ele>
        <time>2019-02-13T11:59:28Z</time>
      </trkpt>
      <trkpt lat="43.10668" lon="1.63254">
        <ele>301.7</ele>
        <time>2019-02-13T11:59:30Z</time>
      </trkpt>
      <trkpt lat="43.10668" lon="1.63239">
        <ele>301.5</ele>
        <time>2019-02-13T11:59:32Z</time>
      </trkpt>
      <trkpt lat="43.10666" lon="1.63222">
        <ele>301.4</ele>
        <time>2019-02-13T11:59:34Z</time>
      </trkpt>
      <trkpt lat="43.10665" lon="1.63206">
        <ele>301</ele>
        <time>2019-02-13T11:59:36Z</time>
      </trkpt>
      <trkpt lat="43.10666" lon="1.63191">
        <ele>300.8</ele>
        <time>2019-02-13T11:59:39Z</time>
      </trkpt>
      <trkpt lat="43.10664" lon="1.63178">
        <ele>300.6</ele>
        <time>2019-02-13T11:59:42Z</time>
      </trkpt>
      <trkpt lat="43.10663" lon="1.63161">
        <ele>300.5</ele>
        <time>2019-02-13T11:59:46Z</time>
      </trkpt>
      <trkpt lat="43.10664" lon="1.63148">
        <ele>300.5</ele>
        <time>2019-02-13T11:59:49Z</time>
      </trkpt>
      <trkpt lat="43.10662" lon="1.63133">
        <ele>300.5</ele>
        <time>2019-02-13T11:59:53Z</time>
      </trkpt>
      <trkpt lat="43.10656" lon="1.6312">
        <ele>300.5</ele>
        <time>2019-02-13T11:59:56Z</time>
      </trkpt>
      <trkpt lat="43.10648" lon="1.63107">
        <ele>300.5</ele>
        <time>2019-02-13T11:59:59Z</time>
      </trkpt>
      <trkpt lat="43.10644" lon="1.6309">
        <ele>300.7</ele>
        <time>2019-02-13T12:00:02Z</time>
      </trkpt>
      <trkpt lat="43.10647" lon="1.6307">
        <ele>300.7</ele>
        <time>2019-02-13T12:00:05Z</time>
      </trkpt>
      <trkpt lat="43.10647" lon="1.63054">
        <ele>300.9</ele>
        <time>2019-02-13T12:00:07Z</time>
      </trkpt>
      <trkpt lat="43.10646" lon="1.63039">
        <ele>301.1</ele>
        <time>2019-02-13T12:00:10Z</time>
      </trkpt>
      <trkpt lat="43.10644" lon="1.63024">
        <ele>301.2</ele>
        <time>2019-02-13T12:00:15Z</time>
      </trkpt>
      <trkpt lat="43.1064" lon="1.63013">
        <ele>301.2</ele>
        <time>2019-02-13T12:00:18Z</time>
      </trkpt>
      <trkpt lat="43.10637" lon="1.63001">
        <ele>301.3</ele>
        <time>2019-02-13T12:00:21Z</time>
      </trkpt>
      <trkpt lat="43.10633" lon="1.62987">
        <ele>301.5</ele>
        <time>2019-02-13T12:00:24Z</time>
      </trkpt>
      <trkpt lat="43.10632" lon="1.6297">
        <ele>302.3</ele>
        <time>2019-02-13T12:00:27Z</time>
      </trkpt>
      <trkpt lat="43.10631" lon="1.62953">
        <ele>303.5</ele>
        <time>2019-02-13T12:00:30Z</time>
      </trkpt>
      <trkpt lat="43.1063" lon="1.62931">
        <ele>304.4</ele>
        <time>2019-02-13T12:00:33Z</time>
      </trkpt>
      <trkpt lat="43.10628" lon="1.62915">
        <ele>304.8</ele>
        <time>2019-02-13T12:00:36Z</time>
      </trkpt>
      <trkpt lat="43.10624" lon="1.62899">
        <ele>305</ele>
        <time>2019-02-13T12:00:39Z</time>
      </trkpt>
      <trkpt lat="43.1062" lon="1.62884">
        <ele>305</ele>
        <time>2019-02-13T12:00:42Z</time>
      </trkpt>
      <trkpt lat="43.10626" lon="1.6287">
        <ele>304.9</ele>
        <time>2019-02-13T12:00:45Z</time>
      </trkpt>
      <trkpt lat="43.10636" lon="1.6287">
        <ele>304.7</ele>
        <time>2019-02-13T12:00:48Z</time>
      </trkpt>
      <trkpt lat="43.10646" lon="1.6287">
        <ele>304.7</ele>
        <time>2019-02-13T12:00:50Z</time>
      </trkpt>
      <trkpt lat="43.10656" lon="1.62868">
        <ele>304.8</ele>
        <time>2019-02-13T12:00:52Z</time>
      </trkpt>
      <trkpt lat="43.10668" lon="1.62868">
        <ele>305</ele>
        <time>2019-02-13T12:00:54Z</time>
      </trkpt>
      <trkpt lat="43.10679" lon="1.62868">
        <ele>305</ele>
        <time>2019-02-13T12:00:56Z</time>
      </trkpt>
      <trkpt lat="43.1069" lon="1.62864">
        <ele>304.9</ele>
        <time>2019-02-13T12:00:58Z</time>
      </trkpt>
      <trkpt lat="43.10702" lon="1.62857">
        <ele>304.9</ele>
        <time>2019-02-13T12:01:00Z</time>
      </trkpt>
      <trkpt lat="43.10714" lon="1.62854">
        <ele>304.9</ele>
        <time>2019-02-13T12:01:02Z</time>
      </trkpt>
      <trkpt lat="43.10725" lon="1.6285">
        <ele>304.9</ele>
        <time>2019-02-13T12:01:04Z</time>
      </trkpt>
      <trkpt lat="43.10737" lon="1.62843">
        <ele>305</ele>
        <time>2019-02-13T12:01:06Z</time>
      </trkpt>
      <trkpt lat="43.10748" lon="1.62836">
        <ele>305</ele>
        <time>2019-02-13T12:01:08Z</time>
      </trkpt>
      <trkpt lat="43.10761" lon="1.6283">
        <ele>305.1</ele>
        <time>2019-02-13T12:01:10Z</time>
      </trkpt>
      <trkpt lat="43.10772" lon="1.62824">
        <ele>305</ele>
        <time>2019-02-13T12:01:12Z</time>
      </trkpt>
      <trkpt lat="43.10784" lon="1.6282">
        <ele>304.9</ele>
        <time>2019-02-13T12:01:14Z</time>
      </trkpt>
      <trkpt lat="43.10797" lon="1.62816">
        <ele>304.8</ele>
        <time>2019-02-13T12:01:16Z</time>
      </trkpt>
      <trkpt lat="43.10809" lon="1.62813">
        <ele>304.7</ele>
        <time>2019-02-13T12:01:18Z</time>
      </trkpt>
      <trkpt lat="43.10822" lon="1.62807">
        <ele>304.5</ele>
        <time>2019-02-13T12:01:20Z</time>
      </trkpt>
      <trkpt lat="43.10833" lon="1.62797">
        <ele>304.2</ele>
        <time>2019-02-13T12:01:22Z</time>
      </trkpt>
      <trkpt lat="43.10841" lon="1.62783">
        <ele>304</ele>
        <time>2019-02-13T12:01:24Z</time>
      </trkpt>
      <trkpt lat="43.10851" lon="1.62771">
        <ele>303.7</ele>
        <time>2019-02-13T12:01:26Z</time>
      </trkpt>
      <trkpt lat="43.10861" lon="1.62759">
        <ele>303.5</ele>
        <time>2019-02-13T12:01:28Z</time>
      </trkpt>
      <trkpt lat="43.10872" lon="1.62748">
        <ele>303.3</ele>
        <time>2019-02-13T12:01:30Z</time>
      </trkpt>
      <trkpt lat="43.10881" lon="1.62738">
        <ele>303</ele>
        <time>2019-02-13T12:01:32Z</time>
      </trkpt>
      <trkpt lat="43.10891" lon="1.62728">
        <ele>302.7</ele>
        <time>2019-02-13T12:01:34Z</time>
      </trkpt>
      <trkpt lat="43.109" lon="1.62717">
        <ele>302.4</ele>
        <time>2019-02-13T12:01:36Z</time>
      </trkpt>
      <trkpt lat="43.1091" lon="1.62705">
        <ele>302.2</ele>
        <time>2019-02-13T12:01:38Z</time>
      </trkpt>
      <trkpt lat="43.10917" lon="1.62692">
        <ele>302</ele>
        <time>2019-02-13T12:01:40Z</time>
      </trkpt>
      <trkpt lat="43.10927" lon="1.62682">
        <ele>301.7</ele>
        <time>2019-02-13T12:01:42Z</time>
      </trkpt>
      <trkpt lat="43.10939" lon="1.62677">
        <ele>301.5</ele>
        <time>2019-02-13T12:01:44Z</time>
      </trkpt>
      <trkpt lat="43.10951" lon="1.62672">
        <ele>301.4</ele>
        <time>2019-02-13T12:01:46Z</time>
      </trkpt>
      <trkpt lat="43.10964" lon="1.62669">
        <ele>301.3</ele>
        <time>2019-02-13T12:01:48Z</time>
      </trkpt>
      <trkpt lat="43.10976" lon="1.62666">
        <ele>301.2</ele>
        <time>2019-02-13T12:01:50Z</time>
      </trkpt>
      <trkpt lat="43.10988" lon="1.62662">
        <ele>301.1</ele>
        <time>2019-02-13T12:01:52Z</time>
      </trkpt>
      <trkpt lat="43.11013" lon="1.62653">
        <ele>300.9</ele>
        <time>2019-02-13T12:01:56Z</time>
      </trkpt>
      <trkpt lat="43.11026" lon="1.62649">
        <ele>300.7</ele>
        <time>2019-02-13T12:01:58Z</time>
      </trkpt>
      <trkpt lat="43.11038" lon="1.62643">
        <ele>300.6</ele>
        <time>2019-02-13T12:02:00Z</time>
      </trkpt>
      <trkpt lat="43.11048" lon="1.62634">
        <ele>300.4</ele>
        <time>2019-02-13T12:02:02Z</time>
      </trkpt>
      <trkpt lat="43.11056" lon="1.62622">
        <ele>300.3</ele>
        <time>2019-02-13T12:02:04Z</time>
      </trkpt>
      <trkpt lat="43.11064" lon="1.6261">
        <ele>300.1</ele>
        <time>2019-02-13T12:02:06Z</time>
      </trkpt>
      <trkpt lat="43.11074" lon="1.626">
        <ele>299.9</ele>
        <time>2019-02-13T12:02:08Z</time>
      </trkpt>
      <trkpt lat="43.11085" lon="1.62596">
        <ele>299.7</ele>
        <time>2019-02-13T12:02:10Z</time>
      </trkpt>
      <trkpt lat="43.11095" lon="1.62589">
        <ele>299.5</ele>
        <time>2019-02-13T12:02:12Z</time>
      </trkpt>
      <trkpt lat="43.11101" lon="1.62577">
        <ele>299.4</ele>
        <time>2019-02-13T12:02:14Z</time>
      </trkpt>
      <trkpt lat="43.11108" lon="1.62569">
        <ele>299.1</ele>
        <time>2019-02-13T12:02:16Z</time>
      </trkpt>
      <trkpt lat="43.11118" lon="1.62571">
        <ele>298.9</ele>
        <time>2019-02-13T12:02:18Z</time>
      </trkpt>
      <trkpt lat="43.11129" lon="1.62572">
        <ele>298.7</ele>
        <time>2019-02-13T12:02:20Z</time>
      </trkpt>
      <trkpt lat="43.11137" lon="1.62565">
        <ele>298.5</ele>
        <time>2019-02-13T12:02:22Z</time>
      </trkpt>
      <trkpt lat="43.11141" lon="1.6255">
        <ele>298.4</ele>
        <time>2019-02-13T12:02:24Z</time>
      </trkpt>
      <trkpt lat="43.11146" lon="1.62536">
        <ele>298.5</ele>
        <time>2019-02-13T12:02:26Z</time>
      </trkpt>
      <trkpt lat="43.11152" lon="1.62524">
        <ele>298.6</ele>
        <time>2019-02-13T12:02:28Z</time>
      </trkpt>
      <trkpt lat="43.11162" lon="1.62516">
        <ele>298.8</ele>
        <time>2019-02-13T12:02:30Z</time>
      </trkpt>
      <trkpt lat="43.11174" lon="1.62512">
        <ele>299</ele>
        <time>2019-02-13T12:02:32Z</time>
      </trkpt>
      <trkpt lat="43.11185" lon="1.62509">
        <ele>299</ele>
        <time>2019-02-13T12:02:34Z</time>
      </trkpt>
      <trkpt lat="43.11196" lon="1.62504">
        <ele>299</ele>
        <time>2019-02-13T12:02:36Z</time>
      </trkpt>
      <trkpt lat="43.11206" lon="1.62497">
        <ele>299</ele>
        <time>2019-02-13T12:02:38Z</time>
      </trkpt>
      <trkpt lat="43.11212" lon="1.62486">
        <ele>299</ele>
        <time>2019-02-13T12:02:40Z</time>
      </trkpt>
      <trkpt lat="43.11211" lon="1.62469">
        <ele>299</ele>
        <time>2019-02-13T12:02:42Z</time>
      </trkpt>
      <trkpt lat="43.11209" lon="1.62453">
        <ele>298.9</ele>
        <time>2019-02-13T12:02:44Z</time>
      </trkpt>
      <trkpt lat="43.11207" lon="1.62437">
        <ele>298.8</ele>
        <time>2019-02-13T12:02:46Z</time>
      </trkpt>
      <trkpt lat="43.11207" lon="1.62422">
        <ele>298.6</ele>
        <time>2019-02-13T12:02:48Z</time>
      </trkpt>
      <trkpt lat="43.11207" lon="1.62407">
        <ele>298.5</ele>
        <time>2019-02-13T12:02:50Z</time>
      </trkpt>
      <trkpt lat="43.1121" lon="1.62392">
        <ele>298.4</ele>
        <time>2019-02-13T12:02:52Z</time>
      </trkpt>
      <trkpt lat="43.11213" lon="1.62377">
        <ele>298.3</ele>
        <time>2019-02-13T12:02:54Z</time>
      </trkpt>
      <trkpt lat="43.11217" lon="1.62363">
        <ele>298.1</ele>
        <time>2019-02-13T12:02:56Z</time>
      </trkpt>
      <trkpt lat="43.11219" lon="1.62348">
        <ele>298</ele>
        <time>2019-02-13T12:02:58Z</time>
      </trkpt>
      <trkpt lat="43.11222" lon="1.62334">
        <ele>297.9</ele>
        <time>2019-02-13T12:03:00Z</time>
      </trkpt>
      <trkpt lat="43.11225" lon="1.62319">
        <ele>297.9</ele>
        <time>2019-02-13T12:03:02Z</time>
      </trkpt>
      <trkpt lat="43.11229" lon="1.62305">
        <ele>297.9</ele>
        <time>2019-02-13T12:03:04Z</time>
      </trkpt>
      <trkpt lat="43.11235" lon="1.62291">
        <ele>297.8</ele>
        <time>2019-02-13T12:03:06Z</time>
      </trkpt>
      <trkpt lat="43.11241" lon="1.62278">
        <ele>297.6</ele>
        <time>2019-02-13T12:03:08Z</time>
      </trkpt>
      <trkpt lat="43.11248" lon="1.62265">
        <ele>297.5</ele>
        <time>2019-02-13T12:03:10Z</time>
      </trkpt>
      <trkpt lat="43.11255" lon="1.62253">
        <ele>297.5</ele>
        <time>2019-02-13T12:03:12Z</time>
      </trkpt>
      <trkpt lat="43.11262" lon="1.6224">
        <ele>297.4</ele>
        <time>2019-02-13T12:03:14Z</time>
      </trkpt>
      <trkpt lat="43.11269" lon="1.62227">
        <ele>297.3</ele>
        <time>2019-02-13T12:03:16Z</time>
      </trkpt>
      <trkpt lat="43.11275" lon="1.62215">
        <ele>297.3</ele>
        <time>2019-02-13T12:03:18Z</time>
      </trkpt>
      <trkpt lat="43.11283" lon="1.62204">
        <ele>297.3</ele>
        <time>2019-02-13T12:03:20Z</time>
      </trkpt>
      <trkpt lat="43.11291" lon="1.62193">
        <ele>297.2</ele>
        <time>2019-02-13T12:03:22Z</time>
      </trkpt>
      <trkpt lat="43.11298" lon="1.62182">
        <ele>297.1</ele>
        <time>2019-02-13T12:03:24Z</time>
      </trkpt>
      <trkpt lat="43.11306" lon="1.62171">
        <ele>297.1</ele>
        <time>2019-02-13T12:03:26Z</time>
      </trkpt>
      <trkpt lat="43.11314" lon="1.62159">
        <ele>297.1</ele>
        <time>2019-02-13T12:03:28Z</time>
      </trkpt>
      <trkpt lat="43.11323" lon="1.62149">
        <ele>297.1</ele>
        <time>2019-02-13T12:03:30Z</time>
      </trkpt>
      <trkpt lat="43.11332" lon="1.6214">
        <ele>297.1</ele>
        <time>2019-02-13T12:03:32Z</time>
      </trkpt>
      <trkpt lat="43.11341" lon="1.62131">
        <ele>297</ele>
        <time>2019-02-13T12:03:34Z</time>
      </trkpt>
      <trkpt lat="43.11352" lon="1.62125">
        <ele>297</ele>
        <time>2019-02-13T12:03:36Z</time>
      </trkpt>
      <trkpt lat="43.11363" lon="1.62119">
        <ele>297</ele>
        <time>2019-02-13T12:03:38Z</time>
      </trkpt>
      <trkpt lat="43.11372" lon="1.62113">
        <ele>296.9</ele>
        <time>2019-02-13T12:03:40Z</time>
      </trkpt>
      <trkpt lat="43.11382" lon="1.6211">
        <ele>296.8</ele>
        <time>2019-02-13T12:03:42Z</time>
      </trkpt>
      <trkpt lat="43.1139" lon="1.62105">
        <ele>296.8</ele>
        <time>2019-02-13T12:03:44Z</time>
      </trkpt>
      <trkpt lat="43.11394" lon="1.62094">
        <ele>296.8</ele>
        <time>2019-02-13T12:03:46Z</time>
      </trkpt>
      <trkpt lat="43.11398" lon="1.62081">
        <ele>296.8</ele>
        <time>2019-02-13T12:03:48Z</time>
      </trkpt>
      <trkpt lat="43.11404" lon="1.6207">
        <ele>296.8</ele>
        <time>2019-02-13T12:03:50Z</time>
      </trkpt>
      <trkpt lat="43.11414" lon="1.62064">
        <ele>296.8</ele>
        <time>2019-02-13T12:03:52Z</time>
      </trkpt>
      <trkpt lat="43.11424" lon="1.62058">
        <ele>296.9</ele>
        <time>2019-02-13T12:03:54Z</time>
      </trkpt>
      <trkpt lat="43.11433" lon="1.62054">
        <ele>297</ele>
        <time>2019-02-13T12:03:56Z</time>
      </trkpt>
      <trkpt lat="43.11442" lon="1.62051">
        <ele>297.1</ele>
        <time>2019-02-13T12:03:58Z</time>
      </trkpt>
      <trkpt lat="43.11451" lon="1.62046">
        <ele>297.2</ele>
        <time>2019-02-13T12:04:00Z</time>
      </trkpt>
      <trkpt lat="43.1146" lon="1.62041">
        <ele>297.3</ele>
        <time>2019-02-13T12:04:02Z</time>
      </trkpt>
      <trkpt lat="43.11465" lon="1.62025">
        <ele>297.3</ele>
        <time>2019-02-13T12:04:05Z</time>
      </trkpt>
      <trkpt lat="43.11461" lon="1.62011">
        <ele>297.3</ele>
        <time>2019-02-13T12:04:07Z</time>
      </trkpt>
      <trkpt lat="43.11457" lon="1.61998">
        <ele>297.2</ele>
        <time>2019-02-13T12:04:09Z</time>
      </trkpt>
      <trkpt lat="43.11452" lon="1.61984">
        <ele>297.3</ele>
        <time>2019-02-13T12:04:11Z</time>
      </trkpt>
      <trkpt lat="43.11446" lon="1.61972">
        <ele>297.4</ele>
        <time>2019-02-13T12:04:13Z</time>
      </trkpt>
      <trkpt lat="43.11441" lon="1.6196">
        <ele>297.4</ele>
        <time>2019-02-13T12:04:15Z</time>
      </trkpt>
      <trkpt lat="43.11437" lon="1.61947">
        <ele>297.3</ele>
        <time>2019-02-13T12:04:17Z</time>
      </trkpt>
      <trkpt lat="43.11434" lon="1.61933">
        <ele>297.2</ele>
        <time>2019-02-13T12:04:19Z</time>
      </trkpt>
      <trkpt lat="43.11432" lon="1.61917">
        <ele>297</ele>
        <time>2019-02-13T12:04:21Z</time>
      </trkpt>
      <trkpt lat="43.11434" lon="1.61901">
        <ele>296.7</ele>
        <time>2019-02-13T12:04:23Z</time>
      </trkpt>
      <trkpt lat="43.1144" lon="1.61885">
        <ele>296.5</ele>
        <time>2019-02-13T12:04:25Z</time>
      </trkpt>
      <trkpt lat="43.11451" lon="1.61874">
        <ele>296.3</ele>
        <time>2019-02-13T12:04:27Z</time>
      </trkpt>
      <trkpt lat="43.11463" lon="1.61862">
        <ele>296.1</ele>
        <time>2019-02-13T12:04:29Z</time>
      </trkpt>
      <trkpt lat="43.11475" lon="1.61851">
        <ele>296</ele>
        <time>2019-02-13T12:04:31Z</time>
      </trkpt>
      <trkpt lat="43.11486" lon="1.61838">
        <ele>295.9</ele>
        <time>2019-02-13T12:04:33Z</time>
      </trkpt>
      <trkpt lat="43.11493" lon="1.61821">
        <ele>295.8</ele>
        <time>2019-02-13T12:04:35Z</time>
      </trkpt>
      <trkpt lat="43.11499" lon="1.61802">
        <ele>295.6</ele>
        <time>2019-02-13T12:04:37Z</time>
      </trkpt>
      <trkpt lat="43.11505" lon="1.61783">
        <ele>295.5</ele>
        <time>2019-02-13T12:04:39Z</time>
      </trkpt>
      <trkpt lat="43.11511" lon="1.61762">
        <ele>295.4</ele>
        <time>2019-02-13T12:04:41Z</time>
      </trkpt>
      <trkpt lat="43.11516" lon="1.61741">
        <ele>295.1</ele>
        <time>2019-02-13T12:04:43Z</time>
      </trkpt>
      <trkpt lat="43.11522" lon="1.6172">
        <ele>294.9</ele>
        <time>2019-02-13T12:04:45Z</time>
      </trkpt>
      <trkpt lat="43.11527" lon="1.61698">
        <ele>294.7</ele>
        <time>2019-02-13T12:04:47Z</time>
      </trkpt>
      <trkpt lat="43.11533" lon="1.61677">
        <ele>294.5</ele>
        <time>2019-02-13T12:04:49Z</time>
      </trkpt>
      <trkpt lat="43.1154" lon="1.61656">
        <ele>294.2</ele>
        <time>2019-02-13T12:04:51Z</time>
      </trkpt>
      <trkpt lat="43.11546" lon="1.61635">
        <ele>293.9</ele>
        <time>2019-02-13T12:04:53Z</time>
      </trkpt>
      <trkpt lat="43.11551" lon="1.61614">
        <ele>293.6</ele>
        <time>2019-02-13T12:04:55Z</time>
      </trkpt>
      <trkpt lat="43.11556" lon="1.61594">
        <ele>293.3</ele>
        <time>2019-02-13T12:04:57Z</time>
      </trkpt>
      <trkpt lat="43.11559" lon="1.61575">
        <ele>292.9</ele>
        <time>2019-02-13T12:04:59Z</time>
      </trkpt>
      <trkpt lat="43.11559" lon="1.61556">
        <ele>292.5</ele>
        <time>2019-02-13T12:05:01Z</time>
      </trkpt>
      <trkpt lat="43.11559" lon="1.61539">
        <ele>292.1</ele>
        <time>2019-02-13T12:05:03Z</time>
      </trkpt>
      <trkpt lat="43.11557" lon="1.61525">
        <ele>291.5</ele>
        <time>2019-02-13T12:05:05Z</time>
      </trkpt>
      <trkpt lat="43.11557" lon="1.61513">
        <ele>290.7</ele>
        <time>2019-02-13T12:05:07Z</time>
      </trkpt>
      <trkpt lat="43.11556" lon="1.61498">
        <ele>290.4</ele>
        <time>2019-02-13T12:05:10Z</time>
      </trkpt>
      <trkpt lat="43.1156" lon="1.61484">
        <ele>290.1</ele>
        <time>2019-02-13T12:05:14Z</time>
      </trkpt>
      <trkpt lat="43.11556" lon="1.61467">
        <ele>289.4</ele>
        <time>2019-02-13T12:05:17Z</time>
      </trkpt>
      <trkpt lat="43.11556" lon="1.6145">
        <ele>288.5</ele>
        <time>2019-02-13T12:05:20Z</time>
      </trkpt>
      <trkpt lat="43.11555" lon="1.61435">
        <ele>286.5</ele>
        <time>2019-02-13T12:05:22Z</time>
      </trkpt>
      <trkpt lat="43.11552" lon="1.61422">
        <ele>283.4</ele>
        <time>2019-02-13T12:05:24Z</time>
      </trkpt>
      <trkpt lat="43.11551" lon="1.61406">
        <ele>278.2</ele>
        <time>2019-02-13T12:05:27Z</time>
      </trkpt>
      <trkpt lat="43.1155" lon="1.61393">
        <ele>274.5</ele>
        <time>2019-02-13T12:05:29Z</time>
      </trkpt>
      <trkpt lat="43.11548" lon="1.61378">
        <ele>271.4</ele>
        <time>2019-02-13T12:05:31Z</time>
      </trkpt>
      <trkpt lat="43.11544" lon="1.6136">
        <ele>267.2</ele>
        <time>2019-02-13T12:05:34Z</time>
      </trkpt>
      <trkpt lat="43.11542" lon="1.61346">
        <ele>264.8</ele>
        <time>2019-02-13T12:05:36Z</time>
      </trkpt>
      <trkpt lat="43.11541" lon="1.61333">
        <ele>262.6</ele>
        <time>2019-02-13T12:05:38Z</time>
      </trkpt>
      <trkpt lat="43.1154" lon="1.6132">
        <ele>260.6</ele>
        <time>2019-02-13T12:05:40Z</time>
      </trkpt>
      <trkpt lat="43.11539" lon="1.61307">
        <ele>258.7</ele>
        <time>2019-02-13T12:05:42Z</time>
      </trkpt>
      <trkpt lat="43.11537" lon="1.61294">
        <ele>257.5</ele>
        <time>2019-02-13T12:05:44Z</time>
      </trkpt>
      <trkpt lat="43.11536" lon="1.6128">
        <ele>256.1</ele>
        <time>2019-02-13T12:05:46Z</time>
      </trkpt>
      <trkpt lat="43.11537" lon="1.61267">
        <ele>255.2</ele>
        <time>2019-02-13T12:05:48Z</time>
      </trkpt>
      <trkpt lat="43.11537" lon="1.61254">
        <ele>254.8</ele>
        <time>2019-02-13T12:05:50Z</time>
      </trkpt>
      <trkpt lat="43.11537" lon="1.61238">
        <ele>254.7</ele>
        <time>2019-02-13T12:05:53Z</time>
      </trkpt>
      <trkpt lat="43.11539" lon="1.61222">
        <ele>254.3</ele>
        <time>2019-02-13T12:05:55Z</time>
      </trkpt>
      <trkpt lat="43.11545" lon="1.61207">
        <ele>254.2</ele>
        <time>2019-02-13T12:05:57Z</time>
      </trkpt>
      <trkpt lat="43.11553" lon="1.61196">
        <ele>254.4</ele>
        <time>2019-02-13T12:05:59Z</time>
      </trkpt>
      <trkpt lat="43.11559" lon="1.61181">
        <ele>254.7</ele>
        <time>2019-02-13T12:06:01Z</time>
      </trkpt>
      <trkpt lat="43.11564" lon="1.61168">
        <ele>254.7</ele>
        <time>2019-02-13T12:06:03Z</time>
      </trkpt>
      <trkpt lat="43.11569" lon="1.61152">
        <ele>255.2</ele>
        <time>2019-02-13T12:06:05Z</time>
      </trkpt>
      <trkpt lat="43.11575" lon="1.6114">
        <ele>256.2</ele>
        <time>2019-02-13T12:06:07Z</time>
      </trkpt>
      <trkpt lat="43.11585" lon="1.61124">
        <ele>257</ele>
        <time>2019-02-13T12:06:10Z</time>
      </trkpt>
      <trkpt lat="43.11595" lon="1.61114">
        <ele>257.2</ele>
        <time>2019-02-13T12:06:11Z</time>
      </trkpt>
      <trkpt lat="43.11602" lon="1.61099">
        <ele>257.5</ele>
        <time>2019-02-13T12:06:13Z</time>
      </trkpt>
      <trkpt lat="43.11611" lon="1.61095">
        <ele>258.8</ele>
        <time>2019-02-13T12:06:18Z</time>
      </trkpt>
      <trkpt lat="43.11619" lon="1.611">
        <ele>259.4</ele>
        <time>2019-02-13T12:06:20Z</time>
      </trkpt>
      <trkpt lat="43.11628" lon="1.61104">
        <ele>260.6</ele>
        <time>2019-02-13T12:06:24Z</time>
      </trkpt>
      <trkpt lat="43.11639" lon="1.61106">
        <ele>262.2</ele>
        <time>2019-02-13T12:06:29Z</time>
      </trkpt>
      <trkpt lat="43.11653" lon="1.61109">
        <ele>263</ele>
        <time>2019-02-13T12:06:32Z</time>
      </trkpt>
      <trkpt lat="43.11663" lon="1.61111">
        <ele>264</ele>
        <time>2019-02-13T12:06:35Z</time>
      </trkpt>
      <trkpt lat="43.11663" lon="1.61111">
        <ele>272.4</ele>
        <time>2019-02-13T12:07:56Z</time>
      </trkpt>
    </trkseg>
  </trk>
</gpx>